# Wetter Temperatur Luftdruck Luftfeuchtigkeit Sichtweite Windgeschwindigkeit Windrichtung Zeit
1 Clear 37 998 47 10000 4.6 150 07:55 14.07.2020
2 Clear 36 998 47 10000 4.6 150 07:36 14.07.2020
3 Clear 36 998 53 10000 4.1 120 07:18 14.07.2020
4 Clear 35 998 56 10000 4.6 90 06:31 14.07.2020
5 Clear 35 998 56 10000 4.6 90 05:58 14.07.2020
6 Clear 34 997 63 10000 3.6 90 04:55 14.07.2020
7 Clear 34 997 63 10000 3.6 90 04:35 14.07.2020
8 Clear 35 996 59 10000 3.6 90 03:34 14.07.2020
9 Clear 35 995 59 10000 3.1 100 02:31 14.07.2020
10 Clear 35 995 59 10000 4.1 110 01:45 14.07.2020
11 Clear 35 995 59 10000 4.1 110 01:24 14.07.2020
12 Clear 35 995 59 10000 5.1 130 00:46 14.07.2020
13 Clear 35 995 59 10000 5.1 130 00:27 14.07.2020
14 Clear 36 995 56 10000 5.7 110 23:40 13.07.2020
15 Clear 36 995 56 10000 5.7 110 23:20 13.07.2020
16 Clear 36 995 60 10000 5.7 130 22:58 13.07.2020
17 Clear 36 995 60 10000 5.7 130 22:39 13.07.2020
18 Clear 36 995 60 10000 5.7 130 22:20 13.07.2020
19 Clear 37 995 50 10000 6.2 130 21:55 13.07.2020
20 Clear 37 995 50 10000 6.2 130 21:37 13.07.2020
21 Clear 36 995 50 10000 6.2 130 21:19 13.07.2020
22 Clear 40 995 24 10000 6.2 150 20:55 13.07.2020
23 Clear 40 995 24 10000 6.2 150 20:37 13.07.2020
24 Clear 40 995 24 10000 6.2 150 20:19 13.07.2020
25 Clear 40 994 31 10000 4.6 130 19:42 13.07.2020
26 Clear 40 994 31 10000 4.6 130 19:24 13.07.2020
27 Clear 41 994 28 7000 3.6 150 18:57 13.07.2020
28 Clear 41 994 28 7000 3.6 150 18:38 13.07.2020
29 Clear 41 994 28 7000 3.6 150 18:20 13.07.2020
30 Clear 43 994 25 8000 6.7 150 17:56 13.07.2020
31 Clear 43 994 25 8000 6.7 150 17:56 13.07.2020
32 Clear 42 993 26 10000 2.6 60 17:37 13.07.2020
33 Clear 42 993 26 10000 2.6 60 17:18 13.07.2020
34 Clear 42 993 30 10000 3.1 50 16:43 13.07.2020
35 Clear 41 993 30 10000 3.1 50 16:21 13.07.2020
36 Clear 41 993 30 10000 3.1 50 16:21 13.07.2020
37 Clear 41 993 36 10000 5.1 60 15:59 13.07.2020
38 Clear 41 993 36 10000 5.1 60 15:40 13.07.2020
39 Clear 42 993 30 10000 4.6 350 15:20 13.07.2020
40 Clear 42 992 34 10000 6.7 340 14:58 13.07.2020
41 Clear 42 992 34 10000 6.7 340 14:39 13.07.2020
42 Clouds 41 992 34 10000 6.7 340 14:20 13.07.2020
43 Clouds 41 993 38 10000 7.7 330 13:55 13.07.2020
44 Clouds 41 993 38 10000 7.7 330 13:37 13.07.2020
45 Clouds 41 993 38 10000 7.7 330 13:19 13.07.2020
46 Clouds 43 993 36 10000 6.2 320 12:43 13.07.2020
47 Clouds 43 993 36 10000 6.2 320 12:22 13.07.2020
48 Clouds 43 994 36 9000 7.2 340 11:56 13.07.2020
49 Clouds 43 994 36 9000 7.2 340 11:36 13.07.2020
50 Clouds 44 994 36 9000 7.2 340 11:18 13.07.2020
51 Clouds 45 994 22 10000 5.1 230 10:38 13.07.2020
52 Clouds 45 994 22 10000 5.1 230 10:20 13.07.2020
53 Clouds 44 994 24 10000 6.2 190 09:43 13.07.2020
54 Clear 44 994 24 10000 6.2 190 09:24 13.07.2020
55 Clear 43 995 25 10000 5.7 170 08:53 13.07.2020
56 Clear 42 995 25 10000 5.7 170 08:34 13.07.2020
57 Clear 40 995 28 9000 4.6 170 07:42 13.07.2020
58 Clear 40 995 28 9000 4.6 170 07:19 13.07.2020
59 Clear 38 994 31 10000 3.1 150 06:42 13.07.2020
60 Clear 38 994 31 10000 3.1 150 06:22 13.07.2020
61 Clear 36 994 44 10000 2.6 180 04:37 13.07.2020
62 Clear 37 993 37 10000 2.1 150 01:57 13.07.2020
63 Clear 37 993 37 10000 2.1 150 01:28 13.07.2020
64 Clear 37 993 50 10000 3.6 120 00:58 13.07.2020
65 Clear 37 993 50 10000 3.6 120 00:26 13.07.2020
66 Clear 37 994 42 10000 2.1 80 23:58 12.07.2020
67 Clear 38 994 42 10000 2.1 80 23:39 12.07.2020
68 Clear 37 994 42 10000 2.1 80 23:21 12.07.2020
69 Clear 38 994 29 10000 2.6 60 22:39 12.07.2020
70 Clear 38 994 29 10000 2.6 60 22:21 12.07.2020
71 Clear 39 994 23 10000 2.6 40 21:59 12.07.2020
72 Clear 39 994 23 10000 2.6 40 21:40 12.07.2020
73 Clear 39 994 23 10000 2.6 40 21:20 12.07.2020
74 Clear 39 994 29 10000 2.6 30 20:58 12.07.2020
75 Clear 39 994 29 10000 2.6 30 20:58 12.07.2020
76 Clear 39 994 29 10000 2.6 30 20:39 12.07.2020
77 Clear 39 994 29 10000 2.6 30 20:20 12.07.2020
78 Clear 39 994 33 9000 3.6 40 19:55 12.07.2020
79 Clear 39 994 33 9000 3.6 40 19:36 12.07.2020
80 Clear 39 994 33 9000 3.6 40 19:18 12.07.2020
81 Clear 40 993 35 9000 2.1 360 18:42 12.07.2020
82 Clear 39 993 35 9000 2.1 360 18:19 12.07.2020
83 Clear 39 993 42 8000 4.1 10 17:57 12.07.2020
84 Clear 39 993 42 8000 4.1 10 17:36 12.07.2020
85 Clear 39 993 42 8000 4.1 10 17:18 12.07.2020
86 Clear 40 993 35 8000 3.1 20 16:42 12.07.2020
87 Clear 40 993 35 8000 3.1 20 16:20 12.07.2020
88 Clear 40 993 43 8000 5.1 20 15:43 12.07.2020
89 Clear 40 993 43 8000 5.1 20 15:24 12.07.2020
90 Clouds 40 993 40 8000 6.2 340 14:46 12.07.2020
91 Clouds 41 993 40 8000 6.2 340 14:27 12.07.2020
92 Clouds 41 993 43 8000 7.7 340 13:57 12.07.2020
93 Clouds 41 993 43 8000 7.7 340 13:39 12.07.2020
94 Clouds 41 993 48 8000 6.7 350 13:20 12.07.2020
95 Clouds 44 993 34 8000 6.7 330 12:54 12.07.2020
96 Clouds 44 993 34 8000 6.7 330 12:54 12.07.2020
97 Clouds 46 993 29 8000 3.1 0 12:36 12.07.2020
98 Clouds 46 993 29 8000 3.1 0 12:18 12.07.2020
99 Clouds 46 994 19 10000 3.1 190 11:42 12.07.2020
100 Clouds 46 994 19 10000 3.1 190 11:19 12.07.2020
101 Clouds 44 994 22 8000 5.1 190 10:42 12.07.2020
102 Clouds 43 994 22 8000 5.1 190 10:22 12.07.2020
103 Clouds 43 995 25 8000 5.7 170 09:54 12.07.2020
104 Clouds 43 995 25 8000 5.7 170 09:36 12.07.2020
105 Clouds 42 995 25 8000 5.7 170 09:18 12.07.2020
106 Clouds 40 995 30 8000 2.6 150 08:41 12.07.2020
107 Clouds 40 995 30 8000 2.6 150 08:22 12.07.2020
108 Clouds 39 995 29 10000 2.1 170 07:56 12.07.2020
109 Clouds 38 995 29 10000 2.1 170 07:36 12.07.2020
110 Clouds 37 995 29 10000 2.1 170 07:18 12.07.2020
111 Clouds 36 995 37 10000 0.5 0 06:48 12.07.2020
112 Clouds 35 995 37 10000 0.5 0 06:19 12.07.2020
113 Clouds 32 995 63 6000 2.6 150 05:22 12.07.2020
114 Haze 32 995 70 5000 3.6 140 04:29 12.07.2020
115 Clouds 31 994 70 7000 1.5 100 03:53 12.07.2020
116 Clouds 33 994 70 7000 1.5 100 03:31 12.07.2020
117 Clouds 33 994 70 7000 1.5 100 03:31 12.07.2020
118 Clouds 34 993 59 9000 2.1 0 02:45 12.07.2020
119 Clouds 33 994 63 9000 2.6 330 01:36 12.07.2020
120 Clouds 35 994 53 10000 2.1 340 00:41 12.07.2020
121 Clouds 35 994 53 10000 2.1 340 00:22 12.07.2020
122 Clouds 35 994 53 10000 1.5 220 23:55 11.07.2020
123 Clouds 35 994 53 10000 1.5 220 23:37 11.07.2020
124 Clouds 35 994 53 10000 1.5 220 23:18 11.07.2020
125 Clouds 35 994 50 10000 1 0 22:44 11.07.2020
126 Clouds 35 994 50 10000 1 0 22:25 11.07.2020
127 Clouds 35 995 53 10000 2.6 0 21:57 11.07.2020
128 Clouds 35 995 53 10000 2.6 0 21:38 11.07.2020
129 Clouds 34 995 53 10000 2.6 0 21:20 11.07.2020
130 Clouds 35 995 44 10000 2.1 360 20:55 11.07.2020
131 Clouds 35 995 44 10000 2.1 360 20:37 11.07.2020
132 Clouds 36 995 44 10000 2.1 360 20:18 11.07.2020
133 Clouds 36 994 50 10000 1.5 320 19:50 11.07.2020
134 Clouds 36 994 50 10000 1.5 320 19:31 11.07.2020
135 Clouds 36 994 53 10000 3.1 330 18:58 11.07.2020
136 Clouds 36 994 53 10000 3.1 330 18:40 11.07.2020
137 Clouds 36 994 53 10000 3.1 330 18:22 11.07.2020
138 Clouds 37 994 42 10000 2.6 320 17:59 11.07.2020
139 Clouds 37 994 42 10000 2.6 320 17:39 11.07.2020
140 Clouds 37 994 42 10000 2.6 320 17:19 11.07.2020
141 Clouds 37 994 47 10000 5.7 350 16:56 11.07.2020
142 Clouds 37 994 47 10000 5.7 350 16:38 11.07.2020
143 Clouds 37 994 47 10000 5.7 350 16:18 11.07.2020
144 Clouds 39 994 42 10000 8.7 320 15:42 11.07.2020
145 Clouds 39 994 42 10000 8.7 320 15:42 11.07.2020
146 Clouds 39 994 42 10000 8.7 320 15:21 11.07.2020
147 Clouds 41 994 26 10000 7.2 320 14:58 11.07.2020
148 Clouds 41 994 26 10000 7.2 320 14:39 11.07.2020
149 Clouds 41 994 26 10000 7.2 320 14:21 11.07.2020
150 Clouds 41 994 38 10000 6.2 340 13:44 11.07.2020
151 Clouds 41 994 38 10000 6.2 340 13:22 11.07.2020
152 Clouds 44 994 15 10000 6.2 330 12:59 11.07.2020
153 Clouds 44 994 15 10000 6.2 330 12:41 11.07.2020
154 Clouds 44 994 15 10000 6.2 330 12:22 11.07.2020
155 Clouds 44 995 18 10000 5.7 320 11:57 11.07.2020
156 Clouds 44 995 18 10000 5.7 320 11:39 11.07.2020
157 Clouds 44 995 18 10000 5.7 320 11:19 11.07.2020
158 Clouds 45 995 15 10000 4.6 340 10:44 11.07.2020
159 Clouds 45 995 15 10000 4.6 340 10:25 11.07.2020
160 Clouds 44 996 9 10000 1.5 0 09:45 11.07.2020
161 Clear 43 996 9 10000 1.5 0 09:21 11.07.2020
162 Clear 42 996 13 10000 2.1 120 08:59 11.07.2020
163 Clear 42 996 13 10000 2.1 120 08:37 11.07.2020
164 Clear 41 996 13 10000 2.1 120 08:19 11.07.2020
165 Clear 38 996 18 10000 2.1 150 07:42 11.07.2020
166 Clear 37 996 18 10000 2.1 150 07:23 11.07.2020
167 Clear 37 996 22 10000 2.1 100 06:56 11.07.2020
168 Clear 36 996 22 10000 2.1 100 06:22 11.07.2020
169 Clear 35 996 30 10000 1 0 05:22 11.07.2020
170 Clear 34 996 34 10000 1.5 140 04:55 11.07.2020
171 Clear 34 996 34 10000 1.5 140 04:32 11.07.2020
172 Clear 35 995 39 10000 2.1 160 03:24 11.07.2020
173 Clear 35 995 37 10000 2.1 120 02:38 11.07.2020
174 Clear 35 995 39 10000 2.1 110 01:49 11.07.2020
175 Clear 34 995 39 10000 2.1 110 01:18 11.07.2020
176 Clear 34 995 29 10000 2.1 50 00:41 11.07.2020
177 Clear 35 995 29 10000 2.1 50 00:22 11.07.2020
178 Clear 35 995 32 10000 1 0 23:57 10.07.2020
179 Clear 35 995 32 10000 1 0 23:39 10.07.2020
180 Clear 34 995 32 10000 1 0 23:19 10.07.2020
181 Clear 36 996 25 10000 1.5 340 22:46 10.07.2020
182 Clear 35 996 42 10000 1 0 22:21 10.07.2020
183 Clear 35 996 42 10000 1 0 21:58 10.07.2020
184 Clear 35 996 42 10000 1 0 21:37 10.07.2020
185 Clear 35 996 42 10000 1 0 21:18 10.07.2020
186 Clear 37 996 31 10000 1.5 340 20:43 10.07.2020
187 Clear 37 996 31 10000 1.5 340 20:23 10.07.2020
188 Clear 37 996 33 10000 1.5 330 19:58 10.07.2020
189 Clear 37 996 33 10000 1.5 330 19:40 10.07.2020
190 Clear 37 996 33 10000 1.5 330 19:21 10.07.2020
191 Clear 37 995 42 10000 2.6 340 18:42 10.07.2020
192 Clear 37 995 42 10000 2.6 340 18:22 10.07.2020
193 Clear 38 995 39 10000 4.6 330 17:59 10.07.2020
194 Clear 38 995 39 10000 4.6 330 17:40 10.07.2020
195 Clear 38 995 39 10000 4.6 330 17:21 10.07.2020
196 Clear 40 995 31 10000 5.1 330 16:44 10.07.2020
197 Clear 40 995 31 10000 5.1 330 16:21 10.07.2020
198 Clear 41 995 26 10000 6.2 320 15:55 10.07.2020
199 Clear 41 995 26 10000 6.2 320 15:37 10.07.2020
200 Clear 42 995 26 10000 6.2 320 15:18 10.07.2020
201 Clear 43 995 17 10000 6.2 320 14:41 10.07.2020
202 Clouds 43 995 17 10000 6.2 320 14:21 10.07.2020
203 Clouds 43 995 17 10000 6.2 320 13:58 10.07.2020
204 Clouds 43 995 17 10000 6.2 320 13:39 10.07.2020
205 Clouds 43 995 17 10000 6.2 320 13:21 10.07.2020
206 Clouds 44 996 15 10000 5.1 280 12:57 10.07.2020
207 Clouds 44 996 15 10000 5.1 280 12:37 10.07.2020
208 Clouds 44 996 15 10000 5.1 280 12:19 10.07.2020
209 Clouds 44 996 18 10000 4.1 290 11:42 10.07.2020
210 Clear 44 996 18 10000 4.1 290 11:21 10.07.2020
211 Clear 44 997 16 10000 2.1 240 10:58 10.07.2020
212 Clear 44 997 16 10000 2.1 240 10:39 10.07.2020
213 Clear 42 997 19 10000 2.1 0 10:20 10.07.2020
214 Clear 42 997 19 10000 2.1 0 09:41 10.07.2020
215 Clear 41 997 19 10000 2.1 0 09:23 10.07.2020
216 Clear 40 997 23 10000 2.1 200 08:59 10.07.2020
217 Clear 39 997 23 10000 2.1 200 08:41 10.07.2020
218 Clouds 39 997 23 10000 2.1 200 08:22 10.07.2020
219 Clouds 38 998 31 10000 2.1 210 07:45 10.07.2020
220 Clouds 37 998 31 10000 2.1 210 07:23 10.07.2020
221 Clouds 35 997 32 10000 2.1 190 06:54 10.07.2020
222 Clouds 35 997 32 10000 2.1 190 06:36 10.07.2020
223 Clouds 34 996 50 9000 3.1 140 05:27 10.07.2020
224 Clouds 34 995 53 10000 1.5 230 03:44 10.07.2020
225 Clouds 34 995 53 10000 1 0 02:53 10.07.2020
226 Clouds 35 995 56 9000 1 0 01:57 10.07.2020
227 Clouds 35 995 53 10000 2.6 170 00:54 10.07.2020
228 Clouds 35 995 53 10000 2.6 170 00:22 10.07.2020
229 Clouds 35 995 50 10000 3.1 170 23:55 09.07.2020
230 Clouds 35 995 50 10000 3.1 170 23:37 09.07.2020
231 Clouds 35 995 50 10000 3.1 170 23:18 09.07.2020
232 Clouds 35 996 50 10000 2.6 50 22:56 09.07.2020
233 Clouds 35 996 50 10000 2.6 50 22:38 09.07.2020
234 Clouds 35 996 50 10000 2.6 50 22:19 09.07.2020
235 Clouds 36 997 42 10000 3.6 40 21:39 09.07.2020
236 Clear 36 997 42 10000 3.6 40 21:20 09.07.2020
237 Clear 36 996 44 10000 2.6 20 20:59 09.07.2020
238 Clear 36 996 44 10000 2.6 20 20:39 09.07.2020
239 Clouds 37 996 44 10000 2.6 20 20:21 09.07.2020
240 Clouds 37 996 50 10000 2.1 350 19:43 09.07.2020
241 Clouds 35 996 67 8000 4.6 350 19:22 09.07.2020
242 Clouds 36 996 50 10000 2.1 350 19:22 09.07.2020
243 Clouds 35 996 67 8000 4.6 350 18:56 09.07.2020
244 Clouds 35 996 67 8000 4.6 350 18:38 09.07.2020
245 Clouds 36 996 67 8000 4.6 350 18:18 09.07.2020
246 Clouds 37 995 53 7000 4.1 340 17:43 09.07.2020
247 Clouds 37 995 53 7000 4.1 340 17:22 09.07.2020
248 Clouds 38 995 50 6000 6.2 330 16:56 09.07.2020
249 Clouds 38 995 50 6000 6.2 330 16:38 09.07.2020
250 Clouds 38 995 50 6000 6.2 330 16:19 09.07.2020
251 Clouds 39 995 40 7000 7.7 320 15:57 09.07.2020
252 Clouds 39 995 40 7000 7.7 320 15:37 09.07.2020
253 Clouds 39 995 40 7000 7.7 320 15:18 09.07.2020
254 Clouds 41 995 28 6000 7.7 320 14:57 09.07.2020
255 Clear 41 995 28 6000 7.7 320 14:39 09.07.2020
256 Clouds 41 995 28 6000 7.7 320 14:39 09.07.2020
257 Clouds 41 995 28 6000 7.7 320 14:20 09.07.2020
258 Dust 41 996 32 5000 7.2 330 13:56 09.07.2020
259 Dust 41 996 32 5000 7.2 330 13:38 09.07.2020
260 Dust 41 996 32 5000 7.2 330 13:18 09.07.2020
261 Dust 42 996 30 5000 4.6 330 12:41 09.07.2020
262 Dust 42 996 30 5000 4.6 330 12:23 09.07.2020
263 Clouds 43 997 30 6000 2.6 350 11:57 09.07.2020
264 Clouds 43 997 30 6000 2.6 350 11:38 09.07.2020
265 Clouds 43 997 30 6000 2.6 350 11:18 09.07.2020
266 Clouds 42 997 25 7000 3.1 270 10:55 09.07.2020
267 Clouds 42 997 25 7000 3.1 270 10:37 09.07.2020
268 Clouds 42 997 25 7000 3.1 270 10:37 09.07.2020
269 Clouds 41 997 25 7000 3.1 270 10:19 09.07.2020
270 Clouds 40 998 26 6000 3.6 220 09:42 09.07.2020
271 Clouds 40 998 26 6000 3.6 220 09:22 09.07.2020
272 Dust 39 998 29 5000 3.6 190 08:49 09.07.2020
273 Dust 39 998 29 5000 3.6 190 08:26 09.07.2020
274 Dust 38 998 33 4500 4.1 190 07:50 09.07.2020
275 Dust 37 998 33 4500 4.1 190 07:30 09.07.2020
276 Dust 37 998 35 4500 3.6 210 06:58 09.07.2020
277 Dust 36 998 35 4500 3.6 210 06:20 09.07.2020
278 Clouds 35 998 37 6000 2.6 150 05:47 09.07.2020
279 Clouds 34 997 37 7000 3.1 130 04:28 09.07.2020
280 Clouds 35 997 36 10000 3.1 110 02:45 09.07.2020
281 Clouds 35 996 36 10000 3.1 110 01:54 09.07.2020
282 Clouds 35 996 34 10000 2.1 110 00:56 09.07.2020
283 Clouds 35 996 34 10000 2.1 110 00:37 09.07.2020
284 Clouds 36 996 34 10000 2.1 110 00:18 09.07.2020
285 Clouds 36 997 32 10000 2.6 80 23:43 08.07.2020
286 Clouds 36 997 32 10000 2.6 80 23:24 08.07.2020
287 Clouds 36 997 41 10000 3.1 90 22:55 08.07.2020
288 Clouds 36 997 41 10000 3.1 90 22:36 08.07.2020
289 Clouds 36 997 41 10000 3.1 90 22:18 08.07.2020
290 Clouds 37 997 35 10000 5.7 90 21:39 08.07.2020
291 Clouds 36 997 35 10000 5.7 90 21:21 08.07.2020
292 Clouds 38 997 22 10000 7.2 90 20:58 08.07.2020
293 Clouds 38 997 22 10000 7.2 90 20:58 08.07.2020
294 Clouds 38 997 22 10000 7.2 90 20:40 08.07.2020
295 Clouds 38 997 22 10000 7.2 90 20:22 08.07.2020
296 Clouds 39 997 28 10000 4.1 50 19:43 08.07.2020
297 Clear 40 997 28 10000 4.1 50 19:25 08.07.2020
298 Clear 40 996 29 10000 4.6 20 18:58 08.07.2020
299 Clear 40 996 29 10000 4.6 20 18:40 08.07.2020
300 Clear 40 996 29 10000 4.6 20 18:21 08.07.2020
301 Clear 40 996 31 10000 6.2 10 17:56 08.07.2020
302 Clear 40 996 31 10000 6.2 10 17:38 08.07.2020
303 Clear 41 996 31 10000 6.2 10 17:20 08.07.2020
304 Clear 42 995 32 10000 5.7 10 16:55 08.07.2020
305 Clear 42 995 32 10000 5.7 10 16:36 08.07.2020
306 Clear 42 995 32 10000 5.7 10 16:18 08.07.2020
307 Clear 43 994 30 10000 6.7 20 15:56 08.07.2020
308 Clear 43 994 30 10000 6.7 20 15:37 08.07.2020
309 Clear 43 994 30 10000 6.7 20 15:18 08.07.2020
310 Clear 43 995 34 10000 6.2 10 14:42 08.07.2020
311 Clear 43 995 34 10000 6.2 10 14:20 08.07.2020
312 Clear 41 995 41 10000 5.1 350 13:45 08.07.2020
313 Clear 41 995 41 10000 5.1 350 13:27 08.07.2020
314 Clear 42 996 51 10000 7.2 330 12:58 08.07.2020
315 Clear 42 996 51 10000 7.2 330 12:38 08.07.2020
316 Clear 42 996 51 10000 7.2 330 12:19 08.07.2020
317 Clear 42 996 43 10000 6.2 310 11:39 08.07.2020
318 Clear 42 996 43 10000 6.2 310 11:20 08.07.2020
319 Clear 43 997 23 10000 3.6 100 10:56 08.07.2020
320 Clear 43 997 23 10000 3.6 100 10:56 08.07.2020
321 Clear 43 997 23 10000 3.6 100 10:38 08.07.2020
322 Clear 42 997 23 10000 3.6 100 10:19 08.07.2020
323 Clear 42 997 26 10000 5.1 100 09:41 08.07.2020
324 Clear 41 997 26 10000 5.1 100 09:23 08.07.2020
325 Clear 40 997 28 10000 5.7 110 08:43 08.07.2020
326 Clear 39 997 28 10000 5.7 110 08:24 08.07.2020
327 Clear 39 997 31 10000 4.6 80 07:48 08.07.2020
328 Clear 37 997 31 10000 4.6 80 07:24 08.07.2020
329 Clear 36 997 44 10000 5.1 70 06:56 08.07.2020
330 Clear 35 997 44 10000 5.1 70 06:37 08.07.2020
331 Clear 34 997 56 10000 4.1 70 05:55 08.07.2020
332 Clear 34 997 56 10000 4.1 70 05:33 08.07.2020
333 Clear 34 996 56 10000 4.1 70 04:37 08.07.2020
334 Clear 35 995 53 10000 2.1 80 02:49 08.07.2020
335 Clear 35 995 56 10000 1.5 30 01:54 08.07.2020
336 Clear 35 995 56 10000 1.5 30 01:32 08.07.2020
337 Clear 35 995 59 10000 1.5 40 00:28 08.07.2020
338 Clear 35 996 63 10000 2.1 330 23:59 07.07.2020
339 Clear 35 996 63 10000 2.1 330 23:41 07.07.2020
340 Clear 35 996 63 10000 2.1 330 23:19 07.07.2020
341 Clear 35 997 56 10000 1 0 22:44 07.07.2020
342 Clear 35 997 56 10000 1 0 22:24 07.07.2020
343 Clear 35 997 53 10000 1.5 320 21:59 07.07.2020
344 Clear 35 997 53 10000 1.5 320 21:40 07.07.2020
345 Clear 35 997 53 10000 1.5 320 21:21 07.07.2020
346 Clear 35 997 53 10000 3.1 320 20:57 07.07.2020
347 Clear 35 997 53 10000 3.1 320 20:39 07.07.2020
348 Clouds 35 997 53 10000 3.1 320 20:21 07.07.2020
349 Clouds 35 996 59 10000 2.6 330 19:42 07.07.2020
350 Clouds 35 996 59 10000 2.6 330 19:21 07.07.2020
351 Clouds 35 995 67 10000 4.1 340 18:59 07.07.2020
352 Clouds 35 995 67 10000 4.1 340 18:40 07.07.2020
353 Clouds 35 995 67 10000 4.1 340 18:22 07.07.2020
354 Clouds 36 995 63 10000 6.2 330 17:58 07.07.2020
355 Clouds 36 995 63 10000 6.2 330 17:39 07.07.2020
356 Clouds 37 995 63 10000 6.2 330 17:21 07.07.2020
357 Clouds 38 994 45 10000 5.7 340 16:58 07.07.2020
358 Clouds 38 994 45 10000 5.7 340 16:38 07.07.2020
359 Clouds 38 994 45 10000 5.7 340 16:20 07.07.2020
360 Clouds 38 994 45 10000 4.6 340 15:42 07.07.2020
361 Clouds 38 994 45 10000 4.6 340 15:21 07.07.2020
362 Clouds 38 994 47 10000 5.7 340 14:47 07.07.2020
363 Clear 38 994 47 10000 5.7 340 14:27 07.07.2020
364 Clear 38 994 53 10000 7.2 350 13:59 07.07.2020
365 Clear 38 994 53 10000 7.2 350 13:38 07.07.2020
366 Clear 38 994 53 10000 7.2 350 13:18 07.07.2020
367 Clear 38 995 50 10000 5.7 350 12:41 07.07.2020
368 Clear 38 995 50 10000 5.7 350 12:22 07.07.2020
369 Clear 40 995 53 10000 7.2 340 11:56 07.07.2020
370 Clear 43 995 14 10000 2.1 0 11:38 07.07.2020
371 Clear 43 995 14 10000 2.1 0 11:20 07.07.2020
372 Clear 42 995 17 10000 1.5 0 10:55 07.07.2020
373 Clear 42 995 17 10000 1.5 0 10:37 07.07.2020
374 Clear 41 995 17 10000 1.5 0 10:18 07.07.2020
375 Clear 39 996 27 10000 3.6 50 09:38 07.07.2020
376 Clear 38 996 27 10000 3.6 50 09:20 07.07.2020
377 Clear 37 996 32 10000 2.1 0 08:42 07.07.2020
378 Clouds 36 996 32 10000 2.1 0 08:23 07.07.2020
379 Clouds 35 996 30 10000 2.6 70 07:45 07.07.2020
380 Clouds 34 996 30 10000 2.6 70 07:23 07.07.2020
381 Clouds 33 995 41 10000 1 0 06:49 07.07.2020
382 Clouds 33 995 41 10000 1 0 06:30 07.07.2020
383 Clouds 32 995 36 10000 1.5 180 05:54 07.07.2020
384 Clouds 32 995 36 10000 1.5 180 05:23 07.07.2020
385 Clouds 32 994 31 10000 1.5 160 04:40 07.07.2020
386 Clouds 32 994 31 10000 1.5 90 03:40 07.07.2020
387 Clouds 33 994 38 10000 1 200 02:27 07.07.2020
388 Clear 34 994 46 10000 2.1 210 01:25 07.07.2020
389 Clear 34 994 46 10000 2.1 210 00:44 07.07.2020
390 Clear 34 994 46 10000 2.1 210 00:24 07.07.2020
391 Clear 35 994 41 10000 2.1 230 23:59 06.07.2020
392 Clear 35 994 41 10000 2.1 230 23:40 06.07.2020
393 Clear 34 994 41 10000 2.1 230 23:22 06.07.2020
394 Clear 35 994 30 10000 1.5 190 22:41 06.07.2020
395 Clear 35 994 30 10000 1.5 190 22:20 06.07.2020
396 Clear 35 995 35 10000 1.5 40 21:58 06.07.2020
397 Clear 35 995 35 10000 1.5 40 21:39 06.07.2020
398 Clear 35 995 35 10000 1.5 40 21:19 06.07.2020
399 Clear 36 995 32 10000 1.5 350 20:59 06.07.2020
400 Clear 36 995 32 10000 1.5 350 20:39 06.07.2020
401 Clear 36 995 32 10000 1.5 350 20:20 06.07.2020
402 Clear 37 994 42 10000 3.1 350 19:57 06.07.2020
403 Clear 37 994 42 10000 3.1 350 19:39 06.07.2020
404 Clear 37 994 42 10000 3.1 350 19:20 06.07.2020
405 Clear 37 993 35 10000 1.5 220 18:55 06.07.2020
406 Clear 37 993 35 10000 1.5 220 18:36 06.07.2020
407 Clear 37 993 35 10000 1.5 220 18:18 06.07.2020
408 Clear 40 993 20 10000 2.6 280 17:41 06.07.2020
409 Clear 40 993 20 10000 2.6 280 17:23 06.07.2020
410 Clear 42 992 15 10000 4.1 310 16:55 06.07.2020
411 Clear 42 992 15 10000 4.1 310 16:37 06.07.2020
412 Clear 42 992 15 10000 4.1 310 16:18 06.07.2020
413 Clear 42 992 15 10000 5.1 320 15:42 06.07.2020
414 Clear 42 992 15 10000 5.1 320 15:24 06.07.2020
415 Clear 42 992 19 10000 6.2 320 14:57 06.07.2020
416 Clear 42 992 19 10000 6.2 320 14:37 06.07.2020
417 Clouds 42 992 19 10000 6.2 320 14:19 06.07.2020
418 Clouds 42 993 28 10000 5.7 330 13:48 06.07.2020
419 Clouds 42 993 28 10000 5.7 330 13:28 06.07.2020
420 Clouds 41 993 32 10000 3.6 310 12:58 06.07.2020
421 Clouds 41 993 32 10000 3.6 310 12:39 06.07.2020
422 Clouds 41 993 32 10000 3.6 310 12:18 06.07.2020
423 Clouds 40 993 45 10000 5.7 320 11:57 06.07.2020
424 Clouds 40 993 45 10000 5.7 320 11:37 06.07.2020
425 Clouds 40 993 45 10000 5.7 320 11:19 06.07.2020
426 Clouds 41 994 43 10000 4.1 340 10:42 06.07.2020
427 Clouds 41 994 43 10000 4.1 340 10:21 06.07.2020
428 Clouds 41 994 18 10000 1 0 09:57 06.07.2020
429 Clouds 41 994 18 10000 1 0 09:39 06.07.2020
430 Clouds 39 994 18 10000 1 0 09:21 06.07.2020
431 Clouds 38 994 20 10000 1 0 08:42 06.07.2020
432 Clear 37 994 20 10000 1 0 08:24 06.07.2020
433 Clear 36 994 25 10000 1 0 07:58 06.07.2020
434 Clear 36 994 25 10000 1 0 07:40 06.07.2020
435 Clear 35 994 25 10000 1 0 07:21 06.07.2020
436 Clear 33 994 30 10000 2.6 230 06:39 06.07.2020
437 Clear 33 994 30 10000 2.6 230 06:19 06.07.2020
438 Clear 32 993 36 10000 2.1 230 05:29 06.07.2020
439 Clear 30 993 52 10000 1.5 230 04:48 06.07.2020
440 Clear 32 992 52 10000 1.5 190 02:58 06.07.2020
441 Clouds 33 992 52 10000 1.5 190 02:19 06.07.2020
442 Clouds 34 992 52 10000 2.1 200 00:59 06.07.2020
443 Clouds 34 992 52 10000 2.1 200 00:32 06.07.2020
444 Clouds 34 993 52 10000 2.6 200 23:59 05.07.2020
445 Clouds 34 993 52 10000 2.6 200 23:40 05.07.2020
446 Clouds 34 993 52 10000 2.6 200 23:22 05.07.2020
447 Clouds 34 993 63 10000 2.1 220 22:58 05.07.2020
448 Clouds 34 993 63 10000 2.1 220 22:38 05.07.2020
449 Clouds 34 993 63 10000 2.1 220 22:19 05.07.2020
450 Clouds 35 993 56 10000 2.1 210 21:56 05.07.2020
451 Clouds 35 993 56 10000 2.1 210 21:37 05.07.2020
452 Clouds 35 993 56 10000 2.1 210 21:18 05.07.2020
453 Clouds 35 993 53 10000 2.1 240 20:55 05.07.2020
454 Clouds 35 993 53 10000 2.1 240 20:37 05.07.2020
455 Clouds 35 993 53 10000 2.1 240 20:19 05.07.2020
456 Clouds 35 993 50 10000 2.1 250 19:41 05.07.2020
457 Clouds 35 993 50 10000 2.1 250 19:21 05.07.2020
458 Clouds 36 992 50 10000 2.6 270 18:55 05.07.2020
459 Clouds 36 992 50 10000 2.6 270 18:37 05.07.2020
460 Clouds 36 992 50 10000 2.6 270 18:18 05.07.2020
461 Clouds 37 992 47 10000 3.6 280 17:42 05.07.2020
462 Clouds 37 992 47 10000 3.6 280 17:19 05.07.2020
463 Clouds 37 991 53 10000 5.7 270 16:46 05.07.2020
464 Clouds 37 991 53 10000 5.7 270 16:26 05.07.2020
465 Clouds 38 992 47 10000 5.7 290 15:59 05.07.2020
466 Clouds 38 992 47 10000 5.7 290 15:40 05.07.2020
467 Clouds 38 992 47 10000 5.7 290 15:20 05.07.2020
468 Clouds 39 992 42 10000 6.7 280 14:43 05.07.2020
469 Clouds 39 992 42 10000 6.7 280 14:23 05.07.2020
470 Clouds 39 992 45 10000 5.7 270 13:59 05.07.2020
471 Clouds 39 992 45 10000 5.7 270 13:40 05.07.2020
472 Clear 39 992 45 10000 5.7 270 13:20 05.07.2020
473 Clear 41 992 43 10000 5.7 280 12:44 05.07.2020
474 Clear 41 992 43 10000 5.7 280 12:20 05.07.2020
475 Clear 40 993 45 10000 5.7 280 11:55 05.07.2020
476 Clear 40 993 45 10000 5.7 280 11:37 05.07.2020
477 Clear 40 993 45 10000 5.7 280 11:18 05.07.2020
478 Clear 41 993 38 10000 4.6 300 10:54 05.07.2020
479 Clear 40 993 38 10000 4.6 300 10:36 05.07.2020
480 Clear 39 993 38 10000 4.6 300 10:18 05.07.2020
481 Clear 38 993 50 10000 2.1 0 09:41 05.07.2020
482 Clear 37 993 50 10000 2.1 0 09:20 05.07.2020
483 Clear 37 994 50 10000 3.6 240 08:56 05.07.2020
484 Clear 37 994 50 10000 3.6 240 08:37 05.07.2020
485 Clouds 34 993 67 8000 4.1 210 07:59 05.07.2020
486 Clouds 33 993 67 8000 4.1 210 07:33 05.07.2020
487 Clouds 32 993 79 6000 4.1 210 06:58 05.07.2020
488 Clouds 32 993 79 6000 4.1 210 06:29 05.07.2020
489 Clouds 32 992 84 8000 3.1 200 03:57 05.07.2020
490 Clouds 33 992 79 9000 3.1 200 02:59 05.07.2020
491 Clouds 33 992 79 9000 3.1 200 02:36 05.07.2020
492 Clouds 34 992 67 10000 2.1 210 01:43 05.07.2020
493 Clouds 34 992 67 10000 2.1 210 01:22 05.07.2020
494 Clouds 34 993 71 10000 2.6 210 00:50 05.07.2020
495 Clouds 34 993 71 10000 2.6 210 00:28 05.07.2020
496 Clouds 34 993 67 10000 2.1 230 23:56 04.07.2020
497 Clouds 34 993 67 10000 2.1 230 23:32 04.07.2020
498 Clouds 35 994 59 10000 2.1 210 22:59 04.07.2020
499 Clouds 35 994 59 10000 2.1 210 22:40 04.07.2020
500 Clouds 35 994 59 10000 2.1 210 22:22 04.07.2020
501 Clouds 35 994 53 10000 2.1 220 21:58 04.07.2020
502 Clouds 35 994 53 10000 2.1 220 21:40 04.07.2020
503 Clear 35 994 53 10000 2.1 220 21:21 04.07.2020
504 Clouds 36 994 44 10000 2.6 250 20:42 04.07.2020
505 Clouds 37 994 50 10000 1 0 20:21 04.07.2020
506 Clouds 37 994 50 10000 1 0 19:56 04.07.2020
507 Clouds 37 994 50 10000 1 0 19:38 04.07.2020
508 Clouds 37 993 50 10000 4.1 320 19:20 04.07.2020
509 Clouds 37 993 50 10000 4.1 320 18:43 04.07.2020
510 Clouds 37 993 50 10000 4.1 320 18:22 04.07.2020
511 Clouds 38 993 45 10000 4.1 330 17:46 04.07.2020
512 Clouds 38 993 45 10000 4.1 330 17:28 04.07.2020
513 Clouds 38 993 57 10000 4.6 320 16:59 04.07.2020
514 Clouds 38 993 57 10000 4.6 320 16:39 04.07.2020
515 Clouds 38 993 57 10000 4.6 320 16:39 04.07.2020
516 Clouds 37 993 57 10000 4.6 320 16:21 04.07.2020
517 Clouds 38 993 53 10000 6.2 330 15:58 04.07.2020
518 Clouds 38 993 53 10000 6.2 330 15:40 04.07.2020
519 Clouds 38 993 53 10000 6.2 330 15:21 04.07.2020
520 Clouds 38 994 57 10000 5.7 320 14:56 04.07.2020
521 Clouds 38 994 57 10000 5.7 320 14:36 04.07.2020
522 Clouds 38 994 57 10000 5.7 320 14:18 04.07.2020
523 Clouds 38 994 57 10000 6.7 320 13:41 04.07.2020
524 Clear 38 994 57 10000 6.7 320 13:19 04.07.2020
525 Clear 39 995 51 10000 5.7 320 12:55 04.07.2020
526 Clear 39 995 51 10000 5.7 320 12:37 04.07.2020
527 Clear 39 995 51 10000 5.7 320 12:18 04.07.2020
528 Clear 40 995 43 10000 5.1 310 11:42 04.07.2020
529 Clear 40 995 43 10000 5.1 310 11:22 04.07.2020
530 Clear 41 996 36 10000 3.1 270 10:55 04.07.2020
531 Clear 41 996 36 10000 3.1 270 10:36 04.07.2020
532 Clear 40 996 36 10000 3.1 270 10:18 04.07.2020
533 Clear 40 997 38 10000 4.6 250 09:40 04.07.2020
534 Clouds 40 997 38 10000 4.6 250 09:21 04.07.2020
535 Clouds 39 996 42 10000 4.1 230 08:51 04.07.2020
536 Clear 38 996 42 10000 4.1 230 08:32 04.07.2020
537 Clear 37 997 44 10000 4.6 210 07:56 04.07.2020
538 Clear 37 997 44 10000 4.6 210 07:38 04.07.2020
539 Clear 35 997 47 10000 2.6 220 06:57 04.07.2020
540 Clear 34 997 47 10000 2.6 220 06:23 04.07.2020
541 Clear 33 996 55 10000 3.1 200 05:41 04.07.2020
542 Clear 33 996 55 10000 3.1 200 05:19 04.07.2020
543 Clouds 33 996 63 10000 2.6 210 03:47 04.07.2020
544 Clouds 34 996 63 10000 3.1 200 02:39 04.07.2020
545 Clouds 34 996 63 10000 3.1 220 01:39 04.07.2020
546 Clouds 35 996 56 10000 3.6 190 00:47 04.07.2020
547 Clouds 35 996 56 10000 3.6 190 00:29 04.07.2020
548 Clouds 35 996 59 10000 2.1 230 23:54 03.07.2020
549 Clouds 35 996 59 10000 2.1 230 23:36 03.07.2020
550 Clear 35 996 59 10000 2.1 230 23:36 03.07.2020
551 Clouds 35 996 59 10000 2.1 230 23:36 03.07.2020
552 Clear 35 996 59 10000 2.1 230 23:18 03.07.2020
553 Clear 35 996 56 10000 2.1 350 22:41 03.07.2020
554 Clear 35 996 56 10000 2.1 350 22:41 03.07.2020
555 Clear 35 996 56 10000 2.1 350 22:23 03.07.2020
556 Clear 35 997 53 10000 2.1 330 21:56 03.07.2020
557 Clouds 35 997 53 10000 2.1 330 21:37 03.07.2020
558 Clear 36 997 53 10000 2.1 330 21:18 03.07.2020
559 Clouds 36 997 53 10000 4.6 320 20:42 03.07.2020
560 Clear 36 997 53 10000 4.6 320 20:24 03.07.2020
561 Clear 36 996 50 0 4.47 320 19:42 03.07.2020
562 Clear 36 996 47 10000 5.1 320 19:22 03.07.2020
563 Clear 37 996 47 10000 5.1 320 18:59 03.07.2020
564 Clear 37 996 47 10000 5.1 320 18:41 03.07.2020
565 Clear 37 996 47 10000 5.1 320 18:22 03.07.2020
566 Clear 38 996 45 10000 5.7 330 17:46 03.07.2020
567 Clear 38 996 45 10000 5.7 330 17:23 03.07.2020
568 Clear 39 995 40 10000 5.1 330 16:59 03.07.2020
569 Clear 39 995 40 10000 5.1 330 16:39 03.07.2020
570 Clear 39 995 40 10000 5.1 330 16:20 03.07.2020
571 Clear 39 995 42 8000 6.2 330 15:42 03.07.2020
572 Clear 39 995 42 8000 6.2 330 15:22 03.07.2020
573 Clear 39 996 45 8000 7.2 330 14:55 03.07.2020
574 Clear 39 996 45 8000 7.2 330 14:36 03.07.2020
575 Clear 39 996 45 8000 7.2 330 14:18 03.07.2020
576 Clear 40 996 40 10000 6.7 330 13:41 03.07.2020
577 Clear 40 996 40 10000 6.7 330 13:22 03.07.2020
578 Clear 40 997 40 10000 5.7 320 12:44 03.07.2020
579 Clear 40 997 40 10000 5.7 320 12:23 03.07.2020
580 Clear 40 997 43 10000 6.2 320 11:56 03.07.2020
581 Clear 40 997 43 10000 6.2 320 11:38 03.07.2020
582 Clear 40 997 43 10000 6.2 320 11:19 03.07.2020
583 Clear 40 998 38 10000 3.6 300 10:42 03.07.2020
584 Clear 40 998 38 10000 3.6 300 10:21 03.07.2020
585 Clear 40 999 35 10000 1.5 0 09:59 03.07.2020
586 Clear 40 999 35 10000 1.5 0 09:40 03.07.2020
587 Clear 38 999 35 10000 1.5 0 09:21 03.07.2020
588 Clear 37 999 44 10000 2.6 0 08:57 03.07.2020
589 Clear 37 999 44 10000 2.6 0 08:38 03.07.2020
590 Clear 36 999 44 10000 2.6 0 08:18 03.07.2020
591 Clear 36 999 47 10000 3.1 210 07:43 03.07.2020
592 Clear 35 999 47 10000 3.1 210 07:22 03.07.2020
593 Clear 35 999 50 10000 4.1 200 06:37 03.07.2020
594 Clear 35 999 41 10000 3.1 180 05:53 03.07.2020
595 Clear 35 997 41 10000 1.5 70 03:59 03.07.2020
596 Clear 36 997 39 10000 2.6 50 02:56 03.07.2020
597 Clear 36 997 39 10000 2.6 50 02:31 03.07.2020
598 Clear 36 996 42 10000 3.1 20 01:41 03.07.2020
599 Clear 36 996 42 10000 3.1 20 01:20 03.07.2020
600 Clear 37 997 37 10000 3.1 50 00:41 03.07.2020
601 Clear 37 997 37 10000 2.1 70 23:58 02.07.2020
602 Clear 37 997 37 10000 2.1 70 23:39 02.07.2020
603 Clear 36 997 37 10000 2.1 70 23:19 02.07.2020
604 Clear 37 998 35 10000 3.1 100 22:55 02.07.2020
605 Clear 37 998 35 10000 3.1 100 22:37 02.07.2020
606 Clear 37 998 35 10000 3.1 100 22:19 02.07.2020
607 Clear 37 998 37 10000 3.6 100 21:42 02.07.2020
608 Clear 37 998 37 10000 3.6 100 21:20 02.07.2020
609 Clear 38 998 33 10000 3.6 80 20:59 02.07.2020
610 Clear 38 998 33 10000 3.6 80 20:41 02.07.2020
611 Clear 38 998 33 10000 3.6 80 20:20 02.07.2020
612 Clear 39 997 35 10000 4.1 70 19:45 02.07.2020
613 Clear 39 997 35 10000 4.1 70 19:26 02.07.2020
614 Clear 39 997 33 10000 4.1 70 18:59 02.07.2020
615 Clear 40 997 33 10000 4.1 70 18:41 02.07.2020
616 Clear 40 997 33 10000 4.1 70 18:41 02.07.2020
617 Clear 40 997 33 10000 4.1 70 18:22 02.07.2020
618 Clear 40 996 38 10000 3.6 20 17:58 02.07.2020
619 Clear 40 996 38 10000 3.6 20 17:39 02.07.2020
620 Clear 40 996 38 10000 3.6 20 17:18 02.07.2020
621 Clear 40 996 35 10000 4.6 20 16:43 02.07.2020
622 Clear 40 996 35 10000 4.6 20 16:21 02.07.2020
623 Clear 41 996 38 10000 5.7 10 15:59 02.07.2020
624 Clear 41 996 38 10000 5.7 10 15:38 02.07.2020
625 Clear 40 996 38 10000 5.7 10 15:20 02.07.2020
626 Clear 40 996 40 10000 4.6 30 14:46 02.07.2020
627 Clouds 40 996 40 10000 4.6 30 14:23 02.07.2020
628 Clouds 43 997 27 10000 7.7 120 13:57 02.07.2020
629 Clouds 43 997 27 10000 7.7 120 13:39 02.07.2020
630 Clouds 42 997 27 10000 7.7 120 13:19 02.07.2020
631 Clouds 42 997 30 10000 8.2 80 12:56 02.07.2020
632 Clouds 42 997 30 10000 8.2 80 12:38 02.07.2020
633 Clouds 42 997 30 10000 8.2 80 12:38 02.07.2020
634 Clouds 42 997 30 10000 8.2 80 12:19 02.07.2020
635 Clouds 42 998 32 10000 6.7 100 11:41 02.07.2020
636 Clouds 41 998 32 10000 6.7 100 11:23 02.07.2020
637 Clouds 41 998 32 10000 6.2 120 10:45 02.07.2020
638 Clouds 40 998 32 10000 6.2 120 10:27 02.07.2020
639 Clouds 40 999 33 10000 5.7 140 09:56 02.07.2020
640 Clouds 40 999 33 10000 5.7 140 09:37 02.07.2020
641 Clear 39 999 33 10000 5.7 140 09:19 02.07.2020
642 Clear 39 999 31 10000 5.7 110 08:42 02.07.2020
643 Clear 38 999 31 10000 5.7 110 08:22 02.07.2020
644 Clear 37 999 37 10000 4.6 90 07:45 02.07.2020
645 Clear 37 999 37 10000 4.6 90 07:27 02.07.2020
646 Clear 36 999 37 10000 5.1 90 06:58 02.07.2020
647 Clear 35 999 37 10000 5.1 90 06:39 02.07.2020
648 Clear 34 999 37 10000 5.1 90 06:19 02.07.2020
649 Clear 34 998 46 10000 3.1 110 05:42 02.07.2020
650 Clouds 33 997 55 10000 2.6 90 03:35 02.07.2020
651 Clouds 33 996 55 10000 2.6 110 02:38 02.07.2020
652 Clear 33 997 59 9000 6.2 90 00:46 02.07.2020
653 Clear 33 997 59 9000 6.2 90 00:22 02.07.2020
654 Dust 34 997 56 5000 9.8 100 23:45 01.07.2020
655 Dust 34 997 56 5000 9.8 100 23:27 01.07.2020
656 Clear 35 998 50 10000 6.2 90 22:56 01.07.2020
657 Clear 35 998 50 10000 6.2 90 22:38 01.07.2020
658 Clear 35 998 50 10000 6.2 90 22:19 01.07.2020
659 Clear 35 998 47 10000 6.2 90 21:58 01.07.2020
660 Clear 36 998 47 10000 6.2 90 21:40 01.07.2020
661 Clear 36 998 47 10000 6.2 90 21:21 01.07.2020
662 Clear 37 997 42 10000 7.2 90 20:54 01.07.2020
663 Clouds 37 997 42 10000 7.2 90 20:36 01.07.2020
664 Clouds 37 997 42 10000 7.2 90 20:18 01.07.2020
665 Clouds 38 996 42 10000 5.7 90 19:42 01.07.2020
666 Clouds 38 996 42 10000 5.7 90 19:23 01.07.2020
667 Clouds 39 996 42 10000 6.2 60 18:59 01.07.2020
668 Clouds 39 996 42 10000 6.2 60 18:40 01.07.2020
669 Clouds 39 996 42 10000 6.2 60 18:21 01.07.2020
670 Clouds 39 995 40 10000 5.7 60 17:55 01.07.2020
671 Clouds 39 995 40 10000 5.7 60 17:37 01.07.2020
672 Clear 39 995 40 10000 5.7 60 17:18 01.07.2020
673 Clear 40 995 45 10000 6.2 20 16:42 01.07.2020
674 Clear 40 995 45 10000 6.2 20 16:24 01.07.2020
675 Clear 40 995 45 10000 6.2 20 15:43 01.07.2020
676 Clear 41 995 45 10000 6.2 20 15:25 01.07.2020
677 Clear 42 995 34 10000 6.2 70 14:58 01.07.2020
678 Clear 42 995 34 10000 6.2 70 14:39 01.07.2020
679 Clear 42 995 34 10000 6.2 70 14:20 01.07.2020
680 Clear 42 996 36 10000 5.7 70 13:55 01.07.2020
681 Clear 41 996 36 10000 5.7 70 13:36 01.07.2020
682 Clear 40 997 43 10000 6.7 90 13:18 01.07.2020
683 Clear 40 997 43 10000 6.7 90 12:41 01.07.2020
684 Clear 40 997 43 10000 6.7 90 12:23 01.07.2020
685 Clear 40 997 43 10000 6.7 90 12:23 01.07.2020
686 Clouds 40 997 43 8000 6.7 90 11:58 01.07.2020
687 Clouds 40 997 43 8000 6.7 90 11:40 01.07.2020
688 Clouds 40 997 43 8000 6.7 90 11:21 01.07.2020
689 Clouds 40 998 45 8000 7.2 90 10:56 01.07.2020
690 Clouds 40 998 45 8000 7.2 90 10:38 01.07.2020
691 Clouds 39 998 45 8000 7.2 90 10:20 01.07.2020
692 Clouds 39 998 45 10000 6.2 80 09:38 01.07.2020
693 Clouds 38 998 45 10000 6.2 80 09:20 01.07.2020
694 Clear 38 998 45 10000 6.2 110 08:57 01.07.2020
695 Clear 38 998 45 10000 6.2 110 08:39 01.07.2020
696 Clear 37 998 45 10000 6.2 110 08:19 01.07.2020
697 Clear 37 999 50 10000 6.7 120 07:41 01.07.2020
698 Clear 36 999 50 10000 6.7 120 07:23 01.07.2020
699 Clear 36 998 53 10000 6.7 110 06:55 01.07.2020
700 Clear 35 998 53 10000 6.7 110 06:32 01.07.2020
701 Clear 34 998 63 9000 6.2 100 05:44 01.07.2020
702 Clear 34 997 63 10000 4.6 100 04:26 01.07.2020
703 Clear 34 997 56 10000 3.6 100 03:40 01.07.2020
704 Clear 34 997 56 10000 3.6 100 03:20 01.07.2020
705 Clear 33 996 49 10000 2.1 60 01:56 01.07.2020
706 Clear 34 996 47 10000 1.5 10 00:48 01.07.2020
707 Clear 34 996 47 10000 1.5 10 00:27 01.07.2020
708 Clear 34 996 47 10000 0.5 0 23:57 30.06.2020
709 Clear 34 996 47 10000 0.5 0 23:39 30.06.2020
710 Clear 34 996 47 10000 0.5 0 23:19 30.06.2020
711 Clear 34 997 52 10000 2.1 340 22:42 30.06.2020
712 Clear 34 997 52 10000 2.1 340 22:19 30.06.2020
713 Clear 35 997 50 10000 2.6 340 21:42 30.06.2020
714 Clear 35 997 50 10000 2.6 340 21:19 30.06.2020
715 Clear 35 997 50 10000 2.6 340 20:59 30.06.2020
716 Clear 35 997 50 10000 2.6 340 20:40 30.06.2020
717 Clear 35 997 50 10000 2.6 340 20:20 30.06.2020
718 Clear 36 997 39 10000 3.6 320 19:43 30.06.2020
719 Clear 37 997 39 10000 3.6 320 19:20 30.06.2020
720 Clear 37 997 39 10000 3.6 320 19:20 30.06.2020
721 Clear 38 996 31 10000 3.1 320 18:54 30.06.2020
722 Clear 38 996 31 10000 3.1 320 18:36 30.06.2020
723 Clear 37 995 44 10000 2.6 360 18:18 30.06.2020
724 Clear 37 995 44 10000 2.6 360 17:38 30.06.2020
725 Clear 38 995 44 10000 2.6 360 17:20 30.06.2020
726 Clear 38 995 42 10000 4.6 330 16:55 30.06.2020
727 Clear 38 995 42 10000 4.6 330 16:36 30.06.2020
728 Clear 38 995 42 10000 4.6 330 16:18 30.06.2020
729 Clear 39 995 42 10000 5.7 330 15:42 30.06.2020
730 Clear 39 995 42 10000 5.7 330 15:22 30.06.2020
731 Clear 39 995 40 10000 7.2 310 14:58 30.06.2020
732 Clear 39 995 40 10000 7.2 310 14:40 30.06.2020
733 Clear 39 995 40 10000 7.2 310 14:18 30.06.2020
734 Clear 39 995 48 10000 6.7 340 13:41 30.06.2020
735 Clear 39 995 48 10000 6.7 340 13:21 30.06.2020
736 Clear 39 996 48 10000 6.7 330 12:59 30.06.2020
737 Clear 39 996 48 10000 6.7 330 12:40 30.06.2020
738 Clear 39 996 48 10000 6.7 330 12:21 30.06.2020
739 Clear 39 997 48 10000 5.7 330 11:58 30.06.2020
740 Clear 39 997 48 10000 5.7 330 11:39 30.06.2020
741 Clear 39 997 48 10000 5.7 330 11:20 30.06.2020
742 Clear 38 997 50 10000 5.1 330 10:59 30.06.2020
743 Dust 36 997 63 5000 5.1 360 16:43 28.06.2020
744 Dust 36 997 63 5000 5.1 360 16:24 28.06.2020
745 Dust 37 997 60 5000 6.2 330 15:56 28.06.2020
746 Dust 37 997 60 5000 6.2 330 15:38 28.06.2020
747 Dust 37 997 60 5000 6.2 330 15:19 28.06.2020
748 Dust 38 997 53 5000 7.2 310 14:46 28.06.2020
749 Dust 38 997 53 5000 7.2 310 14:28 28.06.2020
750 Dust 39 997 51 5000 6.7 320 13:58 28.06.2020
751 Dust 39 997 51 5000 6.7 320 13:38 28.06.2020
752 Dust 39 997 51 5000 6.7 320 13:19 28.06.2020
753 Clear 40 998 45 8000 7.2 320 12:56 28.06.2020
754 Clear 40 998 45 8000 7.2 320 12:37 28.06.2020
755 Clouds 40 998 45 8000 7.2 320 12:18 28.06.2020
756 Clouds 41 998 34 8000 4.6 270 11:56 28.06.2020
757 Clouds 41 998 34 8000 4.6 270 11:37 28.06.2020
758 Clouds 41 998 34 8000 4.6 270 11:19 28.06.2020
759 Clouds 41 999 32 8000 3.6 210 10:42 28.06.2020
760 Clouds 41 999 32 8000 3.6 210 10:42 28.06.2020
761 Clouds 41 999 32 8000 3.6 210 10:23 28.06.2020
762 Clouds 40 999 38 8000 5.1 190 09:59 28.06.2020
763 Clear 40 999 38 8000 5.1 190 09:39 28.06.2020
764 Clouds 39 999 38 8000 5.1 190 09:20 28.06.2020
765 Clear 38 999 42 8000 5.1 180 08:45 28.06.2020
766 Clouds 37 999 42 8000 5.1 180 08:25 28.06.2020
767 Clouds 36 1000 50 7000 6.2 200 07:46 28.06.2020
768 Clouds 35 1000 50 7000 6.2 200 07:28 28.06.2020
769 Dust 34 1000 63 5000 3.1 210 06:34 28.06.2020
770 Dust 33 999 70 5000 2.6 190 05:57 28.06.2020
771 Dust 33 999 70 5000 2.6 190 05:26 28.06.2020
772 Clouds 33 998 75 8000 3.6 170 03:23 28.06.2020
773 Clouds 33 997 75 8000 1 0 02:36 28.06.2020
774 Clouds 33 997 75 8000 2.6 330 01:52 28.06.2020
775 Clouds 33 997 75 8000 2.6 330 01:25 28.06.2020
776 Clouds 33 996 75 8000 2.1 330 00:44 28.06.2020
777 Clouds 33 996 75 8000 2.1 330 00:24 28.06.2020
778 Clouds 34 997 71 8000 3.6 330 23:41 27.06.2020
779 Clouds 34 997 71 8000 3.6 330 23:22 27.06.2020
780 Clouds 34 997 67 7000 3.6 330 22:58 27.06.2020
781 Clouds 34 997 67 7000 3.6 330 22:39 27.06.2020
782 Clouds 34 997 67 7000 3.6 330 22:19 27.06.2020
783 Clouds 35 998 59 7000 1 0 21:42 27.06.2020
784 Clouds 35 998 59 7000 1 0 21:20 27.06.2020
785 Clouds 35 998 59 7000 2.6 330 20:57 27.06.2020
786 Clouds 35 998 59 7000 2.6 330 20:37 27.06.2020
787 Clouds 35 998 59 7000 2.6 330 20:18 27.06.2020
788 Clouds 36 998 60 7000 2.1 320 19:54 27.06.2020
789 Clouds 36 998 60 7000 2.1 320 19:36 27.06.2020
790 Clouds 36 998 60 7000 2.1 320 19:18 27.06.2020
791 Clouds 36 997 56 7000 3.6 330 18:42 27.06.2020
792 Clouds 36 997 56 7000 3.6 330 18:21 27.06.2020
793 Dust 36 997 53 4500 5.1 330 17:41 27.06.2020
794 Dust 37 997 53 4500 5.1 330 17:21 27.06.2020
795 Dust 38 997 47 3500 4.6 360 16:59 27.06.2020
796 Dust 38 997 47 3500 4.6 360 16:39 27.06.2020
797 Dust 38 997 47 3500 4.6 360 16:20 27.06.2020
798 Dust 39 997 42 3500 6.2 330 15:45 27.06.2020
799 Dust 39 997 42 3500 6.2 330 15:24 27.06.2020
800 Dust 39 997 42 3500 6.2 330 15:24 27.06.2020
801 Dust 40 997 38 4500 6.2 310 14:59 27.06.2020
802 Dust 40 997 38 4500 6.2 310 14:39 27.06.2020
803 Dust 40 997 38 4500 6.2 310 14:21 27.06.2020
804 Clouds 39 998 42 7000 7.2 320 13:55 27.06.2020
805 Clouds 39 998 42 7000 7.2 320 13:37 27.06.2020
806 Clear 39 998 42 7000 7.2 320 13:19 27.06.2020
807 Clear 40 998 40 8000 6.2 300 12:41 27.06.2020
808 Clear 40 998 40 8000 6.2 300 12:22 27.06.2020
809 Clear 41 999 36 8000 5.1 300 11:59 27.06.2020
810 Clear 41 999 36 8000 5.1 300 11:59 27.06.2020
811 Clear 41 999 36 8000 5.1 300 11:59 27.06.2020
812 Clear 41 999 36 8000 5.1 300 11:40 27.06.2020
813 Clear 41 999 36 8000 5.1 300 11:40 27.06.2020
814 Clear 41 999 36 8000 5.1 300 11:22 27.06.2020
815 Clear 41 999 36 8000 5.1 300 11:22 27.06.2020
816 Clear 40 1000 35 8000 4.6 260 10:42 27.06.2020
817 Clear 40 1000 35 8000 4.6 260 10:19 27.06.2020
818 -273 0 0 0 0 0 09:59 27.06.2020
819 Clear 39 1000 37 10000 4.6 220 09:39 27.06.2020
820 Clear 39 1000 37 10000 4.6 220 09:20 27.06.2020
821 Clear 38 1000 42 10000 5.1 200 08:44 27.06.2020
822 Clouds 37 1000 42 10000 5.1 200 08:23 27.06.2020
823 Clouds 36 1000 47 10000 3.6 200 07:48 27.06.2020
824 Clouds 35 1000 47 10000 3.6 200 07:26 27.06.2020
825 Clouds 35 1000 47 10000 5.1 190 06:52 27.06.2020
826 Clouds 35 1000 47 10000 5.1 190 06:33 27.06.2020
827 Clouds 35 999 44 8000 4.1 180 04:51 27.06.2020
828 Clouds 35 999 44 8000 4.1 180 04:18 27.06.2020
829 Clouds 35 998 47 10000 4.6 190 03:46 27.06.2020
830 Clouds 35 998 56 10000 2.6 170 02:42 27.06.2020
831 Clouds 35 998 56 10000 2.6 170 02:23 27.06.2020
832 Clouds 35 997 63 10000 2.1 110 01:28 27.06.2020
833 Clouds 35 997 50 10000 2.1 20 00:47 27.06.2020
834 Clouds 36 997 50 10000 2.1 60 23:48 26.06.2020
835 Clouds 36 997 50 10000 2.1 60 23:29 26.06.2020
836 Clouds 37 997 50 10000 2.6 60 22:59 26.06.2020
837 Clouds 37 997 50 10000 2.6 60 22:41 26.06.2020
838 Clouds 37 997 50 10000 2.6 60 22:23 26.06.2020
839 Clouds 37 997 45 10000 2.1 50 21:58 26.06.2020
840 Clouds 37 997 45 10000 2.1 50 21:58 26.06.2020
841 Clouds 37 997 45 10000 2.1 50 21:39 26.06.2020
842 Clouds 37 997 45 10000 2.1 50 21:21 26.06.2020
843 Clouds 37 997 45 10000 2.1 50 21:21 26.06.2020
844 Clouds 37 997 53 10000 2.1 90 20:57 26.06.2020
845 Clouds 37 997 53 10000 2.1 90 20:37 26.06.2020
846 Clouds 37 997 53 10000 2.1 90 20:18 26.06.2020
847 Clouds 37 997 53 10000 2.1 340 19:40 26.06.2020
848 Clouds 37 997 53 10000 2.1 340 19:20 26.06.2020
849 Clouds 37 997 50 10000 3.6 340 18:42 26.06.2020
850 Clouds 37 997 50 10000 3.6 340 18:23 26.06.2020
851 Clouds 38 996 50 8000 4.6 330 17:46 26.06.2020
852 Clouds 38 996 50 8000 4.6 330 17:28 26.06.2020
853 Clouds 38 996 53 8000 5.7 330 16:59 26.06.2020
854 Clouds 38 996 53 8000 5.7 330 16:41 26.06.2020
855 Clouds 38 996 53 8000 5.7 330 16:22 26.06.2020
856 -273 0 0 0 0 0 15:41 26.06.2020
857 Clouds 38 996 60 8000 5.7 340 15:21 26.06.2020
858 Clouds 39 996 51 8000 6.2 330 14:58 26.06.2020
859 Clouds 39 996 51 8000 6.2 330 14:39 26.06.2020
860 Clouds 39 996 51 8000 6.2 330 14:21 26.06.2020
861 Clouds 39 997 54 8000 6.7 330 13:45 26.06.2020
862 Clouds 39 997 54 8000 6.7 330 13:24 26.06.2020
863 Clouds 40 998 51 8000 6.2 330 12:56 26.06.2020
864 Clouds 40 998 51 8000 6.2 330 12:38 26.06.2020
865 Clouds 40 998 51 8000 6.2 330 12:19 26.06.2020
866 Clouds 40 999 51 8000 4.6 340 11:56 26.06.2020
867 Clouds 40 999 51 8000 4.6 340 11:38 26.06.2020
868 Clouds 40 999 51 8000 4.6 340 11:19 26.06.2020
869 Clouds 40 999 40 8000 4.1 270 10:56 26.06.2020
870 Clouds 40 999 40 8000 4.1 270 10:37 26.06.2020
871 Clouds 40 999 40 8000 4.1 270 10:37 26.06.2020
872 Clouds 40 999 40 8000 4.1 270 10:37 26.06.2020
873 Clouds 40 999 40 8000 4.1 270 10:18 26.06.2020
874 Clouds 39 1000 42 7000 4.1 180 09:41 26.06.2020
875 Clear 38 1000 42 7000 4.1 180 09:20 26.06.2020
876 Clear 37 1000 47 6000 4.1 200 08:46 26.06.2020
877 Clouds 36 1000 47 6000 4.1 200 08:27 26.06.2020
878 Dust 36 1000 50 5000 5.1 210 07:48 26.06.2020
879 Dust 35 1000 50 5000 5.1 210 07:23 26.06.2020
880 Dust 35 1000 56 4500 4.1 190 06:52 26.06.2020
881 Dust 35 1000 56 4500 4.1 190 06:30 26.06.2020
882 Dust 35 999 56 4500 4.1 180 05:53 26.06.2020
883 Clouds 34 999 56 6000 3.6 160 05:21 26.06.2020
884 Clear 34 998 75 10000 1.5 80 02:32 26.06.2020
885 Clouds 34 998 71 10000 1.5 0 01:35 26.06.2020
886 Clouds 34 998 75 10000 3.6 340 00:50 26.06.2020
887 Clouds 34 998 75 10000 3.6 340 00:30 26.06.2020
888 Clouds 34 998 75 10000 4.1 340 23:47 25.06.2020
889 Clouds 34 998 75 10000 4.1 340 23:22 25.06.2020
890 Clouds 35 998 63 10000 4.1 340 22:58 25.06.2020
891 Clouds 35 998 63 10000 4.1 340 22:39 25.06.2020
892 Clouds 35 998 63 10000 4.1 340 22:20 25.06.2020
893 Clouds 35 998 63 10000 4.6 340 21:57 25.06.2020
894 Clouds 35 998 63 10000 4.6 340 21:57 25.06.2020
895 Clouds 35 998 63 10000 4.6 340 21:39 25.06.2020
896 Clouds 35 998 63 10000 4.6 340 21:20 25.06.2020
897 Clouds 36 998 56 10000 3.1 330 20:57 25.06.2020
898 Clouds 36 998 56 10000 3.1 330 20:39 25.06.2020
899 Clear 36 998 56 10000 3.1 330 20:21 25.06.2020
900 Clear 37 997 53 10000 3.1 320 19:41 25.06.2020
901 Clear 37 997 50 10000 3.1 330 19:21 25.06.2020
902 Clear 37 997 50 10000 3.1 330 19:00 25.06.2020
903 Clear 37 997 50 10000 3.1 330 18:59 25.06.2020
904 Clear 37 997 50 10000 3.1 330 18:39 25.06.2020
905 Clear 37 997 50 10000 3.1 330 18:20 25.06.2020
906 Clear 37 997 50 8000 5.1 330 17:45 25.06.2020
907 Clear 37 997 50 8000 5.1 330 17:20 25.06.2020
908 Clear 37 997 50 8000 5.1 330 17:20 25.06.2020
909 Clear 37 997 53 8000 6.2 330 16:58 25.06.2020
910 Clear 37 997 53 8000 6.2 330 16:38 25.06.2020
911 Clear 38 997 53 8000 6.2 330 16:19 25.06.2020
912 Clear 39 997 48 8000 6.7 330 15:43 25.06.2020
913 Clear 39 997 48 8000 6.7 330 15:25 25.06.2020
914 Clear 39 997 48 8000 6.2 330 14:55 25.06.2020
915 Clear 39 997 48 8000 6.2 330 14:37 25.06.2020
916 Clear 39 997 48 8000 6.2 330 14:18 25.06.2020
917 Clear 39 998 51 8000 5.7 330 13:42 25.06.2020
918 Clear 39 998 51 8000 5.7 330 13:20 25.06.2020
919 Clear 38 998 53 10000 6.7 360 12:58 25.06.2020
920 Clear 38 998 53 10000 6.7 360 12:40 25.06.2020
921 Clear 38 998 53 10000 6.7 360 12:19 25.06.2020
922 Clear 39 999 48 10000 6.7 310 11:42 25.06.2020
923 Clear 39 999 48 10000 6.7 310 11:22 25.06.2020
924 Clear 40 999 45 10000 6.2 330 10:44 25.06.2020
925 Clear 40 999 45 10000 6.2 330 10:26 25.06.2020
926 Clear 41 999 35 9000 2.1 160 09:58 25.06.2020
927 Clear 40 999 35 9000 2.1 160 09:40 25.06.2020
928 Clear 39 999 35 9000 2.1 160 09:19 25.06.2020
929 Clear 39 1000 40 10000 3.6 190 08:43 25.06.2020
930 Clear 38 1000 40 10000 3.6 190 08:19 25.06.2020
931 Clear 37 1000 45 10000 5.7 170 07:44 25.06.2020
932 Clouds 36 1000 45 10000 5.7 170 07:26 25.06.2020
933 Clouds 35 1000 53 10000 5.7 160 06:46 25.06.2020
934 Clouds 34 1000 53 10000 5.7 160 06:26 25.06.2020
935 Clouds 34 1000 59 10000 7.2 130 05:40 25.06.2020
936 Clouds 34 999 63 10000 4.1 80 03:55 25.06.2020
937 Clouds 34 999 63 10000 4.1 80 03:25 25.06.2020
938 Clouds 34 999 63 10000 2.1 70 02:41 25.06.2020
939 Clouds 34 999 59 10000 4.1 50 01:43 25.06.2020
940 Clear 34 999 63 10000 4.1 40 00:59 25.06.2020
941 Clear 34 999 63 10000 4.1 40 00:40 25.06.2020
942 Clear 34 999 63 10000 4.1 40 00:18 25.06.2020
943 Clear 34 999 67 10000 4.6 30 23:41 24.06.2020
944 Clear 34 999 67 10000 4.6 30 23:23 24.06.2020
945 Clear 35 999 67 10000 3.6 20 22:56 24.06.2020
946 Clear 35 999 67 10000 3.6 20 22:37 24.06.2020
947 Clear 35 999 67 10000 3.6 20 22:37 24.06.2020
948 Clear 35 999 67 10000 3.6 20 22:18 24.06.2020
949 Clear 36 1000 56 10000 3.1 40 21:55 24.06.2020
950 Clear 36 1000 56 10000 3.1 40 21:36 24.06.2020
951 Clear 36 1000 56 10000 3.1 40 21:18 24.06.2020
952 Clear 36 1000 53 10000 3.6 50 20:56 24.06.2020
953 Clear 36 1000 53 10000 3.6 50 20:37 24.06.2020
954 Clear 36 1000 53 10000 3.6 50 20:19 24.06.2020
955 Clear 37 999 47 10000 4.1 30 19:55 24.06.2020
956 Clear 37 999 47 10000 4.1 30 19:36 24.06.2020
957 Clear 38 999 45 10000 3.6 20 19:18 24.06.2020
958 Clear 38 999 45 10000 3.6 20 18:56 24.06.2020
959 Clear 38 999 45 10000 3.6 20 18:37 24.06.2020
960 Clear 38 999 45 10000 3.6 20 18:18 24.06.2020
961 Clear 39 998 35 10000 4.6 30 17:41 24.06.2020
962 Clear 39 998 35 10000 4.6 30 17:19 24.06.2020
963 Clear 40 998 28 10000 7.2 20 16:56 24.06.2020
964 Clear 40 998 28 10000 7.2 20 16:38 24.06.2020
965 Clear 40 998 28 10000 7.2 20 16:20 24.06.2020
966 Clear 40 998 26 10000 6.7 30 15:56 24.06.2020
967 Clear 40 998 26 10000 6.7 30 15:38 24.06.2020
968 Clear 40 998 26 10000 6.7 30 15:19 24.06.2020
969 Clear 40 998 33 10000 6.2 360 14:43 24.06.2020
970 Clear 40 998 33 10000 6.2 360 14:24 24.06.2020
971 Clear 40 998 38 10000 7.2 20 13:43 24.06.2020
972 Clear 40 998 38 10000 7.2 20 13:22 24.06.2020
973 Clear 41 999 43 10000 5.1 10 12:59 24.06.2020
974 Clear 41 999 43 10000 5.1 10 12:41 24.06.2020
975 Clear 41 999 43 10000 5.1 10 12:20 24.06.2020
976 Clear 41 999 48 10000 5.1 10 11:56 24.06.2020
977 Clear 41 999 48 10000 5.1 10 11:38 24.06.2020
978 Clear 41 999 48 10000 5.1 10 11:18 24.06.2020
979 Clear 41 1000 45 10000 2.6 0 10:43 24.06.2020
980 Clear 41 1000 45 10000 2.6 0 10:19 24.06.2020
981 Clear 40 1000 40 10000 3.6 90 09:43 24.06.2020
982 Clear 39 1000 40 10000 3.6 90 09:22 24.06.2020
983 Clear 38 1001 47 10000 3.6 90 08:43 24.06.2020
984 Clear 37 1001 47 10000 3.6 90 08:21 24.06.2020
985 Clear 36 1001 50 10000 4.1 100 07:51 24.06.2020
986 Clear 35 1001 50 10000 4.1 100 07:32 24.06.2020
987 Clear 34 1001 47 10000 2.6 80 06:51 24.06.2020
988 Clear 34 1001 47 10000 2.6 80 06:26 24.06.2020
989 Clear 34 1001 36 10000 2.6 90 05:58 24.06.2020
990 Clear 33 1001 36 10000 2.6 90 05:20 24.06.2020
991 Clear 33 1000 49 10000 1 0 04:35 24.06.2020
992 Clear 32 999 63 10000 1.5 350 03:35 24.06.2020
993 Clear 32 999 59 10000 2.1 350 02:51 24.06.2020
994 Clear 33 999 59 10000 1.5 220 01:45 24.06.2020
995 Clear 33 999 55 10000 1.5 220 00:47 24.06.2020
996 Clear 33 999 55 10000 1.5 220 00:27 24.06.2020
997 Clear 33 999 55 10000 1.5 220 00:27 24.06.2020
998 Clear 34 999 46 10000 2.1 220 23:46 23.06.2020
999 Clear 34 999 46 10000 2.1 220 23:20 23.06.2020
1000 Clear 34 999 46 10000 1 0 22:54 23.06.2020
1001 Clear 34 999 46 10000 1 0 22:36 23.06.2020
1002 Clear 33 999 46 10000 1 0 22:18 23.06.2020
1003 Clear 34 1000 39 10000 0.81 159 21:41 23.06.2020
1004 Clear 34 1000 39 10000 0.84 252 21:20 23.06.2020
1005 Clear 35 999 47 10000 1.5 290 20:56 23.06.2020
1006 Clear 35 999 47 10000 1.5 290 20:37 23.06.2020
1007 Clouds 35 999 47 10000 1.5 290 20:18 23.06.2020
1008 Clouds 35 999 47 10000 1.5 360 19:45 23.06.2020
1009 Clouds 35 999 47 10000 1.5 360 19:27 23.06.2020
1010 Clouds 35 999 50 10000 3.1 330 18:42 23.06.2020
1011 Clear 36 998 41 10000 3.1 320 18:19 23.06.2020
1012 Clear 36 998 41 10000 3.1 320 17:58 23.06.2020
1013 Clear 36 998 41 10000 3.1 320 17:39 23.06.2020
1014 Clear 35 998 41 10000 3.1 320 17:20 23.06.2020
1015 Clear 35 998 53 10000 3.6 350 16:55 23.06.2020
1016 Clear 35 998 53 10000 3.6 350 16:37 23.06.2020
1017 Clear 35 998 53 10000 3.6 350 16:18 23.06.2020
1018 Clear 35 998 53 10000 5.7 360 15:44 23.06.2020
1019 Clear 36 998 53 10000 5.7 360 15:25 23.06.2020
1020 Clear 37 998 44 10000 5.1 310 14:58 23.06.2020
1021 Clear 37 998 44 10000 5.1 310 14:40 23.06.2020
1022 Clear 36 998 47 10000 6.2 320 14:18 23.06.2020
1023 Clear 37 998 47 10000 6.2 320 13:54 23.06.2020
1024 Clear 37 998 47 10000 6.2 320 13:54 23.06.2020
1025 Clear 37 998 47 10000 6.2 320 13:36 23.06.2020
1026 Clear 36 999 50 10000 5.1 310 13:18 23.06.2020
1027 Clear 36 999 50 10000 5.1 310 12:40 23.06.2020
1028 Clear 37 999 47 10000 4.6 300 12:22 23.06.2020
1029 Clear 37 999 47 10000 4.6 300 11:44 23.06.2020
1030 Clear 37 999 47 10000 4.6 300 11:44 23.06.2020
1031 Clear 38 999 47 10000 4.6 300 11:23 23.06.2020
1032 Clear 39 1000 35 10000 5.7 340 10:59 23.06.2020
1033 Clear 38 1000 29 10000 2.1 160 10:41 23.06.2020
1034 Clear 37 1000 29 10000 2.1 160 10:22 23.06.2020
1035 Clear 36 1000 39 10000 3.1 160 09:57 23.06.2020
1036 Clear 36 1000 39 10000 3.1 160 09:57 23.06.2020
1037 Clear 35 1000 39 10000 3.1 160 09:38 23.06.2020
1038 Clear 35 1000 39 10000 3.1 160 09:20 23.06.2020
1039 Clear 34 1000 49 10000 3.6 180 08:46 23.06.2020
1040 Clear 33 1000 49 10000 3.6 180 08:26 23.06.2020
1041 Clear 32 1000 59 10000 4.1 220 07:51 23.06.2020
1042 Clear 31 1000 59 10000 4.1 220 07:25 23.06.2020
1043 Clear 31 1000 58 10000 5.1 200 06:57 23.06.2020
1044 Clear 30 1000 58 10000 5.1 200 06:38 23.06.2020
1045 Clear 30 1000 58 10000 5.1 200 06:19 23.06.2020
1046 Clear 29 999 66 10000 4.1 180 05:28 23.06.2020
1047 Clear 29 998 70 10000 3.1 190 03:23 23.06.2020
1048 Clear 30 997 66 10000 4.1 200 02:52 23.06.2020
1049 Clear 30 997 66 10000 4.1 200 02:33 23.06.2020
1050 Clear 31 997 66 10000 3.6 190 01:46 23.06.2020
1051 Clear 31 997 66 10000 3.6 190 01:24 23.06.2020
1052 Clear 31 997 66 10000 3.1 200 00:46 23.06.2020
1053 Clear 31 997 66 10000 3.1 200 00:21 23.06.2020
1054 Clear 31 997 66 10000 3.1 200 23:55 22.06.2020
1055 Clear 31 997 66 10000 3.1 200 23:36 22.06.2020
1056 Clear 31 997 66 10000 3.1 200 23:18 22.06.2020
1057 Clear 32 998 66 10000 3.1 230 22:54 22.06.2020
1058 Clear 32 998 66 10000 3.1 230 22:36 22.06.2020
1059 Clear 32 998 66 10000 3.1 230 22:18 22.06.2020
1060 Clear 32 998 66 10000 4.1 230 21:41 22.06.2020
1061 Clear 32 998 66 10000 4.1 230 21:22 22.06.2020
1062 Clear 32 998 62 10000 3.6 230 20:59 22.06.2020
1063 Clear 32 998 62 10000 3.6 230 20:41 22.06.2020
1064 Clear 32 998 62 10000 3.6 230 20:21 22.06.2020
1065 Clear 33 998 59 0 3.58 240 19:44 22.06.2020
1066 Clear 33 997 59 10000 4.6 260 19:20 22.06.2020
1067 Clear 33 997 59 10000 4.6 260 18:58 22.06.2020
1068 Clear 33 997 59 10000 4.6 260 18:38 22.06.2020
1069 Clear 34 997 56 10000 5.1 270 18:20 22.06.2020
1070 Clear 34 997 56 10000 5.1 270 17:56 22.06.2020
1071 Clear 34 997 56 10000 5.1 270 17:37 22.06.2020
1072 Clear 34 997 56 10000 5.1 270 17:19 22.06.2020
1073 Clear 34 996 59 10000 5.1 280 16:43 22.06.2020
1074 Clear 35 996 59 10000 5.1 280 16:20 22.06.2020
1075 Clear 36 996 47 10000 5.7 290 15:59 22.06.2020
1076 Clear 36 996 47 10000 5.7 290 15:39 22.06.2020
1077 Clear 36 997 50 10000 5.7 280 15:21 22.06.2020
1078 Clear 36 997 50 10000 5.7 280 14:40 22.06.2020
1079 Clear 36 997 50 10000 5.7 280 14:21 22.06.2020
1080 Clear 36 997 44 10000 5.1 280 13:58 22.06.2020
1081 Clear 36 997 44 10000 5.1 280 13:39 22.06.2020
1082 Clear 37 997 44 10000 5.1 280 13:21 22.06.2020
1083 Clear 37 998 44 10000 6.2 290 12:44 22.06.2020
1084 Clear 36 998 44 10000 6.2 290 12:24 22.06.2020
1085 Clear 36 998 41 10000 5.7 300 11:59 22.06.2020
1086 Clear 36 998 41 10000 5.7 300 11:37 22.06.2020
1087 Clear 36 998 41 10000 5.7 300 11:19 22.06.2020
1088 Clear 37 999 44 10000 5.7 280 10:55 22.06.2020
1089 Clear 37 999 44 10000 5.7 280 10:36 22.06.2020
1090 Clear 36 999 44 10000 5.7 280 10:18 22.06.2020
1091 Clear 36 999 44 10000 6.2 280 09:55 22.06.2020
1092 Clear 36 999 44 10000 6.2 280 09:37 22.06.2020
1093 Clear 37 999 35 10000 6.7 290 09:18 22.06.2020
1094 Clear 36 999 35 10000 6.7 290 08:40 22.06.2020
1095 Clear 36 999 39 10000 5.7 300 08:21 22.06.2020
1096 Clear 36 999 39 10000 5.7 300 07:53 22.06.2020
1097 Clear 35 999 39 10000 5.7 300 07:34 22.06.2020
1098 Clear 32 999 66 10000 4.1 200 06:56 22.06.2020
1099 Clear 31 999 66 10000 4.1 200 06:36 22.06.2020
1100 Clear 31 999 66 10000 4.1 200 06:18 22.06.2020
1101 Clear 30 998 74 10000 4.6 210 05:33 22.06.2020
1102 Clear 30 997 79 10000 4.6 200 02:58 22.06.2020
1103 Clear 30 997 79 10000 3.6 200 01:37 22.06.2020
1104 Clear 32 997 70 10000 3.1 180 00:41 22.06.2020
1105 Clear 32 997 70 10000 3.1 180 00:18 22.06.2020
1106 Clear 32 997 75 10000 2.1 220 23:54 21.06.2020
1107 Clear 32 997 75 10000 2.1 220 23:36 21.06.2020
1108 Clear 32 998 70 10000 3.1 190 23:18 21.06.2020
1109 Clear 32 998 70 10000 3.1 190 22:54 21.06.2020
1110 Clear 32 998 70 10000 3.1 190 22:36 21.06.2020
1111 Clear 32 998 70 10000 3.1 190 22:18 21.06.2020
1112 Clear 32 999 70 10000 3.1 260 21:42 21.06.2020
1113 Clear 33 999 66 10000 3.1 280 21:21 21.06.2020
1114 Clear 33 999 66 10000 3.1 280 20:59 21.06.2020
1115 Clear 33 999 66 10000 3.1 280 20:38 21.06.2020
1116 Clouds 34 998 56 10000 5.1 300 20:19 21.06.2020
1117 Clouds 34 998 56 10000 5.1 300 19:57 21.06.2020
1118 Clouds 34 998 56 10000 5.1 300 19:38 21.06.2020
1119 Clouds 35 998 32 10000 3.6 330 19:20 21.06.2020
1120 Clouds 35 998 32 10000 3.6 330 18:55 21.06.2020
1121 Clouds 35 998 32 10000 3.6 330 18:37 21.06.2020
1122 Clouds 35 998 47 10000 3.1 330 18:18 21.06.2020
1123 Clouds 35 998 47 10000 3.1 330 17:40 21.06.2020
1124 Clouds 35 998 47 10000 3.1 330 17:21 21.06.2020
1125 Clouds 34 997 63 8000 5.1 310 16:56 21.06.2020
1126 Clouds 34 997 63 8000 5.1 310 16:56 21.06.2020
1127 Clouds 35 997 63 8000 5.1 310 16:38 21.06.2020
1128 Clear 35 997 63 8000 5.1 310 16:19 21.06.2020
1129 Clear 35 998 59 8000 6.2 320 15:39 21.06.2020
1130 Clear 35 998 59 8000 6.2 320 15:21 21.06.2020
1131 Clear 36 998 60 8000 5.7 310 14:55 21.06.2020
1132 Clear 36 998 60 8000 5.7 310 14:36 21.06.2020
1133 Clear 35 998 60 8000 5.7 310 14:18 21.06.2020
1134 Clear 35 998 63 8000 5.7 310 13:42 21.06.2020
1135 Clear 35 998 63 8000 5.7 310 13:23 21.06.2020
1136 Clear 36 999 63 8000 6.7 320 12:57 21.06.2020
1137 Clear 36 999 63 8000 6.7 320 12:39 21.06.2020
1138 Clear 36 999 63 8000 6.7 320 12:20 21.06.2020
1139 Clear 38 999 57 8000 4.6 310 11:42 21.06.2020
1140 Clouds 39 999 40 10000 1.5 0 11:24 21.06.2020
1141 Clouds 39 999 40 10000 1.5 0 10:58 21.06.2020
1142 Clouds 38 999 40 10000 1.5 0 10:39 21.06.2020
1143 Clouds 38 999 40 10000 1.5 0 10:21 21.06.2020
1144 Clouds 35 1000 53 8000 2.1 230 09:44 21.06.2020
1145 Clear 35 1000 53 8000 2.1 230 09:24 21.06.2020
1146 Clear 34 1000 63 7000 3.1 230 08:58 21.06.2020
1147 Clear 34 1000 63 7000 3.1 230 08:40 21.06.2020
1148 Clear 34 1000 67 6000 3.1 170 08:20 21.06.2020
1149 Clear 34 1000 67 6000 3.1 170 07:43 21.06.2020
1150 Clear 33 1000 70 6000 1.5 0 07:24 21.06.2020
1151 Clear 33 1000 70 6000 1.5 0 06:51 21.06.2020
1152 Clear 32 1000 70 6000 1.5 0 06:31 21.06.2020
1153 Haze 32 999 79 5000 1.5 200 05:57 21.06.2020
1154 Haze 32 999 84 5000 2.6 280 04:42 21.06.2020
1155 Clouds 32 998 84 7000 2.1 260 03:19 21.06.2020
1156 Clouds 32 998 84 7000 2.1 350 02:36 21.06.2020
1157 Clouds 32 997 84 7000 2.1 350 01:47 21.06.2020
1158 Clear 33 998 79 8000 2.1 270 01:20 21.06.2020
1159 Clear 33 998 79 8000 2.1 270 00:46 21.06.2020
1160 Clear 33 998 79 8000 2.1 270 00:26 21.06.2020
1161 Clear 34 998 67 10000 2.1 260 23:46 20.06.2020
1162 Clear 34 998 67 10000 2.1 260 23:23 20.06.2020
1163 Clear 34 998 63 10000 1.5 230 22:59 20.06.2020
1164 Clear 34 998 63 10000 1.5 230 22:59 20.06.2020
1165 Clear 34 998 63 10000 1.5 230 22:40 20.06.2020
1166 Clear 34 998 63 10000 1.5 230 22:20 20.06.2020
1167 Clear 34 999 71 10000 1.5 210 21:58 20.06.2020
1168 Clear 34 999 71 10000 1.5 210 21:40 20.06.2020
1169 Clear 34 999 71 10000 1 0 21:21 20.06.2020
1170 Clear 34 999 71 10000 1 0 20:58 20.06.2020
1171 Clear 34 999 71 10000 1 0 20:40 20.06.2020
1172 Clear 34 999 71 10000 1 0 20:21 20.06.2020
1173 Clear 34 998 71 10000 1.5 340 19:58 20.06.2020
1174 Clear 34 998 71 10000 1.5 340 19:39 20.06.2020
1175 Clear 34 998 71 10000 1.5 340 19:20 20.06.2020
1176 Clouds 34 998 75 9000 3.6 330 18:43 20.06.2020
1177 Clouds 34 998 75 9000 3.6 330 18:20 20.06.2020
1178 Clear 34 998 75 10000 4.6 340 17:57 20.06.2020
1179 Clear 34 998 75 10000 4.6 340 17:39 20.06.2020
1180 Clear 34 998 75 10000 4.6 340 17:20 20.06.2020
1181 Clear 35 998 71 10000 5.1 320 16:42 20.06.2020
1182 Clear 35 998 71 10000 5.1 320 16:19 20.06.2020
1183 Clear 36 997 67 10000 6.2 310 15:58 20.06.2020
1184 Clear 36 997 67 10000 6.2 310 15:40 20.06.2020
1185 Clear 37 997 63 10000 6.7 320 15:18 20.06.2020
1186 Clear 37 997 63 10000 6.7 320 14:43 20.06.2020
1187 Clear 37 997 63 10000 6.7 320 14:21 20.06.2020
1188 Clear 37 998 63 10000 6.7 320 13:42 20.06.2020
1189 Clear 37 998 63 10000 6.7 320 13:24 20.06.2020
1190 Clear 37 998 63 10000 6.7 320 12:57 20.06.2020
1191 Clear 37 998 63 10000 6.7 320 12:38 20.06.2020
1192 Clear 38 999 60 10000 7.2 310 12:19 20.06.2020
1193 Clear 38 999 60 10000 7.2 310 11:55 20.06.2020
1194 Clear 38 999 60 10000 7.2 310 11:36 20.06.2020
1195 Clear 38 999 60 10000 7.2 310 11:18 20.06.2020
1196 Clear 39 999 60 10000 5.7 330 10:44 20.06.2020
1197 Clear 39 999 60 10000 5.7 330 10:21 20.06.2020
1198 Clear 39 999 51 10000 1.5 0 09:54 20.06.2020
1199 Clear 38 999 51 10000 1.5 0 09:36 20.06.2020
1200 Clear 38 999 63 9000 1.5 0 09:18 20.06.2020
1201 Clear 36 999 63 9000 1.5 0 08:44 20.06.2020
1202 Clear 36 999 63 9000 1.5 0 08:26 20.06.2020
1203 Clear 35 999 67 8000 2.1 130 07:51 20.06.2020
1204 Clear 34 999 67 8000 2.1 130 07:27 20.06.2020
1205 Clouds 33 999 75 7000 2.6 150 06:53 20.06.2020
1206 Clouds 33 999 75 7000 2.6 150 06:23 20.06.2020
1207 Clouds 33 999 75 7000 3.1 150 05:50 20.06.2020
1208 Clouds 33 999 79 7000 1.5 90 04:52 20.06.2020
1209 Clouds 33 997 79 10000 2.1 330 02:27 20.06.2020
1210 Clouds 33 997 79 10000 3.6 340 01:48 20.06.2020
1211 Clear 33 997 79 10000 4.1 310 00:52 20.06.2020
1212 Clear 33 997 79 10000 4.1 310 00:21 20.06.2020
1213 Clear 34 997 71 10000 3.6 330 23:55 19.06.2020
1214 Clear 34 997 71 10000 3.6 330 23:36 19.06.2020
1215 Clear 34 997 71 10000 3.6 330 23:18 19.06.2020
1216 Clear 34 997 75 10000 4.1 330 22:40 19.06.2020
1217 Clear 35 997 75 10000 4.1 330 22:22 19.06.2020
1218 Clear 35 998 67 10000 2.6 330 21:58 19.06.2020
1219 Clear 35 998 67 10000 2.6 330 21:38 19.06.2020
1220 Clear 35 998 67 10000 2.6 330 21:38 19.06.2020
1221 Clear 35 998 60 10000 2.1 360 21:18 19.06.2020
1222 Clear 35 998 60 10000 2.1 360 20:58 19.06.2020
1223 Clear 35 998 60 10000 2.1 360 20:40 19.06.2020
1224 Clear 35 998 60 10000 2.1 360 20:20 19.06.2020
1225 Clear 35 997 67 10000 2.1 330 19:55 19.06.2020
1226 Clear 35 997 67 10000 2.1 330 19:37 19.06.2020
1227 Clear 35 997 67 10000 2.1 330 19:37 19.06.2020
1228 Clear 35 997 60 10000 3.1 330 19:18 19.06.2020
1229 Clear 36 997 60 10000 3.1 330 18:41 19.06.2020
1230 Clear 36 997 60 10000 3.1 330 18:21 19.06.2020
1231 Clear 36 997 60 10000 3.1 330 18:21 19.06.2020
1232 Clear 36 996 63 10000 4.1 330 17:55 19.06.2020
1233 Clear 36 996 63 10000 4.1 330 17:36 19.06.2020
1234 Clear 36 996 67 10000 5.1 340 17:18 19.06.2020
1235 Clear 36 996 67 10000 5.1 340 16:41 19.06.2020
1236 Clear 35 996 67 10000 5.1 340 16:23 19.06.2020
1237 Clear 35 996 71 10000 5.7 340 15:58 19.06.2020
1238 Clear 35 996 71 10000 5.7 340 15:40 19.06.2020
1239 Clear 36 996 71 10000 5.7 340 15:19 19.06.2020
1240 Clear 36 996 67 10000 6.2 340 14:55 19.06.2020
1241 Clear 36 996 67 10000 6.2 340 14:37 19.06.2020
1242 Clear 36 996 67 10000 6.2 340 14:18 19.06.2020
1243 Clear 36 996 63 10000 7.2 330 13:41 19.06.2020
1244 Clear 37 996 63 10000 7.2 330 13:23 19.06.2020
1245 Clear 37 997 60 10000 6.7 330 12:46 19.06.2020
1246 Clear 37 997 60 10000 6.7 330 12:22 19.06.2020
1247 Clear 38 998 56 10000 7.2 330 11:57 19.06.2020
1248 Clear 39 998 56 10000 7.2 330 11:38 19.06.2020
1249 Clear 39 998 56 10000 7.2 330 11:18 19.06.2020
1250 Clear 39 998 56 10000 7.2 330 11:18 19.06.2020
1251 Clear 39 998 51 10000 5.7 310 10:45 19.06.2020
1252 Clear 39 998 51 10000 5.7 310 10:26 19.06.2020
1253 Clear 40 998 45 10000 5.1 320 09:57 19.06.2020
1254 Clouds 39 998 43 10000 4.1 90 09:39 19.06.2020
1255 Clouds 38 998 43 10000 4.1 90 09:19 19.06.2020
1256 Clouds 37 999 50 10000 5.7 110 08:42 19.06.2020
1257 Clouds 37 999 50 10000 5.7 110 08:42 19.06.2020
1258 Clear 36 999 50 10000 5.7 110 08:23 19.06.2020
1259 Clear 35 999 59 10000 2.6 80 07:55 19.06.2020
1260 Clear 34 999 59 10000 2.6 80 07:36 19.06.2020
1261 Clear 33 998 59 10000 2.1 130 07:18 19.06.2020
1262 Clear 31 998 59 10000 2.1 130 06:23 19.06.2020
1263 Clear 31 998 66 10000 3.6 150 05:43 19.06.2020
1264 Clear 31 998 70 10000 2.6 160 04:23 19.06.2020
1265 Clear 31 997 74 10000 2.6 190 02:33 19.06.2020
1266 Clouds 32 996 75 10000 3.1 210 00:48 19.06.2020
1267 Clouds 33 996 70 10000 3.6 220 00:22 19.06.2020
1268 Clouds 33 996 70 10000 3.6 220 23:58 18.06.2020
1269 Clouds 33 996 70 10000 3.6 220 23:40 18.06.2020
1270 Clouds 33 996 70 10000 3.6 220 23:22 18.06.2020
1271 Clouds 33 996 75 10000 3.1 240 22:57 18.06.2020
1272 Clouds 33 996 75 10000 3.1 240 22:36 18.06.2020
1273 Clouds 33 996 75 10000 3.1 240 22:18 18.06.2020
1274 Clouds 34 997 67 10000 2.1 240 21:38 18.06.2020
1275 Clouds 34 997 67 10000 2.1 240 21:19 18.06.2020
1276 Clear 34 997 63 10000 2.1 230 20:44 18.06.2020
1277 Clear 34 997 63 10000 2.1 230 20:23 18.06.2020
1278 Clear 35 996 56 10000 2.6 270 19:59 18.06.2020
1279 Clear 35 996 56 10000 2.6 270 19:41 18.06.2020
1280 Clear 35 996 56 10000 2.6 270 19:20 18.06.2020
1281 Clear 35 996 63 10000 2.6 330 18:56 18.06.2020
1282 Clear 35 996 63 10000 2.6 330 18:36 18.06.2020
1283 Clear 35 996 63 10000 2.6 330 18:18 18.06.2020
1284 Clear 35 995 67 10000 5.1 320 17:43 18.06.2020
1285 Clear 35 995 67 10000 5.1 320 17:24 18.06.2020
1286 Clear 36 995 63 10000 4.6 330 16:44 18.06.2020
1287 Clear 36 995 63 10000 4.6 330 16:26 18.06.2020
1288 Clear 38 994 57 10000 5.1 320 15:59 18.06.2020
1289 Clear 38 994 57 10000 5.1 320 15:40 18.06.2020
1290 Clear 38 994 57 10000 5.1 320 15:20 18.06.2020
1291 Clear 37 995 60 10000 5.1 330 14:57 18.06.2020
1292 Clear 37 995 60 10000 5.1 330 14:39 18.06.2020
1293 Clear 37 995 60 10000 5.1 330 14:20 18.06.2020
1294 Clear 38 995 57 10000 5.7 340 13:48 18.06.2020
1295 Clear 38 995 57 10000 5.7 340 13:29 18.06.2020
1296 Clear 38 995 57 10000 6.2 340 12:58 18.06.2020
1297 Clear 38 995 57 10000 6.2 340 12:40 18.06.2020
1298 Clear 38 995 57 10000 6.2 340 12:20 18.06.2020
1299 Clear 40 995 51 10000 6.7 340 11:59 18.06.2020
1300 Clear 40 995 51 10000 6.7 340 11:40 18.06.2020
1301 Clear 40 995 51 10000 6.7 340 11:19 18.06.2020
1302 Clear 41 996 33 10000 2.6 150 11:19 18.06.2020
1303 Clear 40 996 33 10000 2.6 150 10:41 18.06.2020
1304 Clear 40 996 33 10000 2.6 150 10:41 18.06.2020
1305 Clear 38 996 33 10000 2.6 150 10:19 18.06.2020
1306 Clear 38 996 45 10000 2.6 0 09:54 18.06.2020
1307 Clear 37 996 45 10000 2.6 0 09:36 18.06.2020
1308 Clear 36 996 56 10000 4.1 150 09:18 18.06.2020
1309 Clear 35 996 56 10000 4.1 150 08:39 18.06.2020
1310 Clear 33 996 56 10000 4.1 150 08:20 18.06.2020
1311 Clear 32 996 75 8000 3.6 180 07:46 18.06.2020
1312 Clear 31 996 75 8000 3.6 180 07:26 18.06.2020
1313 Clear 30 996 79 7000 3.6 170 06:54 18.06.2020
1314 Clouds 29 996 89 6000 3.6 180 05:55 18.06.2020
1315 Haze 29 996 89 4000 3.6 160 04:22 18.06.2020
1316 Clear 30 995 89 8000 4.1 210 02:51 18.06.2020
1317 Clear 32 994 79 9000 3.6 200 01:28 18.06.2020
1318 Clear 32 994 79 10000 3.1 230 00:54 18.06.2020
1319 Clear 33 994 79 10000 3.1 230 00:32 18.06.2020
1320 Clear 33 995 66 10000 2.1 240 23:57 17.06.2020
1321 Clear 33 995 66 10000 2.1 240 23:38 17.06.2020
1322 Clear 33 995 66 10000 2.1 240 23:20 17.06.2020
1323 Clear 33 995 70 10000 3.1 240 22:57 17.06.2020
1324 Clear 33 995 70 10000 3.1 240 22:37 17.06.2020
1325 Clear 33 995 70 10000 3.1 240 22:37 17.06.2020
1326 Clear 33 995 70 10000 3.1 240 22:19 17.06.2020
1327 Clear 34 995 71 10000 3.1 220 21:40 17.06.2020
1328 Clear 34 995 71 10000 3.1 220 21:22 17.06.2020
1329 Clear 34 995 59 10000 2.1 190 20:56 17.06.2020
1330 Clear 34 995 59 10000 2.1 190 20:37 17.06.2020
1331 Clear 34 995 67 10000 2.1 310 20:19 17.06.2020
1332 Clear 34 995 67 10000 2.1 310 19:43 17.06.2020
1333 Clear 34 995 67 10000 2.1 310 19:22 17.06.2020
1334 Clear 34 994 75 10000 3.1 320 18:56 17.06.2020
1335 Clear 34 994 75 10000 3.1 320 18:38 17.06.2020
1336 Clear 34 994 75 8000 4.6 350 18:20 17.06.2020
1337 Clear 34 994 75 8000 4.6 350 17:42 17.06.2020
1338 Clear 34 994 75 8000 4.6 350 17:22 17.06.2020
1339 Clear 35 994 67 10000 4.6 330 16:56 17.06.2020
1340 Clear 35 994 67 10000 4.6 330 16:38 17.06.2020
1341 Clear 35 994 67 10000 4.6 330 16:20 17.06.2020
1342 Clear 36 993 63 10000 5.1 340 15:40 17.06.2020
1343 Clear 36 993 67 10000 6.7 340 15:21 17.06.2020
1344 Clear 36 993 67 10000 6.7 340 14:59 17.06.2020
1345 Clear 36 993 67 10000 6.7 340 14:40 17.06.2020
1346 Clear 37 994 60 10000 6.2 350 14:21 17.06.2020
1347 Clear 37 994 60 10000 6.2 350 14:00 17.06.2020
1348 Clear 37 994 60 10000 6.2 350 13:41 17.06.2020
1349 Clear 37 994 60 10000 6.2 350 13:41 17.06.2020
1350 Clear 38 994 60 10000 6.2 350 13:21 17.06.2020
1351 Clear 38 994 53 10000 8.2 330 12:56 17.06.2020
1352 Clear 38 994 53 10000 8.2 330 12:37 17.06.2020
1353 Clear 39 994 48 10000 7.2 340 12:19 17.06.2020
1354 Clear 39 994 48 10000 7.2 340 12:19 17.06.2020
1355 Clear 39 994 48 10000 7.2 340 11:44 17.06.2020
1356 Clear 43 995 19 10000 1.5 310 11:24 17.06.2020
1357 Clear 43 995 19 10000 1.5 310 10:55 17.06.2020
1358 Clear 43 995 19 10000 1.5 310 10:55 17.06.2020
1359 Clear 43 995 19 10000 1.5 310 10:36 17.06.2020
1360 Clear 41 995 24 10000 2.1 170 10:18 17.06.2020
1361 Clear 40 995 24 10000 2.1 170 09:54 17.06.2020
1362 Clouds 40 995 24 10000 2.1 170 09:36 17.06.2020
1363 Clouds 40 995 24 10000 2.1 170 09:36 17.06.2020
1364 Clear 37 995 33 10000 3.6 190 09:18 17.06.2020
1365 Clear 37 995 33 10000 3.6 190 08:41 17.06.2020
1366 Clouds 34 995 53 10000 3.6 180 08:19 17.06.2020
1367 Clouds 34 995 53 10000 3.6 180 08:19 17.06.2020
1368 Clouds 34 995 53 10000 3.6 180 07:43 17.06.2020
1369 Clouds 34 995 53 10000 3.6 180 07:23 17.06.2020
1370 Clouds 31 996 74 10000 4.1 190 06:57 17.06.2020
1371 Clouds 30 996 74 10000 4.1 190 06:38 17.06.2020
1372 Clouds 31 996 74 10000 4.1 190 06:20 17.06.2020
1373 Clouds 29 996 79 10000 3.6 190 05:31 17.06.2020
1374 Clouds 30 995 84 10000 3.6 200 03:30 17.06.2020
1375 Clouds 30 994 89 10000 3.6 200 01:54 17.06.2020
1376 Clouds 31 995 84 10000 3.6 190 00:48 17.06.2020
1377 Clouds 31 995 84 10000 3.6 190 00:25 17.06.2020
1378 Clouds 32 995 75 10000 3.1 190 23:57 16.06.2020
1379 Clouds 32 995 75 10000 3.1 190 23:38 16.06.2020
1380 Clouds 33 996 75 10000 2.6 180 23:19 16.06.2020
1381 Clouds 33 996 75 10000 2.6 180 22:56 16.06.2020
1382 Clouds 33 996 75 10000 2.6 180 22:37 16.06.2020
1383 Clouds 33 996 79 10000 2.6 230 22:18 16.06.2020
1384 Clouds 33 996 79 10000 2.6 230 21:47 16.06.2020
1385 Clouds 33 996 79 10000 2.6 230 21:24 16.06.2020
1386 Clouds 33 996 79 10000 3.6 240 20:58 16.06.2020
1387 Clouds 33 996 79 10000 3.6 240 20:40 16.06.2020
1388 Clouds 34 996 75 10000 3.1 260 20:19 16.06.2020
1389 Clouds 34 996 75 10000 3.1 260 19:58 16.06.2020
1390 Clouds 34 996 75 10000 3.1 260 19:39 16.06.2020
1391 Clouds 35 996 75 10000 3.1 260 19:21 16.06.2020
1392 Clouds 35 995 71 10000 2.6 270 18:55 16.06.2020
1393 Clouds 35 995 71 10000 2.6 270 18:36 16.06.2020
1394 Clouds 36 995 53 10000 3.6 290 18:18 16.06.2020
1395 Clouds 37 995 53 10000 3.6 290 17:54 16.06.2020
1396 Clouds 37 995 53 10000 3.6 290 17:36 16.06.2020
1397 Clouds 37 995 53 10000 3.6 290 17:18 16.06.2020
1398 Clouds 37 995 53 10000 3.6 320 16:42 16.06.2020
1399 Clouds 37 995 53 10000 3.6 320 16:20 16.06.2020
1400 Clouds 38 995 50 10000 5.7 320 15:58 16.06.2020
1401 Clouds 38 995 50 10000 5.7 320 15:40 16.06.2020
1402 Clear 38 995 50 10000 5.7 320 15:21 16.06.2020
1403 Clear 39 995 51 10000 4.6 340 14:57 16.06.2020
1404 Clouds 39 995 51 10000 4.6 340 14:38 16.06.2020
1405 Clouds 39 995 51 10000 4.6 340 14:20 16.06.2020
1406 Clouds 40 995 48 10000 3.6 280 13:48 16.06.2020
1407 Clouds 40 995 48 10000 3.6 280 13:26 16.06.2020
1408 Clouds 41 995 45 10000 4.6 290 12:57 16.06.2020
1409 Clouds 41 995 45 10000 4.6 290 12:38 16.06.2020
1410 Clear 42 996 36 10000 3.6 270 12:19 16.06.2020
1411 Clear 42 996 36 10000 3.6 270 11:54 16.06.2020
1412 Clear 42 996 36 10000 3.6 270 11:36 16.06.2020
1413 Clear 40 997 35 10000 3.6 260 11:18 16.06.2020
1414 Clear 39 997 35 10000 3.6 260 10:42 16.06.2020
1415 Clear 38 997 35 10000 3.6 260 10:20 16.06.2020
1416 Clear 37 997 39 10000 3.6 220 09:48 16.06.2020
1417 Clouds 36 997 39 10000 3.6 220 09:27 16.06.2020
1418 Clouds 35 998 50 10000 3.6 210 08:59 16.06.2020
1419 Clouds 35 998 50 10000 3.6 210 08:41 16.06.2020
1420 Clouds 35 998 50 10000 3.6 210 08:22 16.06.2020
1421 Clouds 33 998 56 10000 4.1 200 07:45 16.06.2020
1422 Clouds 32 998 56 10000 4.1 200 07:26 16.06.2020
1423 Clouds 31 998 62 10000 3.6 180 06:44 16.06.2020
1424 Clouds 31 998 62 10000 3.6 180 06:19 16.06.2020
1425 Clouds 30 997 70 10000 2.6 180 05:32 16.06.2020
1426 Clouds 30 997 74 10000 3.6 200 04:27 16.06.2020
1427 Clouds 31 996 74 10000 3.1 180 02:49 16.06.2020
1428 Clouds 30 996 84 10000 3.6 200 01:44 16.06.2020
1429 Clouds 31 997 84 10000 3.6 200 01:19 16.06.2020
1430 Clouds 31 997 84 10000 3.6 200 00:37 16.06.2020
1431 Clouds 31 997 84 10000 2.6 190 00:18 16.06.2020
1432 Clouds 31 997 84 10000 2.6 190 23:41 15.06.2020
1433 Clouds 32 997 84 10000 2.6 190 23:21 15.06.2020
1434 Clouds 33 997 70 10000 3.1 250 22:42 15.06.2020
1435 Clear 33 997 70 10000 3.1 250 22:23 15.06.2020
1436 Clear 33 998 75 10000 3.1 180 21:59 15.06.2020
1437 Clear 33 998 75 10000 3.1 180 21:38 15.06.2020
1438 Clear 33 998 75 10000 3.1 180 21:20 15.06.2020
1439 Clear 33 998 75 10000 2.1 210 20:59 15.06.2020
1440 Clear 33 998 75 10000 2.1 210 20:39 15.06.2020
1441 Clouds 34 998 75 10000 2.1 210 20:20 15.06.2020
1442 Clouds 34 998 71 10000 4.1 280 20:00 15.06.2020
1443 Clouds 34 998 71 10000 4.1 280 19:40 15.06.2020
1444 Clouds 35 998 63 10000 3.1 260 19:22 15.06.2020
1445 Clouds 35 998 63 10000 3.1 260 18:57 15.06.2020
1446 Clouds 35 998 63 10000 3.1 260 18:39 15.06.2020
1447 Clouds 36 998 63 10000 3.1 260 18:19 15.06.2020
1448 Clouds 37 998 39 10000 4.1 280 17:57 15.06.2020
1449 Clouds 37 998 39 10000 4.1 280 17:39 15.06.2020
1450 Clouds 37 997 45 10000 3.1 260 17:19 15.06.2020
1451 Clouds 37 997 45 10000 3.1 260 17:19 15.06.2020
1452 Clouds 38 997 45 10000 3.1 260 16:43 15.06.2020
1453 Clouds 38 997 45 10000 3.1 260 16:20 15.06.2020
1454 Clouds 39 997 35 10000 4.1 290 15:58 15.06.2020
1455 Clouds 39 997 35 10000 4.1 290 15:40 15.06.2020
1456 Clouds 39 997 35 10000 4.1 290 15:20 15.06.2020
1457 Clouds 38 998 47 10000 6.2 330 14:56 15.06.2020
1458 Clouds 38 998 47 10000 6.2 330 14:37 15.06.2020
1459 Clouds 40 998 40 10000 5.1 290 14:18 15.06.2020
1460 Clouds 40 998 40 10000 5.1 290 13:42 15.06.2020
1461 Clouds 40 998 40 10000 5.1 290 13:24 15.06.2020
1462 Clouds 40 998 40 10000 5.1 290 13:24 15.06.2020
1463 Clouds 42 999 32 10000 3.6 280 12:59 15.06.2020
1464 Clouds 42 999 32 10000 3.6 280 12:40 15.06.2020
1465 Clouds 42 999 32 10000 3.6 280 12:21 15.06.2020
1466 Clouds 41 999 43 10000 4.1 290 11:45 15.06.2020
1467 Clouds 41 999 43 10000 4.1 290 11:26 15.06.2020
1468 Clouds 42 1000 20 10000 2.6 210 10:57 15.06.2020
1469 Clouds 42 1000 20 10000 2.6 210 10:38 15.06.2020
1470 Clouds 41 1000 20 10000 2.6 210 10:19 15.06.2020
1471 Clouds 39 1001 31 10000 3.6 250 10:19 15.06.2020
1472 Clouds 38 1001 31 10000 3.6 250 09:42 15.06.2020
1473 Clouds 37 1001 31 10000 3.6 250 09:22 15.06.2020
1474 Clouds 36 1001 47 10000 3.1 220 08:43 15.06.2020
1475 Clouds 35 1001 47 10000 3.1 220 08:25 15.06.2020
1476 Clouds 32 1001 66 8000 3.1 180 07:51 15.06.2020
1477 Clouds 31 1001 66 8000 3.1 180 07:33 15.06.2020
1478 Clouds 30 1001 79 6000 4.6 210 06:57 15.06.2020
1479 Clouds 30 1001 79 6000 4.6 210 06:57 15.06.2020
1480 Clouds 30 1001 79 6000 4.6 210 06:57 15.06.2020
1481 Clouds 30 1001 79 6000 4.6 210 06:27 15.06.2020
1482 Clouds 30 1001 84 6000 3.6 180 05:50 15.06.2020
1483 Haze 29 1001 89 5000 3.6 210 05:28 15.06.2020
1484 Fog 28 1000 94 800 3.1 170 04:22 15.06.2020
1485 Fog 28 1000 94 800 3.1 170 04:22 15.06.2020
1486 Fog 29 999 94 500 2.6 190 03:48 15.06.2020
1487 Fog 28 999 94 500 2.6 190 03:48 15.06.2020
1488 Mist 30 999 94 2000 3.6 210 02:56 15.06.2020
1489 Clear 30 999 89 10000 3.6 200 02:24 15.06.2020
1490 Clouds 32 999 79 10000 2.1 200 01:41 15.06.2020
1491 Clouds 32 999 79 10000 2.1 200 01:23 15.06.2020
1492 Clouds 32 999 84 10000 2.1 250 00:43 15.06.2020
1493 Clouds 32 999 84 10000 2.1 250 00:23 15.06.2020
1494 Clouds 33 1000 70 10000 2.1 260 23:56 14.06.2020
1495 Clouds 33 1000 70 10000 2.1 260 23:38 14.06.2020
1496 Clouds 33 1000 56 10000 2.1 230 23:20 14.06.2020
1497 Clouds 34 1000 56 10000 2.1 230 22:56 14.06.2020
1498 Clouds 34 1000 56 10000 2.1 230 22:37 14.06.2020
1499 Clouds 34 1000 53 10000 2.1 230 22:18 14.06.2020
1500 Clouds 34 1000 53 10000 2.1 230 21:55 14.06.2020
1501 Clouds 35 1000 53 10000 2.1 230 21:37 14.06.2020
1502 Clouds 35 1000 47 10000 1.5 210 21:18 14.06.2020
1503 Clouds 35 1000 47 10000 1.5 210 20:55 14.06.2020
1504 Clouds 35 1000 47 10000 1.5 210 20:36 14.06.2020
1505 Clouds 35 1000 47 10000 1.5 230 20:18 14.06.2020
1506 Clouds 36 1000 47 10000 1.5 230 19:55 14.06.2020
1507 Clouds 36 1000 47 10000 1.5 230 19:36 14.06.2020
1508 Clear 36 1000 44 10000 1.5 320 19:18 14.06.2020
1509 Clear 36 1000 44 10000 1.5 320 18:55 14.06.2020
1510 Clear 36 1000 44 10000 1.5 320 18:37 14.06.2020
1511 Clear 37 999 47 10000 4.1 320 18:18 14.06.2020
1512 Clear 37 999 47 10000 4.1 320 17:40 14.06.2020
1513 Clear 37 999 47 10000 4.1 320 17:20 14.06.2020
1514 Clear 38 999 53 10000 5.1 320 16:58 14.06.2020
1515 Clear 38 999 53 10000 5.1 320 16:39 14.06.2020
1516 Clear 37 999 53 10000 5.1 320 16:19 14.06.2020
1517 Clear 37 999 50 10000 6.7 330 15:55 14.06.2020
1518 Clear 37 999 50 10000 6.7 330 15:36 14.06.2020
1519 Clear 39 999 51 10000 6.2 310 15:18 14.06.2020
1520 Clear 39 999 51 10000 6.2 310 14:41 14.06.2020
1521 Clouds 39 999 51 10000 6.2 310 14:23 14.06.2020
1522 Clouds 39 999 54 10000 6.7 330 13:59 14.06.2020
1523 Clouds 39 999 54 10000 6.7 330 13:40 14.06.2020
1524 Clouds 39 999 54 10000 6.7 330 13:40 14.06.2020
1525 Clouds 39 999 54 9000 6.2 330 13:21 14.06.2020
1526 Clouds 39 999 54 9000 6.2 330 12:57 14.06.2020
1527 Clouds 39 999 54 9000 6.2 330 12:39 14.06.2020
1528 Clouds 39 999 54 9000 6.2 330 12:21 14.06.2020
1529 Clouds 40 1000 51 9000 5.7 330 11:57 14.06.2020
1530 Clouds 40 1000 51 9000 5.7 330 11:38 14.06.2020
1531 Clouds 40 1000 51 9000 5.7 330 11:20 14.06.2020
1532 Clouds 43 1000 27 10000 1.5 0 10:42 14.06.2020
1533 Clouds 40 1001 38 10000 2.1 0 10:20 14.06.2020
1534 Clouds 40 1001 38 10000 2.1 0 09:51 14.06.2020
1535 Clouds 37 1001 38 10000 2.1 0 09:26 14.06.2020
1536 Clear 36 1001 53 10000 2.6 240 08:59 14.06.2020
1537 Clear 35 1001 53 10000 2.6 240 08:41 14.06.2020
1538 Clear 34 1001 66 8000 2.6 220 08:19 14.06.2020
1539 Clear 33 1001 66 8000 2.6 220 07:52 14.06.2020
1540 Clear 33 1001 66 8000 2.6 220 07:32 14.06.2020
1541 Haze 30 1001 84 5000 4.6 220 06:39 14.06.2020
1542 Fog 30 1000 94 800 4.1 180 05:45 14.06.2020
1543 Haze 30 1000 79 4500 4.6 180 04:59 14.06.2020
1544 Clear 31 999 79 7000 0.5 0 04:33 14.06.2020
1545 Clear 31 998 75 8000 1 0 03:27 14.06.2020
1546 Clear 31 998 79 7000 2.1 230 02:30 14.06.2020
1547 Clear 32 998 84 7000 1 0 01:45 14.06.2020
1548 Clouds 32 998 84 7000 1 0 01:23 14.06.2020
1549 Clouds 32 998 84 7000 2.1 230 00:39 14.06.2020
1550 Clouds 32 998 84 7000 2.1 230 00:19 14.06.2020
1551 Clouds 32 998 84 8000 2.6 240 23:44 13.06.2020
1552 Clouds 32 998 84 8000 2.6 240 23:24 13.06.2020
1553 Clouds 33 998 79 8000 2.1 240 22:57 13.06.2020
1554 Clouds 33 998 79 8000 2.1 240 22:37 13.06.2020
1555 Clear 33 999 79 8000 2.6 330 22:18 13.06.2020
1556 Clear 33 999 79 8000 2.6 330 21:56 13.06.2020
1557 Clear 33 999 79 8000 2.6 330 21:37 13.06.2020
1558 Clear 33 999 79 8000 2.6 330 21:19 13.06.2020
1559 Clear 33 998 79 8000 2.6 340 20:42 13.06.2020
1560 Clear 33 998 79 8000 2.6 340 20:42 13.06.2020
1561 Clouds 34 998 79 8000 2.6 340 20:19 13.06.2020
1562 Clouds 34 998 75 8000 3.6 340 19:57 13.06.2020
1563 Clouds 34 998 75 8000 3.6 340 19:36 13.06.2020
1564 Clouds 35 997 63 8000 3.6 340 19:18 13.06.2020
1565 Clouds 35 997 63 8000 3.6 340 18:55 13.06.2020
1566 Clouds 35 997 63 8000 3.6 340 18:37 13.06.2020
1567 Clouds 36 997 56 8000 4.6 340 18:18 13.06.2020
1568 Clouds 36 997 56 8000 4.6 340 17:42 13.06.2020
1569 Clear 36 997 56 8000 4.6 340 17:23 13.06.2020
1570 Clear 38 996 50 10000 4.1 330 16:58 13.06.2020
1571 Clear 38 996 50 10000 4.1 330 16:39 13.06.2020
1572 Clear 38 996 50 10000 4.1 330 16:19 13.06.2020
1573 Clear 39 996 45 10000 5.1 330 15:45 13.06.2020
1574 Clear 39 996 45 10000 5.1 330 15:27 13.06.2020
1575 Clear 39 996 48 10000 5.1 330 14:59 13.06.2020
1576 Clear 39 996 48 10000 5.1 330 14:41 13.06.2020
1577 Clear 40 996 43 10000 5.1 320 14:20 13.06.2020
1578 Clear 40 996 43 10000 5.1 320 13:44 13.06.2020
1579 Clear 40 996 43 10000 5.1 320 13:26 13.06.2020
1580 Clear 41 997 38 10000 4.1 320 12:55 13.06.2020
1581 Clear 41 997 38 10000 4.1 320 12:37 13.06.2020
1582 Clear 40 997 43 10000 4.1 330 12:19 13.06.2020
1583 Clear 40 997 43 10000 4.1 330 11:40 13.06.2020
1584 Clear 40 997 43 10000 4.1 330 11:19 13.06.2020
1585 Clear 39 998 42 10000 4.1 340 10:58 13.06.2020
1586 Clear 39 998 42 10000 4.1 340 10:39 13.06.2020
1587 Clear 38 998 37 10000 2.6 310 10:20 13.06.2020
1588 Clear 37 998 37 10000 2.6 310 09:45 13.06.2020
1589 Clear 36 998 37 10000 2.6 310 09:27 13.06.2020
1590 Clear 35 999 44 10000 2.1 270 08:56 13.06.2020
1591 Clear 35 999 44 10000 2.1 270 08:37 13.06.2020
1592 Clear 34 999 44 10000 2.1 270 08:19 13.06.2020
1593 Clear 32 998 38 0 3.58 170 07:42 13.06.2020
1594 Clear 32 998 46 10000 3.1 210 07:23 13.06.2020
1595 Clear 31 998 46 10000 3.1 210 06:44 13.06.2020
1596 Clear 31 998 38 10000 3.1 180 06:24 13.06.2020
1597 Clear 30 998 38 10000 3.1 180 05:27 13.06.2020
1598 Clear 30 998 40 10000 2.1 190 04:34 13.06.2020
1599 Clear 30 997 48 10000 2.6 210 02:55 13.06.2020
1600 Clear 30 997 48 10000 2.6 210 02:37 13.06.2020
1601 Clear 31 996 43 10000 2.1 180 01:47 13.06.2020
1602 Clear 31 996 43 10000 2.1 180 01:22 13.06.2020
1603 Clear 31 996 52 10000 4.6 210 00:45 13.06.2020
1604 Clear 31 996 52 10000 4.6 210 00:26 13.06.2020
1605 Clear 32 997 55 10000 3.6 200 23:55 12.06.2020
1606 Clear 32 997 55 10000 3.6 200 23:37 12.06.2020
1607 Clear 32 998 52 10000 3.1 190 23:18 12.06.2020
1608 Clear 33 998 52 10000 3.1 190 22:41 12.06.2020
1609 Clear 34 998 52 10000 2.1 230 22:19 12.06.2020
1610 Clear 34 998 52 10000 2.1 230 21:50 12.06.2020
1611 Clear 34 998 52 10000 2.1 230 21:27 12.06.2020
1612 Clear 34 998 52 10000 2.6 220 20:59 12.06.2020
1613 Clear 34 998 52 10000 2.6 220 20:41 12.06.2020
1614 Clear 35 998 53 10000 2.6 230 20:22 12.06.2020
1615 Clear 35 998 53 10000 2.6 230 19:57 12.06.2020
1616 Clear 35 998 53 10000 2.6 230 19:57 12.06.2020
1617 Clear 35 998 53 10000 2.6 230 19:39 12.06.2020
1618 Clear 35 998 53 10000 2.6 230 19:19 12.06.2020
1619 Clear 36 998 41 10000 2.1 260 18:39 12.06.2020
1620 Clear 36 997 41 10000 2.1 270 18:19 12.06.2020
1621 Clear 36 997 41 10000 2.1 270 17:58 12.06.2020
1622 Clear 36 997 41 10000 2.1 270 17:39 12.06.2020
1623 Clear 38 997 35 10000 3.1 290 17:19 12.06.2020
1624 Clear 38 997 35 10000 3.1 290 16:44 12.06.2020
1625 Clear 38 997 33 10000 4.6 290 16:20 12.06.2020
1626 Clear 38 997 33 10000 4.6 290 15:49 12.06.2020
1627 Clear 37 997 33 10000 4.6 290 15:26 12.06.2020
1628 Clear 37 998 50 10000 4.6 300 14:58 12.06.2020
1629 Clear 37 998 50 10000 4.6 300 14:39 12.06.2020
1630 Clear 37 998 50 10000 4.6 300 14:21 12.06.2020
1631 Clear 37 998 44 10000 5.1 280 13:42 12.06.2020
1632 Clear 37 998 44 10000 5.1 280 13:21 12.06.2020
1633 Clear 39 998 33 10000 5.7 310 12:41 12.06.2020
1634 Clear 39 998 33 10000 5.7 310 12:20 12.06.2020
1635 Clear 39 999 27 10000 4.6 290 11:58 12.06.2020
1636 Clear 39 999 27 10000 4.6 290 11:40 12.06.2020
1637 Clear 39 999 31 10000 4.1 290 11:21 12.06.2020
1638 Clear 39 999 31 10000 4.1 290 10:46 12.06.2020
1639 Clear 39 999 31 10000 4.1 290 10:25 12.06.2020
1640 Clear 39 1000 27 10000 4.1 280 09:47 12.06.2020
1641 Clear 38 1000 29 10000 2.6 260 09:22 12.06.2020
1642 Clear 37 1000 29 10000 2.6 260 08:46 12.06.2020
1643 Clear 37 1000 29 10000 2.6 260 08:25 12.06.2020
1644 Clear 34 1000 41 10000 3.1 210 07:56 12.06.2020
1645 Clear 34 1000 41 10000 3.1 210 07:38 12.06.2020
1646 Clear 33 999 52 8000 3.6 200 07:19 12.06.2020
1647 Clear 31 999 52 8000 3.6 200 06:31 12.06.2020
1648 Clear 30 999 66 8000 2.1 210 05:57 12.06.2020
1649 Clear 30 999 66 8000 2.1 210 05:37 12.06.2020
1650 Clear 29 999 66 8000 2.1 210 05:19 12.06.2020
1651 Clear 30 998 66 10000 4.6 200 03:33 12.06.2020
1652 Clear 32 998 66 10000 3.1 210 01:57 12.06.2020
1653 Clear 32 998 66 10000 3.1 210 01:30 12.06.2020
1654 Clear 32 998 66 10000 2.6 210 00:47 12.06.2020
1655 Clear 32 998 66 10000 2.6 210 00:26 12.06.2020
1656 Clear 33 998 63 10000 3.1 210 23:59 11.06.2020
1657 Clear 33 998 63 10000 3.1 210 23:59 11.06.2020
1658 Clear 33 998 63 10000 3.1 210 23:41 11.06.2020
1659 Clear 33 998 63 10000 3.1 210 23:22 11.06.2020
1660 Clear 33 999 63 10000 2.6 190 22:59 11.06.2020
1661 Clear 33 999 63 10000 2.6 190 22:39 11.06.2020
1662 Clear 33 999 63 10000 2.6 190 22:20 11.06.2020
1663 Clear 34 999 59 10000 1.5 230 21:56 11.06.2020
1664 Clear 34 999 59 10000 1.5 230 21:38 11.06.2020
1665 Clear 34 1000 59 10000 2.1 310 21:20 11.06.2020
1666 Clear 34 1000 59 10000 2.1 310 20:45 11.06.2020
1667 Clouds 34 999 59 9000 4.6 330 20:22 11.06.2020
1668 Clouds 34 999 59 9000 4.6 330 19:58 11.06.2020
1669 Clouds 34 999 59 9000 4.6 330 19:40 11.06.2020
1670 Clouds 34 999 59 9000 4.6 330 19:21 11.06.2020
1671 Clouds 35 999 59 10000 4.1 330 18:42 11.06.2020
1672 Clouds 36 999 59 10000 4.1 330 18:24 11.06.2020
1673 Clouds 37 999 42 10000 5.7 320 17:57 11.06.2020
1674 Clouds 37 999 42 10000 5.7 320 17:38 11.06.2020
1675 Clouds 37 999 42 10000 5.7 320 17:19 11.06.2020
1676 Clouds 38 999 37 10000 5.7 320 16:57 11.06.2020
1677 Clouds 38 999 37 10000 5.7 320 16:38 11.06.2020
1678 Clouds 38 999 37 10000 5.7 320 16:20 11.06.2020
1679 Clouds 39 999 37 10000 5.7 320 15:43 11.06.2020
1680 Clouds 39 999 37 10000 5.7 320 15:25 11.06.2020
1681 Clouds 39 999 35 10000 6.2 320 14:58 11.06.2020
1682 Clouds 39 999 35 10000 6.2 320 14:38 11.06.2020
1683 Clear 39 999 35 10000 6.2 320 14:20 11.06.2020
1684 Clear 39 1000 37 10000 7.2 320 13:55 11.06.2020
1685 Clear 39 1000 37 10000 7.2 320 13:37 11.06.2020
1686 Clear 42 999 23 10000 8.2 320 13:18 11.06.2020
1687 Clear 42 999 23 10000 8.2 320 12:54 11.06.2020
1688 Clear 42 999 23 10000 8.2 320 12:36 11.06.2020
1689 Clear 44 1000 15 10000 4.1 270 12:18 11.06.2020
1690 Clear 44 1000 15 10000 4.1 270 11:56 11.06.2020
1691 Clear 44 1000 15 10000 4.1 270 11:37 11.06.2020
1692 Clear 44 1000 15 10000 4.1 270 11:18 11.06.2020
1693 Clear 44 1000 20 10000 2.6 300 10:42 11.06.2020
1694 Clear 44 1000 20 10000 2.6 300 10:20 11.06.2020
1695 Clear 43 1001 17 10000 2.1 310 09:45 11.06.2020
1696 Clear 43 1001 17 10000 2.1 310 09:45 11.06.2020
1697 Clear 42 1001 17 10000 2.1 310 09:26 11.06.2020
1698 Clear 40 1001 29 10000 2.6 210 08:55 11.06.2020
1699 Clear 39 1001 29 10000 2.6 210 08:36 11.06.2020
1700 Clear 37 1001 47 10000 1.5 180 08:18 11.06.2020
1701 Clear 37 1001 47 10000 1.5 180 07:41 11.06.2020
1702 Clear 36 1001 47 10000 1.5 180 07:23 11.06.2020
1703 Clear 34 1001 50 10000 1 0 06:33 11.06.2020
1704 Clear 34 1001 50 10000 1 0 06:33 11.06.2020
1705 Clear 34 1001 59 10000 2.6 140 05:54 11.06.2020
1706 Clear 32 1000 66 10000 1 0 04:37 11.06.2020
1707 Clear 33 1000 70 10000 1 0 03:25 11.06.2020
1708 Clear 34 1000 63 10000 2.1 100 02:46 11.06.2020
1709 Clear 34 1000 67 10000 1 0 01:56 11.06.2020
1710 Clear 34 1000 67 10000 1 0 01:35 11.06.2020
1711 Clear 34 1000 71 10000 1.5 250 00:57 11.06.2020
1712 Clear 34 1000 71 10000 1.5 250 00:38 11.06.2020
1713 Clear 34 1000 71 10000 1.5 250 00:19 11.06.2020
1714 Clear 34 1000 71 10000 2.1 240 23:40 10.06.2020
1715 Clear 34 1000 71 10000 2.1 240 23:21 10.06.2020
1716 Clear 34 1001 75 10000 2.1 210 22:41 10.06.2020
1717 Clear 34 1001 75 10000 2.1 210 22:22 10.06.2020
1718 Clear 35 1001 67 10000 2.6 270 21:59 10.06.2020
1719 Clear 35 1001 67 10000 2.6 270 21:59 10.06.2020
1720 Clear 35 1001 67 10000 2.6 270 21:41 10.06.2020
1721 Clear 34 1001 67 10000 2.6 270 21:19 10.06.2020
1722 Clear 34 1001 75 10000 3.1 350 20:59 10.06.2020
1723 Clear 34 1001 75 10000 3.1 350 20:40 10.06.2020
1724 Clear 34 1001 75 10000 3.1 350 20:40 10.06.2020
1725 Clear 34 1001 75 10000 3.1 350 20:21 10.06.2020
1726 Clear 35 1001 63 10000 4.6 330 19:59 10.06.2020
1727 Clear 35 1001 63 10000 4.6 330 19:38 10.06.2020
1728 Clear 36 1000 63 10000 3.6 340 19:18 10.06.2020
1729 Clear 36 1000 63 10000 3.6 340 18:42 10.06.2020
1730 Clear 37 1000 60 10000 3.6 340 18:22 10.06.2020
1731 Clear 37 1000 60 10000 3.6 340 17:59 10.06.2020
1732 Clear 37 1000 60 10000 3.6 340 17:41 10.06.2020
1733 Clear 38 1000 60 10000 3.6 340 17:20 10.06.2020
1734 Clear 39 999 51 10000 5.1 330 16:59 10.06.2020
1735 Clear 39 999 51 10000 5.1 330 16:40 10.06.2020
1736 Clear 39 999 51 10000 5.1 330 16:20 10.06.2020
1737 Clear 40 999 43 10000 5.7 330 15:57 10.06.2020
1738 Clear 40 999 43 10000 5.7 330 15:37 10.06.2020
1739 Clear 40 999 43 10000 5.7 330 15:19 10.06.2020
1740 Clear 41 1000 40 10000 6.2 330 14:41 10.06.2020
1741 Clear 41 1000 40 10000 6.2 330 14:21 10.06.2020
1742 Clear 41 1000 38 10000 6.7 310 13:56 10.06.2020
1743 Clear 41 1000 38 10000 6.7 310 13:38 10.06.2020
1744 Clear 42 1001 38 10000 5.1 320 13:20 10.06.2020
1745 Clear 42 1001 38 10000 5.1 320 12:41 10.06.2020
1746 Clear 41 1001 38 10000 5.1 320 12:18 10.06.2020
1747 Clear 41 1002 40 10000 5.1 340 11:46 10.06.2020
1748 Clear 42 1002 40 10000 5.1 340 11:20 10.06.2020
1749 Clear 42 1002 34 10000 2.1 70 10:59 10.06.2020
1750 Clear 42 1002 34 10000 2.1 70 10:41 10.06.2020
1751 Clear 40 1003 38 10000 2.6 0 10:22 10.06.2020
1752 Clear 40 1003 38 10000 2.6 0 09:57 10.06.2020
1753 Clear 40 1003 38 10000 2.6 0 09:37 10.06.2020
1754 Clear 40 1003 38 10000 2.6 0 09:19 10.06.2020
1755 Clear 38 1003 42 10000 2.6 120 08:42 10.06.2020
1756 Clear 37 1003 42 10000 2.6 120 08:23 10.06.2020
1757 Clear 36 1003 53 10000 3.1 80 07:43 10.06.2020
1758 Clear 35 1003 53 10000 3.1 80 07:23 10.06.2020
1759 Clear 34 1003 67 10000 3.6 80 06:55 10.06.2020
1760 Clear 33 1003 67 10000 3.6 80 06:37 10.06.2020
1761 Clear 33 1002 75 10000 3.1 50 06:18 10.06.2020
1762 Clear 33 1002 75 10000 3.1 50 06:18 10.06.2020
1763 Clear 33 1002 75 10000 3.1 50 05:32 10.06.2020
1764 Clear 32 1001 84 10000 2.6 360 04:49 10.06.2020
1765 Clear 32 1001 84 10000 2.6 360 04:28 10.06.2020
1766 Clear 32 1000 84 10000 3.6 330 02:33 10.06.2020
1767 Clear 33 1000 75 10000 3.1 330 01:42 10.06.2020
1768 Clear 34 1000 71 10000 1 0 00:55 10.06.2020
1769 Clear 34 1000 71 10000 1 0 00:37 10.06.2020
1770 Clear 34 1000 71 10000 1 0 00:18 10.06.2020
1771 Clear 34 1000 71 10000 2.1 300 23:41 09.06.2020
1772 Clear 34 1000 71 10000 2.1 300 23:23 09.06.2020
1773 Clear 35 1001 63 10000 2.6 360 22:57 09.06.2020
1774 Clear 35 1001 63 10000 2.6 360 22:39 09.06.2020
1775 Clear 35 1001 63 10000 2.6 360 22:20 09.06.2020
1776 Clear 35 1001 63 10000 2.1 330 21:57 09.06.2020
1777 Clear 35 1001 63 10000 2.1 330 21:39 09.06.2020
1778 Clear 36 1001 63 10000 2.1 330 21:21 09.06.2020
1779 Clear 37 1001 44 10000 1.5 40 20:57 09.06.2020
1780 Clear 37 1001 44 10000 1.5 40 20:39 09.06.2020
1781 Clear 36 1001 50 10000 3.1 10 20:20 09.06.2020
1782 Clear 36 1001 50 10000 3.1 10 19:58 09.06.2020
1783 Clear 36 1001 50 10000 3.1 10 19:39 09.06.2020
1784 Clear 36 1001 50 10000 3.1 10 19:20 09.06.2020
1785 Clear 37 1000 44 10000 3.6 320 18:57 09.06.2020
1786 Clear 37 1000 44 10000 3.6 320 18:39 09.06.2020
1787 Clear 37 1000 44 10000 3.6 320 18:19 09.06.2020
1788 Clear 37 1000 53 10000 5.1 350 17:55 09.06.2020
1789 Clear 37 1000 53 10000 5.1 350 17:37 09.06.2020
1790 Clear 37 1000 53 10000 5.1 350 17:18 09.06.2020
1791 Clear 37 1000 56 10000 5.1 330 16:42 09.06.2020
1792 Clear 36 1000 56 10000 5.1 330 16:23 09.06.2020
1793 Clear 36 1001 56 10000 2.1 250 15:56 09.06.2020
1794 Clear 36 1000 63 10000 5.7 340 15:37 09.06.2020
1795 Clear 36 1000 63 10000 5.7 340 15:19 09.06.2020
1796 Clear 36 1000 67 10000 6.7 340 14:42 09.06.2020
1797 Clear 36 1000 67 10000 6.7 340 14:21 09.06.2020
1798 Clear 37 1000 60 9000 7.2 340 13:59 09.06.2020
1799 Clear 37 1000 60 9000 7.2 340 13:41 09.06.2020
1800 Clear 38 1001 63 8000 7.7 320 13:21 09.06.2020
1801 Clear 38 1001 63 8000 7.7 320 12:56 09.06.2020
1802 Clear 38 1001 63 8000 7.7 320 12:37 09.06.2020
1803 Clear 38 1001 63 8000 7.7 320 12:18 09.06.2020
1804 Clear 39 1001 54 8000 7.2 330 11:55 09.06.2020
1805 Clear 39 1001 54 8000 7.2 330 11:36 09.06.2020
1806 Clear 39 1001 54 8000 7.2 330 11:18 09.06.2020
1807 Clear 39 1002 35 10000 3.1 140 10:42 09.06.2020
1808 Clear 39 1002 35 10000 3.1 140 10:24 09.06.2020
1809 Clear 39 1002 42 10000 3.1 150 09:44 09.06.2020
1810 Clear 37 1002 42 10000 3.1 150 09:24 09.06.2020
1811 Clear 36 1002 56 10000 3.1 0 08:56 09.06.2020
1812 Clear 35 1002 56 10000 3.1 0 08:38 09.06.2020
1813 Clear 35 1002 56 10000 3.1 0 08:19 09.06.2020
1814 Clear 34 1002 59 10000 2.6 130 07:38 09.06.2020
1815 Clear 34 1002 59 10000 2.6 130 07:19 09.06.2020
1816 Clear 33 1002 67 10000 2.1 100 06:54 09.06.2020
1817 Clear 33 1002 67 10000 2.1 100 06:35 09.06.2020
1818 Clear 32 1001 75 10000 2.1 70 05:35 09.06.2020
1819 Clear 31 1000 74 10000 2.1 230 03:34 09.06.2020
1820 Clear 32 999 70 10000 1.5 340 01:43 09.06.2020
1821 Clear 32 999 70 10000 1.5 340 01:19 09.06.2020
1822 Clear 32 999 70 10000 2.1 10 00:50 09.06.2020
1823 Clear 32 999 70 10000 2.1 10 00:26 09.06.2020
1824 Clear 33 1000 66 10000 2.6 270 23:59 08.06.2020
1825 Clear 33 1000 66 10000 2.6 270 23:39 08.06.2020
1826 Clear 33 1000 66 10000 2.6 270 23:19 08.06.2020
1827 Clear 33 1000 66 10000 2.6 270 22:42 08.06.2020
1828 Clear 33 1000 66 10000 2.6 270 22:23 08.06.2020
1829 Clear 33 1000 75 10000 2.1 250 21:59 08.06.2020
1830 Clear 33 1000 75 10000 2.1 250 21:41 08.06.2020
1831 Clear 34 1000 75 10000 2.1 250 21:22 08.06.2020
1832 Clear 35 1000 59 8000 2.6 220 20:58 08.06.2020
1833 Clear 35 1000 59 8000 2.6 220 20:39 08.06.2020
1834 Clear 35 1000 59 8000 2.6 220 20:20 08.06.2020
1835 Clear 35 999 50 8000 1.5 40 19:59 08.06.2020
1836 Clear 35 999 50 8000 1.5 40 19:41 08.06.2020
1837 Clear 35 999 63 8000 1 0 19:20 08.06.2020
1838 Clear 35 999 63 8000 1 0 18:41 08.06.2020
1839 Clear 35 999 63 8000 1 0 18:19 08.06.2020
1840 Clear 35 998 63 6000 2.6 340 17:57 08.06.2020
1841 Clear 35 998 63 6000 2.6 340 17:39 08.06.2020
1842 Clear 35 998 63 6000 2.6 340 17:19 08.06.2020
1843 Clear 36 998 53 10000 4.6 330 16:46 08.06.2020
1844 Clear 36 998 53 10000 4.6 330 16:25 08.06.2020
1845 Clear 36 998 53 10000 3.6 340 15:59 08.06.2020
1846 Clear 36 998 53 10000 3.6 340 15:41 08.06.2020
1847 Clear 36 998 53 10000 3.6 340 15:20 08.06.2020
1848 Clear 36 998 56 10000 5.1 340 14:56 08.06.2020
1849 Clear 36 998 56 10000 5.1 340 14:36 08.06.2020
1850 Clear 37 998 56 10000 5.1 340 14:18 08.06.2020
1851 Clear 37 998 56 10000 5.1 340 14:18 08.06.2020
1852 Clear 37 998 53 10000 6.2 340 13:42 08.06.2020
1853 Clear 37 998 53 10000 6.2 340 13:20 08.06.2020
1854 Clear 37 999 56 10000 5.7 340 12:40 08.06.2020
1855 Clear 37 999 56 10000 5.7 340 12:19 08.06.2020
1856 Clear 39 999 40 10000 5.1 330 11:57 08.06.2020
1857 Clear 40 999 26 10000 2.1 170 11:38 08.06.2020
1858 Clear 40 999 26 10000 2.1 170 11:38 08.06.2020
1859 Clear 40 999 26 10000 2.1 170 11:20 08.06.2020
1860 Clear 40 999 33 10000 3.6 160 10:56 08.06.2020
1861 Clear 40 999 33 10000 3.6 160 10:37 08.06.2020
1862 Clear 39 999 33 10000 3.6 160 10:19 08.06.2020
1863 Clear 38 1000 42 10000 3.1 190 09:43 08.06.2020
1864 Clear 37 1000 42 10000 3.1 190 09:23 08.06.2020
1865 Clear 35 1000 56 10000 4.1 180 08:50 08.06.2020
1866 Clear 34 1000 56 10000 4.1 180 08:24 08.06.2020
1867 Clear 33 999 70 10000 4.6 190 07:56 08.06.2020
1868 Clear 32 999 70 10000 4.6 190 07:37 08.06.2020
1869 Clear 31 999 79 7000 3.6 180 07:18 08.06.2020
1870 Clear 30 999 79 7000 3.6 180 06:38 08.06.2020
1871 Haze 30 999 84 5000 3.6 180 05:54 08.06.2020
1872 Haze 29 999 89 4000 4.1 170 04:36 08.06.2020
1873 Clouds 31 998 84 9000 1.5 170 03:22 08.06.2020
1874 Clouds 31 998 84 8000 2.1 230 02:26 08.06.2020
1875 Clouds 31 998 84 8000 2.1 200 01:42 08.06.2020
1876 Clouds 31 998 84 8000 2.6 180 00:45 08.06.2020
1877 Clouds 31 998 84 8000 2.6 180 00:23 08.06.2020
1878 Clear 32 998 79 8000 2.1 230 23:38 07.06.2020
1879 Clear 32 998 79 8000 2.1 230 23:18 07.06.2020
1880 Clear 32 998 79 8000 2.6 230 22:56 07.06.2020
1881 Clear 32 998 79 8000 2.6 230 22:36 07.06.2020
1882 Clear 33 998 75 9000 3.1 240 22:18 07.06.2020
1883 Clear 33 998 75 9000 3.1 240 21:57 07.06.2020
1884 Clear 33 998 75 9000 3.1 240 21:36 07.06.2020
1885 Clear 33 998 75 9000 3.1 240 21:18 07.06.2020
1886 Clear 33 998 75 9000 3.1 240 21:18 07.06.2020
1887 Clear 33 998 75 9000 1 0 20:39 07.06.2020
1888 Clear 33 998 75 9000 1 0 20:20 07.06.2020
1889 Clear 33 998 75 9000 4.1 320 19:57 07.06.2020
1890 Clear 33 998 75 9000 4.1 320 19:38 07.06.2020
1891 Clear 34 998 75 9000 4.1 320 19:19 07.06.2020
1892 Clear 34 998 75 9000 4.1 320 18:56 07.06.2020
1893 Clear 34 998 75 9000 4.1 320 18:38 07.06.2020
1894 Clear 34 998 75 9000 4.1 320 18:19 07.06.2020
1895 Clear 34 997 75 8000 5.1 320 17:56 07.06.2020
1896 Clear 34 997 75 8000 5.1 320 17:37 07.06.2020
1897 Clear 35 997 75 8000 5.1 320 17:19 07.06.2020
1898 Clear 36 997 63 8000 4.1 340 16:42 07.06.2020
1899 Clear 37 997 63 8000 4.1 340 16:21 07.06.2020
1900 Clear 37 997 63 8000 4.1 340 16:21 07.06.2020
1901 Clear 38 997 53 8000 5.7 330 15:40 07.06.2020
1902 Clear 38 997 53 8000 5.7 330 15:21 07.06.2020
1903 Clear 38 997 53 10000 6.2 300 14:41 07.06.2020
1904 Clear 38 997 53 10000 6.2 300 14:41 07.06.2020
1905 Clear 38 997 53 10000 6.2 300 14:41 07.06.2020
1906 Clear 37 997 53 10000 6.2 300 14:22 07.06.2020
1907 Clear 37 997 63 8000 7.2 320 13:49 07.06.2020
1908 Clear 37 997 63 8000 7.2 320 13:22 07.06.2020
1909 Clear 40 998 45 8000 5.1 310 12:57 07.06.2020
1910 Clear 41 998 43 8000 5.7 330 12:39 07.06.2020
1911 Clear 41 998 43 8000 5.7 330 12:19 07.06.2020
1912 Clear 41 998 43 8000 5.7 330 11:55 07.06.2020
1913 Clear 43 998 21 10000 3.1 260 11:36 07.06.2020
1914 Clear 40 999 33 8000 2.1 230 11:18 07.06.2020
1915 Clear 40 999 33 8000 2.1 230 10:45 07.06.2020
1916 Clear 40 999 33 8000 2.1 230 10:20 07.06.2020
1917 Clear 40 999 33 8000 2.1 230 10:20 07.06.2020
1918 Clear 38 1000 39 8000 3.1 210 09:59 07.06.2020
1919 Clear 38 1000 39 8000 3.1 210 09:39 07.06.2020
1920 Clear 37 1000 39 8000 3.1 210 09:20 07.06.2020
1921 Clear 36 1000 50 8000 3.1 190 08:57 07.06.2020
1922 Clear 35 1000 50 8000 3.1 190 08:39 07.06.2020
1923 Clear 34 1000 50 8000 3.1 190 08:21 07.06.2020
1924 Haze 32 1000 75 5000 2.1 190 07:33 07.06.2020
1925 Haze 30 1000 89 5000 4.6 170 06:53 07.06.2020
1926 Haze 30 999 89 5000 4.1 180 05:52 07.06.2020
1927 Haze 30 998 94 4500 3.6 210 04:21 07.06.2020
1928 Clear 31 997 79 8000 2.6 190 03:33 07.06.2020
1929 Clear 31 997 75 8000 2.1 230 02:18 07.06.2020
1930 Clear 32 997 79 7000 2.6 230 01:25 07.06.2020
1931 Clear 32 997 75 7000 2.6 230 00:47 07.06.2020
1932 Clear 33 997 75 7000 2.6 230 00:20 07.06.2020
1933 Clear 33 997 63 8000 1.5 240 23:58 06.06.2020
1934 Clear 34 997 63 8000 1.5 240 23:37 06.06.2020
1935 Clear 34 997 63 8000 1.5 240 23:37 06.06.2020
1936 Clear 33 997 63 8000 1.5 240 23:19 06.06.2020
1937 Clear 34 998 67 9000 1.5 200 22:56 06.06.2020
1938 Clear 34 998 67 9000 1.5 200 22:38 06.06.2020
1939 Clear 34 998 67 9000 1.5 200 22:19 06.06.2020
1940 Clear 34 998 67 9000 1.5 200 22:19 06.06.2020
1941 Clear 34 998 63 10000 2.1 280 21:46 06.06.2020
1942 Clear 34 998 63 10000 2.1 280 21:22 06.06.2020
1943 Clear 37 998 29 10000 3.1 320 20:58 06.06.2020
1944 Clear 37 998 29 10000 3.1 320 20:39 06.06.2020
1945 Clear 37 998 29 10000 3.1 320 20:18 06.06.2020
1946 Clear 37 998 33 9000 1.5 80 19:57 06.06.2020
1947 Clear 37 998 33 9000 1.5 80 19:38 06.06.2020
1948 Clear 38 998 33 9000 1.5 80 19:19 06.06.2020
1949 Clear 38 998 31 10000 2.6 330 18:43 06.06.2020
1950 Clear 37 998 31 10000 2.6 330 18:24 06.06.2020
1951 Clear 37 997 39 10000 3.1 350 17:58 06.06.2020
1952 Clear 37 997 39 10000 3.1 350 17:39 06.06.2020
1953 Clear 38 997 39 10000 3.1 350 17:19 06.06.2020
1954 Clear 39 997 35 10000 4.1 340 16:44 06.06.2020
1955 Clear 38 997 35 10000 4.1 340 16:22 06.06.2020
1956 Clear 37 997 47 8000 6.7 320 15:58 06.06.2020
1957 Clear 37 997 47 8000 6.7 320 15:40 06.06.2020
1958 Clear 37 997 47 8000 6.7 320 15:20 06.06.2020
1959 Clouds 37 997 50 8000 6.7 330 14:43 06.06.2020
1960 Clouds 37 997 50 8000 6.7 330 14:25 06.06.2020
1961 Clear 37 998 60 8000 6.2 320 13:59 06.06.2020
1962 Clear 37 998 60 8000 6.2 320 13:40 06.06.2020
1963 Clear 37 999 63 6000 6.2 330 13:18 06.06.2020
1964 Clear 37 999 63 6000 6.2 330 12:43 06.06.2020
1965 Clear 37 999 63 6000 6.2 330 12:23 06.06.2020
1966 Clear 37 999 60 6000 6.2 340 11:58 06.06.2020
1967 Clear 37 999 60 6000 6.2 340 11:58 06.06.2020
1968 Clear 37 999 60 6000 6.2 340 11:39 06.06.2020
1969 Clear 37 999 60 6000 6.2 340 11:20 06.06.2020
1970 Clear 37 1000 57 6000 6.2 330 10:58 06.06.2020
1971 Clear 37 1000 57 6000 6.2 330 10:58 06.06.2020
1972 Clear 38 1000 57 6000 6.2 330 10:39 06.06.2020
1973 Clear 39 1000 57 6000 6.2 330 10:21 06.06.2020
1974 Clear 40 1000 31 8000 1.5 30 09:46 06.06.2020
1975 Clear 40 1000 31 8000 1.5 30 09:46 06.06.2020
1976 Clear 39 1000 31 8000 1.5 30 09:28 06.06.2020
1977 Clear 37 1000 44 8000 1 0 08:58 06.06.2020
1978 Clear 37 1000 44 8000 1 0 08:40 06.06.2020
1979 Clear 35 1000 44 8000 1 0 08:20 06.06.2020
1980 Dust 32 1000 66 5000 2.1 180 07:45 06.06.2020
1981 Haze 31 1000 79 3500 2.1 190 07:22 06.06.2020
1982 Haze 31 1000 79 3500 2.1 190 06:47 06.06.2020
1983 Haze 31 1000 79 3500 2.1 190 06:29 06.06.2020
1984 Mist 29 1000 94 2000 2.1 220 05:54 06.06.2020
1985 Mist 29 1000 94 2000 2.1 220 05:28 06.06.2020
1986 Haze 30 999 84 2500 2.6 200 04:43 06.06.2020
1987 Haze 32 999 79 4500 2.1 180 02:48 06.06.2020
1988 Clear 32 999 79 6000 2.1 150 01:54 06.06.2020
1989 Clear 32 999 79 6000 2.1 150 01:18 06.06.2020
1990 Clear 33 999 79 6000 2.1 170 00:43 06.06.2020
1991 Clear 33 999 79 6000 2.1 170 00:25 06.06.2020
1992 Clear 33 999 79 6000 2.1 340 23:55 05.06.2020
1993 Clear 33 999 79 6000 2.1 340 23:36 05.06.2020
1994 Clear 33 999 79 6000 2.1 340 23:36 05.06.2020
1995 Clear 33 999 79 6000 2.1 340 23:18 05.06.2020
1996 Clear 33 999 79 6000 2.1 340 23:18 05.06.2020
1997 Clear 34 1000 67 6000 2.6 290 22:41 05.06.2020
1998 Clear 34 1000 67 6000 2.6 290 22:23 05.06.2020
1999 Haze 34 1000 75 5000 3.6 340 21:58 05.06.2020
2000 Haze 34 1000 75 5000 3.6 340 21:40 05.06.2020
2001 Haze 35 1000 75 5000 3.6 340 21:20 05.06.2020
2002 Clear 35 999 44 10000 3.6 310 20:57 05.06.2020
2003 Clear 36 999 44 10000 3.6 310 20:38 05.06.2020
2004 Clear 36 999 44 10000 3.6 310 20:19 05.06.2020
2005 Clear 37 999 39 10000 2.6 340 19:40 05.06.2020
2006 Clear 37 999 39 10000 2.6 340 19:40 05.06.2020
2007 Clear 37 999 39 10000 2.6 340 19:22 05.06.2020
2008 Clear 38 998 33 9000 2.1 340 18:54 05.06.2020
2009 Clear 38 998 33 9000 2.1 340 18:36 05.06.2020
2010 Clear 39 998 35 8000 2.6 320 18:18 05.06.2020
2011 Clear 39 998 35 8000 2.6 320 17:55 05.06.2020
2012 Clear 39 998 35 8000 2.6 320 17:37 05.06.2020
2013 Clear 38 998 35 8000 2.6 320 17:18 05.06.2020
2014 Clear 38 998 42 8000 4.6 350 16:38 05.06.2020
2015 Clear 40 998 42 8000 4.6 350 16:19 05.06.2020
2016 Clear 41 998 25 8000 3.6 310 15:41 05.06.2020
2017 Clear 41 998 25 8000 3.6 310 15:21 05.06.2020
2018 Clear 41 998 34 6000 4.1 310 14:58 05.06.2020
2019 Clear 41 998 34 6000 4.1 310 14:40 05.06.2020
2020 Clear 41 998 34 6000 4.1 310 14:21 05.06.2020
2021 Clear 38 999 37 6000 5.1 330 13:57 05.06.2020
2022 Clear 38 999 37 6000 5.1 330 13:37 05.06.2020
2023 Clear 38 999 37 6000 5.1 330 13:18 05.06.2020
2024 Clear 38 1000 50 6000 5.1 340 12:40 05.06.2020
2025 Clear 38 1000 50 6000 5.1 340 12:19 05.06.2020
2026 Clear 37 1000 56 6000 4.6 330 11:43 05.06.2020
2027 Clear 36 1000 56 6000 4.6 330 11:25 05.06.2020
2028 Clear 36 1001 63 6000 5.1 330 10:59 05.06.2020
2029 Clear 36 1001 63 6000 5.1 330 10:41 05.06.2020
2030 Clear 36 1001 63 6000 5.1 330 10:20 05.06.2020
2031 Dust 37 1001 56 5000 2.1 0 09:57 05.06.2020
2032 Dust 37 1001 56 5000 2.1 0 09:39 05.06.2020
2033 Dust 37 1001 56 5000 2.1 0 09:39 05.06.2020
2034 Dust 36 1001 56 5000 2.1 0 09:20 05.06.2020
2035 Clear 36 1001 50 7000 2.1 0 08:58 05.06.2020
2036 Clear 35 1001 50 7000 2.1 0 08:40 05.06.2020
2037 Clear 34 1001 50 7000 2.1 0 08:18 05.06.2020
2038 Clear 33 1001 63 7000 3.1 220 07:50 05.06.2020
2039 Clear 32 1001 63 7000 3.1 220 07:31 05.06.2020
2040 Clear 31 1001 70 6000 3.6 200 06:48 05.06.2020
2041 Clear 30 1000 66 6000 3.1 200 05:23 05.06.2020
2042 Haze 30 1000 74 4500 2.1 190 04:27 05.06.2020
2043 Clear 30 999 79 6000 3.6 210 03:29 05.06.2020
2044 Clear 31 1000 74 6000 2.6 220 02:29 05.06.2020
2045 -273 0 0 0 0 0 01:58 05.06.2020
2046 Clear 32 999 70 6000 2.1 230 01:31 05.06.2020
2047 Clear 32 999 70 7000 3.1 200 00:44 05.06.2020
2048 Clear 32 999 70 7000 3.1 200 00:22 05.06.2020
2049 Clear 31 1000 75 7000 2.1 230 23:48 04.06.2020
2050 Clear 32 1000 75 7000 2.1 230 23:29 04.06.2020
2051 Clear 33 1000 70 7000 1.5 230 22:57 04.06.2020
2052 Clear 33 1000 70 7000 1.5 230 22:39 04.06.2020
2053 Clear 33 1000 70 7000 1.5 230 22:21 04.06.2020
2054 Clear 33 1000 70 7000 3.1 190 21:58 04.06.2020
2055 Clear 33 1000 70 7000 3.1 190 21:38 04.06.2020
2056 Clear 33 1000 70 7000 3.1 190 21:20 04.06.2020
2057 Clear 33 1001 70 8000 2.1 240 20:55 04.06.2020
2058 Clear 33 1001 70 8000 2.1 240 20:55 04.06.2020
2059 Clear 33 1001 70 8000 2.1 240 20:37 04.06.2020
2060 Clear 34 1001 70 8000 2.1 240 20:19 04.06.2020
2061 Clear 34 1001 67 8000 3.1 290 19:41 04.06.2020
2062 Clear 35 1001 67 8000 3.1 290 19:21 04.06.2020
2063 Clear 35 1000 59 8000 2.6 280 18:57 04.06.2020
2064 Clear 35 1000 59 8000 2.6 280 18:38 04.06.2020
2065 Clear 36 1000 59 8000 2.6 280 18:20 04.06.2020
2066 Clear 37 999 47 8000 2.1 270 17:43 04.06.2020
2067 Clear 37 999 47 8000 2.1 270 17:22 04.06.2020
2068 Clear 37 999 47 10000 2.6 300 16:57 04.06.2020
2069 Clear 37 999 47 10000 2.6 300 16:39 04.06.2020
2070 Clear 37 999 47 10000 2.6 300 16:19 04.06.2020
2071 Clear 37 999 50 10000 3.1 280 15:43 04.06.2020
2072 Clear 37 999 50 10000 3.1 280 15:25 04.06.2020
2073 Clear 37 1000 50 10000 4.6 290 14:42 04.06.2020
2074 Clear 37 1000 50 10000 4.6 290 14:22 04.06.2020
2075 Clear 39 1000 42 10000 5.1 280 13:58 04.06.2020
2076 Clear 39 1000 42 10000 5.1 280 13:40 04.06.2020
2077 Clear 38 1001 47 10000 6.2 280 13:20 04.06.2020
2078 Clear 38 1001 47 10000 6.2 280 12:58 04.06.2020
2079 Clear 38 1001 47 10000 6.2 280 12:40 04.06.2020
2080 Clear 38 1001 47 10000 6.2 280 12:21 04.06.2020
2081 Clear 38 1001 47 10000 6.2 280 11:54 04.06.2020
2082 Clear 38 1001 47 10000 6.2 280 11:36 04.06.2020
2083 Clear 38 1001 47 10000 6.2 280 11:18 04.06.2020
2084 Clear 38 1001 44 10000 5.7 280 10:40 04.06.2020
2085 Clear 38 1001 44 10000 5.7 280 10:22 04.06.2020
2086 Clear 39 1001 33 10000 3.1 280 09:57 04.06.2020
2087 Clear 39 1001 33 10000 3.1 280 09:38 04.06.2020
2088 Clear 38 1001 33 10000 3.1 280 09:19 04.06.2020
2089 Clear 36 1002 37 10000 3.1 250 08:41 04.06.2020
2090 Clear 36 1002 37 10000 3.1 250 08:23 04.06.2020
2091 Clear 35 1002 39 10000 3.6 210 07:42 04.06.2020
2092 Clear 34 1002 39 10000 3.6 210 07:21 04.06.2020
2093 Clear 33 1001 41 10000 3.1 200 06:40 04.06.2020
2094 Clear 32 1001 43 10000 2.6 200 06:21 04.06.2020
2095 Clear 32 1001 43 10000 2.6 200 05:33 04.06.2020
2096 Clear 31 1000 45 10000 3.1 210 03:51 04.06.2020
2097 Clear 32 1000 46 10000 3.1 220 02:22 04.06.2020
2098 Clear 33 1000 41 10000 2.6 190 01:39 04.06.2020
2099 Clear 34 1000 44 10000 2.6 210 01:19 04.06.2020
2100 Clear 34 1000 44 10000 2.6 210 00:20 04.06.2020
2101 Clear 34 1000 44 10000 1.5 210 23:40 03.06.2020
2102 Clear 34 1000 44 10000 1.5 210 23:20 03.06.2020
2103 Clear 34 1001 46 10000 1.5 220 22:56 03.06.2020
2104 Clear 34 1001 46 10000 1.5 220 22:38 03.06.2020
2105 Clear 34 1001 46 10000 1.5 220 22:18 03.06.2020
2106 Clear 35 1002 44 10000 2.6 240 21:55 03.06.2020
2107 Clear 35 1002 44 10000 2.6 240 21:37 03.06.2020
2108 Clear 35 1002 44 10000 2.6 240 21:19 03.06.2020
2109 Clear 35 1002 41 10000 2.1 210 20:42 03.06.2020
2110 Clear 35 1002 41 10000 2.1 210 20:21 03.06.2020
2111 Clear 35 1001 44 10000 2.1 230 19:58 03.06.2020
2112 Clear 35 1001 44 10000 2.1 230 19:39 03.06.2020
2113 Clear 35 1001 44 10000 2.1 230 19:21 03.06.2020
2114 Clear 35 1001 47 8000 2.1 220 18:59 03.06.2020
2115 Clear 35 1001 47 8000 2.1 220 18:40 03.06.2020
2116 Clear 36 1000 41 8000 2.6 260 18:19 03.06.2020
2117 Clear 36 1000 41 8000 2.6 260 17:45 03.06.2020
2118 Clear 37 1000 41 8000 2.6 260 17:23 03.06.2020
2119 Clear 37 1000 37 7000 4.6 300 16:59 03.06.2020
2120 Clear 37 1000 37 7000 4.6 300 16:41 03.06.2020
2121 Clear 37 1000 37 7000 4.6 300 16:19 03.06.2020
2122 Clear 38 1000 35 7000 5.1 300 15:55 03.06.2020
2123 Clear 38 1000 35 7000 5.1 300 15:37 03.06.2020
2124 Clear 38 1000 35 7000 5.1 300 15:18 03.06.2020
2125 Clear 39 1000 29 7000 6.7 310 14:42 03.06.2020
2126 Clear 39 1000 29 7000 6.7 310 14:23 03.06.2020
2127 Clear 39 1001 26 7000 6.2 310 13:40 03.06.2020
2128 Clear 39 1001 26 7000 6.2 310 13:21 03.06.2020
2129 Clear 40 1001 21 7000 6.2 310 12:57 03.06.2020
2130 Clear 39 1001 21 7000 6.2 310 12:38 03.06.2020
2131 Clear 39 1001 21 7000 6.2 310 12:18 03.06.2020
2132 Clear 39 1002 26 8000 4.6 280 11:43 03.06.2020
2133 Clear 39 1002 26 8000 4.6 280 11:24 03.06.2020
2134 Clear 39 1002 22 10000 4.6 280 10:44 03.06.2020
2135 Clear 40 1002 22 10000 4.6 280 10:25 03.06.2020
2136 Clear 40 1003 21 10000 3.6 280 09:55 03.06.2020
2137 Clear 40 1003 21 10000 3.6 280 09:36 03.06.2020
2138 Clear 39 1003 21 10000 3.6 280 09:18 03.06.2020
2139 Clear 38 1003 31 10000 3.6 240 08:46 03.06.2020
2140 Clear 37 1003 31 10000 3.6 240 08:21 03.06.2020
2141 Clear 35 1003 37 10000 3.6 230 07:46 03.06.2020
2142 Clear 33 1002 43 10000 4.1 210 07:24 03.06.2020
2143 -273 0 0 0 0 0 06:58 03.06.2020
2144 Clear 32 1002 43 10000 4.1 210 06:40 03.06.2020
2145 Clear 31 1002 48 10000 4.1 210 06:21 03.06.2020
2146 Clear 31 1002 48 10000 4.1 210 05:42 03.06.2020
2147 Clear 31 1001 45 10000 3.6 200 04:18 03.06.2020
2148 Clear 31 1001 48 10000 3.1 210 03:40 03.06.2020
2149 Clear 32 1001 46 10000 3.1 210 02:25 03.06.2020
2150 Clear 32 1000 46 10000 3.1 210 01:26 03.06.2020
2151 Clear 33 1001 43 10000 2.6 200 00:37 03.06.2020
2152 Clear 32 1001 43 10000 2.6 200 00:18 03.06.2020
2153 Clear 33 1002 39 10000 1.5 270 23:39 02.06.2020
2154 Clear 33 1002 39 10000 1.5 270 23:21 02.06.2020
2155 Clear 33 1002 41 10000 1 10 22:40 02.06.2020
2156 Clear 34 1002 41 10000 1 10 22:19 02.06.2020
2157 Clear 35 1002 41 10000 1.5 320 21:57 02.06.2020
2158 Clear 35 1002 41 10000 1.5 320 21:39 02.06.2020
2159 Clear 35 1002 41 10000 1.5 320 21:21 02.06.2020
2160 Clear 35 1002 34 10000 1.5 270 20:59 02.06.2020
2161 Clear 35 1002 34 10000 1.5 270 20:40 02.06.2020
2162 Clear 35 1002 34 10000 1.5 270 20:22 02.06.2020
2163 Clear 36 1002 32 10000 2.6 270 19:45 02.06.2020
2164 Clear 37 1002 32 10000 2.6 270 19:26 02.06.2020
2165 Clear 38 1001 24 10000 4.1 280 18:59 02.06.2020
2166 Clear 38 1001 24 10000 4.1 280 18:40 02.06.2020
2167 Clear 38 1001 24 10000 4.1 280 18:20 02.06.2020
2168 Clear 39 1001 26 10000 4.6 280 17:59 02.06.2020
2169 Clear 39 1001 26 10000 4.6 280 17:40 02.06.2020
2170 Clear 39 1001 26 10000 4.6 280 17:21 02.06.2020
2171 Clear 38 1001 31 10000 5.7 270 16:55 02.06.2020
2172 Clear 38 1001 31 10000 5.7 270 16:37 02.06.2020
2173 Clear 38 1001 31 10000 5.7 270 16:19 02.06.2020
2174 Clear 38 1002 33 10000 5.1 270 15:40 02.06.2020
2175 Clear 38 1002 33 10000 5.1 270 15:22 02.06.2020
2176 Clear 38 1002 35 10000 7.2 280 14:48 02.06.2020
2177 Clear 39 1002 35 10000 7.2 280 14:28 02.06.2020
2178 Clear 39 1003 31 10000 6.7 290 13:57 02.06.2020
2179 Clear 39 1003 37 10000 7.7 280 13:37 02.06.2020
2180 Clear 39 1003 37 10000 7.7 280 13:37 02.06.2020
2181 Clear 39 1003 37 10000 7.7 280 13:18 02.06.2020
2182 Clear 39 1003 37 10000 7.7 280 12:56 02.06.2020
2183 Clear 39 1003 37 10000 7.7 280 12:38 02.06.2020
2184 Clear 39 1003 37 10000 7.7 280 12:19 02.06.2020
2185 Clear 39 1004 33 10000 8.2 280 11:41 02.06.2020
2186 Clear 39 1004 33 10000 8.2 280 11:23 02.06.2020
2187 Clear 40 1004 31 10000 7.2 270 10:59 02.06.2020
2188 Clear 40 1004 31 10000 7.2 270 10:41 02.06.2020
2189 Clear 40 1004 31 10000 7.2 270 10:21 02.06.2020
2190 Clear 41 1004 24 10000 8.2 290 09:43 02.06.2020
2191 Clear 41 1004 24 10000 8.2 290 09:21 02.06.2020
2192 Clear 40 1004 24 10000 4.1 210 08:55 02.06.2020
2193 Clear 40 1004 24 10000 4.1 210 08:29 02.06.2020
2194 Clear 38 1004 27 10000 4.1 220 07:59 02.06.2020
2195 Clear 38 1004 27 10000 4.1 220 07:38 02.06.2020
2196 Clear 36 1004 27 10000 4.1 220 07:18 02.06.2020
2197 Clear 35 1003 30 10000 3.6 220 06:39 02.06.2020
2198 Clear 34 1003 38 10000 4.1 210 05:38 02.06.2020
2199 Clear 33 1003 46 6000 4.1 210 04:52 02.06.2020
2200 Clear 33 1002 43 7000 4.1 210 03:19 02.06.2020
2201 Clear 34 1002 44 7000 3.1 210 02:18 02.06.2020
2202 Clear 35 1003 39 7000 4.1 180 00:51 02.06.2020
2203 Clear 35 1003 39 7000 4.1 180 00:22 02.06.2020
2204 Clear 35 1004 39 7000 2.1 130 23:39 01.06.2020
2205 Clear 35 1004 39 7000 2.1 130 23:20 01.06.2020
2206 -273 0 0 0 0 0 22:58 01.06.2020
2207 Clear 35 1005 41 7000 3.1 100 22:58 01.06.2020
2208 Clear 35 1005 41 7000 3.1 100 22:39 01.06.2020
2209 Clear 35 1005 41 7000 3.1 100 22:39 01.06.2020
2210 Clear 35 1005 41 7000 3.1 100 22:19 01.06.2020
2211 Clear 35 1005 41 7000 3.1 100 21:54 01.06.2020
2212 Clear 35 1005 41 7000 3.1 100 21:36 01.06.2020
2213 Clear 35 1005 41 7000 3.1 100 21:18 01.06.2020
2214 Clear 35 1004 41 8000 3.1 120 20:43 01.06.2020
2215 Clear 35 1004 39 9000 1.5 70 20:21 01.06.2020
2216 Clear 35 1004 39 9000 1.5 70 20:21 01.06.2020
2217 Clear 35 1004 39 9000 1.5 70 19:59 01.06.2020
2218 Clear 36 1004 39 9000 1.5 70 19:41 01.06.2020
2219 Clear 35 1003 47 7000 2.1 350 19:20 01.06.2020
2220 Clear 35 1003 47 7000 2.1 350 18:58 01.06.2020
2221 Clear 35 1003 47 7000 2.1 350 18:39 01.06.2020
2222 Clear 35 1003 47 7000 2.1 350 18:19 01.06.2020
2223 Clear 36 1003 44 6000 3.6 320 17:54 01.06.2020
2224 Clear 36 1003 44 6000 3.6 320 17:36 01.06.2020
2225 Clear 36 1003 44 6000 3.6 320 17:18 01.06.2020
2226 Dust 36 1002 47 4500 5.1 320 16:39 01.06.2020
2227 Dust 37 1002 47 4500 5.1 320 16:20 01.06.2020
2228 Dust 38 1003 35 4500 6.2 310 15:55 01.06.2020
2229 Clear 38 1003 31 6000 6.2 300 15:36 01.06.2020
2230 Clear 39 1003 31 6000 6.2 300 15:18 01.06.2020
2231 Dust 39 1003 29 5000 6.7 280 14:55 01.06.2020
2232 Dust 39 1003 29 5000 6.7 280 14:36 01.06.2020
2233 Dust 39 1003 29 5000 6.7 280 14:18 01.06.2020
2234 Clear 39 1004 35 6000 7.2 300 13:41 01.06.2020
2235 Clear 39 1004 35 6000 7.2 300 13:21 01.06.2020
2236 Clear 38 1005 37 8000 7.7 290 12:58 01.06.2020
2237 Clear 38 1005 37 8000 7.7 290 12:40 01.06.2020
2238 Clear 38 1005 37 8000 7.7 290 12:21 01.06.2020
2239 Clear 38 1005 39 10000 7.2 280 11:56 01.06.2020
2240 Clear 38 1005 39 10000 7.2 280 11:36 01.06.2020
2241 Clear 38 1005 39 10000 7.2 280 11:18 01.06.2020
2242 Clear 39 1006 35 8000 7.2 290 10:40 01.06.2020
2243 Clear 40 1006 35 8000 7.2 290 10:20 01.06.2020
2244 Dust 40 1005 29 5000 7.2 240 09:58 01.06.2020
2245 Dust 39 1005 29 5000 7.2 240 09:40 01.06.2020
2246 Dust 39 1005 29 5000 7.2 240 09:20 01.06.2020
2247 Dust 38 1006 35 5000 6.7 210 08:52 01.06.2020
2248 Dust 38 1006 35 5000 6.7 210 08:30 01.06.2020
2249 Dust 37 1006 37 4500 6.7 230 07:54 01.06.2020
2250 Dust 36 1006 37 4500 6.7 230 07:36 01.06.2020
2251 Dust 36 1006 41 4500 5.7 220 07:18 01.06.2020
2252 Clear 35 1005 47 6000 5.1 220 06:43 01.06.2020
2253 Clear 34 1005 46 10000 3.1 220 05:54 01.06.2020
2254 Clear 34 1004 46 10000 2.1 250 04:46 01.06.2020
2255 Clear 33 1003 52 10000 1.5 240 03:49 01.06.2020
2256 Clear 33 1003 52 10000 1.5 240 03:27 01.06.2020
2257 Clear 33 1003 52 10000 2.6 220 02:29 01.06.2020
2258 Clear 34 1002 49 10000 2.6 170 01:34 01.06.2020
2259 Clear 34 1002 49 10000 3.6 170 00:58 01.06.2020
2260 Clear 34 1002 49 10000 3.6 170 00:40 01.06.2020
2261 Clear 34 1002 49 10000 3.6 170 00:21 01.06.2020
2262 Clear 35 1003 47 10000 2.1 170 23:56 31.05.2020
2263 Clear 35 1003 47 10000 2.1 170 23:38 31.05.2020
2264 Clear 35 1003 47 10000 2.1 170 23:20 31.05.2020
2265 Clear 35 1003 47 10000 2.1 170 23:20 31.05.2020
2266 Clear 35 1003 44 10000 3.1 160 22:44 31.05.2020
2267 Clear 35 1003 44 10000 3.1 160 22:44 31.05.2020
2268 Clear 35 1003 44 10000 3.1 160 22:26 31.05.2020
2269 Clear 35 1004 47 10000 3.1 140 21:58 31.05.2020
2270 Clear 35 1004 47 10000 3.1 140 21:40 31.05.2020
2271 Clear 35 1004 47 10000 3.1 140 21:22 31.05.2020
2272 Clear 36 1004 35 10000 2.1 180 20:57 31.05.2020
2273 Clear 36 1004 35 10000 2.1 180 20:57 31.05.2020
2274 Clear 36 1004 35 10000 2.1 180 20:38 31.05.2020
2275 Clear 35 1003 41 10000 2.1 170 20:19 31.05.2020
2276 Clear 35 1003 41 10000 2.1 170 19:54 31.05.2020
2277 Clear 36 1003 41 10000 2.1 170 19:36 31.05.2020
2278 Clear 36 1003 41 10000 2.1 170 19:18 31.05.2020
2279 Clear 36 1003 41 10000 1.5 350 18:43 31.05.2020
2280 Clear 35 1003 41 10000 1.5 350 18:25 31.05.2020
2281 Clear 35 1003 50 7000 2.6 330 17:45 31.05.2020
2282 Clear 35 1003 50 7000 2.6 330 17:25 31.05.2020
2283 Clear 35 1003 50 7000 2.6 330 17:25 31.05.2020
2284 Clear 36 1003 47 7000 6.2 320 16:58 31.05.2020
2285 Clear 36 1003 47 7000 6.2 320 16:40 31.05.2020
2286 Clear 36 1003 47 7000 6.2 320 16:19 31.05.2020
2287 Clear 36 1003 47 8000 8.2 310 15:39 31.05.2020
2288 Clear 36 1003 47 8000 8.2 310 15:21 31.05.2020
2289 Clear 37 1003 44 8000 8.2 300 14:47 31.05.2020
2290 Clear 37 1003 44 8000 8.2 300 14:22 31.05.2020
2291 Clear 37 1003 42 9000 8.2 280 13:56 31.05.2020
2292 Clear 37 1003 42 9000 8.2 280 13:38 31.05.2020
2293 Clear 37 1003 42 9000 8.2 280 13:20 31.05.2020
2294 Clear 38 1004 42 8000 7.2 280 12:57 31.05.2020
2295 Clear 38 1004 42 8000 7.2 280 12:38 31.05.2020
2296 Clear 38 1004 42 8000 7.2 280 12:19 31.05.2020
2297 Clear 39 1004 40 6000 7.7 290 11:49 31.05.2020
2298 Clear 40 1004 40 6000 7.7 290 11:24 31.05.2020
2299 Dust 40 1004 38 5000 7.2 290 10:57 31.05.2020
2300 Dust 40 1004 38 5000 7.2 290 10:39 31.05.2020
2301 Dust 40 1004 38 5000 7.2 290 10:20 31.05.2020
2302 Dust 39 1005 37 3000 6.2 230 09:42 31.05.2020
2303 Dust 39 1005 37 3000 6.2 230 09:23 31.05.2020
2304 Dust 38 1005 39 3000 5.7 220 08:58 31.05.2020
2305 Dust 37 1005 39 3000 5.7 220 08:38 31.05.2020
2306 Dust 36 1005 39 3000 5.7 220 08:20 31.05.2020
2307 Dust 35 1005 44 3000 5.7 210 07:44 31.05.2020
2308 Dust 35 1005 44 3000 5.7 210 07:21 31.05.2020
2309 Dust 35 1005 44 2500 5.7 200 06:54 31.05.2020
2310 Dust 35 1005 44 2500 5.7 200 06:32 31.05.2020
2311 Dust 34 1004 46 2500 4.6 200 05:44 31.05.2020
2312 Dust 33 1004 46 2000 5.1 190 04:31 31.05.2020
2313 Dust 34 1004 43 2500 4.1 190 03:49 31.05.2020
2314 Clear 35 1004 30 10000 3.6 210 02:59 31.05.2020
2315 Clear 35 1004 44 8000 3.1 200 01:50 31.05.2020
2316 Clear 35 1004 44 8000 3.1 200 01:27 31.05.2020
2317 Clear 35 1003 47 7000 2.1 210 00:31 31.05.2020
2318 Clear 35 1004 41 6000 1 0 23:59 30.05.2020
2319 Clear 35 1004 41 6000 1 0 23:39 30.05.2020
2320 Clear 35 1004 41 6000 1 0 23:21 30.05.2020
2321 Clear 35 1003 41 7000 2.6 340 22:41 30.05.2020
2322 Clouds 35 1003 41 8000 2.6 260 22:23 30.05.2020
2323 Clouds 36 1003 41 8000 2.6 260 21:56 30.05.2020
2324 Clouds 35 1003 41 8000 2.6 260 21:38 30.05.2020
2325 Clear 36 1003 41 8000 2.6 260 21:20 30.05.2020
2326 Clear 36 1003 42 8000 1.5 240 20:56 30.05.2020
2327 Clear 36 1003 42 8000 1.5 240 20:38 30.05.2020
2328 Clear 36 1003 42 8000 1.5 240 20:20 30.05.2020
2329 Clear 37 1003 37 8000 1.5 80 19:43 30.05.2020
2330 Clear 36 1003 37 8000 1.5 80 19:22 30.05.2020
2331 Clear 36 1003 44 8000 2.1 350 18:46 30.05.2020
2332 Clear 36 1003 44 8000 2.1 350 18:25 30.05.2020
2333 Clear 36 1003 44 8000 2.1 350 18:25 30.05.2020
2334 Clear 36 1003 44 8000 2.1 350 18:25 30.05.2020
2335 Clear 37 1002 42 7000 3.6 340 17:56 30.05.2020
2336 Clear 37 1002 42 7000 3.6 340 17:38 30.05.2020
2337 Clear 37 1002 42 7000 3.6 340 17:19 30.05.2020
2338 Clear 37 1002 50 8000 5.1 330 16:43 30.05.2020
2339 Clear 37 1002 50 8000 5.1 330 16:23 30.05.2020
2340 Clear 38 1001 50 10000 5.1 340 15:56 30.05.2020
2341 Clear 38 1001 50 10000 5.1 340 15:37 30.05.2020
2342 Clear 39 1001 50 10000 5.1 340 15:19 30.05.2020
2343 Clear 40 1001 38 10000 6.7 330 14:42 30.05.2020
2344 Clear 40 1002 38 10000 6.7 320 14:20 30.05.2020
2345 Clear 40 1002 38 10000 6.7 320 13:41 30.05.2020
2346 Clear 42 1002 30 10000 6.7 290 13:18 30.05.2020
2347 Clear 42 1002 30 10000 6.7 290 12:40 30.05.2020
2348 Clear 42 1002 30 10000 6.7 290 12:20 30.05.2020
2349 Clear 42 1003 28 10000 3.6 260 11:55 30.05.2020
2350 Clear 42 1003 28 10000 3.6 260 11:37 30.05.2020
2351 Clear 41 1003 28 10000 3.6 260 11:19 30.05.2020
2352 Clear 41 1003 32 10000 5.7 240 10:39 30.05.2020
2353 Clear 40 1004 35 10000 5.1 220 10:20 30.05.2020
2354 Clear 40 1004 35 10000 5.1 220 09:46 30.05.2020
2355 Clear 40 1004 35 10000 5.1 220 09:28 30.05.2020
2356 Clear 38 1004 39 10000 6.7 200 08:46 30.05.2020
2357 Clear 37 1004 39 10000 6.7 200 08:27 30.05.2020
2358 Clear 35 1004 44 10000 6.7 210 07:44 30.05.2020
2359 Clear 35 1004 44 10000 6.7 210 07:20 30.05.2020
2360 Clear 34 1004 41 10000 4.6 190 06:33 30.05.2020
2361 Clear 32 1004 43 10000 2.1 160 05:52 30.05.2020
2362 Clear 32 1004 43 10000 2.1 160 05:30 30.05.2020
2363 Clear 31 1003 49 10000 3.1 170 03:38 30.05.2020
2364 Clear 32 1002 46 10000 1.5 80 02:29 30.05.2020
2365 Clear 32 1001 43 10000 2.1 70 01:40 30.05.2020
2366 Clear 33 1002 44 10000 1.5 30 00:37 30.05.2020
2367 Clear 33 1002 44 10000 2.6 350 00:18 30.05.2020
2368 Clear 34 1002 44 10000 2.6 350 23:41 29.05.2020
2369 Clear 34 1002 44 10000 2.6 350 23:20 29.05.2020
2370 Clear 34 1002 41 10000 2.1 350 22:58 29.05.2020
2371 Clear 34 1002 41 10000 2.1 350 22:39 29.05.2020
2372 Clear 34 1002 41 10000 2.1 350 22:19 29.05.2020
2373 Clear 33 1002 44 10000 1.5 240 21:41 29.05.2020
2374 Clear 34 1002 44 10000 1.5 240 21:21 29.05.2020
2375 Clear 34 1002 44 10000 1.5 240 21:21 29.05.2020
2376 Clear 35 1002 44 10000 2.1 220 20:59 29.05.2020
2377 Clear 35 1002 44 10000 2.1 220 20:40 29.05.2020
2378 Clear 35 1002 47 10000 1 0 20:19 29.05.2020
2379 Clear 35 1002 47 10000 1 0 19:44 29.05.2020
2380 Clear 35 1002 47 10000 1 0 19:26 29.05.2020
2381 Clear 35 1002 44 10000 2.1 350 18:55 29.05.2020
2382 Clear 35 1002 44 10000 2.1 350 18:37 29.05.2020
2383 Clear 35 1002 44 10000 2.1 350 18:18 29.05.2020
2384 Clear 35 1001 41 10000 3.6 330 17:40 29.05.2020
2385 Clear 35 1001 41 10000 3.6 330 17:22 29.05.2020
2386 Clear 35 1001 41 10000 5.1 340 16:58 29.05.2020
2387 Clear 35 1001 41 10000 5.1 340 16:40 29.05.2020
2388 Clear 36 1001 41 10000 5.1 340 16:22 29.05.2020
2389 Clear 36 1001 44 10000 5.7 340 15:54 29.05.2020
2390 Clear 36 1001 44 10000 5.7 340 15:36 29.05.2020
2391 Clear 38 1001 39 10000 6.7 330 15:18 29.05.2020
2392 Clear 36 1001 44 10000 5.7 340 15:18 29.05.2020
2393 Clear 38 1001 39 10000 6.7 330 14:39 29.05.2020
2394 Clear 38 1001 39 10000 6.7 330 14:20 29.05.2020
2395 Clear 39 1001 35 10000 6.2 350 13:43 29.05.2020
2396 Clear 39 1001 35 10000 6.2 350 13:24 29.05.2020
2397 Clear 39 1002 39 10000 6.2 330 12:58 29.05.2020
2398 Clear 39 1002 39 10000 6.2 330 12:39 29.05.2020
2399 Clear 39 1002 39 10000 6.2 330 12:21 29.05.2020
2400 Clear 41 1002 30 10000 5.7 310 11:44 29.05.2020
2401 Clear 41 1002 30 10000 5.7 310 11:25 29.05.2020
2402 Clear 41 1003 24 10000 3.1 0 10:56 29.05.2020
2403 Clear 41 1003 24 10000 3.1 0 10:36 29.05.2020
2404 Clear 41 1003 24 10000 3.1 0 10:18 29.05.2020
2405 Clear 40 1003 28 10000 3.1 220 09:42 29.05.2020
2406 Clear 39 1004 24 10000 3.6 200 09:19 29.05.2020
2407 Clear 39 1004 24 10000 3.6 200 08:48 29.05.2020
2408 Clear 38 1004 24 10000 3.6 200 08:26 29.05.2020
2409 Clear 37 1004 18 10000 4.6 200 07:52 29.05.2020
2410 Clear 37 1004 18 10000 4.6 200 07:33 29.05.2020
2411 Clear 35 1003 23 10000 1.5 180 06:58 29.05.2020
2412 Clear 35 1003 23 10000 1.5 180 06:58 29.05.2020
2413 Clear 34 1003 23 10000 1.5 180 06:40 29.05.2020
2414 Clear 32 1003 23 10000 1.5 180 06:22 29.05.2020
2415 Clear 31 1003 38 10000 2.6 210 05:45 29.05.2020
2416 Clear 31 1002 35 10000 2.6 180 02:35 29.05.2020
2417 Clear 31 1002 38 10000 1 0 01:28 29.05.2020
2418 Clear 32 1002 31 10000 1 0 00:54 29.05.2020
2419 Clear 32 1002 31 10000 1 0 00:33 29.05.2020
2420 Clear 32 1003 31 10000 1.5 90 23:58 28.05.2020
2421 Clear 32 1003 31 10000 1.5 90 23:39 28.05.2020
2422 Clear 33 1003 32 10000 1.5 60 23:18 28.05.2020
2423 Clear 33 1003 32 10000 1.5 60 22:42 28.05.2020
2424 Clear 33 1003 32 10000 1.5 60 22:24 28.05.2020
2425 Clear 34 1003 36 10000 1.5 220 21:56 28.05.2020
2426 Clear 34 1003 36 10000 1.5 220 21:38 28.05.2020
2427 Clear 34 1003 34 10000 1.5 210 21:19 28.05.2020
2428 Clear 34 1003 34 10000 1.5 210 20:56 28.05.2020
2429 Clear 33 1003 34 10000 1.5 210 20:37 28.05.2020
2430 Clear 33 1003 34 10000 1.5 210 20:18 28.05.2020
2431 Clear 35 1003 34 10000 2.1 230 19:43 28.05.2020
2432 Clear 35 1003 34 10000 2.1 230 19:43 28.05.2020
2433 Clear 35 1003 34 10000 2.1 230 19:21 28.05.2020
2434 Clear 35 1002 28 10000 3.1 320 18:58 28.05.2020
2435 Clear 35 1002 28 10000 3.1 320 18:58 28.05.2020
2436 Clear 35 1002 28 10000 3.1 320 18:40 28.05.2020
2437 Clear 35 1002 28 10000 3.1 320 18:22 28.05.2020
2438 Clear 35 1002 32 10000 4.1 330 17:41 28.05.2020
2439 Clear 35 1002 32 10000 4.1 330 17:22 28.05.2020
2440 Clear 35 1002 34 10000 5.7 350 16:57 28.05.2020
2441 Clear 35 1002 34 10000 5.7 350 16:37 28.05.2020
2442 Clear 35 1002 34 10000 5.7 350 16:19 28.05.2020
2443 Clear 36 1002 37 10000 5.7 350 15:42 28.05.2020
2444 Clear 36 1002 37 10000 5.7 350 15:24 28.05.2020
2445 Clear 36 1002 30 10000 6.7 350 14:55 28.05.2020
2446 Clear 36 1002 30 10000 6.7 350 14:36 28.05.2020
2447 Clear 36 1003 41 10000 6.7 350 14:18 28.05.2020
2448 Clear 36 1003 41 10000 6.7 350 13:40 28.05.2020
2449 Clear 36 1003 41 10000 6.7 350 13:40 28.05.2020
2450 Clear 36 1003 41 10000 6.7 350 13:20 28.05.2020
2451 Clear 37 1003 39 10000 7.7 330 12:42 28.05.2020
2452 Clear 37 1003 39 10000 7.7 330 12:19 28.05.2020
2453 Clear 38 1004 37 10000 7.2 330 11:44 28.05.2020
2454 Clear 39 1004 37 10000 7.2 330 11:25 28.05.2020
2455 Clear 41 1004 16 10000 3.1 220 10:57 28.05.2020
2456 Clear 41 1004 32 10000 7.7 340 10:57 28.05.2020
2457 Clear 41 1004 32 10000 7.7 340 10:57 28.05.2020
2458 Clear 41 1004 16 10000 3.1 220 10:39 28.05.2020
2459 Clear 40 1005 14 10000 3.1 200 10:19 28.05.2020
2460 Clear 39 1005 14 10000 3.1 200 09:39 28.05.2020
2461 Clear 39 1005 14 10000 3.1 200 09:39 28.05.2020
2462 Clear 38 1005 22 10000 2.1 190 09:20 28.05.2020
2463 Clear 37 1005 22 10000 2.1 190 08:50 28.05.2020
2464 Clear 37 1005 22 10000 2.1 190 08:26 28.05.2020
2465 Clear 35 1005 34 10000 3.1 220 07:45 28.05.2020
2466 Clear 35 1005 34 10000 3.1 220 07:26 28.05.2020
2467 Clear 33 1006 41 10000 2.6 190 06:59 28.05.2020
2468 Clear 33 1006 41 10000 2.6 190 06:37 28.05.2020
2469 Clear 31 1005 43 10000 1.5 200 05:58 28.05.2020
2470 Clear 31 1005 43 10000 1.5 200 05:36 28.05.2020
2471 Clear 29 1005 48 10000 1 0 04:29 28.05.2020
2472 Clear 30 1004 52 10000 2.6 200 03:46 28.05.2020
2473 Clear 30 1004 48 10000 2.1 220 02:45 28.05.2020
2474 Clear 31 1004 46 10000 1 0 01:52 28.05.2020
2475 Clear 31 1005 46 10000 2.1 60 00:55 28.05.2020
2476 Clear 31 1005 46 10000 2.1 60 00:28 28.05.2020
2477 Clear 31 1005 46 10000 2.1 90 23:58 27.05.2020
2478 Clear 31 1005 46 10000 2.1 90 23:39 27.05.2020
2479 Clear 31 1005 46 10000 2.1 90 23:21 27.05.2020
2480 Clear 32 1005 43 10000 1.5 190 22:56 27.05.2020
2481 Clear 33 1005 43 10000 1.5 190 22:38 27.05.2020
2482 Clear 33 1005 43 10000 1.5 190 22:19 27.05.2020
2483 Clear 33 1006 36 10000 1.5 100 21:41 27.05.2020
2484 Clear 33 1006 36 10000 1.5 100 21:23 27.05.2020
2485 Clear 33 1006 38 10000 2.1 360 20:59 27.05.2020
2486 Clear 33 1006 38 10000 2.1 360 20:41 27.05.2020
2487 Clear 33 1006 38 10000 2.1 360 20:41 27.05.2020
2488 Clear 33 1006 52 10000 2.1 330 20:21 27.05.2020
2489 Clear 33 1006 52 10000 2.1 330 19:57 27.05.2020
2490 Clear 33 1006 52 10000 2.1 330 19:39 27.05.2020
2491 Clear 33 1006 52 10000 2.1 330 19:18 27.05.2020
2492 Clear 34 1006 44 10000 4.1 350 18:40 27.05.2020
2493 Clear 34 1006 44 10000 4.1 350 18:19 27.05.2020
2494 Clear 35 1005 34 10000 4.6 320 17:46 27.05.2020
2495 Clear 35 1005 34 10000 4.6 320 17:46 27.05.2020
2496 Clear 35 1005 34 10000 4.6 320 17:28 27.05.2020
2497 Clear 35 1005 39 10000 5.7 320 16:57 27.05.2020
2498 Clear 35 1005 39 10000 5.7 320 16:39 27.05.2020
2499 Clear 37 1005 35 10000 6.2 320 16:20 27.05.2020
2500 Clear 37 1005 35 10000 6.2 320 15:59 27.05.2020
2501 Clear 37 1005 35 10000 6.2 320 15:39 27.05.2020
2502 Clear 35 1006 56 9000 6.7 340 15:21 27.05.2020
2503 Clear 35 1006 56 9000 6.7 340 14:43 27.05.2020
2504 Clear 35 1006 56 9000 6.7 340 14:21 27.05.2020
2505 Clear 36 1006 53 8000 6.2 340 13:55 27.05.2020
2506 Clear 36 1006 53 8000 6.2 340 13:36 27.05.2020
2507 Clear 36 1007 47 10000 6.2 330 13:18 27.05.2020
2508 Clear 36 1007 47 10000 6.2 330 12:40 27.05.2020
2509 Clear 36 1007 47 10000 6.2 330 12:22 27.05.2020
2510 Clear 36 1007 47 10000 5.7 330 11:39 27.05.2020
2511 Clear 36 1007 47 10000 5.7 330 11:21 27.05.2020
2512 Clear 37 1007 44 10000 5.7 330 10:57 27.05.2020
2513 Clear 37 1007 44 10000 5.7 330 10:57 27.05.2020
2514 Clear 37 1007 44 10000 5.7 330 10:38 27.05.2020
2515 Clear 37 1008 39 10000 5.1 320 10:19 27.05.2020
2516 Clear 37 1008 35 10000 2.6 240 09:41 27.05.2020
2517 Clear 37 1008 35 10000 2.6 240 09:22 27.05.2020
2518 Clear 37 1008 32 10000 1.5 0 08:56 27.05.2020
2519 Clear 37 1008 32 10000 1.5 0 08:36 27.05.2020
2520 Clear 37 1008 32 10000 1.5 0 08:18 27.05.2020
2521 Clear 34 1008 36 10000 2.1 170 07:49 27.05.2020
2522 Clear 34 1008 36 10000 2.1 170 07:30 27.05.2020
2523 Clear 34 1008 36 10000 2.1 170 07:30 27.05.2020
2524 Clear 33 1008 38 10000 2.1 170 06:47 27.05.2020
2525 Clear 33 1008 38 10000 2.1 170 06:20 27.05.2020
2526 Clear 31 1008 48 10000 1.5 170 05:49 27.05.2020
2527 Clear 30 1007 51 10000 2.1 150 04:38 27.05.2020
2528 Clear 30 1007 40 10000 1.54 155 02:32 27.05.2020
2529 Clear 30 1007 46 10000 1.5 280 01:53 27.05.2020
2530 Clear 30 1007 46 10000 1.5 280 01:29 27.05.2020
2531 Clear 31 1007 43 10000 3.1 330 00:46 27.05.2020
2532 Clear 31 1007 43 10000 3.1 330 00:20 27.05.2020
2533 Clear 32 1007 33 10000 3.1 330 23:55 26.05.2020
2534 Clear 32 1007 33 10000 3.1 330 23:37 26.05.2020
2535 Clear 32 1007 33 10000 3.1 330 23:37 26.05.2020
2536 Clear 32 1007 33 10000 3.1 330 23:18 26.05.2020
2537 Clear 32 1007 33 10000 3.1 330 23:18 26.05.2020
2538 Clear 32 1008 43 10000 2.6 330 22:40 26.05.2020
2539 Clear 32 1008 43 10000 2.6 330 22:21 26.05.2020
2540 Clear 33 1008 41 10000 2.1 340 21:58 26.05.2020
2541 Clear 33 1008 41 10000 2.1 340 21:40 26.05.2020
2542 Clear 34 1008 41 10000 2.1 340 21:21 26.05.2020
2543 Clear 35 1008 36 10000 2.1 350 20:55 26.05.2020
2544 Clear 35 1008 36 10000 2.1 350 20:37 26.05.2020
2545 Clear 34 1008 44 10000 2.6 50 20:18 26.05.2020
2546 Clear 34 1008 44 10000 2.6 50 19:39 26.05.2020
2547 Clear 34 1008 44 10000 2.6 50 19:19 26.05.2020
2548 Clear 35 1007 39 10000 3.1 40 18:43 26.05.2020
2549 Clear 35 1007 39 10000 3.1 40 18:24 26.05.2020
2550 Clear 36 1007 37 10000 4.1 40 17:59 26.05.2020
2551 Clear 36 1007 37 10000 4.1 40 17:38 26.05.2020
2552 Clear 36 1007 37 10000 4.1 40 17:38 26.05.2020
2553 Clear 36 1007 37 10000 4.1 40 17:20 26.05.2020
2554 Clear 36 1007 34 10000 4.6 10 16:42 26.05.2020
2555 Clear 36 1007 41 10000 5.1 340 16:20 26.05.2020
2556 Clear 36 1007 41 10000 5.1 340 15:55 26.05.2020
2557 Clear 36 1007 41 10000 5.1 340 15:37 26.05.2020
2558 Clear 36 1007 41 10000 5.1 340 15:19 26.05.2020
2559 Clear 37 1007 42 10000 6.7 330 14:43 26.05.2020
2560 Clear 37 1007 42 10000 6.7 330 14:23 26.05.2020
2561 Clouds 37 1007 39 10000 6.7 320 13:56 26.05.2020
2562 Clouds 37 1007 39 10000 6.7 320 13:37 26.05.2020
2563 Clouds 37 1008 44 10000 5.7 330 13:18 26.05.2020
2564 Clouds 37 1008 44 10000 5.7 330 12:42 26.05.2020
2565 Clouds 37 1008 44 10000 5.7 330 12:20 26.05.2020
2566 Clouds 37 1008 44 10000 6.2 330 11:58 26.05.2020
2567 Clouds 37 1008 44 10000 6.2 330 11:40 26.05.2020
2568 Clouds 37 1008 44 10000 6.2 330 11:18 26.05.2020
2569 Clear 37 1008 39 10000 2.6 0 10:42 26.05.2020
2570 Clear 37 1008 39 10000 2.6 0 10:19 26.05.2020
2571 Clear 37 1009 42 10000 4.1 230 09:40 26.05.2020
2572 Clear 36 1009 44 10000 5.1 210 09:20 26.05.2020
2573 Clear 35 1009 44 10000 5.1 210 08:43 26.05.2020
2574 Clear 35 1009 44 10000 5.1 210 08:43 26.05.2020
2575 Clear 35 1009 44 10000 5.1 210 08:22 26.05.2020
2576 Clear 34 1009 49 10000 4.6 210 07:57 26.05.2020
2577 Clear 33 1008 43 10000 3.1 190 07:37 26.05.2020
2578 Clear 33 1008 43 10000 3.1 190 07:18 26.05.2020
2579 Clear 32 1008 43 10000 3.1 190 06:45 26.05.2020
2580 Clear 30 1008 43 10000 2.1 270 05:55 26.05.2020
2581 Clear 30 1008 43 10000 2.1 270 05:35 26.05.2020
2582 Clear 30 1006 45 10000 3.6 170 04:55 26.05.2020
2583 Clear 30 1006 45 10000 3.6 170 04:34 26.05.2020
2584 Clear 30 1006 48 10000 3.6 140 03:59 26.05.2020
2585 Clear 30 1006 45 10000 2.6 130 02:45 26.05.2020
2586 Clear 31 1006 38 10000 1.5 60 01:49 26.05.2020
2587 Clear 31 1006 38 10000 1.5 60 01:27 26.05.2020
2588 Clear 31 1006 40 10000 1.5 70 00:39 26.05.2020
2589 Clear 31 1007 40 10000 1.5 90 00:19 26.05.2020
2590 Clear 31 1007 40 10000 1.5 90 23:56 25.05.2020
2591 Clear 32 1007 40 10000 1.5 90 23:37 25.05.2020
2592 Clear 32 1007 40 10000 1.5 90 23:18 25.05.2020
2593 Clear 32 1007 38 10000 2.6 90 22:55 25.05.2020
2594 Clear 32 1007 38 10000 2.6 90 22:36 25.05.2020
2595 Clear 31 1008 43 10000 1 0 22:18 25.05.2020
2596 Clear 32 1008 43 10000 1 0 21:54 25.05.2020
2597 Clear 32 1008 43 10000 1 0 21:36 25.05.2020
2598 Clear 32 1008 43 10000 1 0 21:18 25.05.2020
2599 Clear 32 1007 43 10000 3.6 210 20:42 25.05.2020
2600 Clouds 33 1007 43 10000 3.6 210 20:21 25.05.2020
2601 -273 0 0 0 0 0 19:59 25.05.2020
2602 Clouds 34 1007 36 10000 2.1 220 19:59 25.05.2020
2603 Clouds 34 1007 36 10000 2.1 220 19:39 25.05.2020
2604 Clouds 34 1006 32 10000 4.1 170 19:18 25.05.2020
2605 Clouds 34 1006 32 10000 4.1 170 18:45 25.05.2020
2606 Clouds 33 1006 32 10000 4.1 170 18:22 25.05.2020
2607 Clouds 33 1007 38 10000 5.7 160 17:59 25.05.2020
2608 Clouds 33 1007 38 10000 5.7 160 17:40 25.05.2020
2609 Clouds 33 1007 38 10000 5.7 160 17:22 25.05.2020
2610 Clouds 31 1007 46 10000 5.1 200 16:56 25.05.2020
2611 Clouds 31 1007 48 10000 5.1 130 16:38 25.05.2020
2612 Clouds 31 1008 52 10000 4.6 210 16:19 25.05.2020
2613 Clouds 31 1007 43 10000 8.7 140 15:42 25.05.2020
2614 Clouds 32 1007 43 10000 8.7 140 15:19 25.05.2020
2615 Clouds 32 1007 43 10000 8.7 140 15:19 25.05.2020
2616 Clouds 33 1008 46 7000 10.8 130 14:56 25.05.2020
2617 Clouds 33 1008 46 7000 10.8 130 14:38 25.05.2020
2618 Dust 35 1007 41 3500 9.8 110 14:18 25.05.2020
2619 Clouds 35 1007 44 3500 10.3 100 13:39 25.05.2020
2620 Clouds 36 1007 44 3500 10.3 100 13:20 25.05.2020
2621 Clouds 37 1005 39 10000 8.2 350 12:57 25.05.2020
2622 Clouds 38 1006 37 10000 7.7 330 12:38 25.05.2020
2623 Clouds 39 1007 37 10000 4.1 310 12:20 25.05.2020
2624 Clouds 39 1007 37 10000 4.1 310 11:39 25.05.2020
2625 Clouds 39 1007 37 10000 4.1 310 11:20 25.05.2020
2626 Clouds 39 1007 33 10000 5.7 290 10:56 25.05.2020
2627 Clouds 38 1008 37 10000 5.1 240 10:37 25.05.2020
2628 Clouds 37 1008 39 10000 3.1 200 10:18 25.05.2020
2629 Clouds 37 1008 39 10000 3.1 200 09:42 25.05.2020
2630 Clouds 36 1008 39 10000 3.1 200 09:20 25.05.2020
2631 Clouds 36 1008 39 10000 4.6 190 08:59 25.05.2020
2632 Clouds 35 1008 39 10000 4.6 190 08:38 25.05.2020
2633 Clouds 35 1008 39 10000 4.6 190 08:20 25.05.2020
2634 Clouds 34 1008 41 8000 3.1 180 07:47 25.05.2020
2635 Clouds 34 1008 41 8000 3.1 180 07:24 25.05.2020
2636 Clouds 34 1008 44 8000 3.1 200 06:55 25.05.2020
2637 Clouds 33 1008 44 8000 3.1 200 06:34 25.05.2020
2638 Clouds 31 1007 55 7000 1.5 140 04:19 25.05.2020
2639 Clouds 30 1006 66 8000 1 0 03:23 25.05.2020
2640 Clouds 31 1006 62 8000 3.1 130 02:45 25.05.2020
2641 Clouds 31 1005 59 6000 3.1 60 01:58 25.05.2020
2642 Clouds 32 1005 59 6000 3.1 60 01:30 25.05.2020
2643 Clouds 31 1005 59 6000 2.6 50 00:45 25.05.2020
2644 Clouds 32 1005 59 6000 2.6 50 00:23 25.05.2020
2645 Clouds 32 1006 55 6000 3.1 20 23:57 24.05.2020
2646 Clouds 32 1006 55 6000 3.1 20 23:38 24.05.2020
2647 Clouds 32 1006 52 7000 2.6 20 23:19 24.05.2020
2648 Clouds 33 1006 52 7000 2.6 20 22:41 24.05.2020
2649 Clouds 33 1006 52 7000 2.6 20 22:19 24.05.2020
2650 Clouds 34 1006 46 8000 3.1 50 21:58 24.05.2020
2651 Clouds 34 1006 46 8000 3.1 50 21:40 24.05.2020
2652 Clear 34 1006 46 8000 3.1 50 21:21 24.05.2020
2653 Clear 35 1006 32 10000 2.1 10 20:57 24.05.2020
2654 Clear 35 1006 32 10000 2.1 10 20:57 24.05.2020
2655 Clear 35 1006 32 10000 2.1 10 20:38 24.05.2020
2656 Clouds 35 1006 32 10000 2.1 10 20:18 24.05.2020
2657 Clouds 34 1006 36 10000 2.1 160 19:55 24.05.2020
2658 Clouds 34 1006 36 10000 2.1 160 19:36 24.05.2020
2659 Clouds 34 1006 36 10000 2.1 160 19:18 24.05.2020
2660 Clouds 35 1005 32 10000 3.1 200 18:41 24.05.2020
2661 Clouds 35 1005 32 10000 3.1 200 18:23 24.05.2020
2662 Clouds 37 1004 25 10000 2.1 210 17:56 24.05.2020
2663 Clouds 37 1004 25 10000 2.1 210 17:37 24.05.2020
2664 Clouds 37 1004 25 10000 2.1 210 17:19 24.05.2020
2665 Clouds 36 1004 25 10000 3.6 150 16:39 24.05.2020
2666 Clouds 37 1004 25 10000 3.6 150 16:21 24.05.2020
2667 Clouds 37 1005 22 10000 5.1 100 15:59 24.05.2020
2668 Clouds 36 1005 30 10000 3.6 200 15:40 24.05.2020
2669 Clouds 34 1005 30 10000 3.6 200 15:20 24.05.2020
2670 Thunderstorm 34 1005 38 8000 6.2 200 14:55 24.05.2020
2671 Thunderstorm 33 1006 46 1500 12.9 180 14:37 24.05.2020
2672 Thunderstorm 35 1006 46 1500 12.9 180 14:18 24.05.2020
2673 Clouds 38 1004 37 8000 6.7 330 13:55 24.05.2020
2674 Clouds 39 1004 37 10000 6.2 340 13:36 24.05.2020
2675 Clouds 39 1004 37 10000 6.2 340 13:36 24.05.2020
2676 Clouds 39 1004 37 10000 6.2 340 13:18 24.05.2020
2677 Clouds 41 1004 32 10000 5.1 350 12:54 24.05.2020
2678 Clouds 41 1004 23 10000 2.6 70 12:36 24.05.2020
2679 Clouds 41 1004 23 10000 2.6 70 12:36 24.05.2020
2680 Clouds 41 1004 23 10000 2.6 70 12:18 24.05.2020
2681 Clouds 39 1005 24 10000 3.6 110 11:42 24.05.2020
2682 Clouds 39 1005 24 10000 3.6 110 11:23 24.05.2020
2683 Clouds 38 1006 33 10000 2.6 170 10:59 24.05.2020
2684 Clouds 38 1006 33 10000 2.6 170 10:40 24.05.2020
2685 Clouds 37 1006 33 10000 2.6 170 10:22 24.05.2020
2686 Clouds 37 1006 39 10000 3.1 180 09:55 24.05.2020
2687 Clouds 37 1006 39 10000 3.1 180 09:37 24.05.2020
2688 Clear 36 1006 39 10000 3.1 180 09:18 24.05.2020
2689 Clear 35 1007 37 10000 2.1 0 08:40 24.05.2020
2690 Clouds 35 1007 37 10000 2.1 0 08:22 24.05.2020
2691 Clouds 35 1007 37 10000 2.1 0 08:22 24.05.2020
2692 Clouds 35 1007 34 10000 2.6 160 07:54 24.05.2020
2693 Clouds 34 1007 34 10000 2.6 160 07:36 24.05.2020
2694 Clouds 33 1007 34 10000 2.6 160 07:18 24.05.2020
2695 Clouds 32 1006 38 10000 3.1 180 06:37 24.05.2020
2696 Clouds 30 1006 40 10000 2.1 120 05:43 24.05.2020
2697 Clear 29 1005 58 8000 3.1 110 03:46 24.05.2020
2698 Clear 30 1004 48 10000 2.6 40 02:52 24.05.2020
2699 Clear 30 1004 52 10000 2.1 60 02:18 24.05.2020
2700 Clear 31 1004 43 10000 2.1 40 00:43 24.05.2020
2701 Clear 31 1004 43 10000 2.1 40 00:25 24.05.2020
2702 Clear 31 1004 43 10000 2.1 40 00:25 24.05.2020
2703 Clear 31 1005 38 10000 2.6 350 23:54 23.05.2020
2704 Clear 31 1005 38 10000 2.6 350 23:36 23.05.2020
2705 Clear 31 1005 66 8000 2.6 330 23:18 23.05.2020
2706 Clear 31 1005 66 8000 2.6 330 22:55 23.05.2020
2707 Clear 31 1005 66 8000 2.6 330 22:36 23.05.2020
2708 Clear 32 1005 49 10000 3.6 340 22:18 23.05.2020
2709 Clear 32 1005 49 10000 3.6 340 21:42 23.05.2020
2710 Clear 32 1005 49 10000 3.6 340 21:21 23.05.2020
2711 Clear 32 1005 38 10000 2.6 340 20:59 23.05.2020
2712 Clear 33 1005 38 10000 2.6 340 20:39 23.05.2020
2713 Clear 33 1005 38 10000 2.6 340 20:19 23.05.2020
2714 Clear 33 1005 49 10000 2.1 220 19:55 23.05.2020
2715 Clear 33 1005 49 10000 2.1 220 19:37 23.05.2020
2716 Clear 33 1004 52 10000 3.1 310 19:18 23.05.2020
2717 Clear 33 1004 52 10000 3.1 310 18:41 23.05.2020
2718 Clear 33 1004 52 10000 3.1 310 18:22 23.05.2020
2719 Clear 33 1004 49 10000 4.6 320 17:58 23.05.2020
2720 Clear 33 1004 49 10000 4.6 320 17:40 23.05.2020
2721 Clear 34 1004 49 10000 4.6 320 17:20 23.05.2020
2722 Clear 34 1004 44 10000 4.6 340 16:58 23.05.2020
2723 Clear 34 1004 44 10000 4.6 340 16:40 23.05.2020
2724 Clear 35 1004 44 10000 4.6 340 16:20 23.05.2020
2725 Clear 35 1004 32 10000 4.6 360 15:44 23.05.2020
2726 Clear 35 1004 32 10000 4.6 360 15:24 23.05.2020
2727 Clear 35 1004 32 10000 4.6 360 15:24 23.05.2020
2728 Clear 36 1004 41 10000 6.7 340 14:59 23.05.2020
2729 Clear 36 1004 41 10000 6.7 340 14:41 23.05.2020
2730 Clear 36 1004 41 10000 6.7 340 14:22 23.05.2020
2731 Clear 37 1004 37 10000 8.7 330 13:42 23.05.2020
2732 Clear 38 1004 37 10000 8.7 330 13:19 23.05.2020
2733 Clear 38 1004 37 10000 8.7 330 13:19 23.05.2020
2734 Clear 39 1004 14 10000 6.7 350 12:57 23.05.2020
2735 Clear 39 1004 14 10000 6.7 350 12:57 23.05.2020
2736 Clear 39 1004 14 10000 6.7 350 12:39 23.05.2020
2737 Clear 40 1005 14 10000 6.7 350 12:19 23.05.2020
2738 Clear 40 1005 14 10000 6.7 350 11:43 23.05.2020
2739 Clear 40 1005 14 10000 6.7 350 11:22 23.05.2020
2740 Clear 39 1005 22 10000 6.2 320 10:58 23.05.2020
2741 Clear 39 1005 22 10000 6.2 320 10:39 23.05.2020
2742 Clear 39 1005 22 10000 6.2 320 10:20 23.05.2020
2743 Clear 39 1005 16 10000 2.6 50 09:59 23.05.2020
2744 Clear 39 1005 16 10000 2.6 50 09:59 23.05.2020
2745 Clear 39 1005 16 10000 2.6 50 09:40 23.05.2020
2746 Clear 39 1005 16 10000 2.6 50 09:21 23.05.2020
2747 Clear 36 1006 20 10000 1.5 60 08:44 23.05.2020
2748 Clear 36 1006 20 10000 1.5 60 08:20 23.05.2020
2749 Clear 33 1006 30 10000 2.6 180 07:57 23.05.2020
2750 Clear 33 1006 30 10000 2.6 180 07:37 23.05.2020
2751 Clear 32 1006 43 10000 2.6 150 07:19 23.05.2020
2752 Clear 31 1006 43 10000 2.6 150 06:38 23.05.2020
2753 Clear 29 1005 51 10000 1.5 150 05:34 23.05.2020
2754 Clear 29 1004 62 10000 2.1 180 03:43 23.05.2020
2755 Clear 29 1004 62 10000 1 0 02:59 23.05.2020
2756 Clear 30 1005 55 10000 2.1 0 01:58 23.05.2020
2757 Clear 30 1005 55 10000 2.1 0 01:26 23.05.2020
2758 Clear 30 1005 58 10000 1.5 50 00:47 23.05.2020
2759 Clear 31 1005 58 10000 1.5 50 00:26 23.05.2020
2760 Clear 31 1005 49 10000 2.1 310 23:58 22.05.2020
2761 Clear 31 1005 49 10000 2.1 310 23:39 22.05.2020
2762 Clear 31 1005 49 10000 2.1 310 23:39 22.05.2020
2763 Clear 31 1006 62 10000 2.6 310 23:19 22.05.2020
2764 Clear 31 1006 62 10000 2.6 310 22:55 22.05.2020
2765 Clear 31 1006 62 10000 2.6 310 22:36 22.05.2020
2766 Clear 31 1006 62 10000 2.6 310 22:18 22.05.2020
2767 Clear 31 1006 62 10000 2.6 310 22:18 22.05.2020
2768 Clear 31 1006 62 10000 2.6 310 22:18 22.05.2020
2769 Clear 31 1006 66 10000 4.1 350 21:42 22.05.2020
2770 Clear 31 1006 66 10000 4.1 350 21:21 22.05.2020
2771 Clear 32 1005 55 10000 5.7 330 20:46 22.05.2020
2772 Clear 32 1005 55 10000 5.7 330 20:21 22.05.2020
2773 Clear 33 1005 46 10000 5.1 330 19:59 22.05.2020
2774 Clear 33 1005 46 10000 5.1 330 19:40 22.05.2020
2775 Clear 34 1005 46 10000 5.1 330 19:22 22.05.2020
2776 Clear 34 1005 44 10000 4.1 340 18:39 22.05.2020
2777 Clear 34 1005 44 10000 4.1 340 18:21 22.05.2020
2778 Clear 37 1004 27 10000 3.6 330 17:57 22.05.2020
2779 Clear 37 1004 27 10000 3.6 330 17:37 22.05.2020
2780 Clear 37 1004 27 10000 3.6 330 17:18 22.05.2020
2781 Clear 39 1004 18 10000 3.6 20 16:43 22.05.2020
2782 Clear 39 1004 18 10000 3.6 20 16:20 22.05.2020
2783 Clear 39 1004 18 10000 5.7 20 15:59 22.05.2020
2784 Clear 39 1004 18 10000 5.7 20 15:59 22.05.2020
2785 Clear 39 1004 18 10000 5.7 20 15:40 22.05.2020
2786 Clear 39 1004 18 10000 5.7 20 15:40 22.05.2020
2787 Clear 39 1004 18 10000 5.7 20 15:19 22.05.2020
2788 Clear 39 1004 18 10000 5.7 10 14:43 22.05.2020
2789 Clear 39 1004 18 10000 5.7 10 14:24 22.05.2020
2790 Clear 39 1004 20 10000 7.2 10 13:46 22.05.2020
2791 Clear 40 1004 20 10000 7.2 10 13:20 22.05.2020
2792 Clear 40 1004 17 10000 7.7 10 12:54 22.05.2020
2793 Clear 40 1004 17 10000 7.7 10 12:36 22.05.2020
2794 Clear 40 1004 17 10000 7.7 10 12:18 22.05.2020
2795 Clear 40 1005 17 10000 6.7 30 11:42 22.05.2020
2796 Clear 40 1005 17 10000 6.7 30 11:42 22.05.2020
2797 Clear 39 1005 17 10000 6.7 30 11:20 22.05.2020
2798 Clear 38 1006 27 10000 5.7 360 10:55 22.05.2020
2799 Clear 38 1006 27 10000 5.7 360 10:36 22.05.2020
2800 Clear 38 1006 27 10000 5.7 360 10:18 22.05.2020
2801 Clear 37 1006 22 10000 3.6 10 09:41 22.05.2020
2802 Clear 36 1006 22 10000 3.6 10 09:19 22.05.2020
2803 Clear 35 1006 30 10000 3.6 60 08:44 22.05.2020
2804 Clear 35 1006 30 10000 3.6 60 08:21 22.05.2020
2805 Clear 35 1006 30 10000 3.6 60 08:21 22.05.2020
2806 Clear 33 1006 52 10000 4.6 330 07:57 22.05.2020
2807 Clear 33 1006 52 10000 4.6 330 07:27 22.05.2020
2808 Clear 32 1005 38 10000 1 0 06:58 22.05.2020
2809 Clear 32 1005 38 10000 1 0 06:36 22.05.2020
2810 Clear 30 1005 48 10000 1 0 05:40 22.05.2020
2811 Clear 30 1004 51 10000 2.1 200 04:51 22.05.2020
2812 Clear 30 1004 51 10000 2.1 200 04:28 22.05.2020
2813 Clear 30 1004 55 10000 1 0 03:47 22.05.2020
2814 Clear 30 1004 66 10000 0.5 0 02:59 22.05.2020
2815 Clear 30 1004 66 10000 2.1 100 01:56 22.05.2020
2816 Clear 30 1004 66 10000 2.1 100 01:28 22.05.2020
2817 Clear 30 1005 66 10000 2.1 100 00:48 22.05.2020
2818 Clear 30 1005 66 10000 2.1 100 00:28 22.05.2020
2819 Clear 30 1005 66 10000 2.6 60 23:43 21.05.2020
2820 Clear 30 1005 66 10000 2.6 60 23:25 21.05.2020
2821 Clear 30 1005 62 10000 3.6 40 22:58 21.05.2020
2822 Clear 30 1005 62 10000 3.6 40 22:58 21.05.2020
2823 Clear 31 1005 62 10000 3.6 40 22:38 21.05.2020
2824 Clear 31 1005 62 10000 3.6 40 22:20 21.05.2020
2825 Clear 31 1005 62 10000 3.6 350 21:58 21.05.2020
2826 Clear 31 1005 62 10000 3.6 350 21:39 21.05.2020
2827 Clear 32 1005 49 10000 4.1 340 21:19 21.05.2020
2828 Clear 32 1005 49 10000 4.1 340 20:43 21.05.2020
2829 Clear 32 1005 49 10000 4.1 340 20:22 21.05.2020
2830 Clear 33 1004 41 10000 3.1 320 19:42 21.05.2020
2831 Clear 33 1004 41 10000 3.1 320 19:21 21.05.2020
2832 Clear 34 1004 34 10000 2.1 260 18:59 21.05.2020
2833 Clear 34 1004 34 10000 2.1 260 18:39 21.05.2020
2834 Clear 35 1004 28 10000 3.1 330 18:19 21.05.2020
2835 Clear 35 1004 28 10000 3.1 330 17:57 21.05.2020
2836 Clear 35 1004 28 10000 3.1 330 17:39 21.05.2020
2837 Clear 35 1004 28 10000 3.1 330 17:21 21.05.2020
2838 Clear 35 1004 26 10000 3.6 330 16:45 21.05.2020
2839 Clear 35 1004 26 10000 3.6 330 16:23 21.05.2020
2840 Clear 36 1004 28 10000 5.1 330 15:45 21.05.2020
2841 Clear 37 1004 28 10000 5.1 330 15:24 21.05.2020
2842 Clear 37 1004 19 10000 5.1 330 14:56 21.05.2020
2843 Clear 37 1004 19 10000 5.1 330 14:36 21.05.2020
2844 Clear 37 1004 19 10000 5.1 330 14:18 21.05.2020
2845 Clear 36 1004 20 10000 6.7 330 13:39 21.05.2020
2846 Clear 36 1004 20 10000 6.7 330 13:39 21.05.2020
2847 Clear 37 1004 20 10000 6.7 330 13:21 21.05.2020
2848 Clear 37 1004 23 10000 6.7 330 12:55 21.05.2020
2849 Clear 37 1004 23 10000 6.7 330 12:36 21.05.2020
2850 Clear 37 1005 14 10000 5.7 340 12:18 21.05.2020
2851 Clear 37 1005 14 10000 5.7 340 11:40 21.05.2020
2852 Clear 37 1005 14 10000 5.7 340 11:40 21.05.2020
2853 Clear 37 1005 14 10000 5.7 340 11:22 21.05.2020
2854 Clear 36 1005 30 10000 5.7 330 10:55 21.05.2020
2855 Clear 36 1005 30 10000 5.7 330 10:37 21.05.2020
2856 Clear 36 1005 28 10000 5.7 320 10:18 21.05.2020
2857 Clear 37 1005 17 10000 3.1 0 09:42 21.05.2020
2858 Clear 38 1005 17 10000 3.1 0 09:24 21.05.2020
2859 Clear 37 1006 13 10000 1 0 08:58 21.05.2020
2860 Clear 36 1006 13 10000 1 0 08:39 21.05.2020
2861 Clouds 35 1006 13 10000 1 0 08:21 21.05.2020
2862 Clouds 34 1005 15 10000 1 0 07:43 21.05.2020
2863 Clouds 34 1005 15 10000 1 0 07:22 21.05.2020
2864 Clouds 32 1005 19 10000 2.1 40 06:44 21.05.2020
2865 Clouds 30 1004 29 10000 1 0 05:50 21.05.2020
2866 Clouds 30 1004 28 10000 2.1 130 04:25 21.05.2020
2867 Clouds 30 1003 30 10000 2.1 80 03:21 21.05.2020
2868 Clouds 30 1003 30 10000 2.1 80 03:21 21.05.2020
2869 Clouds 30 1003 30 10000 2.1 80 03:21 21.05.2020
2870 Clouds 30 1004 27 10000 0.5 0 03:21 21.05.2020
2871 Clouds 30 1004 27 10000 0.5 0 03:21 21.05.2020
2872 Clouds 31 1003 30 10000 2.1 80 02:31 21.05.2020
2873 Clouds 31 1003 25 10000 1.5 190 01:52 21.05.2020
2874 Clouds 31 1003 25 10000 1.5 190 01:24 21.05.2020
2875 Clouds 31 1003 24 10000 1 0 00:59 21.05.2020
2876 Clouds 32 1003 24 10000 1 0 00:41 21.05.2020
2877 Clouds 32 1003 24 10000 1 0 00:19 21.05.2020
2878 Clouds 32 1004 22 10000 1.5 90 00:19 21.05.2020
2879 Clouds 32 1004 22 10000 1.5 90 23:40 20.05.2020
2880 Clouds 32 1004 24 10000 2.1 110 23:19 20.05.2020
2881 Clouds 32 1004 24 10000 2.1 110 22:55 20.05.2020
2882 Clouds 32 1004 24 10000 2.1 110 22:55 20.05.2020
2883 Clouds 33 1004 24 10000 2.1 110 22:36 20.05.2020
2884 Clouds 33 1004 24 10000 2.1 110 22:18 20.05.2020
2885 Clouds 34 1005 20 10000 1.5 80 21:39 20.05.2020
2886 Clouds 34 1005 20 10000 1.5 80 21:20 20.05.2020
2887 Clouds 33 1005 22 10000 1.5 350 20:44 20.05.2020
2888 Clouds 33 1005 22 10000 1.5 350 20:24 20.05.2020
2889 Clouds 33 1004 21 10000 1.5 10 19:44 20.05.2020
2890 Clouds 33 1004 21 10000 1.5 10 19:25 20.05.2020
2891 Clouds 34 1004 21 10000 3.6 340 18:59 20.05.2020
2892 Clouds 34 1004 21 10000 3.6 340 18:41 20.05.2020
2893 Clouds 34 1004 21 10000 3.6 340 18:21 20.05.2020
2894 Clouds 34 1003 26 10000 3.6 310 17:40 20.05.2020
2895 Clouds 34 1003 26 10000 3.6 310 17:21 20.05.2020
2896 Clouds 35 1003 24 10000 4.6 330 16:55 20.05.2020
2897 Clouds 35 1003 24 10000 4.6 330 16:37 20.05.2020
2898 Clouds 35 1003 24 10000 4.6 330 16:18 20.05.2020
2899 Clouds 36 1003 18 10000 5.7 340 15:42 20.05.2020
2900 Clear 36 1003 18 10000 5.7 340 15:23 20.05.2020
2901 Clear 37 1003 17 10000 5.7 340 14:44 20.05.2020
2902 Clouds 37 1003 17 10000 5.7 340 14:22 20.05.2020
2903 Clouds 37 1003 17 10000 5.7 340 13:55 20.05.2020
2904 Clouds 37 1003 17 10000 5.7 340 13:36 20.05.2020
2905 Clouds 38 1003 17 10000 5.7 340 13:18 20.05.2020
2906 Clouds 38 1004 17 10000 6.2 320 12:41 20.05.2020
2907 Clouds 38 1004 17 10000 6.2 320 12:20 20.05.2020
2908 Clouds 38 1004 16 10000 4.6 320 11:37 20.05.2020
2909 Clouds 38 1004 16 10000 4.6 320 11:19 20.05.2020
2910 Clouds 37 1004 19 10000 3.6 340 10:44 20.05.2020
2911 Clear 37 1004 19 10000 3.6 340 10:22 20.05.2020
2912 Clear 37 1005 19 10000 4.1 300 09:46 20.05.2020
2913 Clouds 37 1005 19 10000 4.1 300 09:23 20.05.2020
2914 Clouds 36 1005 23 10000 3.1 320 08:59 20.05.2020
2915 Clouds 35 1005 23 10000 3.1 320 08:41 20.05.2020
2916 Clouds 35 1005 23 10000 3.1 320 08:19 20.05.2020
2917 Clouds 35 1004 23 10000 1 0 07:49 20.05.2020
2918 Clouds 33 1004 31 10000 1.5 190 07:22 20.05.2020
2919 Clouds 32 1004 31 10000 1.5 190 06:46 20.05.2020
2920 Clouds 30 1003 40 10000 1 0 05:39 20.05.2020
2921 Clouds 30 1003 40 10000 1 0 04:37 20.05.2020
2922 Clouds 30 1003 35 10000 1.5 170 03:54 20.05.2020
2923 Clouds 30 1003 35 10000 1.5 170 03:25 20.05.2020
2924 Clouds 32 1002 31 10000 2.1 170 01:33 20.05.2020
2925 Clouds 31 1003 33 10000 2.1 190 00:46 20.05.2020
2926 Clouds 31 1003 33 10000 2.1 190 00:25 20.05.2020
2927 Clouds 32 1003 38 10000 1 180 23:47 19.05.2020
2928 Clouds 32 1003 38 10000 1 180 23:22 19.05.2020
2929 Clouds 32 1004 40 10000 2.1 230 22:58 19.05.2020
2930 Clouds 32 1004 40 10000 2.1 230 22:39 19.05.2020
2931 Clouds 32 1004 40 10000 2.1 230 22:20 19.05.2020
2932 Clouds 32 1005 38 10000 2.1 220 21:59 19.05.2020
2933 Clouds 32 1005 38 10000 2.1 220 21:39 19.05.2020
2934 Clouds 33 1005 31 10000 1 0 21:21 19.05.2020
2935 Clouds 33 1005 31 10000 1 0 20:58 19.05.2020
2936 Clouds 33 1005 31 10000 1 0 20:40 19.05.2020
2937 Clouds 33 1005 31 10000 1 0 20:22 19.05.2020
2938 Clouds 34 1005 30 10000 1 110 19:56 19.05.2020
2939 Clouds 34 1005 30 10000 1 110 19:37 19.05.2020
2940 Clouds 34 1005 30 10000 1 110 19:19 19.05.2020
2941 Clouds 34 1004 26 10000 2.1 10 18:43 19.05.2020
2942 Clouds 33 1004 26 10000 2.1 10 18:21 19.05.2020
2943 Clouds 33 1004 41 10000 3.6 350 17:44 19.05.2020
2944 Clouds 33 1004 41 10000 3.6 350 17:22 19.05.2020
2945 Clouds 34 1003 49 10000 4.1 350 16:59 19.05.2020
2946 Clouds 34 1003 49 10000 4.1 350 16:39 19.05.2020
2947 Clouds 34 1003 49 10000 4.1 350 16:21 19.05.2020
2948 Clouds 34 1003 44 10000 6.2 330 15:48 19.05.2020
2949 Clouds 35 1003 44 10000 6.2 330 15:23 19.05.2020
2950 Clouds 36 1003 37 10000 8.7 320 14:59 19.05.2020
2951 Clouds 36 1003 37 10000 8.7 320 14:41 19.05.2020
2952 Clear 36 1003 37 10000 8.7 320 14:21 19.05.2020
2953 Clear 37 1003 27 10000 7.7 340 13:59 19.05.2020
2954 Clear 37 1003 27 10000 7.7 340 13:40 19.05.2020
2955 Clear 37 1003 27 10000 7.7 340 13:21 19.05.2020
2956 Clear 36 1004 35 10000 6.7 350 12:58 19.05.2020
2957 Clear 32 1004 43 0 7.82 319 12:39 19.05.2020
2958 Clear 39 1004 29 10000 6.2 330 12:21 19.05.2020
2959 Clear 39 1004 29 10000 6.2 330 11:57 19.05.2020
2960 Clear 39 1004 29 10000 6.2 330 11:39 19.05.2020
2961 Clear 40 1005 33 10000 7.2 310 11:21 19.05.2020
2962 Clear 40 1005 33 10000 7.2 310 10:46 19.05.2020
2963 Clear 41 1005 33 10000 7.2 310 10:28 19.05.2020
2964 Clear 41 1006 12 10000 2.1 0 09:58 19.05.2020
2965 Clear 41 1006 12 10000 2.1 0 09:40 19.05.2020
2966 Clear 40 1006 12 10000 2.1 0 09:20 19.05.2020
2967 Clear 38 1006 14 10000 3.1 40 08:43 19.05.2020
2968 Clear 38 1006 14 10000 3.1 40 08:23 19.05.2020
2969 Clear 35 1006 19 10000 2.6 0 07:44 19.05.2020
2970 Clear 33 1006 19 10000 2.6 0 07:26 19.05.2020
2971 Clear 32 1005 24 10000 2.6 130 06:50 19.05.2020
2972 Clear 31 1005 24 10000 2.6 130 06:25 19.05.2020
2973 Clear 29 1005 38 10000 1.5 150 05:41 19.05.2020
2974 Clear 29 1004 42 10000 1.5 200 04:56 19.05.2020
2975 Clear 29 1004 42 10000 2.1 160 04:18 19.05.2020
2976 Clear 30 1004 43 10000 1.5 240 01:30 19.05.2020
2977 Clear 29 1004 43 10000 1.5 240 00:43 19.05.2020
2978 Clear 29 1004 43 10000 1.5 240 00:22 19.05.2020
2979 Clear 29 1005 40 10000 3.1 110 23:56 18.05.2020
2980 Clear 31 1005 40 10000 3.1 110 23:38 18.05.2020
2981 Clear 31 1006 38 10000 2.6 110 23:19 18.05.2020
2982 Clear 32 1006 38 10000 2.6 110 22:40 18.05.2020
2983 Clear 32 1006 38 10000 2.6 110 22:21 18.05.2020
2984 Clear 32 1006 38 10000 2.6 110 22:21 18.05.2020
2985 Clear 32 1006 29 10000 1.5 120 21:54 18.05.2020
2986 Clear 32 1006 29 10000 1.5 120 21:36 18.05.2020
2987 Clear 32 1006 27 10000 2.1 80 21:18 18.05.2020
2988 Clear 33 1006 27 10000 2.1 80 20:42 18.05.2020
2989 Clear 33 1006 31 10000 2.1 90 20:21 18.05.2020
2990 Clouds 33 1006 31 10000 2.1 90 19:57 18.05.2020
2991 Clear 33 1006 31 10000 2.1 90 19:39 18.05.2020
2992 Clear 33 1005 26 10000 2.6 340 19:19 18.05.2020
2993 Clear 33 1005 26 10000 2.6 340 18:45 18.05.2020
2994 Clouds 33 1005 26 10000 2.6 340 18:24 18.05.2020
2995 Clear 33 1005 38 10000 5.1 340 17:41 18.05.2020
2996 Clear 33 1005 38 10000 5.1 340 17:18 18.05.2020
2997 Clear 34 1005 44 10000 7.2 340 16:59 18.05.2020
2998 Clear 34 1005 44 10000 7.2 340 16:40 18.05.2020
2999 Clear 34 1005 44 9000 8.7 330 16:20 18.05.2020
3000 Clear 34 1005 44 9000 8.7 330 15:57 18.05.2020
3001 Clear 34 1005 44 9000 8.7 330 15:38 18.05.2020
3002 Clear 37 1005 12 10000 6.7 330 15:20 18.05.2020
3003 Clear 40 1005 12 10000 6.7 330 14:55 18.05.2020
3004 Clear 40 1005 12 10000 6.7 330 14:37 18.05.2020
3005 Clear 40 1005 12 10000 5.7 340 14:19 18.05.2020
3006 Clear 40 1005 12 10000 5.7 340 13:40 18.05.2020
3007 Clear 40 1005 12 10000 5.7 340 13:20 18.05.2020
3008 Clear 41 1006 10 10000 5.1 330 12:58 18.05.2020
3009 Clear 41 1006 10 10000 5.1 330 12:39 18.05.2020
3010 Clear 41 1006 10 10000 5.1 330 12:19 18.05.2020
3011 Clear 41 1006 11 10000 4.1 330 11:47 18.05.2020
3012 Clear 41 1006 11 10000 4.1 330 11:27 18.05.2020
3013 Clear 40 1007 17 10000 3.1 290 10:58 18.05.2020
3014 Clear 40 1007 17 10000 3.1 290 10:40 18.05.2020
3015 Clear 40 1007 17 10000 3.1 290 10:22 18.05.2020
3016 Clear 40 1007 17 10000 3.1 290 10:22 18.05.2020
3017 Clear 39 1007 14 10000 1.5 0 09:44 18.05.2020
3018 Clear 39 1007 14 10000 1.5 0 09:25 18.05.2020
3019 Clear 37 1008 18 10000 1 0 08:45 18.05.2020
3020 Clear 37 1008 18 10000 1 0 08:27 18.05.2020
3021 Clear 34 1007 32 10000 1.5 200 07:55 18.05.2020
3022 Clear 34 1007 32 10000 1.5 200 07:27 18.05.2020
3023 Clear 31 1007 40 10000 1.5 220 06:54 18.05.2020
3024 Clear 31 1007 40 10000 1.5 220 06:34 18.05.2020
3025 Clear 29 1007 45 10000 1.5 130 05:49 18.05.2020
3026 Clear 29 1007 45 10000 1.5 130 05:21 18.05.2020
3027 Clear 29 1006 45 10000 1.5 150 03:31 18.05.2020
3028 Clear 30 1005 48 10000 3.1 100 02:22 18.05.2020
3029 Clouds 30 1006 48 10000 1.5 100 00:55 18.05.2020
3030 Clouds 30 1006 48 10000 1.5 100 00:25 18.05.2020
3031 Clouds 30 1006 52 10000 2.1 90 23:57 17.05.2020
3032 Clouds 30 1006 52 10000 2.1 90 23:39 17.05.2020
3033 Clear 30 1006 52 10000 2.1 90 23:20 17.05.2020
3034 Clear 31 1006 49 10000 2.1 80 22:56 17.05.2020
3035 Clear 32 1006 49 10000 2.1 80 22:37 17.05.2020
3036 Clear 32 1007 52 10000 1.5 70 22:19 17.05.2020
3037 Clear 32 1007 52 10000 1.5 70 21:43 17.05.2020
3038 Clear 32 1007 52 10000 1.5 70 21:21 17.05.2020
3039 Clouds 33 1007 46 10000 2.1 10 21:21 17.05.2020
3040 Clouds 33 1007 46 10000 2.1 10 20:59 17.05.2020
3041 Clouds 33 1007 46 10000 2.1 10 20:41 17.05.2020
3042 Clouds 34 1007 46 10000 2.1 10 20:20 17.05.2020
3043 Clouds 35 1007 30 10000 4.6 330 19:56 17.05.2020
3044 Clouds 35 1007 30 10000 4.6 330 19:37 17.05.2020
3045 Clouds 35 1007 30 10000 4.6 330 19:37 17.05.2020
3046 Clouds 34 1007 30 10000 4.6 330 19:18 17.05.2020
3047 Clouds 34 1006 36 10000 4.1 330 18:39 17.05.2020
3048 Clouds 34 1006 36 10000 4.1 330 18:21 17.05.2020
3049 Clouds 35 1005 34 10000 5.1 330 17:56 17.05.2020
3050 Clouds 35 1005 34 10000 5.1 330 17:37 17.05.2020
3051 Clouds 35 1005 36 10000 5.7 340 17:18 17.05.2020
3052 Clouds 35 1005 36 10000 5.7 340 16:40 17.05.2020
3053 Clouds 35 1005 36 10000 5.7 340 16:20 17.05.2020
3054 Clouds 35 1005 36 10000 5.7 340 16:20 17.05.2020
3055 Clouds 36 1005 34 10000 5.7 340 15:56 17.05.2020
3056 Clouds 36 1005 34 10000 5.7 340 15:37 17.05.2020
3057 Clouds 36 1005 34 10000 5.7 340 15:19 17.05.2020
3058 Clouds 37 1006 32 10000 7.7 330 14:43 17.05.2020
3059 Clear 37 1006 32 10000 7.7 330 14:24 17.05.2020
3060 Clear 37 1006 25 10000 7.2 330 13:58 17.05.2020
3061 Clear 37 1006 25 10000 7.2 330 13:39 17.05.2020
3062 Clear 37 1007 25 10000 6.7 330 13:18 17.05.2020
3063 Clear 29 1006 62 10000 1 0 04:26 17.05.2020
3064 Clear 28 1005 62 10000 1.5 90 02:29 17.05.2020
3065 Clear 29 1005 58 10000 2.6 60 01:58 17.05.2020
3066 Clear 30 1005 58 10000 2.6 60 01:38 17.05.2020
3067 Clear 30 1005 66 10000 2.1 60 00:40 17.05.2020
3068 Clear 30 1006 70 10000 2.1 20 23:57 16.05.2020
3069 Clear 30 1006 70 10000 2.1 20 23:39 16.05.2020
3070 Clear 30 1006 70 10000 2.1 20 23:20 16.05.2020
3071 Clear 30 1006 70 10000 4.1 340 22:58 16.05.2020
3072 Clear 31 1006 70 10000 4.1 340 22:40 16.05.2020
3073 Clear 31 1006 70 10000 4.1 340 22:20 16.05.2020
3074 Clear 32 1007 52 10000 4.1 330 21:46 16.05.2020
3075 Clear 32 1007 52 10000 4.1 330 21:27 16.05.2020
3076 Clear 34 1007 36 10000 1 0 20:59 16.05.2020
3077 Clear 34 1007 36 10000 1 0 20:41 16.05.2020
3078 Clear 34 1007 36 10000 1 0 20:21 16.05.2020
3079 Clear 34 1006 36 10000 1.5 30 19:58 16.05.2020
3080 Clear 34 1006 36 10000 1.5 30 19:39 16.05.2020
3081 Clear 34 1006 36 10000 2.6 30 19:21 16.05.2020
3082 Clear 34 1006 36 10000 2.6 30 18:42 16.05.2020
3083 Clear 34 1006 36 10000 2.6 30 18:24 16.05.2020
3084 Clear 35 1006 36 10000 3.6 360 17:56 16.05.2020
3085 Clear 35 1006 36 10000 3.6 360 17:38 16.05.2020
3086 Clear 35 1006 36 10000 3.6 360 17:19 16.05.2020
3087 Clear 35 1005 41 9000 4.1 30 16:40 16.05.2020
3088 Clear 35 1005 41 9000 4.1 30 16:22 16.05.2020
3089 Clear 35 1005 41 8000 5.1 30 15:57 16.05.2020
3090 Clear 35 1005 39 8000 6.2 330 15:38 16.05.2020
3091 Clear 35 1005 39 8000 6.2 330 15:19 16.05.2020
3092 Clear 35 1005 39 8000 6.7 350 14:43 16.05.2020
3093 Clear 37 1005 32 10000 6.7 340 14:20 16.05.2020
3094 Clear 37 1005 32 10000 6.7 340 13:57 16.05.2020
3095 Clear 37 1005 32 10000 6.7 340 13:39 16.05.2020
3096 Clear 38 1005 31 9000 6.2 310 13:21 16.05.2020
3097 Clear 38 1005 31 9000 6.2 310 12:45 16.05.2020
3098 Clear 38 1005 31 9000 6.2 310 12:21 16.05.2020
3099 Clear 38 1006 35 8000 5.7 340 11:56 16.05.2020
3100 Clear 38 1006 35 8000 5.7 340 11:38 16.05.2020
3101 Clear 38 1006 35 8000 5.7 340 11:20 16.05.2020
3102 Clear 38 1007 25 10000 3.1 0 10:55 16.05.2020
3103 Clear 38 1007 25 10000 3.1 0 10:37 16.05.2020
3104 Clear 37 1008 27 10000 3.6 170 10:18 16.05.2020
3105 Clear 37 1008 27 10000 3.6 170 10:18 16.05.2020
3106 Clear 37 1008 27 10000 3.6 170 09:44 16.05.2020
3107 Clear 37 1008 27 10000 3.6 170 09:25 16.05.2020
3108 Clear 35 1008 32 10000 5.1 170 08:43 16.05.2020
3109 Clouds 34 1008 32 10000 5.1 170 08:21 16.05.2020
3110 Clouds 33 1008 38 10000 4.6 190 07:46 16.05.2020
3111 Clouds 32 1008 38 10000 4.6 190 07:27 16.05.2020
3112 Clouds 32 1008 43 9000 2.6 220 06:58 16.05.2020
3113 Clouds 31 1008 43 9000 2.6 220 06:39 16.05.2020
3114 Clouds 30 1008 43 9000 2.6 220 06:18 16.05.2020
3115 Clouds 29 1007 40 10000 2.1 220 05:33 16.05.2020
3116 Clear 29 1006 51 10000 3.6 170 03:37 16.05.2020
3117 Clear 28 1005 58 10000 1.5 90 02:59 16.05.2020
3118 Clouds 30 1005 58 10000 1.5 90 02:21 16.05.2020
3119 Clouds 30 1005 55 10000 1 0 01:53 16.05.2020
3120 Clouds 30 1005 55 10000 1 0 01:23 16.05.2020
3121 Clouds 30 1004 55 10000 1 0 00:49 16.05.2020
3122 Clouds 30 1004 55 10000 1 0 00:22 16.05.2020
3123 Clouds 30 1005 55 10000 2.1 40 23:41 15.05.2020
3124 Clouds 30 1005 55 10000 2.1 40 23:20 15.05.2020
3125 Clouds 30 1005 58 10000 2.1 30 22:58 15.05.2020
3126 Clouds 30 1005 58 10000 2.1 30 22:39 15.05.2020
3127 Clear 30 1005 58 10000 2.1 30 22:19 15.05.2020
3128 Clear 30 1006 62 10000 2.1 30 21:40 15.05.2020
3129 Clear 30 1006 62 10000 2.1 30 21:22 15.05.2020
3130 Clear 30 1006 66 10000 2.1 360 20:59 15.05.2020
3131 Clear 31 1006 66 10000 2.1 360 20:41 15.05.2020
3132 Clear 30 1006 66 10000 2.1 360 20:22 15.05.2020
3133 Clear 30 1006 74 10000 3.6 330 19:56 15.05.2020
3134 Clear 30 1006 74 10000 3.6 330 19:38 15.05.2020
3135 Clear 31 1005 70 10000 3.6 330 19:19 15.05.2020
3136 Clear 31 1005 70 10000 3.6 330 18:45 15.05.2020
3137 Clear 31 1005 70 10000 3.6 330 18:27 15.05.2020
3138 Clear 32 1005 66 10000 6.2 330 17:40 15.05.2020
3139 Clear 34 1004 38 10000 6.2 330 17:20 15.05.2020
3140 Clear 34 1004 38 10000 6.2 330 16:58 15.05.2020
3141 Clear 34 1004 38 10000 6.2 330 16:39 15.05.2020
3142 Clear 34 1004 38 10000 6.2 330 16:19 15.05.2020
3143 Clear 35 1004 30 10000 5.7 330 15:58 15.05.2020
3144 Clear 35 1004 30 10000 5.7 330 15:39 15.05.2020
3145 Clear 36 1004 25 10000 5.7 340 15:19 15.05.2020
3146 Clear 36 1004 25 10000 5.7 340 14:42 15.05.2020
3147 Clear 36 1004 25 10000 5.7 340 14:24 15.05.2020
3148 Clear 36 1004 37 10000 6.7 340 13:58 15.05.2020
3149 Clear 36 1004 37 10000 6.7 340 13:39 15.05.2020
3150 Clear 37 1005 27 10000 7.7 320 13:20 15.05.2020
3151 Clear 37 1005 27 10000 7.7 320 12:40 15.05.2020
3152 Clear 37 1005 27 10000 7.7 320 12:40 15.05.2020
3153 Clear 37 1005 27 10000 7.7 320 12:19 15.05.2020
3154 Clear 37 1005 27 10000 7.7 320 12:19 15.05.2020
3155 Clear 38 1006 27 10000 5.1 320 11:57 15.05.2020
3156 Clear 38 1006 27 10000 5.1 320 11:39 15.05.2020
3157 Clear 38 1006 27 10000 5.1 320 11:20 15.05.2020
3158 Clear 37 1007 23 10000 2.6 220 10:58 15.05.2020
3159 Clear 36 1007 23 10000 2.6 220 10:39 15.05.2020
3160 Clear 36 1007 23 10000 2.6 220 10:21 15.05.2020
3161 Clear 35 1008 28 10000 2.6 200 09:58 15.05.2020
3162 Clear 34 1008 28 10000 2.6 200 09:37 15.05.2020
3163 Clear 34 1008 34 10000 3.1 220 09:18 15.05.2020
3164 Clear 34 1008 34 10000 3.1 220 08:54 15.05.2020
3165 Clear 33 1008 34 10000 3.1 220 08:36 15.05.2020
3166 Clear 32 1008 34 10000 3.1 220 08:18 15.05.2020
3167 Clear 31 1008 40 10000 3.6 190 07:42 15.05.2020
3168 Clear 31 1008 40 10000 3.6 190 07:42 15.05.2020
3169 Clear 29 1008 40 10000 3.6 190 07:23 15.05.2020
3170 Clear 28 1007 69 10000 1 0 06:35 15.05.2020
3171 Clear 26 1006 69 10000 1.5 170 05:40 15.05.2020
3172 Clear 26 1005 78 10000 1 0 03:52 15.05.2020
3173 Clear 26 1005 78 10000 1 0 03:31 15.05.2020
3174 Clear 27 1005 69 10000 1 0 01:38 15.05.2020
3175 Clear 27 1005 74 10000 1 0 01:19 15.05.2020
3176 Clear 28 1005 74 10000 1 0 00:44 15.05.2020
3177 Clear 28 1005 74 10000 1 0 00:23 15.05.2020
3178 Clear 29 1005 66 10000 1.5 340 23:42 14.05.2020
3179 Clear 28 1006 66 10000 2.1 340 23:20 14.05.2020
3180 Clear 29 1006 66 10000 2.1 340 22:55 14.05.2020
3181 Clear 29 1006 66 10000 2.1 340 22:37 14.05.2020
3182 Clear 29 1006 58 10000 2.6 320 22:19 14.05.2020
3183 Clear 29 1006 58 10000 2.6 320 21:42 14.05.2020
3184 Clear 29 1006 58 10000 2.6 320 21:42 14.05.2020
3185 Clear 30 1005 51 10000 1.5 20 21:20 14.05.2020
3186 Clear 30 1005 51 10000 1.5 20 20:59 14.05.2020
3187 Clear 30 1005 51 10000 1.5 20 20:40 14.05.2020
3188 Clear 30 1005 51 10000 1.5 20 20:20 14.05.2020
3189 Clear 30 1005 48 10000 2.1 350 19:57 14.05.2020
3190 Clear 30 1005 48 10000 2.1 350 19:39 14.05.2020
3191 Clear 30 1005 48 10000 4.1 330 19:20 14.05.2020
3192 Clear 30 1005 48 10000 4.1 330 18:57 14.05.2020
3193 Clear 30 1005 48 10000 4.1 330 18:38 14.05.2020
3194 Clear 30 1005 48 10000 4.1 330 18:19 14.05.2020
3195 Clear 31 1005 48 10000 4.6 330 17:57 14.05.2020
3196 Clear 31 1005 48 10000 4.6 330 17:37 14.05.2020
3197 Clear 31 1005 48 10000 4.6 330 17:18 14.05.2020
3198 Clear 31 1004 55 10000 3.6 340 16:56 14.05.2020
3199 Clear 31 1004 55 10000 3.6 340 16:37 14.05.2020
3200 Clear 31 1004 55 10000 4.1 320 16:18 14.05.2020
3201 Clear 31 1004 55 10000 4.1 320 15:41 14.05.2020
3202 Clear 31 1004 55 10000 4.1 320 15:21 14.05.2020
3203 Clear 31 1005 58 10000 5.7 350 14:57 14.05.2020
3204 Clear 31 1005 58 10000 5.7 350 14:39 14.05.2020
3205 Clear 31 1005 58 10000 5.7 350 14:20 14.05.2020
3206 Clear 31 1005 58 10000 5.7 350 14:20 14.05.2020
3207 Clear 31 1005 55 10000 7.2 330 13:57 14.05.2020
3208 Clear 31 1005 55 10000 7.2 330 13:38 14.05.2020
3209 Clear 31 1005 55 10000 7.2 330 13:19 14.05.2020
3210 Clear 32 1005 52 10000 6.7 330 12:57 14.05.2020
3211 Clear 32 1005 52 10000 6.7 330 12:38 14.05.2020
3212 Clear 34 1006 44 10000 5.1 320 12:18 14.05.2020
3213 Clear 34 1006 44 10000 5.1 320 11:56 14.05.2020
3214 Clear 34 1006 44 10000 5.1 320 11:37 14.05.2020
3215 Clear 34 1006 44 10000 5.1 320 11:37 14.05.2020
3216 Clear 34 1006 44 10000 5.1 320 11:19 14.05.2020
3217 Clear 33 1006 34 10000 3.1 270 10:42 14.05.2020
3218 Clear 33 1006 34 10000 3.1 270 10:24 14.05.2020
3219 Clear 32 1006 38 10000 3.1 200 09:56 14.05.2020
3220 Clear 31 1006 38 10000 3.1 200 09:37 14.05.2020
3221 Clear 31 1006 38 10000 3.1 200 09:18 14.05.2020
3222 Clear 29 1006 45 10000 3.1 200 08:39 14.05.2020
3223 Clear 28 1006 54 10000 2.6 180 08:19 14.05.2020
3224 Clear 27 1006 54 10000 2.6 180 07:45 14.05.2020
3225 Clear 27 1006 54 10000 2.6 180 07:45 14.05.2020
3226 Clear 27 1006 54 10000 2.6 180 07:22 14.05.2020
3227 Clear 26 1006 54 10000 3.1 200 06:44 14.05.2020
3228 Clear 26 1006 54 10000 3.1 200 06:25 14.05.2020
3229 Clear 24 1006 57 10000 3.6 210 05:42 14.05.2020
3230 Clear 24 1006 57 10000 3.6 210 05:42 14.05.2020
3231 Clear 24 1005 57 10000 2.6 160 04:46 14.05.2020
3232 Clear 24 1005 57 10000 2.6 200 03:43 14.05.2020
3233 Clear 24 1005 57 10000 2.6 200 03:20 14.05.2020
3234 Clear 24 1004 57 10000 2.6 210 02:36 14.05.2020
3235 Clear 25 1004 57 10000 3.6 210 01:52 14.05.2020
3236 Clear 26 1005 57 10000 3.6 170 00:54 14.05.2020
3237 Clear 26 1005 57 10000 3.6 170 00:28 14.05.2020
3238 Clear 27 1005 61 10000 2.1 190 23:46 13.05.2020
3239 Clear 27 1005 61 10000 2.1 190 23:25 13.05.2020
3240 Clear 27 1005 61 10000 3.6 240 22:59 13.05.2020
3241 Clear 27 1005 61 10000 3.6 240 22:41 13.05.2020
3242 Clear 27 1005 61 10000 3.6 240 22:22 13.05.2020
3243 Clear 27 1006 58 10000 3.1 260 21:58 13.05.2020
3244 Clear 28 1006 58 10000 3.1 260 21:39 13.05.2020
3245 Clear 28 1006 58 10000 3.1 260 21:19 13.05.2020
3246 Clear 28 1006 58 10000 3.1 270 20:55 13.05.2020
3247 Clear 28 1006 58 10000 3.1 270 20:55 13.05.2020
3248 Clear 28 1006 58 10000 3.1 270 20:37 13.05.2020
3249 Clear 28 1006 58 10000 3.1 270 20:18 13.05.2020
3250 Clear 28 1005 58 10000 5.1 270 19:41 13.05.2020
3251 Clear 28 1005 58 10000 5.1 270 19:22 13.05.2020
3252 Clear 28 1005 54 10000 5.7 270 18:44 13.05.2020
3253 Clear 28 1005 54 10000 5.7 270 18:22 13.05.2020
3254 Clear 28 1005 54 10000 5.7 270 18:22 13.05.2020
3255 Clear 29 1004 51 10000 7.2 290 17:58 13.05.2020
3256 Clear 29 1004 51 10000 7.2 290 17:38 13.05.2020
3257 Clear 29 1004 51 10000 8.7 280 17:18 13.05.2020
3258 Clear 30 1004 51 10000 8.7 280 16:40 13.05.2020
3259 Clear 30 1004 51 10000 8.7 280 16:19 13.05.2020
3260 Clear 30 1004 48 10000 9.3 280 15:55 13.05.2020
3261 Clear 30 1004 48 10000 9.3 280 15:36 13.05.2020
3262 Clear 30 1004 48 10000 9.3 280 15:36 13.05.2020
3263 Clear 31 1004 45 10000 9.3 300 15:18 13.05.2020
3264 Clear 31 1004 45 10000 9.3 300 14:42 13.05.2020
3265 Clear 32 1004 43 10000 9.3 290 14:24 13.05.2020
3266 Clear 32 1004 43 10000 9.3 290 13:59 13.05.2020
3267 Clear 32 1004 43 10000 9.3 290 13:41 13.05.2020
3268 Clear 32 1004 43 10000 9.3 290 13:21 13.05.2020
3269 Clear 31 1005 43 10000 9.3 280 12:58 13.05.2020
3270 Clear 31 1005 43 10000 9.3 280 12:39 13.05.2020
3271 Clear 32 1005 38 10000 8.7 290 12:20 13.05.2020
3272 Clear 32 1005 38 10000 8.7 290 11:56 13.05.2020
3273 Clear 32 1005 38 10000 8.7 290 11:56 13.05.2020
3274 Clear 32 1005 38 10000 8.7 290 11:37 13.05.2020
3275 Clear 31 1005 45 10000 7.2 290 11:19 13.05.2020
3276 Clear 31 1005 45 10000 7.2 290 10:56 13.05.2020
3277 Clear 31 1005 45 10000 7.2 290 10:38 13.05.2020
3278 Clear 31 1005 45 10000 7.2 290 10:19 13.05.2020
3279 Clear 31 1006 43 10000 7.7 280 09:45 13.05.2020
3280 Clear 31 1006 43 10000 7.7 280 09:23 13.05.2020
3281 Clear 31 1006 43 10000 7.7 290 08:57 13.05.2020
3282 Clear 31 1006 43 10000 7.7 290 08:37 13.05.2020
3283 Clear 30 1006 45 10000 6.7 290 08:19 13.05.2020
3284 Clear 30 1006 45 10000 6.7 290 07:44 13.05.2020
3285 Clear 30 1006 45 10000 6.7 290 07:26 13.05.2020
3286 Clear 29 1006 51 10000 2.1 220 06:49 13.05.2020
3287 Clear 28 1006 51 10000 2.1 220 06:28 13.05.2020
3288 Clear 26 1005 54 10000 2.6 190 04:57 13.05.2020
3289 Clear 26 1004 57 10000 2.6 220 03:27 13.05.2020
3290 Clear 26 1004 61 10000 3.1 220 02:32 13.05.2020
3291 Clear 26 1004 61 10000 3.1 210 01:38 13.05.2020
3292 Clear 27 1005 54 10000 4.1 240 00:53 13.05.2020
3293 Clear 28 1005 54 10000 4.1 240 00:22 13.05.2020
3294 Clear 28 1005 54 10000 4.6 250 23:40 12.05.2020
3295 Clear 28 1005 54 10000 4.6 250 23:40 12.05.2020
3296 Clear 28 1005 54 10000 4.6 250 23:22 12.05.2020
3297 Clear 28 1005 54 10000 4.6 250 23:22 12.05.2020
3298 Clear 28 1005 54 10000 4.6 250 23:22 12.05.2020
3299 Clear 28 1006 54 10000 4.1 260 22:59 12.05.2020
3300 Clear 28 1006 54 10000 4.1 260 22:41 12.05.2020
3301 Clear 28 1006 54 10000 4.6 250 22:21 12.05.2020
3302 Clear 28 1006 54 10000 4.6 250 21:56 12.05.2020
3303 Clear 28 1006 54 10000 4.6 250 21:37 12.05.2020
3304 Clear 28 1006 54 10000 4.6 250 21:19 12.05.2020
3305 Clear 29 1006 51 10000 4.6 260 20:57 12.05.2020
3306 Clear 29 1006 51 10000 4.6 260 20:38 12.05.2020
3307 Clear 29 1006 51 10000 4.6 260 20:20 12.05.2020
3308 Clear 29 1006 51 10000 4.6 260 19:56 12.05.2020
3309 Clear 29 1006 51 10000 4.6 260 19:37 12.05.2020
3310 Clear 30 1006 51 10000 4.6 260 19:19 12.05.2020
3311 Clear 30 1006 51 10000 6.2 260 18:43 12.05.2020
3312 Clear 30 1006 51 10000 6.2 260 18:24 12.05.2020
3313 Clear 30 1005 45 10000 5.7 260 17:58 12.05.2020
3314 Clear 30 1005 45 10000 5.7 260 17:39 12.05.2020
3315 Clear 31 1005 40 10000 6.2 270 17:21 12.05.2020
3316 Clear 31 1005 40 10000 6.2 270 16:43 12.05.2020
3317 Clear 32 1005 40 10000 6.2 270 16:23 12.05.2020
3318 Clear 32 1005 40 10000 7.7 280 15:56 12.05.2020
3319 Clear 32 1005 40 10000 7.7 280 15:37 12.05.2020
3320 Clear 33 1005 40 10000 7.7 280 15:18 12.05.2020
3321 Clear 33 1005 40 10000 7.7 280 15:18 12.05.2020
3322 Clear 33 1005 38 10000 8.2 280 14:55 12.05.2020
3323 Clear 33 1005 38 10000 8.2 280 14:36 12.05.2020
3324 Clear 33 1005 36 10000 8.2 290 14:18 12.05.2020
3325 Clear 33 1005 36 10000 8.2 290 13:56 12.05.2020
3326 Clear 33 1005 36 10000 8.2 290 13:37 12.05.2020
3327 Clear 33 1005 36 10000 8.2 290 13:18 12.05.2020
3328 Clear 33 1006 36 10000 9.3 290 12:57 12.05.2020
3329 Clear 33 1006 36 10000 9.3 290 12:38 12.05.2020
3330 Clear 33 1006 36 10000 9.3 290 12:38 12.05.2020
3331 Clear 33 1006 36 10000 9.3 290 12:20 12.05.2020
3332 Clear 33 1006 36 10000 9.8 300 11:57 12.05.2020
3333 Clear 33 1006 36 10000 9.8 300 11:37 12.05.2020
3334 Clear 33 1007 33 10000 8.2 280 11:19 12.05.2020
3335 Clear 33 1007 33 10000 8.2 280 10:55 12.05.2020
3336 Clear 33 1007 33 10000 8.2 280 10:37 12.05.2020
3337 Clear 33 1007 33 10000 8.2 280 10:18 12.05.2020
3338 Clear 33 1007 33 10000 7.7 280 09:57 12.05.2020
3339 Clear 33 1007 33 10000 7.7 280 09:38 12.05.2020
3340 Clear 32 1007 33 10000 7.7 280 09:19 12.05.2020
3341 Clear 32 1007 38 10000 6.7 280 08:40 12.05.2020
3342 Clear 31 1007 38 10000 6.7 280 08:21 12.05.2020
3343 Clear 31 1007 45 10000 4.6 270 07:45 12.05.2020
3344 Clear 31 1007 45 10000 4.6 270 07:27 12.05.2020
3345 Clear 31 1007 45 10000 3.6 280 06:56 12.05.2020
3346 Clear 30 1007 45 10000 3.6 280 06:37 12.05.2020
3347 Clear 30 1006 51 10000 4.6 280 06:19 12.05.2020
3348 Clear 30 1006 51 10000 4.6 280 05:45 12.05.2020
3349 Clear 30 1006 55 10000 3.1 230 03:53 12.05.2020
3350 Clear 30 1006 55 10000 3.1 230 03:18 12.05.2020
3351 Clouds 30 1005 55 10000 3.6 260 02:26 12.05.2020
3352 Clouds 30 1005 55 10000 3.1 230 01:33 12.05.2020
3353 Clouds 30 1006 55 10000 3.1 250 00:57 12.05.2020
3354 Clouds 30 1006 55 10000 3.1 250 00:21 12.05.2020
3355 Clouds 30 1006 55 8000 4.6 270 23:55 11.05.2020
3356 Clouds 30 1006 55 8000 4.6 270 23:37 11.05.2020
3357 Clouds 31 1006 48 8000 4.1 270 23:18 11.05.2020
3358 Clouds 31 1006 48 8000 4.1 270 22:55 11.05.2020
3359 Clouds 31 1006 48 8000 4.1 270 22:36 11.05.2020
3360 Clouds 31 1006 48 8000 4.1 270 22:18 11.05.2020
3361 Clouds 31 1007 52 8000 4.1 260 21:54 11.05.2020
3362 Clouds 31 1007 52 8000 4.1 260 21:36 11.05.2020
3363 Clouds 31 1007 52 8000 4.1 260 21:18 11.05.2020
3364 Clouds 31 1007 52 8000 4.1 280 20:42 11.05.2020
3365 Clouds 32 1007 52 8000 4.1 280 20:21 11.05.2020
3366 Clouds 32 1007 49 8000 4.6 290 19:58 11.05.2020
3367 Clouds 32 1007 49 8000 4.6 290 19:40 11.05.2020
3368 Clouds 33 1007 49 8000 4.6 290 19:21 11.05.2020
3369 Clouds 33 1006 46 7000 5.1 300 18:56 11.05.2020
3370 Clouds 33 1006 46 7000 5.1 300 18:38 11.05.2020
3371 Clouds 33 1006 46 7000 5.1 300 18:18 11.05.2020
3372 Clouds 34 1005 41 6000 7.2 300 17:57 11.05.2020
3373 Clouds 34 1005 41 6000 7.2 300 17:38 11.05.2020
3374 Clouds 35 1005 39 7000 8.2 320 17:19 11.05.2020
3375 Clouds 35 1005 39 7000 8.2 320 16:42 11.05.2020
3376 Clouds 35 1005 39 7000 8.2 320 16:23 11.05.2020
3377 Clouds 35 1005 39 8000 8.2 310 15:59 11.05.2020
3378 Clouds 35 1005 39 8000 8.2 310 15:40 11.05.2020
3379 Clouds 36 1005 37 8000 9.3 320 15:19 11.05.2020
3380 Clouds 36 1005 37 8000 9.3 320 14:56 11.05.2020
3381 Clouds 36 1005 37 8000 9.3 320 14:56 11.05.2020
3382 Clouds 36 1005 37 8000 9.3 320 14:38 11.05.2020
3383 Clouds 36 1005 37 8000 9.3 320 14:19 11.05.2020
3384 Clouds 36 1006 37 9000 8.7 320 13:42 11.05.2020
3385 Clouds 36 1006 37 9000 8.7 320 13:22 11.05.2020
3386 Clouds 37 1006 32 10000 9.3 310 12:59 11.05.2020
3387 Clouds 37 1006 32 10000 9.3 310 12:41 11.05.2020
3388 Clouds 38 1006 32 10000 9.3 310 12:22 11.05.2020
3389 Clouds 38 1006 29 10000 5.1 330 11:57 11.05.2020
3390 Clouds 38 1006 29 10000 5.1 330 11:39 11.05.2020
3391 Clouds 38 1006 29 10000 5.1 330 11:21 11.05.2020
3392 Clouds 38 1007 29 10000 6.2 320 10:56 11.05.2020
3393 Clouds 38 1007 29 10000 6.2 320 10:38 11.05.2020
3394 Clouds 38 1007 29 10000 6.2 320 10:20 11.05.2020
3395 Clouds 38 1007 27 10000 3.6 350 09:56 11.05.2020
3396 Clouds 38 1007 27 10000 3.6 350 09:37 11.05.2020
3397 Clouds 36 1007 39 10000 1 0 09:18 11.05.2020
3398 Clouds 35 1007 39 10000 1 0 08:42 11.05.2020
3399 Clouds 34 1007 39 10000 1 0 08:24 11.05.2020
3400 Clouds 33 1007 49 10000 3.1 230 07:56 11.05.2020
3401 Clouds 32 1007 49 10000 3.1 230 07:38 11.05.2020
3402 Clouds 31 1007 49 10000 3.1 230 07:20 11.05.2020
3403 Clouds 31 1007 49 10000 3.1 230 07:20 11.05.2020
3404 Clouds 30 1007 55 10000 4.1 210 06:34 11.05.2020
3405 Clouds 29 1006 58 10000 4.1 210 05:51 11.05.2020
3406 Clear 29 1006 58 10000 4.1 210 05:21 11.05.2020
3407 Clear 29 1005 54 10000 4.1 220 03:52 11.05.2020
3408 Clear 29 1005 54 10000 3.6 210 02:36 11.05.2020
3409 Clouds 30 1005 55 10000 3.6 200 01:59 11.05.2020
3410 Clouds 30 1005 55 10000 3.1 200 01:18 11.05.2020
3411 Clouds 30 1005 55 10000 3.1 200 00:40 11.05.2020
3412 Clouds 31 1006 55 10000 3.1 200 00:18 11.05.2020
3413 Clouds 31 1006 55 10000 3.1 200 23:39 10.05.2020
3414 Clouds 31 1006 55 10000 3.1 200 23:20 10.05.2020
3415 Clouds 31 1006 58 10000 2.1 220 22:54 10.05.2020
3416 Clouds 31 1006 58 10000 2.1 220 22:36 10.05.2020
3417 Clouds 32 1006 55 10000 2.6 220 22:18 10.05.2020
3418 Clouds 31 1006 58 10000 2.1 220 22:18 10.05.2020
3419 Clouds 32 1006 55 10000 2.6 220 21:42 10.05.2020
3420 Clouds 32 1006 55 10000 2.6 220 21:18 10.05.2020
3421 Clouds 32 1006 49 10000 2.1 220 20:43 10.05.2020
3422 Clear 32 1006 49 10000 2.1 220 20:24 10.05.2020
3423 Clear 32 1006 52 10000 1 0 19:57 10.05.2020
3424 Clear 32 1006 52 10000 1 0 19:38 10.05.2020
3425 Clear 33 1006 52 10000 1 0 19:20 10.05.2020
3426 Clear 33 1006 49 10000 2.1 270 18:56 10.05.2020
3427 Clear 33 1006 49 10000 2.1 270 18:36 10.05.2020
3428 Clear 33 1005 49 10000 3.6 280 18:18 10.05.2020
3429 Clear 33 1006 49 10000 2.1 270 18:18 10.05.2020
3430 Clear 33 1005 49 10000 3.6 280 17:57 10.05.2020
3431 Clear 33 1005 49 10000 3.6 280 17:39 10.05.2020
3432 Clear 34 1005 49 10000 3.6 280 17:20 10.05.2020
3433 Clear 34 1005 41 10000 3.6 270 16:43 10.05.2020
3434 Clear 34 1005 41 10000 3.6 270 16:21 10.05.2020
3435 Clear 36 1005 44 10000 3.6 270 15:58 10.05.2020
3436 Clear 36 1005 44 10000 3.6 270 15:39 10.05.2020
3437 Clear 37 1005 44 10000 3.6 270 15:21 10.05.2020
3438 Clear 39 1005 29 10000 3.1 0 14:56 10.05.2020
3439 Clear 39 1005 29 10000 3.1 0 14:37 10.05.2020
3440 Clouds 38 1005 33 10000 5.1 320 14:19 10.05.2020
3441 Clouds 38 1005 33 10000 5.1 320 13:57 10.05.2020
3442 Clouds 38 1005 33 10000 5.1 320 13:37 10.05.2020
3443 Clouds 38 1005 33 10000 5.1 320 13:18 10.05.2020
3444 Clouds 38 1006 29 10000 2.6 300 12:42 10.05.2020
3445 Clouds 38 1006 29 10000 2.6 300 12:23 10.05.2020
3446 Clouds 36 1007 34 10000 3.6 320 11:59 10.05.2020
3447 Clouds 36 1007 34 10000 3.6 320 11:40 10.05.2020
3448 Clouds 37 1007 34 10000 3.6 320 11:21 10.05.2020
3449 Clouds 37 1007 25 10000 4.6 320 10:58 10.05.2020
3450 Clouds 37 1007 25 10000 4.6 320 10:40 10.05.2020
3451 Clouds 36 1007 25 10000 4.6 320 10:22 10.05.2020
3452 Clouds 34 1008 32 10000 2.6 270 09:42 10.05.2020
3453 Clouds 33 1008 32 10000 2.6 270 09:23 10.05.2020
3454 Clouds 32 1008 49 10000 2.6 260 08:59 10.05.2020
3455 Clouds 31 1008 49 10000 2.6 260 08:40 10.05.2020
3456 Clouds 31 1008 49 10000 2.6 260 08:22 10.05.2020
3457 Clouds 29 1008 55 10000 3.1 230 07:42 10.05.2020
3458 Clouds 29 1008 55 10000 3.1 230 07:19 10.05.2020
3459 Clouds 27 1008 58 10000 3.1 190 06:50 10.05.2020
3460 Clouds 26 1008 58 10000 3.1 190 06:26 10.05.2020
3461 Clouds 26 1007 69 10000 2.6 180 05:46 10.05.2020
3462 Clear 25 1007 73 10000 1.5 210 04:48 10.05.2020
3463 Clear 25 1007 73 10000 1.5 210 04:29 10.05.2020
3464 Clear 25 1006 73 10000 2.1 230 03:51 10.05.2020
3465 Clear 25 1006 78 10000 2.6 200 02:59 10.05.2020
3466 Clouds 25 1006 78 10000 2.6 200 02:25 10.05.2020
3467 Clouds 26 1006 78 10000 1.5 200 01:59 10.05.2020
3468 Clouds 26 1006 78 10000 1.5 200 01:39 10.05.2020
3469 Clouds 26 1006 78 10000 1.5 200 01:18 10.05.2020
3470 Clouds 27 1006 74 10000 2.1 200 00:52 10.05.2020
3471 Clouds 27 1007 78 10000 2.6 170 00:22 10.05.2020
3472 Clouds 27 1007 78 10000 2.6 170 23:40 09.05.2020
3473 Clouds 27 1007 78 10000 2.6 170 23:22 09.05.2020
3474 Clouds 27 1007 69 10000 3.6 130 22:59 09.05.2020
3475 Clouds 28 1007 69 10000 3.6 130 22:40 09.05.2020
3476 Clouds 28 1007 69 10000 3.6 130 22:22 09.05.2020
3477 Clouds 28 1007 74 10000 1 0 21:57 09.05.2020
3478 Clouds 28 1007 74 10000 1 0 21:39 09.05.2020
3479 Clear 28 1007 74 10000 1 0 21:20 09.05.2020
3480 Clear 29 1007 70 10000 2.6 330 20:56 09.05.2020
3481 Clear 29 1007 70 10000 2.6 330 20:38 09.05.2020
3482 Clear 29 1007 70 10000 2.6 330 20:19 09.05.2020
3483 Clear 29 1007 74 10000 3.1 300 19:40 09.05.2020
3484 Clear 29 1007 74 10000 3.1 300 19:21 09.05.2020
3485 Clear 29 1006 70 10000 4.1 300 18:59 09.05.2020
3486 Clear 29 1006 70 10000 4.1 300 18:40 09.05.2020
3487 Clear 30 1006 70 10000 4.1 300 18:21 09.05.2020
3488 Clear 30 1006 62 10000 3.6 280 17:44 09.05.2020
3489 Clear 30 1006 62 10000 3.6 280 17:23 09.05.2020
3490 Clear 32 1005 55 10000 4.6 300 16:55 09.05.2020
3491 Clear 32 1005 55 10000 4.6 300 16:37 09.05.2020
3492 Clear 32 1005 55 10000 4.6 300 16:18 09.05.2020
3493 Clear 33 1005 49 10000 4.6 300 15:41 09.05.2020
3494 Clear 33 1005 49 10000 4.6 300 15:22 09.05.2020
3495 Clear 34 1005 44 10000 4.6 310 14:54 09.05.2020
3496 Clear 34 1005 44 10000 4.6 310 14:36 09.05.2020
3497 Clear 35 1006 41 10000 4.6 300 14:18 09.05.2020
3498 Clear 35 1006 41 10000 4.6 300 13:41 09.05.2020
3499 Clear 35 1006 41 10000 4.6 300 13:22 09.05.2020
3500 Clear 35 1006 39 10000 4.6 320 12:58 09.05.2020
3501 Clear 35 1006 39 10000 4.6 320 12:39 09.05.2020
3502 Clear 35 1006 39 10000 4.6 320 12:39 09.05.2020
3503 Clear 35 1007 39 10000 4.1 310 12:21 09.05.2020
3504 Clear 35 1007 39 10000 4.1 310 11:44 09.05.2020
3505 Clear 35 1007 39 10000 4.1 310 11:20 09.05.2020
3506 Clear 34 1007 43 10000 3.1 310 10:48 09.05.2020
3507 Clear 34 1007 43 10000 3.1 310 10:48 09.05.2020
3508 Clear 33 1007 43 10000 3.1 310 10:27 09.05.2020
3509 Clear 33 1008 46 10000 2.1 0 10:00 09.05.2020
3510 Clear 32 1008 46 10000 2.1 0 09:41 09.05.2020
3511 Clear 32 1008 46 10000 2.1 0 09:19 09.05.2020
3512 Clear 30 1008 48 10000 1 0 08:52 09.05.2020
3513 Clear 30 1008 48 10000 1 0 08:34 09.05.2020
3514 Clouds 29 1008 58 10000 3.6 220 07:55 09.05.2020
3515 Clouds 28 1008 58 10000 3.6 220 07:37 09.05.2020
3516 Clouds 28 1008 61 10000 3.6 210 07:19 09.05.2020
3517 Clouds 26 1008 61 10000 3.6 210 06:26 09.05.2020
3518 Clouds 26 1007 69 10000 4.1 210 05:50 09.05.2020
3519 Clouds 25 1007 69 10000 4.1 210 05:19 09.05.2020
3520 Clouds 25 1006 73 10000 3.6 210 03:39 09.05.2020
3521 Clouds 25 1006 73 10000 4.1 210 02:53 09.05.2020
3522 Clouds 25 1006 73 10000 4.1 210 02:29 09.05.2020
3523 Clouds 25 1006 73 10000 4.1 210 01:48 09.05.2020
3524 Clouds 25 1006 73 10000 4.1 210 01:20 09.05.2020
3525 Clouds 26 1006 69 10000 3.6 210 00:42 09.05.2020
3526 Clouds 27 1006 69 10000 3.6 210 00:18 09.05.2020
3527 Clouds 27 1007 61 10000 3.6 210 23:43 08.05.2020
3528 Clouds 28 1007 61 10000 3.6 210 23:24 08.05.2020
3529 Clouds 28 1007 61 10000 2.6 220 22:55 08.05.2020
3530 Clouds 28 1007 61 10000 2.6 220 22:37 08.05.2020
3531 Clouds 29 1008 51 10000 3.1 250 22:18 08.05.2020
3532 Clouds 29 1008 51 10000 3.1 250 21:54 08.05.2020
3533 Clouds 29 1008 51 10000 3.1 250 21:36 08.05.2020
3534 Clouds 29 1008 51 10000 3.1 250 21:18 08.05.2020
3535 Clouds 29 1007 51 10000 3.6 280 20:41 08.05.2020
3536 Clear 30 1007 51 10000 3.6 280 20:23 08.05.2020
3537 Clear 30 1007 51 10000 4.6 270 19:58 08.05.2020
3538 Clear 30 1007 51 10000 4.6 270 19:40 08.05.2020
3539 Clear 30 1007 51 10000 4.6 270 19:20 08.05.2020
3540 Clear 31 1006 40 10000 4.1 280 18:45 08.05.2020
3541 Clear 31 1006 40 10000 4.1 280 18:27 08.05.2020
3542 Clear 32 1006 38 10000 2.1 260 17:43 08.05.2020
3543 Clear 32 1006 38 10000 2.1 260 17:43 08.05.2020
3544 Clear 32 1006 38 10000 2.1 260 17:20 08.05.2020
3545 Clear 32 1006 43 10000 3.1 270 16:56 08.05.2020
3546 Clear 32 1006 43 10000 3.1 270 16:37 08.05.2020
3547 Clear 32 1006 43 10000 3.1 270 16:19 08.05.2020
3548 Clear 34 1006 38 10000 5.7 280 15:42 08.05.2020
3549 Clear 34 1006 38 10000 5.7 280 15:22 08.05.2020
3550 Clear 34 1006 38 10000 5.1 280 14:57 08.05.2020
3551 Clear 34 1006 38 10000 5.1 280 14:39 08.05.2020
3552 Clear 35 1006 32 10000 4.6 280 14:19 08.05.2020
3553 Clear 35 1006 32 10000 4.6 280 13:55 08.05.2020
3554 Clear 35 1006 32 10000 4.6 280 13:36 08.05.2020
3555 Clear 36 1006 32 10000 4.6 280 13:18 08.05.2020
3556 Clear 35 1007 26 10000 5.1 280 12:42 08.05.2020
3557 Clear 35 1007 26 10000 5.1 280 12:23 08.05.2020
3558 Clear 34 1008 36 10000 5.1 290 11:44 08.05.2020
3559 Clear 34 1008 36 10000 5.1 290 11:23 08.05.2020
3560 Clear 33 1008 38 10000 5.1 310 10:59 08.05.2020
3561 Clear 33 1008 38 10000 5.1 310 10:59 08.05.2020
3562 Clear 33 1008 38 10000 5.1 310 10:41 08.05.2020
3563 Clear 33 1008 36 10000 5.7 310 10:19 08.05.2020
3564 Clear 33 1008 36 10000 5.7 310 09:56 08.05.2020
3565 Clear 33 1008 36 10000 5.7 310 09:38 08.05.2020
3566 Clear 32 1008 36 10000 5.7 310 09:18 08.05.2020
3567 Clear 32 1008 40 10000 4.1 280 09:18 08.05.2020
3568 Clear 32 1008 40 10000 4.1 280 08:42 08.05.2020
3569 Clear 31 1008 45 10000 2.6 280 08:22 08.05.2020
3570 Clear 30 1008 45 10000 2.6 280 07:43 08.05.2020
3571 Clouds 30 1008 45 10000 2.6 280 07:24 08.05.2020
3572 Clouds 29 1008 58 10000 2.1 230 06:51 08.05.2020
3573 Clouds 28 1008 58 10000 2.1 230 06:24 08.05.2020
3574 Clouds 28 1007 58 10000 2.1 190 05:52 08.05.2020
3575 Clouds 27 1007 65 10000 2.6 230 04:41 08.05.2020
3576 Clouds 29 1006 58 10000 2.6 260 02:35 08.05.2020
3577 Clouds 30 1007 48 10000 3.1 280 01:56 08.05.2020
3578 Clouds 30 1007 48 10000 3.1 280 01:28 08.05.2020
3579 Clouds 30 1007 45 10000 2.6 250 00:53 08.05.2020
3580 Clouds 30 1007 45 10000 2.6 250 00:32 08.05.2020
3581 Clouds 30 1008 48 10000 2.1 220 23:59 07.05.2020
3582 Clouds 30 1008 48 10000 2.1 220 23:59 07.05.2020
3583 Clouds 30 1008 48 10000 2.1 220 23:40 07.05.2020
3584 Clouds 30 1008 48 10000 2.1 220 23:21 07.05.2020
3585 Clouds 31 1008 43 10000 2.1 330 22:56 07.05.2020
3586 Clouds 31 1008 43 10000 2.1 330 22:38 07.05.2020
3587 Clouds 31 1008 43 10000 2.1 330 22:38 07.05.2020
3588 Clouds 31 1008 43 10000 2.1 330 22:19 07.05.2020
3589 Clouds 31 1008 45 10000 4.1 310 21:55 07.05.2020
3590 Clouds 31 1008 45 10000 4.1 310 21:36 07.05.2020
3591 Clouds 31 1008 45 10000 4.1 310 21:18 07.05.2020
3592 Clouds 31 1008 48 10000 5.1 310 20:42 07.05.2020
3593 Clouds 31 1008 48 10000 5.1 310 20:23 07.05.2020
3594 Clouds 32 1008 43 10000 6.2 300 19:56 07.05.2020
3595 Clouds 32 1008 43 10000 6.2 300 19:38 07.05.2020
3596 Clouds 32 1008 43 10000 6.2 300 19:38 07.05.2020
3597 Clouds 33 1008 43 10000 6.2 300 19:19 07.05.2020
3598 Clouds 34 1007 34 8000 4.6 300 18:44 07.05.2020
3599 Clouds 34 1007 34 8000 4.6 300 18:26 07.05.2020
3600 Dust 35 1007 28 5000 4.1 320 17:57 07.05.2020
3601 Dust 35 1007 28 5000 4.1 320 17:36 07.05.2020
3602 Dust 35 1007 28 5000 4.1 320 17:18 07.05.2020
3603 Clouds 34 1007 41 10000 6.7 320 16:40 07.05.2020
3604 Clouds 34 1007 41 10000 6.7 320 16:18 07.05.2020
3605 Clouds 35 1006 34 10000 6.2 320 15:56 07.05.2020
3606 Clouds 35 1006 34 10000 6.2 320 15:37 07.05.2020
3607 Clouds 36 1006 37 10000 4.1 300 15:18 07.05.2020
3608 Clouds 36 1006 37 10000 4.1 300 14:44 07.05.2020
3609 Clouds 36 1006 37 10000 4.1 300 14:21 07.05.2020
3610 Clouds 35 1006 39 10000 3.6 310 13:44 07.05.2020
3611 Clouds 35 1006 39 10000 3.6 310 13:26 07.05.2020
3612 Clouds 35 1007 39 10000 4.6 300 12:54 07.05.2020
3613 Clouds 35 1007 39 10000 4.6 300 12:36 07.05.2020
3614 Clouds 35 1007 39 10000 4.6 300 12:18 07.05.2020
3615 Clouds 35 1008 34 10000 4.1 280 11:39 07.05.2020
3616 Clouds 35 1008 34 10000 4.1 280 11:21 07.05.2020
3617 Clouds 36 1008 23 10000 4.6 270 10:43 07.05.2020
3618 Clouds 36 1008 23 10000 4.6 270 10:24 07.05.2020
3619 Clouds 36 1008 19 10000 2.6 290 09:54 07.05.2020
3620 Clouds 36 1008 19 10000 2.6 290 09:36 07.05.2020
3621 Clouds 36 1008 21 10000 3.1 280 09:18 07.05.2020
3622 Clouds 35 1008 21 10000 3.1 280 08:41 07.05.2020
3623 Clear 34 1007 20 10000 1.5 280 08:21 07.05.2020
3624 Clear 34 1007 20 10000 1.5 280 07:57 07.05.2020
3625 Clear 33 1007 20 10000 1.5 280 07:39 07.05.2020
3626 Clear 31 1007 24 10000 2.6 320 07:18 07.05.2020
3627 Clear 31 1007 24 10000 2.6 320 06:36 07.05.2020
3628 Clear 29 1006 22 10000 1.5 300 05:40 07.05.2020
3629 Clear 28 1006 21 10000 2.1 320 04:26 07.05.2020
3630 Clear 27 1005 24 10000 1 0 03:29 07.05.2020
3631 Clear 26 1005 24 10000 2.6 120 02:55 07.05.2020
3632 Clouds 27 1005 24 10000 2.6 120 02:19 07.05.2020
3633 Clouds 27 1006 37 10000 1 0 01:24 07.05.2020
3634 Clouds 27 1006 45 10000 2.6 130 00:50 07.05.2020
3635 Clouds 27 1006 45 10000 2.6 130 00:29 07.05.2020
3636 Clouds 27 1007 51 10000 2.1 160 23:57 06.05.2020
3637 Clouds 27 1007 51 10000 2.1 160 23:38 06.05.2020
3638 Clouds 27 1007 51 10000 2.1 160 23:19 06.05.2020
3639 Clouds 27 1008 58 10000 1 0 22:54 06.05.2020
3640 Clouds 27 1008 58 10000 1 0 22:36 06.05.2020
3641 Clouds 28 1008 51 10000 2.1 50 22:18 06.05.2020
3642 Clouds 29 1008 51 10000 2.1 50 21:42 06.05.2020
3643 Clear 29 1008 51 10000 2.1 50 21:21 06.05.2020
3644 Clear 29 1008 42 10000 2.6 360 20:54 06.05.2020
3645 Clear 29 1008 42 10000 2.6 360 20:36 06.05.2020
3646 Clear 30 1007 42 10000 2.6 320 20:18 06.05.2020
3647 Clear 30 1007 42 10000 2.6 320 19:55 06.05.2020
3648 Clear 30 1007 42 10000 2.6 320 19:36 06.05.2020
3649 Clear 30 1007 42 10000 4.1 340 19:18 06.05.2020
3650 Clear 30 1007 42 10000 4.1 340 18:54 06.05.2020
3651 Clear 32 1007 42 10000 4.1 340 18:36 06.05.2020
3652 Clear 32 1007 42 10000 4.1 340 18:18 06.05.2020
3653 Clear 33 1006 31 10000 2.6 340 17:40 06.05.2020
3654 Clear 33 1006 31 10000 2.6 340 17:22 06.05.2020
3655 Clear 34 1007 24 10000 4.6 320 16:59 06.05.2020
3656 Clear 34 1007 24 10000 4.6 320 16:41 06.05.2020
3657 Clear 34 1007 24 10000 4.6 320 16:22 06.05.2020
3658 Clear 35 1006 24 10000 5.1 330 15:59 06.05.2020
3659 Clear 35 1006 24 10000 5.1 330 15:41 06.05.2020
3660 Clear 35 1006 24 10000 5.1 330 15:22 06.05.2020
3661 Clear 37 1007 18 10000 5.1 310 14:56 06.05.2020
3662 Clear 37 1007 18 10000 5.1 310 14:37 06.05.2020
3663 Clear 36 1007 18 10000 5.1 310 14:18 06.05.2020
3664 Clear 36 1007 19 10000 5.1 320 13:56 06.05.2020
3665 Clear 36 1007 19 10000 5.1 320 13:36 06.05.2020
3666 Clear 36 1008 22 10000 4.6 320 13:18 06.05.2020
3667 Clear 36 1008 22 10000 4.6 320 12:42 06.05.2020
3668 Clear 36 1008 22 10000 4.6 320 12:23 06.05.2020
3669 Clear 36 1008 23 10000 5.7 330 11:41 06.05.2020
3670 Clouds 36 1008 23 10000 5.7 330 11:21 06.05.2020
3671 Clouds 36 1009 30 10000 5.7 330 10:58 06.05.2020
3672 Clouds 36 1009 30 10000 5.7 330 10:38 06.05.2020
3673 Clouds 36 1009 30 10000 5.7 330 10:19 06.05.2020
3674 Clouds 37 1009 23 10000 3.1 320 09:45 06.05.2020
3675 Clear 36 1009 23 10000 3.1 320 09:24 06.05.2020
3676 Clear 34 1009 20 10000 1 0 08:55 06.05.2020
3677 Clear 34 1009 20 10000 1 0 08:55 06.05.2020
3678 Clear 34 1009 20 10000 1 0 08:36 06.05.2020
3679 Clear 32 1008 27 10000 0.87 232 08:18 06.05.2020
3680 Clear 32 1008 27 10000 0.87 232 07:40 06.05.2020
3681 Clear 30 1008 27 10000 0.25 207 07:21 06.05.2020
3682 Clear 29 1008 37 10000 1 0 06:56 06.05.2020
3683 Clear 29 1008 37 10000 1 0 06:38 06.05.2020
3684 Clear 27 1008 47 10000 1 160 06:18 06.05.2020
3685 Clear 26 1008 47 10000 1 160 05:37 06.05.2020
3686 Clear 24 1007 47 10000 0.5 0 04:40 06.05.2020
3687 Clear 24 1007 47 10000 0.5 0 03:44 06.05.2020
3688 Clear 24 1007 47 10000 0.5 0 03:22 06.05.2020
3689 Clear 25 1007 50 10000 1.5 150 02:30 06.05.2020
3690 Clouds 26 1007 47 10000 1.5 160 01:55 06.05.2020
3691 Clouds 27 1007 47 10000 1.5 160 01:33 06.05.2020
3692 Clouds 27 1007 51 10000 1.5 110 00:54 06.05.2020
3693 Clouds 27 1007 51 10000 1.5 110 00:27 06.05.2020
3694 Clouds 27 1008 48 10000 1 90 23:57 05.05.2020
3695 Clouds 28 1008 48 10000 1 90 23:38 05.05.2020
3696 Clouds 28 1008 48 10000 1 90 23:18 05.05.2020
3697 Clouds 28 1008 45 10000 1 0 22:42 05.05.2020
3698 Clouds 28 1008 45 10000 1 0 22:20 05.05.2020
3699 Clouds 28 1009 48 10000 1.5 330 21:58 05.05.2020
3700 Clouds 28 1009 48 10000 1.5 330 21:58 05.05.2020
3701 Clouds 28 1009 48 10000 1.5 330 21:58 05.05.2020
3702 Clouds 29 1009 48 10000 1.5 330 21:39 05.05.2020
3703 Clouds 28 1010 51 10000 2.6 330 21:21 05.05.2020
3704 Clouds 29 1010 51 10000 2.6 330 20:58 05.05.2020
3705 Clouds 29 1010 51 10000 2.6 330 20:39 05.05.2020
3706 Clear 30 1009 45 10000 2.1 340 20:18 05.05.2020
3707 Clear 30 1009 45 10000 2.1 340 19:54 05.05.2020
3708 Clear 30 1009 45 10000 2.1 340 19:36 05.05.2020
3709 Clear 31 1009 40 10000 2.1 340 19:18 05.05.2020
3710 Clear 31 1009 40 10000 2.1 340 18:42 05.05.2020
3711 Clear 31 1009 40 10000 2.1 340 18:20 05.05.2020
3712 Clear 31 1009 35 10000 2.6 310 17:59 05.05.2020
3713 Clear 31 1009 35 10000 2.6 310 17:41 05.05.2020
3714 Clear 31 1009 35 10000 2.6 310 17:23 05.05.2020
3715 Clear 32 1008 35 10000 4.6 330 16:57 05.05.2020
3716 Clear 32 1008 35 10000 4.6 330 16:57 05.05.2020
3717 Clear 32 1008 35 10000 4.6 330 16:36 05.05.2020
3718 Clear 32 1008 26 10000 5.7 330 16:18 05.05.2020
3719 Clear 32 1008 26 10000 5.7 330 16:18 05.05.2020
3720 Clear 33 1008 26 10000 5.7 330 15:41 05.05.2020
3721 Clear 34 1008 26 10000 5.7 330 15:22 05.05.2020
3722 Clear 35 1009 23 10000 6.2 310 14:58 05.05.2020
3723 Clear 35 1009 23 10000 6.2 310 14:39 05.05.2020
3724 Clear 35 1009 23 10000 6.2 310 14:39 05.05.2020
3725 Clear 34 1009 23 10000 6.2 310 14:21 05.05.2020
3726 Clear 33 1009 23 10000 6.7 320 13:58 05.05.2020
3727 Clear 35 1007 18 0 5.08 298 13:39 05.05.2020
3728 Clear 35 1010 24 10000 7.2 320 13:21 05.05.2020
3729 Clear 35 1010 24 10000 7.2 320 12:58 05.05.2020
3730 Clear 35 1010 24 10000 7.2 320 12:39 05.05.2020
3731 Clear 35 1010 24 10000 7.2 320 12:20 05.05.2020
3732 Clear 34 1011 34 10000 6.2 320 11:42 05.05.2020
3733 Clear 34 1011 34 10000 6.2 320 11:21 05.05.2020
3734 Clear 34 1011 44 10000 6.7 330 10:59 05.05.2020
3735 Clear 34 1011 44 10000 6.7 330 10:39 05.05.2020
3736 Clear 35 1011 44 10000 6.7 330 10:19 05.05.2020
3737 Clear 35 1011 44 10000 5.1 330 09:57 05.05.2020
3738 Clear 35 1011 23 10000 3.1 240 09:39 05.05.2020
3739 Clear 34 1012 26 10000 1 0 09:20 05.05.2020
3740 Clear 33 1012 26 10000 1 0 08:41 05.05.2020
3741 Clear 33 1012 26 10000 1 0 08:20 05.05.2020
3742 Clear 30 1011 48 8000 2.1 190 07:57 05.05.2020
3743 Clear 29 1011 48 8000 2.1 190 07:38 05.05.2020
3744 Clear 29 1011 48 8000 2.1 190 07:18 05.05.2020
3745 Clear 27 1011 65 7000 2.6 180 06:45 05.05.2020
3746 Clear 26 1010 74 6000 2.6 180 06:21 05.05.2020
3747 Clear 25 1010 74 6000 2.6 180 05:36 05.05.2020
3748 Clear 26 1009 65 10000 1.5 210 03:34 05.05.2020
3749 Clear 28 1009 48 10000 0.5 0 01:27 05.05.2020
3750 Clear 27 1009 61 10000 0.5 0 00:50 05.05.2020
3751 Clear 28 1009 61 10000 0.5 0 00:21 05.05.2020
3752 Clear 28 1010 65 10000 3.1 340 23:44 04.05.2020
3753 Clear 28 1010 65 10000 3.1 340 23:21 04.05.2020
3754 Clear 29 1010 66 10000 2.6 320 22:56 04.05.2020
3755 Clear 29 1010 66 10000 2.6 320 22:38 04.05.2020
3756 Clear 29 1010 70 10000 2.6 320 22:19 04.05.2020
3757 Clear 29 1010 70 10000 2.6 320 21:53 04.05.2020
3758 Clear 29 1010 70 10000 2.6 320 21:53 04.05.2020
3759 Clear 28 1010 70 10000 2.6 320 21:33 04.05.2020
3760 Clear 28 1010 66 10000 1.5 280 20:54 04.05.2020
3761 Clear 29 1010 66 10000 1.5 280 20:36 04.05.2020
3762 Clear 29 1010 70 10000 1.5 330 20:18 04.05.2020
3763 Clear 29 1010 70 10000 1.5 330 19:41 04.05.2020
3764 Clear 29 1010 74 10000 3.6 330 19:21 04.05.2020
3765 Clear 29 1010 74 10000 3.6 330 18:56 04.05.2020
3766 Clear 29 1010 74 10000 3.6 330 18:37 04.05.2020
3767 Clear 30 1010 74 10000 3.6 330 18:18 04.05.2020
3768 Clear 31 1009 62 10000 3.1 0 17:55 04.05.2020
3769 Clear 31 1009 62 10000 3.1 0 17:37 04.05.2020
3770 Clear 31 1009 62 10000 3.1 0 17:18 04.05.2020
3771 Clear 31 1009 55 10000 4.6 340 16:42 04.05.2020
3772 Clear 31 1009 55 10000 4.6 340 16:42 04.05.2020
3773 Clear 31 1009 55 10000 4.6 340 16:21 04.05.2020
3774 Clear 33 1009 49 10000 5.7 320 15:46 04.05.2020
3775 Clear 33 1009 49 10000 5.7 320 15:25 04.05.2020
3776 Clear 33 1009 49 10000 5.7 320 15:25 04.05.2020
3777 Clear 33 1009 49 10000 5.7 310 14:57 04.05.2020
3778 Clear 33 1009 49 10000 5.7 310 14:38 04.05.2020
3779 Clear 33 1009 49 10000 5.7 310 14:38 04.05.2020
3780 Clear 33 1009 49 10000 5.7 310 14:38 04.05.2020
3781 Clear 33 1009 49 10000 5.7 310 14:38 04.05.2020
3782 Clear 33 1009 49 10000 5.7 310 14:38 04.05.2020
3783 Clear 35 1009 36 10000 6.7 320 13:46 04.05.2020
3784 Clear 35 1009 36 10000 6.7 320 13:46 04.05.2020
3785 Clear 35 1009 36 10000 6.7 320 13:46 04.05.2020
3786 Clear 35 1009 36 10000 6.7 320 13:46 04.05.2020
3787 Clear 35 1009 36 10000 6.7 320 13:46 04.05.2020
3788 Clear 36 1010 25 10000 6.2 330 12:48 04.05.2020
3789 Clear 36 1010 25 10000 6.2 330 12:48 04.05.2020
3790 Clear 36 1010 25 10000 6.2 330 12:48 04.05.2020
3791 Clear 36 1010 25 10000 6.2 330 12:48 04.05.2020
3792 Clear 36 1011 28 10000 5.1 330 12:21 04.05.2020
3793 Clear 36 1011 28 10000 5.1 330 12:20 04.05.2020
3794 Clear 36 1011 28 10000 5.1 330 12:20 04.05.2020
3795 Clear 35 1011 32 10000 2.1 0 09:33 04.05.2020
3796 Clear 34 1012 38 10000 2.1 0 08:56 04.05.2020
3797 Clear 34 1012 38 10000 2.1 0 08:56 04.05.2020
3798 Clear 34 1012 38 10000 2.1 0 08:56 04.05.2020
3799 Clear 34 1012 38 10000 2.1 0 08:56 04.05.2020
3800 Clear 34 1012 38 10000 2.1 0 08:56 04.05.2020
3801 Clear 31 1011 40 10000 2.1 320 07:45 04.05.2020
3802 Clear 30 1011 51 10000 1 0 07:18 04.05.2020
3803 Clear 30 1011 51 10000 1 0 07:18 04.05.2020
3804 Clear 30 1011 51 10000 1 0 07:18 04.05.2020
3805 Clear 27 1009 65 10000 3.1 330 04:55 04.05.2020
3806 Clear 28 1009 61 10000 4.1 350 03:20 04.05.2020
3807 Clear 30 1008 54 10000 4.1 340 02:30 04.05.2020
3808 Clear 31 1008 38 10000 1.5 360 00:38 04.05.2020
3809 Clear 30 1008 55 10000 4.1 320 23:46 03.05.2020
3810 Clear 32 1008 32 10000 1 0 23:25 03.05.2020
3811 Clear 32 1008 32 10000 1 0 22:56 03.05.2020
3812 Clear 32 1008 32 10000 1 0 22:38 03.05.2020
3813 Clear 32 1008 32 10000 1 0 22:38 03.05.2020
3814 Clear 32 1008 32 10000 1 0 22:38 03.05.2020
3815 Clear 32 1008 32 10000 1 0 22:20 03.05.2020
3816 Clear 33 1009 32 10000 0.5 0 21:41 03.05.2020
3817 Clear 33 1009 32 10000 0.5 0 21:20 03.05.2020
3818 Clear 33 1008 38 10000 2.1 310 20:47 03.05.2020
3819 Clear 34 1008 38 10000 2.1 310 20:23 03.05.2020
3820 Clear 35 1008 28 10000 1 0 19:55 03.05.2020
3821 Clear 35 1008 28 10000 1 0 19:55 03.05.2020
3822 Clear 35 1008 28 10000 1 0 19:36 03.05.2020
3823 Clear 35 1007 28 10000 3.6 120 19:18 03.05.2020
3824 Clear 35 1007 28 10000 3.6 120 18:39 03.05.2020
3825 Clear 35 1007 28 10000 3.6 120 18:39 03.05.2020
3826 Clear 35 1007 26 7000 3.6 90 18:20 03.05.2020
3827 Clear 35 1007 26 7000 3.6 90 17:42 03.05.2020
3828 Clear 35 1007 26 7000 3.6 90 17:22 03.05.2020
3829 Clear 35 1007 26 10000 6.7 70 16:58 03.05.2020
3830 Clear 35 1007 26 10000 6.7 70 16:39 03.05.2020
3831 Clear 35 1007 25 10000 8.7 30 16:18 03.05.2020
3832 Clear 35 1007 25 10000 8.7 30 15:55 03.05.2020
3833 Clear 35 1007 25 10000 8.7 30 15:37 03.05.2020
3834 Clear 35 1007 25 10000 8.7 30 15:37 03.05.2020
3835 Clear 35 1007 25 10000 8.7 30 15:37 03.05.2020
3836 Clear 34 1008 32 10000 9.3 20 15:19 03.05.2020
3837 Clear 33 1008 32 10000 9.3 20 14:41 03.05.2020
3838 Clear 33 1008 32 10000 9.3 20 14:41 03.05.2020
3839 Clear 33 1008 32 10000 9.3 20 14:22 03.05.2020
3840 Clear 33 1008 32 10000 9.3 20 14:22 03.05.2020
3841 Clear 33 1008 32 10000 9.3 20 14:22 03.05.2020
3842 Clear 33 1008 32 10000 9.3 20 14:22 03.05.2020
3843 Clear 33 1008 32 10000 9.3 20 14:22 03.05.2020
3844 Dust 33 1009 36 5000 13.4 360 13:58 03.05.2020
3845 Dust 33 1009 36 5000 13.4 360 13:33 03.05.2020
3846 Dust 33 1009 36 5000 13.4 360 13:33 03.05.2020
3847 Dust 33 1009 36 5000 13.4 360 13:33 03.05.2020
3848 Clear 36 1008 32 10000 6.7 10 12:47 03.05.2020
3849 Clear 36 1008 32 10000 6.7 10 12:25 03.05.2020
3850 Clear 36 1008 32 10000 6.7 10 12:25 03.05.2020
3851 Clear 36 1008 32 10000 6.7 10 12:25 03.05.2020
3852 Clear 35 1008 39 10000 7.2 360 11:57 03.05.2020
3853 Clear 35 1008 39 10000 7.2 360 11:39 03.05.2020
3854 Clouds 34 1008 39 10000 8.7 350 11:20 03.05.2020
3855 Clouds 34 1008 39 10000 8.7 350 11:20 03.05.2020
3856 Clouds 34 1008 39 10000 8.7 350 10:52 03.05.2020
3857 Clouds 34 1008 39 10000 8.7 350 10:52 03.05.2020
3858 Clouds 34 1008 39 10000 8.7 350 10:52 03.05.2020
3859 Clouds 34 1008 39 10000 8.7 350 10:52 03.05.2020
3860 Clouds 34 1008 39 10000 8.7 350 10:52 03.05.2020
3861 Clear 34 1008 46 10000 8.2 340 10:24 03.05.2020
3862 Clear 34 1008 46 10000 8.2 340 10:24 03.05.2020
3863 Clear 34 1008 46 10000 8.2 340 10:24 03.05.2020
3864 Clear 34 1008 46 10000 8.2 340 10:24 03.05.2020
3865 Clear 34 1008 46 10000 8.2 340 10:24 03.05.2020
3866 Clear 38 1008 24 10000 5.1 280 09:39 03.05.2020
3867 Clear 38 1008 27 10000 4.1 200 08:57 03.05.2020
3868 Clear 38 1008 27 10000 4.1 200 08:32 03.05.2020
3869 Clear 38 1008 27 10000 4.1 200 08:32 03.05.2020
3870 Clear 38 1008 27 10000 4.1 200 08:32 03.05.2020
3871 Clear 38 1008 27 10000 4.1 200 08:32 03.05.2020
3872 Clear 38 1008 27 10000 4.1 200 08:32 03.05.2020
3873 Clear 33 1008 34 10000 4.1 180 07:40 03.05.2020
3874 Clear 32 1008 46 10000 1.5 180 06:35 03.05.2020
3875 Clear 30 1007 55 10000 1.5 100 05:49 03.05.2020
3876 Clear 30 1007 55 10000 1.5 100 05:31 03.05.2020
3877 Clear 30 1006 55 10000 1 0 04:27 03.05.2020
3878 Clear 30 1005 55 10000 2.6 120 03:30 03.05.2020
3879 Clear 30 1005 55 10000 2.1 20 02:31 03.05.2020
3880 Clear 30 1005 55 10000 1.5 0 01:48 03.05.2020
3881 Clear 30 1005 55 10000 1.5 0 01:27 03.05.2020
3882 Clear 30 1005 55 10000 1 0 00:57 03.05.2020
3883 Clear 30 1005 55 10000 1 0 00:57 03.05.2020
3884 Clear 30 1005 55 10000 1 0 00:38 03.05.2020
3885 Clear 30 1005 55 10000 1 0 00:20 03.05.2020
3886 Clear 30 1006 55 10000 2.1 130 23:44 02.05.2020
3887 Clear 30 1006 55 10000 2.1 130 23:26 02.05.2020
3888 Clear 30 1007 55 10000 2.1 130 22:56 02.05.2020
3889 Clear 30 1007 55 10000 2.1 130 22:37 02.05.2020
3890 Clear 30 1007 55 10000 2.1 130 22:18 02.05.2020
3891 Clear 30 1007 55 10000 2.6 150 21:40 02.05.2020
3892 Clear 30 1007 55 10000 2.6 150 21:19 02.05.2020
3893 Clear 30 1007 55 10000 2.6 100 20:57 02.05.2020
3894 Clear 30 1007 55 10000 2.6 100 20:37 02.05.2020
3895 Clear 30 1007 58 10000 2.1 350 20:19 02.05.2020
3896 Clear 30 1007 58 10000 2.1 350 19:57 02.05.2020
3897 Clear 30 1007 58 10000 2.1 350 19:38 02.05.2020
3898 Clear 30 1007 58 10000 2.1 350 19:38 02.05.2020
3899 Clear 30 1007 58 10000 2.1 350 19:38 02.05.2020
3900 Clear 30 1007 58 10000 2.1 350 19:19 02.05.2020
3901 Clear 30 1006 62 10000 5.1 340 18:56 02.05.2020
3902 Clear 30 1006 62 10000 5.1 340 18:37 02.05.2020
3903 Clear 33 1006 49 10000 3.6 320 18:18 02.05.2020
3904 Clear 32 1006 49 10000 3.6 320 17:40 02.05.2020
3905 Clear 33 1006 49 10000 3.6 320 17:20 02.05.2020
3906 Clear 34 1006 44 10000 5.7 320 16:59 02.05.2020
3907 Clear 34 1006 44 10000 5.7 320 16:41 02.05.2020
3908 Clear 34 1006 44 10000 5.7 320 16:23 02.05.2020
3909 Clear 36 1006 37 10000 6.7 320 15:44 02.05.2020
3910 Clear 36 1006 37 10000 6.7 320 15:21 02.05.2020
3911 Clear 37 1006 29 10000 7.7 300 14:59 02.05.2020
3912 Clear 37 1006 29 10000 7.7 300 14:40 02.05.2020
3913 Clear 37 1006 29 10000 7.7 300 14:22 02.05.2020
3914 Clear 36 1006 34 10000 7.2 290 13:40 02.05.2020
3915 Clear 37 1006 34 10000 7.2 290 13:22 02.05.2020
3916 Clear 37 1007 32 10000 6.2 290 12:56 02.05.2020
3917 Clear 37 1007 32 10000 6.2 290 12:38 02.05.2020
3918 Clear 38 1007 31 10000 4.1 290 12:19 02.05.2020
3919 Clear 38 1007 31 10000 4.1 290 11:54 02.05.2020
3920 Clear 38 1007 31 10000 4.1 290 11:36 02.05.2020
3921 Clear 37 1008 30 10000 3.1 250 11:18 02.05.2020
3922 Clear 37 1008 30 10000 3.1 250 10:39 02.05.2020
3923 Clear 36 1008 32 10000 3.6 260 10:21 02.05.2020
3924 Clear 36 1008 32 10000 3.6 260 09:58 02.05.2020
3925 Clear 36 1008 32 10000 3.6 260 09:39 02.05.2020
3926 Clouds 36 1008 32 10000 3.6 260 09:20 02.05.2020
3927 Clouds 35 1009 34 10000 3.1 200 08:51 02.05.2020
3928 Clouds 33 1009 34 10000 3.1 200 08:30 02.05.2020
3929 Clouds 33 1009 41 10000 2.6 170 07:49 02.05.2020
3930 Clouds 32 1009 41 10000 2.6 170 07:29 02.05.2020
3931 Clouds 32 1008 43 10000 2.1 350 06:53 02.05.2020
3932 Clouds 31 1008 43 10000 2.1 350 06:18 02.05.2020
3933 Clouds 30 1008 48 10000 1 0 05:27 02.05.2020
3934 Clouds 30 1007 55 10000 2.1 330 04:25 02.05.2020
3935 Clouds 31 1006 48 10000 2.6 330 03:34 02.05.2020
3936 Clouds 31 1006 45 10000 1 0 02:39 02.05.2020
3937 Clouds 32 1005 43 10000 2.6 270 01:51 02.05.2020
3938 Clouds 32 1005 43 10000 4.1 270 00:58 02.05.2020
3939 Clouds 32 1005 43 10000 4.1 270 00:40 02.05.2020
3940 Clouds 33 1005 43 10000 4.1 270 00:18 02.05.2020
3941 Clouds 34 1005 34 10000 4.1 270 23:40 01.05.2020
3942 Clear 34 1005 34 10000 4.1 270 23:20 01.05.2020
3943 Clear 34 1006 32 10000 4.1 210 22:58 01.05.2020
3944 Clear 34 1006 32 10000 4.1 210 22:38 01.05.2020
3945 Clear 35 1006 32 10000 2.6 210 22:19 01.05.2020
3946 Clear 35 1006 32 10000 2.6 210 21:57 01.05.2020
3947 Clear 35 1006 32 10000 2.6 210 21:38 01.05.2020
3948 Clear 36 1007 32 10000 2.1 250 21:18 01.05.2020
3949 Clear 36 1007 32 10000 2.1 250 20:56 01.05.2020
3950 Clear 36 1007 32 10000 2.1 250 20:37 01.05.2020
3951 Clear 36 1007 32 10000 2.1 250 20:19 01.05.2020
3952 Clear 36 1006 30 10000 3.1 220 19:42 01.05.2020
3953 Clear 37 1006 30 10000 3.1 220 19:22 01.05.2020
3954 Clear 37 1005 27 10000 2.6 210 18:59 01.05.2020
3955 Clear 37 1005 27 10000 2.6 210 18:40 01.05.2020
3956 Clear 37 1005 27 10000 2.6 210 18:21 01.05.2020
3957 Clear 37 1005 29 10000 3.6 60 17:58 01.05.2020
3958 Clear 37 1005 29 10000 3.6 60 17:39 01.05.2020
3959 Clear 38 1005 27 10000 4.6 50 17:21 01.05.2020
3960 Clear 38 1005 27 10000 4.6 50 16:56 01.05.2020
3961 Clear 38 1005 27 10000 4.6 50 16:38 01.05.2020
3962 Clear 38 1005 27 10000 4.6 50 16:19 01.05.2020
3963 Clear 38 1004 26 10000 4.1 30 15:55 01.05.2020
3964 Clear 38 1004 26 10000 4.1 30 15:37 01.05.2020
3965 Clear 39 1005 24 10000 5.7 20 15:18 01.05.2020
3966 Clear 39 1005 24 10000 5.7 20 14:42 01.05.2020
3967 Clear 39 1005 24 10000 5.7 20 14:23 01.05.2020
3968 Clear 41 1005 19 10000 3.6 340 13:41 01.05.2020
3969 Clear 41 1005 19 10000 3.6 340 13:23 01.05.2020
3970 Clear 41 1006 14 10000 2.1 0 12:58 01.05.2020
3971 Clear 41 1006 14 10000 2.1 0 12:40 01.05.2020
3972 Clear 40 1006 14 10000 2.1 0 12:20 01.05.2020
3973 Clear 39 1007 14 10000 2.6 180 11:59 01.05.2020
3974 Clear 39 1007 14 10000 2.6 180 11:40 01.05.2020
3975 Clear 39 1007 14 10000 2.6 180 11:40 01.05.2020
3976 Clear 38 1008 17 10000 5.7 150 11:19 01.05.2020
3977 Clear 37 1008 17 10000 5.7 150 10:41 01.05.2020
3978 Clear 37 1008 17 10000 5.7 150 10:20 01.05.2020
3979 Clear 36 1009 20 10000 3.1 170 09:59 01.05.2020
3980 Clear 36 1009 20 10000 3.1 170 09:41 01.05.2020
3981 Clouds 35 1009 20 10000 3.1 170 09:18 01.05.2020
3982 Clouds 35 1009 20 10000 3.1 170 09:18 01.05.2020
3983 Clouds 34 1010 36 10000 2.1 150 08:43 01.05.2020
3984 Clouds 34 1010 36 10000 2.1 150 08:25 01.05.2020
3985 Clouds 33 1010 43 10000 2.6 40 07:55 01.05.2020
3986 Clouds 32 1010 43 10000 2.6 40 07:37 01.05.2020
3987 Clouds 32 1008 43 10000 3.6 70 06:58 01.05.2020
3988 Clouds 31 1009 48 10000 5.7 20 05:48 01.05.2020
3989 Clouds 32 1009 48 10000 5.7 20 05:21 01.05.2020
3990 Clouds 34 1006 32 10000 2.6 70 03:43 01.05.2020
3991 Clear 34 1005 32 10000 2.6 90 02:52 01.05.2020
3992 Clear 34 1005 32 10000 2.6 90 02:34 01.05.2020
3993 Clouds 35 1005 28 10000 2.1 30 01:47 01.05.2020
3994 Clouds 35 1005 28 10000 2.1 30 01:26 01.05.2020
3995 Clouds 35 1005 28 10000 3.1 100 00:40 01.05.2020
3996 Clouds 35 1005 28 10000 3.1 100 00:20 01.05.2020
3997 Clouds 35 1006 30 10000 5.7 340 23:57 30.04.2020
3998 Clouds 35 1006 30 10000 5.7 340 23:57 30.04.2020
3999 Clouds 35 1006 30 10000 5.7 340 23:38 30.04.2020
4000 Clouds 35 1006 30 10000 5.7 340 23:19 30.04.2020
4001 Clouds 35 1006 28 10000 3.1 120 22:54 30.04.2020
4002 Clouds 35 1006 28 10000 3.1 120 22:36 30.04.2020
4003 Clouds 35 1006 28 10000 3.1 120 22:18 30.04.2020
4004 Clouds 36 1007 28 10000 2.1 60 21:41 30.04.2020
4005 Clear 36 1007 28 10000 2.1 60 21:21 30.04.2020
4006 Clear 36 1006 25 10000 2.1 80 20:57 30.04.2020
4007 Clear 36 1006 25 10000 2.1 80 20:39 30.04.2020
4008 Clear 36 1006 25 10000 3.6 70 20:18 30.04.2020
4009 Clear 36 1006 25 10000 3.6 70 19:45 30.04.2020
4010 Clear 36 1006 25 10000 3.6 70 19:26 30.04.2020
4011 Clear 36 1005 23 10000 3.1 70 18:57 30.04.2020
4012 Clear 36 1005 23 10000 3.1 70 18:39 30.04.2020
4013 Clear 36 1005 23 10000 3.1 70 18:20 30.04.2020
4014 Clear 37 1005 25 10000 5.1 50 17:57 30.04.2020
4015 Clear 37 1005 25 10000 5.1 50 17:39 30.04.2020
4016 Clear 37 1005 25 10000 5.1 50 17:20 30.04.2020
4017 Clear 38 1005 25 10000 5.1 30 16:56 30.04.2020
4018 Clear 38 1005 25 10000 5.1 30 16:37 30.04.2020
4019 Clear 38 1005 25 10000 5.1 30 16:18 30.04.2020
4020 Clear 38 1004 25 10000 5.1 40 15:44 30.04.2020
4021 Clear 38 1004 25 10000 5.1 40 15:23 30.04.2020
4022 Clear 39 1004 26 8000 6.2 340 14:43 30.04.2020
4023 Clear 39 1004 26 8000 6.2 340 14:22 30.04.2020
4024 Clear 41 1005 23 8000 4.1 300 13:59 30.04.2020
4025 Clear 41 1005 23 8000 4.1 300 13:41 30.04.2020
4026 Clear 42 1005 23 8000 4.1 300 13:23 30.04.2020
4027 Clear 43 1005 15 10000 6.7 200 12:59 30.04.2020
4028 Clear 43 1005 15 10000 6.7 200 12:41 30.04.2020
4029 Clear 43 1005 15 10000 6.7 200 12:19 30.04.2020
4030 Clear 43 1006 17 10000 6.7 210 11:38 30.04.2020
4031 Clear 42 1006 17 10000 6.7 210 11:19 30.04.2020
4032 Clear 41 1007 20 8000 6.7 220 10:59 30.04.2020
4033 Clear 41 1007 20 8000 6.7 220 10:40 30.04.2020
4034 Clear 41 1007 20 8000 6.7 220 10:21 30.04.2020
4035 Clear 40 1008 23 6000 5.7 220 09:56 30.04.2020
4036 Clear 40 1008 23 6000 5.7 220 09:38 30.04.2020
4037 Dust 38 1008 27 5000 5.7 200 09:19 30.04.2020
4038 Dust 37 1008 27 5000 5.7 200 08:45 30.04.2020
4039 Dust 37 1008 27 5000 5.7 200 08:45 30.04.2020
4040 Dust 36 1008 27 5000 5.7 200 08:26 30.04.2020
4041 Dust 35 1008 30 5000 4.1 190 07:44 30.04.2020
4042 Dust 34 1008 30 5000 4.1 190 07:25 30.04.2020
4043 Clouds 32 1007 31 10000 3.1 180 06:53 30.04.2020
4044 Clouds 31 1007 33 10000 2.6 120 06:19 30.04.2020
4045 Clouds 31 1007 33 10000 2.6 120 05:45 30.04.2020
4046 Clear 30 1006 35 10000 2.1 150 04:39 30.04.2020
4047 Clear 30 1006 31 10000 3.1 140 03:58 30.04.2020
4048 Clear 31 1005 27 10000 4.1 140 02:47 30.04.2020
4049 Clear 31 1005 27 10000 4.1 140 02:25 30.04.2020
4050 Clear 31 1005 29 10000 3.6 130 01:36 30.04.2020
4051 Clear 30 1005 31 10000 3.6 140 00:42 30.04.2020
4052 Clear 30 1006 33 10000 2.1 80 00:20 30.04.2020
4053 Clear 30 1006 33 10000 2.1 80 23:57 29.04.2020
4054 Clear 30 1006 33 10000 2.1 80 23:37 29.04.2020
4055 Clear 30 1006 33 10000 2.1 80 23:37 29.04.2020
4056 Clear 31 1007 33 10000 3.1 90 23:19 29.04.2020
4057 Clear 30 1007 33 10000 3.1 90 22:40 29.04.2020
4058 Clear 31 1007 33 10000 3.1 90 22:22 29.04.2020
4059 Clear 31 1008 35 10000 4.6 90 21:59 29.04.2020
4060 Clear 31 1008 35 10000 4.6 90 21:37 29.04.2020
4061 Clear 31 1008 31 10000 2.6 60 21:18 29.04.2020
4062 Clear 30 1008 31 10000 2.6 60 20:55 29.04.2020
4063 Clear 30 1008 31 10000 2.6 60 20:36 29.04.2020
4064 Clouds 30 1008 31 10000 2.6 60 20:18 29.04.2020
4065 Clouds 31 1008 29 10000 3.1 50 20:18 29.04.2020
4066 Clouds 31 1008 29 10000 3.1 50 19:42 29.04.2020
4067 Clouds 31 1008 29 10000 3.1 50 19:20 29.04.2020
4068 Clouds 32 1007 31 10000 2.6 80 18:43 29.04.2020
4069 Clouds 32 1007 31 10000 2.6 80 18:25 29.04.2020
4070 Clouds 33 1007 32 10000 2.1 90 17:59 29.04.2020
4071 Clouds 33 1007 32 10000 2.1 90 17:41 29.04.2020
4072 Clouds 33 1007 32 10000 2.1 90 17:21 29.04.2020
4073 Clouds 33 1007 36 10000 6.2 80 16:39 29.04.2020
4074 Clouds 33 1007 36 10000 6.2 80 16:20 29.04.2020
4075 Clouds 33 1008 34 10000 6.7 50 15:58 29.04.2020
4076 Clouds 33 1008 34 10000 6.7 50 15:39 29.04.2020
4077 Clouds 33 1008 34 10000 6.7 50 15:21 29.04.2020
4078 Clouds 34 1008 32 10000 6.7 360 14:57 29.04.2020
4079 Clouds 34 1008 32 10000 6.7 360 14:39 29.04.2020
4080 Clouds 34 1008 32 10000 6.7 360 14:21 29.04.2020
4081 Dust 36 1008 18 4000 12.3 310 13:42 29.04.2020
4082 Dust 36 1008 18 4000 12.3 310 13:21 29.04.2020
4083 Clouds 34 1008 36 10000 7.7 350 12:59 29.04.2020
4084 Clouds 35 1009 28 10000 11.8 280 12:40 29.04.2020
4085 Clouds 35 1009 28 10000 11.8 280 12:19 29.04.2020
4086 Clouds 36 1009 22 10000 7.7 280 11:58 29.04.2020
4087 Clouds 36 1009 22 10000 7.7 280 11:36 29.04.2020
4088 Rain 35 1010 36 8000 12.9 300 11:18 29.04.2020
4089 Rain 35 1010 36 8000 12.9 300 10:37 29.04.2020
4090 Dust 38 1009 26 8000 9.3 320 10:19 29.04.2020
4091 Dust 38 1009 26 8000 9.3 320 09:57 29.04.2020
4092 Clear 40 1008 17 10000 1 0 09:38 29.04.2020
4093 Clear 40 1008 17 10000 1 0 09:18 29.04.2020
4094 Clear 36 1008 21 10000 2.1 190 08:43 29.04.2020
4095 Clear 36 1008 21 10000 2.1 190 08:24 29.04.2020
4096 Clear 34 1008 26 10000 3.1 130 07:48 29.04.2020
4097 Clear 33 1008 26 10000 3.1 130 07:25 29.04.2020
4098 Clear 30 1008 33 10000 2.6 100 06:52 29.04.2020
4099 Clear 29 1008 33 10000 2.6 100 06:31 29.04.2020
4100 Clear 27 1008 42 10000 2.1 60 05:22 29.04.2020
4101 Clear 27 1008 45 10000 1.5 0 04:47 29.04.2020
4102 Clear 27 1008 45 10000 1.5 90 04:19 29.04.2020
4103 Clear 28 1008 42 10000 1.5 0 02:49 29.04.2020
4104 Clear 27 1008 51 10000 1.5 320 01:44 29.04.2020
4105 Clear 27 1008 51 10000 1.5 320 01:26 29.04.2020
4106 Clear 29 1008 40 10000 1 0 00:50 29.04.2020
4107 Clear 29 1008 40 10000 1 0 00:50 29.04.2020
4108 Clear 30 1008 40 10000 1 80 00:20 29.04.2020
4109 Clear 30 1008 40 10000 1 80 23:56 28.04.2020
4110 Clear 30 1008 40 10000 1 80 23:37 28.04.2020
4111 Clear 30 1008 40 10000 1 80 23:18 28.04.2020
4112 Clear 31 1009 40 10000 2.1 230 22:37 28.04.2020
4113 Clear 31 1009 40 10000 2.1 230 22:19 28.04.2020
4114 Clear 32 1009 35 10000 1 170 21:57 28.04.2020
4115 Clear 32 1009 35 10000 1 170 21:39 28.04.2020
4116 Clear 32 1009 35 10000 1 170 21:21 28.04.2020
4117 Clear 32 1009 33 10000 1 350 20:55 28.04.2020
4118 Clear 32 1009 33 10000 1 350 20:37 28.04.2020
4119 Clouds 32 1009 33 10000 1 350 20:19 28.04.2020
4120 Clouds 32 1009 35 10000 1.5 270 19:43 28.04.2020
4121 Clouds 32 1009 35 10000 1.5 270 19:43 28.04.2020
4122 Clouds 32 1009 35 10000 1.5 270 19:22 28.04.2020
4123 Clouds 32 1009 31 10000 2.6 360 18:59 28.04.2020
4124 Clouds 32 1009 31 10000 2.6 360 18:41 28.04.2020
4125 Clouds 33 1009 28 10000 3.1 330 18:20 28.04.2020
4126 Clouds 33 1009 28 10000 3.1 330 17:58 28.04.2020
4127 Clouds 33 1009 28 10000 3.1 330 17:37 28.04.2020
4128 Clouds 34 1009 31 10000 2.6 0 17:18 28.04.2020
4129 Clouds 33 1009 31 10000 2.6 0 16:45 28.04.2020
4130 Clouds 33 1009 31 10000 2.6 0 16:24 28.04.2020
4131 Rain 32 1010 35 10000 1.5 280 15:59 28.04.2020
4132 Rain 32 1010 35 10000 1.5 280 15:40 28.04.2020
4133 Rain 32 1010 35 10000 1.5 280 15:21 28.04.2020
4134 Rain 32 1010 35 10000 1.5 280 15:21 28.04.2020
4135 Rain 32 1009 35 8000 5.1 320 14:59 28.04.2020
4136 Clouds 33 1009 33 10000 3.6 340 14:41 28.04.2020
4137 Clouds 34 1009 32 10000 5.7 320 14:21 28.04.2020
4138 Clouds 34 1009 32 10000 5.7 320 13:58 28.04.2020
4139 Clouds 34 1009 32 10000 5.7 320 13:38 28.04.2020
4140 Clouds 35 1009 28 10000 7.7 320 13:20 28.04.2020
4141 Clouds 35 1009 28 10000 7.7 320 12:47 28.04.2020
4142 Clouds 35 1009 28 10000 7.7 320 12:27 28.04.2020
4143 Clouds 33 1010 36 10000 1.5 330 11:59 28.04.2020
4144 Clouds 33 1010 36 10000 1.5 330 11:39 28.04.2020
4145 Clouds 33 1010 36 10000 1.5 330 11:20 28.04.2020
4146 Clouds 32 1011 40 10000 6.7 310 10:39 28.04.2020
4147 Clouds 32 1011 40 10000 6.7 310 10:19 28.04.2020
4148 Clouds 33 1010 44 10000 7.2 310 09:59 28.04.2020
4149 Clouds 33 1010 44 10000 7.2 310 09:40 28.04.2020
4150 Clouds 33 1010 44 10000 7.2 310 09:22 28.04.2020
4151 Clouds 31 1010 58 10000 1 0 08:46 28.04.2020
4152 Clouds 31 1010 58 10000 1 0 08:46 28.04.2020
4153 Clear 31 1010 58 10000 1 0 08:27 28.04.2020
4154 Clear 30 1011 62 10000 5.1 280 07:58 28.04.2020
4155 Clear 30 1011 62 10000 5.1 280 07:38 28.04.2020
4156 Clear 29 1009 66 10000 2.1 220 07:18 28.04.2020
4157 Clear 29 1009 66 10000 2.1 220 07:18 28.04.2020
4158 Clouds 29 1009 66 10000 2.1 220 06:28 28.04.2020
4159 Clouds 28 1009 69 10000 1.5 270 05:45 28.04.2020
4160 Clear 28 1009 69 10000 1.5 270 05:26 28.04.2020
4161 Clear 28 1008 69 10000 2.1 270 04:33 28.04.2020
4162 Clear 30 1006 55 10000 4.1 310 02:36 28.04.2020
4163 Clear 30 1007 62 10000 1.5 190 01:25 28.04.2020
4164 Clear 30 1007 62 10000 1.5 190 00:59 28.04.2020
4165 Clear 29 1007 62 10000 1.5 190 00:26 28.04.2020
4166 Clear 29 1007 70 10000 3.1 340 23:47 27.04.2020
4167 Clear 29 1007 70 10000 3.1 340 23:25 27.04.2020
4168 Clear 30 1007 70 10000 5.7 320 22:56 27.04.2020
4169 Clear 30 1007 70 10000 5.7 320 22:38 27.04.2020
4170 Clear 32 1008 43 10000 6.2 320 22:20 27.04.2020
4171 Clear 32 1008 43 10000 6.2 320 21:56 27.04.2020
4172 Clear 32 1008 43 10000 6.2 320 21:38 27.04.2020
4173 Clear 34 1007 20 10000 1 90 21:18 27.04.2020
4174 Clear 34 1007 20 10000 1 90 20:44 27.04.2020
4175 Clear 34 1007 20 10000 1 90 20:22 27.04.2020
4176 Clear 34 1007 20 10000 1 90 20:22 27.04.2020
4177 Clear 34 1007 20 10000 1 90 20:22 27.04.2020
4178 Clear 35 1007 20 10000 1 70 19:59 27.04.2020
4179 Clear 35 1007 20 10000 1 70 19:40 27.04.2020
4180 Clear 35 1007 20 10000 1 70 19:21 27.04.2020
4181 Clear 36 1006 19 10000 2.6 60 18:58 27.04.2020
4182 Clear 36 1006 19 10000 2.6 60 18:40 27.04.2020
4183 Clear 36 1006 19 10000 2.6 60 18:40 27.04.2020
4184 Clear 36 1006 19 10000 2.6 60 18:19 27.04.2020
4185 Clear 37 1006 19 10000 2.1 60 17:54 27.04.2020
4186 Clear 37 1006 19 10000 2.1 60 17:36 27.04.2020
4187 Clear 37 1005 19 10000 3.6 60 17:18 27.04.2020
4188 Clear 37 1005 19 10000 3.6 60 16:40 27.04.2020
4189 Clear 38 1005 19 10000 5.1 40 16:21 27.04.2020
4190 Clear 38 1005 19 10000 5.1 40 15:57 27.04.2020
4191 Clear 38 1005 19 10000 5.1 40 15:38 27.04.2020
4192 Clear 38 1005 19 10000 5.1 40 15:19 27.04.2020
4193 Clear 38 1006 19 10000 4.6 10 14:56 27.04.2020
4194 Clear 38 1006 19 10000 4.6 10 14:56 27.04.2020
4195 Clear 38 1006 19 10000 4.6 10 14:37 27.04.2020
4196 Clear 37 1006 22 10000 6.2 10 14:18 27.04.2020
4197 Clear 37 1006 22 10000 6.2 10 13:42 27.04.2020
4198 Clear 36 1007 28 10000 7.2 340 13:21 27.04.2020
4199 Clear 36 1007 28 10000 7.2 340 12:57 27.04.2020
4200 Clear 36 1007 28 10000 7.2 340 12:39 27.04.2020
4201 Clear 36 1007 28 10000 7.2 340 12:20 27.04.2020
4202 Clear 35 1007 36 10000 7.7 350 11:41 27.04.2020
4203 Clear 35 1007 36 10000 7.7 350 11:21 27.04.2020
4204 Clear 35 1008 34 10000 11.3 330 10:57 27.04.2020
4205 Clear 35 1008 34 10000 11.3 330 10:39 27.04.2020
4206 Clear 35 1008 34 10000 11.3 330 10:20 27.04.2020
4207 Clear 40 1007 20 10000 8.2 310 09:44 27.04.2020
4208 Clear 40 1007 20 10000 8.2 310 09:19 27.04.2020
4209 Clear 40 1007 12 10000 4.1 190 08:58 27.04.2020
4210 Clear 40 1007 12 10000 4.1 190 08:40 27.04.2020
4211 Clear 38 1007 12 10000 4.1 190 08:22 27.04.2020
4212 Clear 34 1007 21 10000 1 0 07:44 27.04.2020
4213 Clear 34 1007 21 10000 1 0 07:20 27.04.2020
4214 Clear 31 1007 25 10000 2.6 220 06:47 27.04.2020
4215 Clear 31 1007 25 10000 2.6 220 06:25 27.04.2020
4216 Clear 31 1006 24 10000 1.5 150 05:50 27.04.2020
4217 Clear 31 1005 24 10000 2.1 90 04:49 27.04.2020
4218 Clear 31 1004 24 10000 2.6 160 03:49 27.04.2020
4219 Clouds 31 1004 31 10000 4.1 170 02:58 27.04.2020
4220 Clouds 32 1005 31 10000 1 0 01:35 27.04.2020
4221 Clouds 32 1006 33 10000 2.6 170 00:58 27.04.2020
4222 Clouds 33 1006 36 10000 2.1 260 00:20 27.04.2020
4223 Clouds 33 1006 36 10000 2.1 260 23:56 26.04.2020
4224 Clouds 32 1006 36 10000 2.1 260 23:38 26.04.2020
4225 Clouds 32 1006 36 10000 2.1 260 23:19 26.04.2020
4226 Clouds 31 1006 46 10000 5.7 330 22:58 26.04.2020
4227 Clouds 32 1006 26 10000 1 0 22:39 26.04.2020
4228 Clouds 32 1006 26 10000 1 0 22:39 26.04.2020
4229 Clouds 32 1006 26 10000 1 0 22:19 26.04.2020
4230 Clouds 33 1005 24 10000 3.1 50 21:57 26.04.2020
4231 Clouds 33 1005 24 10000 3.1 50 21:37 26.04.2020
4232 Clouds 33 1005 24 10000 1.5 70 21:18 26.04.2020
4233 Clouds 33 1005 24 10000 1.5 70 20:42 26.04.2020
4234 Clouds 33 1005 24 10000 1.5 70 20:23 26.04.2020
4235 Clouds 33 1005 26 10000 4.1 60 19:59 26.04.2020
4236 Clouds 34 1005 26 10000 4.1 60 19:38 26.04.2020
4237 Clouds 34 1005 26 10000 4.1 60 19:20 26.04.2020
4238 Clouds 34 1005 28 10000 2.1 60 18:55 26.04.2020
4239 Clouds 34 1005 28 10000 2.1 60 18:36 26.04.2020
4240 Clouds 36 1005 34 10000 4.1 320 18:18 26.04.2020
4241 Clouds 36 1005 34 10000 4.1 320 17:41 26.04.2020
4242 Clouds 36 1005 34 10000 4.1 320 17:22 26.04.2020
4243 Clouds 39 1004 15 10000 5.1 310 16:55 26.04.2020
4244 Clouds 39 1004 15 10000 5.1 310 16:55 26.04.2020
4245 Clouds 39 1004 15 10000 5.1 310 16:36 26.04.2020
4246 Clouds 42 1004 11 10000 3.1 300 16:18 26.04.2020
4247 Clouds 42 1004 11 10000 3.1 300 15:54 26.04.2020
4248 Clouds 42 1004 11 10000 3.1 300 15:36 26.04.2020
4249 Clear 42 1004 11 10000 3.1 300 15:18 26.04.2020
4250 Clear 42 1004 10 10000 1 0 14:40 26.04.2020
4251 Clear 41 1005 12 10000 2.6 20 14:19 26.04.2020
4252 Clear 41 1005 12 10000 2.6 20 13:57 26.04.2020
4253 Clear 41 1005 12 10000 2.6 20 13:38 26.04.2020
4254 Clear 39 1006 12 10000 4.1 20 13:19 26.04.2020
4255 Clear 41 1005 12 10000 2.6 20 13:19 26.04.2020
4256 Clear 39 1006 12 10000 4.1 20 12:54 26.04.2020
4257 Clear 39 1006 12 10000 4.1 20 12:36 26.04.2020
4258 Clear 39 1006 12 10000 4.1 20 12:36 26.04.2020
4259 Clear 39 1007 15 10000 3.6 20 12:18 26.04.2020
4260 Clear 38 1007 15 10000 3.6 20 11:41 26.04.2020
4261 Clear 38 1007 15 10000 3.6 20 11:23 26.04.2020
4262 Clear 36 1008 18 10000 3.6 360 10:58 26.04.2020
4263 Clear 36 1008 18 10000 3.6 360 10:40 26.04.2020
4264 Clear 36 1008 18 10000 3.6 360 10:40 26.04.2020
4265 Clear 36 1008 18 10000 3.6 360 10:22 26.04.2020
4266 Clear 35 1009 23 10000 4.1 350 09:57 26.04.2020
4267 Clear 35 1009 23 10000 4.1 350 09:37 26.04.2020
4268 Clear 35 1008 28 7000 5.1 360 09:18 26.04.2020
4269 Clear 35 1008 28 7000 5.1 360 08:41 26.04.2020
4270 Clear 34 1008 28 7000 5.1 360 08:20 26.04.2020
4271 Clear 33 1008 18 10000 1.5 0 07:48 26.04.2020
4272 Clear 33 1008 18 10000 1.5 0 07:22 26.04.2020
4273 Clear 31 1007 23 10000 1.5 150 06:45 26.04.2020
4274 Clear 27 1006 25 10000 1 0 06:20 26.04.2020
4275 Clear 27 1006 25 10000 1 0 05:47 26.04.2020
4276 Clear 27 1006 25 10000 1 0 05:28 26.04.2020
4277 Clear 26 1006 28 10000 1.5 120 04:30 26.04.2020
4278 Clear 26 1005 28 10000 1 0 03:33 26.04.2020
4279 Clear 26 1005 28 10000 2.1 120 02:33 26.04.2020
4280 Clear 27 1005 28 10000 2.6 170 01:54 26.04.2020
4281 Clear 27 1005 28 10000 2.6 170 01:35 26.04.2020
4282 Clear 28 1006 27 10000 2.1 150 00:41 26.04.2020
4283 Clear 28 1006 27 10000 2.1 150 00:20 26.04.2020
4284 Clear 28 1006 27 10000 2.1 150 23:40 25.04.2020
4285 Clear 28 1006 27 10000 2.1 150 23:21 25.04.2020
4286 Clear 28 1006 27 10000 1.5 100 22:59 25.04.2020
4287 Clear 28 1006 27 10000 1.5 100 22:41 25.04.2020
4288 Clear 28 1006 27 10000 1.5 100 22:19 25.04.2020
4289 Clear 29 1007 29 10000 1.5 90 21:57 25.04.2020
4290 Clear 29 1007 29 10000 1.5 90 21:37 25.04.2020
4291 Clear 30 1007 25 10000 2.6 100 21:18 25.04.2020
4292 Clear 30 1007 25 10000 2.6 100 20:42 25.04.2020
4293 Clear 30 1007 25 10000 2.6 100 20:22 25.04.2020
4294 Clear 30 1007 29 10000 1.5 60 19:58 25.04.2020
4295 Clear 31 1007 29 10000 1.5 60 19:38 25.04.2020
4296 Clear 31 1006 33 10000 2.6 340 19:19 25.04.2020
4297 Clear 32 1006 33 10000 2.6 340 18:43 25.04.2020
4298 Clear 33 1006 27 10000 4.1 320 18:21 25.04.2020
4299 Clear 33 1006 27 10000 4.1 320 17:59 25.04.2020
4300 Clear 33 1006 27 10000 4.1 320 17:39 25.04.2020
4301 Clear 33 1006 27 10000 4.1 320 17:20 25.04.2020
4302 Clear 35 1006 23 10000 4.6 320 16:59 25.04.2020
4303 Clear 35 1006 23 10000 4.6 320 16:41 25.04.2020
4304 Clear 35 1006 23 10000 4.6 320 16:21 25.04.2020
4305 Clear 37 1006 18 10000 5.7 320 15:54 25.04.2020
4306 Clear 37 1006 18 10000 5.7 320 15:36 25.04.2020
4307 Clear 37 1006 18 10000 5.7 320 15:18 25.04.2020
4308 Clear 37 1006 16 10000 7.7 320 14:39 25.04.2020
4309 Clear 37 1006 16 10000 7.7 320 14:20 25.04.2020
4310 Clear 38 1006 12 10000 5.7 310 13:59 25.04.2020
4311 Clear 38 1006 12 10000 5.7 310 13:40 25.04.2020
4312 Clear 38 1006 12 10000 5.1 330 13:18 25.04.2020
4313 Clear 38 1006 12 10000 5.1 330 12:55 25.04.2020
4314 Clear 38 1006 12 10000 5.1 330 12:36 25.04.2020
4315 Clear 38 1006 12 10000 5.1 330 12:18 25.04.2020
4316 Clear 37 1007 16 10000 3.6 350 11:41 25.04.2020
4317 Clear 37 1007 16 10000 3.6 350 11:23 25.04.2020
4318 Clear 38 1008 13 10000 4.1 320 10:55 25.04.2020
4319 Clear 38 1008 13 10000 4.1 320 10:37 25.04.2020
4320 Clear 37 1009 14 10000 2.6 310 10:18 25.04.2020
4321 Clear 37 1009 14 10000 2.6 310 09:41 25.04.2020
4322 Clear 37 1009 14 10000 2.6 310 09:21 25.04.2020
4323 Clear 34 1009 16 10000 1.5 0 08:55 25.04.2020
4324 Clear 34 1009 16 10000 1.5 0 08:36 25.04.2020
4325 Clear 34 1009 16 10000 1.5 0 08:18 25.04.2020
4326 Clear 31 1008 25 10000 2.1 220 07:42 25.04.2020
4327 Clear 29 1008 32 10000 1.5 180 07:19 25.04.2020
4328 Clear 29 1008 32 10000 1.5 180 06:42 25.04.2020
4329 Clear 26 1007 39 10000 1 0 05:44 25.04.2020
4330 Clear 26 1007 39 10000 1 0 05:26 25.04.2020
4331 Clear 25 1007 42 10000 2.1 220 04:20 25.04.2020
4332 Clear 26 1006 39 10000 1.5 120 02:38 25.04.2020
4333 Clear 26 1006 39 10000 1 0 02:18 25.04.2020
4334 Clear 26 1006 39 10000 1 0 01:45 25.04.2020
4335 Clear 27 1007 42 10000 2.1 130 01:19 25.04.2020
4336 Clear 27 1007 42 10000 2.1 130 00:42 25.04.2020
4337 Clear 27 1007 39 10000 2.1 150 00:18 25.04.2020
4338 Clear 27 1007 39 10000 2.1 150 23:41 24.04.2020
4339 Clear 27 1007 39 10000 2.1 150 23:20 24.04.2020
4340 Clear 27 1008 42 10000 2.1 130 22:41 24.04.2020
4341 Clear 27 1008 42 10000 2.1 130 22:21 24.04.2020
4342 Clear 28 1008 40 10000 3.6 110 21:59 24.04.2020
4343 Clear 28 1008 40 10000 3.6 110 21:40 24.04.2020
4344 Clear 28 1008 40 10000 3.6 110 21:22 24.04.2020
4345 Clear 29 1008 35 10000 2.6 100 20:58 24.04.2020
4346 Clear 29 1008 35 10000 2.6 100 20:40 24.04.2020
4347 Clear 30 1008 38 10000 0.5 0 20:19 24.04.2020
4348 Clear 30 1008 38 10000 0.5 0 19:47 24.04.2020
4349 Clear 30 1008 38 10000 0.5 0 19:28 24.04.2020
4350 Clear 30 1008 38 10000 4.6 320 18:58 24.04.2020
4351 Clear 31 1008 38 10000 4.6 320 18:38 24.04.2020
4352 Clear 32 1007 33 10000 4.6 320 18:20 24.04.2020
4353 Clear 32 1007 33 10000 4.6 320 18:20 24.04.2020
4354 Clear 32 1007 33 10000 4.6 320 17:42 24.04.2020
4355 Clear 32 1007 33 10000 4.6 320 17:24 24.04.2020
4356 Clear 33 1007 31 10000 3.6 310 16:59 24.04.2020
4357 Clear 33 1007 31 10000 3.6 310 16:41 24.04.2020
4358 Clear 33 1007 31 10000 3.6 310 16:41 24.04.2020
4359 Clear 33 1007 31 10000 3.6 310 16:22 24.04.2020
4360 Clear 33 1007 29 10000 6.2 300 15:59 24.04.2020
4361 Clear 33 1007 29 10000 6.2 300 15:38 24.04.2020
4362 Clear 34 1007 26 10000 6.2 310 15:18 24.04.2020
4363 Clear 34 1007 26 10000 6.2 310 15:18 24.04.2020
4364 Clear 35 1007 26 10000 6.2 310 14:40 24.04.2020
4365 Clear 35 1007 23 10000 4.6 280 14:20 24.04.2020
4366 Clear 35 1007 23 10000 4.6 280 13:56 24.04.2020
4367 Clear 35 1007 23 10000 4.6 280 13:38 24.04.2020
4368 Clear 35 1008 24 10000 4.6 280 13:18 24.04.2020
4369 Clear 35 1008 24 10000 4.6 280 12:41 24.04.2020
4370 Clear 35 1008 24 10000 4.6 280 12:22 24.04.2020
4371 Clear 35 1009 23 10000 2.6 300 11:58 24.04.2020
4372 Clear 35 1009 23 10000 2.6 300 11:38 24.04.2020
4373 Clear 34 1010 23 10000 2.6 0 11:19 24.04.2020
4374 Clear 34 1010 23 10000 2.6 0 10:54 24.04.2020
4375 Clear 34 1010 23 10000 2.6 0 10:36 24.04.2020
4376 Clear 34 1010 23 10000 2.6 0 10:18 24.04.2020
4377 Clear 33 1010 29 10000 2.6 290 09:45 24.04.2020
4378 Clear 33 1010 29 10000 2.6 290 09:24 24.04.2020
4379 Clear 32 1010 33 10000 4.1 280 08:57 24.04.2020
4380 Clear 31 1010 33 10000 4.1 280 08:37 24.04.2020
4381 Clear 31 1010 33 10000 4.1 280 08:18 24.04.2020
4382 Clear 30 1010 38 10000 2.1 270 07:44 24.04.2020
4383 Clear 30 1010 38 10000 2.1 270 07:26 24.04.2020
4384 Clear 28 1009 48 10000 2.1 180 06:51 24.04.2020
4385 Clear 27 1009 48 10000 2.1 180 06:32 24.04.2020
4386 Clear 25 1009 50 10000 1 0 05:44 24.04.2020
4387 Clear 26 1008 54 10000 1.5 220 04:26 24.04.2020
4388 Clear 27 1008 54 10000 2.6 210 02:59 24.04.2020
4389 Clear 27 1008 54 10000 2.6 210 02:38 24.04.2020
4390 Clear 27 1008 54 10000 2.6 210 02:20 24.04.2020
4391 Clear 27 1008 45 10000 2.1 230 01:18 24.04.2020
4392 Clear 27 1008 45 10000 2.1 230 00:36 24.04.2020
4393 Clear 27 1008 48 10000 2.1 220 00:18 24.04.2020
4394 Clear 27 1008 48 10000 2.1 220 23:42 23.04.2020
4395 Clear 28 1008 48 10000 2.1 220 23:23 23.04.2020
4396 Clear 28 1009 45 10000 1.5 190 22:55 23.04.2020
4397 Clear 28 1009 45 10000 1.5 190 22:36 23.04.2020
4398 Clear 28 1009 45 10000 2.1 220 22:18 23.04.2020
4399 Clear 28 1009 45 10000 2.1 220 21:55 23.04.2020
4400 Clear 29 1009 45 10000 2.1 220 21:37 23.04.2020
4401 Clear 29 1009 45 10000 2.1 220 21:19 23.04.2020
4402 Clear 29 1009 45 10000 2.1 220 20:41 23.04.2020
4403 Clear 30 1009 45 10000 2.1 220 20:22 23.04.2020
4404 Clear 30 1009 40 10000 2.1 250 19:58 23.04.2020
4405 Clear 30 1009 40 10000 2.1 250 19:40 23.04.2020
4406 Clear 30 1009 40 10000 2.1 250 19:21 23.04.2020
4407 Clear 30 1009 37 10000 2.1 320 18:56 23.04.2020
4408 Clear 30 1009 37 10000 2.1 320 18:38 23.04.2020
4409 Clear 30 1009 37 10000 2.1 320 18:19 23.04.2020
4410 Clear 30 1009 37 10000 2.1 320 18:19 23.04.2020
4411 Clear 30 1009 37 10000 4.1 320 17:55 23.04.2020
4412 Clear 30 1009 37 10000 4.1 320 17:36 23.04.2020
4413 Clear 30 1009 37 10000 4.1 320 17:18 23.04.2020
4414 Clear 31 1009 38 10000 4.6 320 16:43 23.04.2020
4415 Clear 31 1009 38 10000 4.6 320 16:19 23.04.2020
4416 Clear 31 1009 38 10000 5.1 320 15:43 23.04.2020
4417 Clear 31 1009 38 10000 5.1 320 15:23 23.04.2020
4418 Clear 31 1009 38 10000 5.1 320 15:23 23.04.2020
4419 Clear 31 1009 35 10000 6.2 320 14:59 23.04.2020
4420 Clear 31 1009 35 10000 6.2 320 14:39 23.04.2020
4421 Clear 31 1009 35 10000 6.2 320 14:39 23.04.2020
4422 Clear 31 1009 35 10000 6.2 320 14:20 23.04.2020
4423 Clear 32 1009 33 10000 5.7 320 13:57 23.04.2020
4424 Clear 32 1009 33 10000 5.7 320 13:38 23.04.2020
4425 Clear 32 1009 33 10000 5.7 320 13:19 23.04.2020
4426 Clear 32 1010 33 10000 4.6 310 12:44 23.04.2020
4427 Clear 32 1010 33 10000 4.6 310 12:26 23.04.2020
4428 Clear 32 1010 35 10000 4.6 310 11:59 23.04.2020
4429 Clear 32 1010 35 10000 4.6 310 11:40 23.04.2020
4430 Clear 32 1011 33 10000 4.6 330 11:22 23.04.2020
4431 Clear 32 1011 33 10000 4.6 330 10:42 23.04.2020
4432 Clear 32 1011 33 10000 4.6 330 10:24 23.04.2020
4433 Clear 32 1011 35 10000 2.6 320 09:55 23.04.2020
4434 Clear 31 1011 35 10000 2.6 320 09:37 23.04.2020
4435 Clear 30 1012 40 10000 1 0 09:18 23.04.2020
4436 Clear 29 1012 40 10000 1 0 08:45 23.04.2020
4437 Clear 29 1012 40 10000 1 0 08:27 23.04.2020
4438 Clear 27 1012 48 10000 1.5 200 07:43 23.04.2020
4439 Clear 27 1012 48 10000 1.5 200 07:23 23.04.2020
4440 Clear 26 1011 54 10000 2.6 230 06:49 23.04.2020
4441 Clear 25 1011 54 10000 2.6 230 06:27 23.04.2020
4442 Clear 24 1011 57 10000 2.6 240 05:31 23.04.2020
4443 Clear 24 1010 57 10000 1.5 190 04:53 23.04.2020
4444 Clear 24 1010 61 10000 2.1 190 02:25 23.04.2020
4445 Clear 25 1010 61 10000 2.6 220 01:49 23.04.2020
4446 Clear 25 1010 61 10000 2.6 220 01:28 23.04.2020
4447 Clear 25 1010 61 10000 2.6 200 00:47 23.04.2020
4448 Clear 26 1010 57 10000 2.6 220 00:20 23.04.2020
4449 Clear 26 1010 57 10000 2.6 220 23:49 22.04.2020
4450 Clear 26 1010 57 10000 2.6 220 23:23 22.04.2020
4451 Clear 27 1011 54 10000 1.5 200 22:56 22.04.2020
4452 Clear 27 1011 54 10000 1.5 200 22:37 22.04.2020
4453 Clear 27 1011 54 10000 1.5 200 22:19 22.04.2020
4454 Clear 27 1011 54 10000 1 0 21:56 22.04.2020
4455 Clear 27 1011 54 10000 1 0 21:37 22.04.2020
4456 Clear 28 1011 48 10000 2.6 260 21:19 22.04.2020
4457 Clear 28 1011 48 10000 2.6 260 20:43 22.04.2020
4458 Clear 28 1011 48 10000 2.6 260 20:19 22.04.2020
4459 Clear 28 1011 48 10000 2.1 260 19:58 22.04.2020
4460 Clear 28 1011 48 10000 2.1 260 19:39 22.04.2020
4461 Clear 28 1011 48 10000 2.1 260 19:39 22.04.2020
4462 Clear 28 1011 48 10000 2.1 260 19:19 22.04.2020
4463 Clear 28 1010 51 10000 3.6 300 18:59 22.04.2020
4464 Clear 28 1010 51 10000 3.6 300 18:40 22.04.2020
4465 Clear 28 1010 51 10000 3.6 300 18:22 22.04.2020
4466 Clear 28 1010 48 10000 5.7 320 17:56 22.04.2020
4467 Clear 28 1010 48 10000 5.7 320 17:37 22.04.2020
4468 Clear 30 1010 45 10000 6.2 310 17:19 22.04.2020
4469 Clear 30 1010 45 10000 6.2 310 16:42 22.04.2020
4470 Clear 30 1010 45 10000 6.2 310 16:42 22.04.2020
4471 Clear 30 1010 45 10000 6.2 310 16:23 22.04.2020
4472 Clear 31 1010 35 10000 6.7 320 15:43 22.04.2020
4473 Clouds 31 1010 35 10000 6.7 320 15:25 22.04.2020
4474 Clouds 31 1010 35 10000 7.7 310 14:59 22.04.2020
4475 Clouds 31 1010 35 10000 7.7 310 14:41 22.04.2020
4476 Clear 31 1010 33 10000 7.7 320 14:20 22.04.2020
4477 Clear 31 1010 33 10000 7.7 320 13:56 22.04.2020
4478 Clear 31 1010 33 10000 7.7 320 13:38 22.04.2020
4479 Clear 31 1010 33 10000 8.7 320 13:19 22.04.2020
4480 Clear 31 1010 33 10000 8.7 320 12:42 22.04.2020
4481 Clear 31 1010 33 10000 8.7 320 12:23 22.04.2020
4482 Clear 31 1011 38 10000 7.7 310 11:57 22.04.2020
4483 Clear 31 1011 38 10000 7.7 310 11:36 22.04.2020
4484 Clear 31 1012 48 10000 5.7 290 11:18 22.04.2020
4485 Clear 31 1012 48 10000 5.7 290 10:41 22.04.2020
4486 Clear 30 1012 45 10000 6.2 300 10:21 22.04.2020
4487 Clear 30 1012 45 10000 6.2 300 09:41 22.04.2020
4488 Clouds 30 1012 45 10000 6.2 300 09:23 22.04.2020
4489 Clouds 29 1012 54 10000 4.1 270 08:59 22.04.2020
4490 Clouds 29 1012 54 10000 4.1 270 08:59 22.04.2020
4491 Clouds 29 1012 54 10000 4.1 270 08:41 22.04.2020
4492 Clouds 29 1012 54 10000 4.1 270 08:22 22.04.2020
4493 Clouds 29 1012 51 10000 4.1 300 07:53 22.04.2020
4494 Clouds 28 1012 51 10000 4.1 300 07:33 22.04.2020
4495 Clouds 28 1011 54 10000 2.1 250 06:53 22.04.2020
4496 Clouds 27 1011 54 10000 2.1 250 06:23 22.04.2020
4497 Clouds 26 1010 61 10000 1 0 05:38 22.04.2020
4498 Clouds 26 1010 61 10000 2.6 200 04:32 22.04.2020
4499 Rain 26 1009 54 10000 1.5 250 02:59 22.04.2020
4500 Clouds 27 1009 57 10000 2.1 220 01:55 22.04.2020
4501 Clouds 27 1009 57 10000 2.1 220 01:28 22.04.2020
4502 Clouds 26 1010 54 10000 0.5 0 00:59 22.04.2020
4503 Clouds 26 1010 54 10000 0.5 0 00:41 22.04.2020
4504 Clouds 26 1010 54 10000 0.5 0 00:20 22.04.2020
4505 Clouds 27 1010 57 10000 2.1 150 23:44 21.04.2020
4506 Clouds 27 1010 57 10000 2.1 150 23:20 21.04.2020
4507 Clouds 27 1011 57 10000 3.6 130 22:41 21.04.2020
4508 Clouds 27 1011 57 10000 3.6 130 22:22 21.04.2020
4509 Clouds 27 1012 48 10000 0.5 0 21:59 21.04.2020
4510 Clouds 27 1012 48 10000 0.5 0 21:41 21.04.2020
4511 Clouds 27 1012 48 10000 0.5 0 21:23 21.04.2020
4512 Clouds 27 1012 61 10000 2.6 330 20:57 21.04.2020
4513 Clouds 27 1012 61 10000 2.6 330 20:39 21.04.2020
4514 Clouds 27 1012 61 10000 6.2 310 20:21 21.04.2020
4515 Clouds 27 1012 61 10000 6.2 310 19:41 21.04.2020
4516 Clouds 28 1012 54 10000 4.6 310 19:20 21.04.2020
4517 Clouds 28 1012 54 10000 4.6 310 18:59 21.04.2020
4518 Clouds 28 1012 54 10000 4.6 310 18:59 21.04.2020
4519 Clouds 28 1012 54 10000 4.6 310 18:39 21.04.2020
4520 Clouds 28 1012 54 10000 4.6 310 18:19 21.04.2020
4521 Clouds 28 1011 58 10000 6.2 320 17:59 21.04.2020
4522 Clouds 28 1011 58 10000 6.2 320 17:38 21.04.2020
4523 Clouds 28 1011 58 10000 6.2 320 17:19 21.04.2020
4524 Clouds 29 1011 48 10000 7.7 320 16:39 21.04.2020
4525 Clouds 29 1011 48 10000 7.7 320 16:20 21.04.2020
4526 Clouds 30 1010 45 10000 7.2 320 15:59 21.04.2020
4527 Clouds 30 1010 45 10000 7.2 320 15:41 21.04.2020
4528 Clouds 30 1010 45 10000 7.2 320 15:23 21.04.2020
4529 Clouds 31 1010 38 10000 8.7 330 14:58 21.04.2020
4530 Clouds 31 1010 38 10000 8.7 330 14:40 21.04.2020
4531 Clouds 31 1010 38 10000 8.7 330 14:22 21.04.2020
4532 Clouds 31 1010 35 10000 9.3 330 13:42 21.04.2020
4533 Clouds 31 1010 35 10000 9.3 330 13:24 21.04.2020
4534 Clouds 32 1010 33 8000 10.3 320 12:58 21.04.2020
4535 Clouds 32 1010 33 8000 10.3 320 12:38 21.04.2020
4536 Clouds 32 1010 33 8000 10.3 320 12:19 21.04.2020
4537 Clouds 32 1011 40 10000 9.8 330 11:56 21.04.2020
4538 Clouds 32 1011 40 10000 9.8 330 11:37 21.04.2020
4539 Clouds 32 1011 38 10000 5.1 340 11:18 21.04.2020
4540 Clouds 32 1011 38 10000 5.1 340 10:56 21.04.2020
4541 Clouds 32 1011 38 10000 5.1 340 10:38 21.04.2020
4542 Clouds 31 1012 45 10000 4.1 320 10:20 21.04.2020
4543 Clouds 31 1012 45 10000 4.1 320 09:38 21.04.2020
4544 Clouds 31 1012 43 10000 0.5 0 09:20 21.04.2020
4545 Clouds 31 1012 43 10000 0.5 0 08:58 21.04.2020
4546 Clouds 31 1012 43 10000 0.5 0 08:58 21.04.2020
4547 Clouds 30 1012 43 10000 0.5 0 08:39 21.04.2020
4548 Clouds 30 1012 43 10000 0.5 0 08:39 21.04.2020
4549 Clouds 29 1012 54 10000 2.6 330 08:19 21.04.2020
4550 Clouds 29 1012 54 10000 2.6 330 07:45 21.04.2020
4551 Clouds 28 1012 54 10000 2.6 330 07:23 21.04.2020
4552 Clouds 28 1011 61 10000 3.1 330 06:49 21.04.2020
4553 Clouds 27 1010 61 10000 4.1 330 06:20 21.04.2020
4554 Clouds 27 1010 61 10000 4.1 330 05:49 21.04.2020
4555 Clouds 28 1009 42 10000 1 0 04:21 21.04.2020
4556 Clouds 28 1009 42 10000 1 0 03:42 21.04.2020
4557 Clouds 29 1008 40 10000 1 0 01:46 21.04.2020
4558 Clouds 29 1008 40 10000 1 0 01:18 21.04.2020
4559 Clouds 29 1009 40 10000 1.5 360 00:35 21.04.2020
4560 Clouds 29 1009 42 10000 3.1 340 23:45 20.04.2020
4561 Clouds 29 1009 42 10000 3.1 340 23:25 20.04.2020
4562 Clouds 29 1010 45 10000 0.5 0 22:58 20.04.2020
4563 Clouds 29 1010 45 10000 0.5 0 22:38 20.04.2020
4564 Clouds 29 1010 45 10000 0.5 0 22:20 20.04.2020
4565 Clouds 29 1010 42 10000 0.5 0 21:57 20.04.2020
4566 Clouds 29 1010 42 10000 0.5 0 21:38 20.04.2020
4567 Clouds 29 1010 42 10000 0.5 0 21:19 20.04.2020
4568 Clouds 30 1010 42 10000 3.1 140 20:57 20.04.2020
4569 Clouds 30 1010 42 10000 3.1 140 20:38 20.04.2020
4570 Clouds 30 1010 42 10000 3.1 140 20:18 20.04.2020
4571 Clouds 29 1010 42 10000 2.6 80 20:18 20.04.2020
4572 Clouds 29 1010 42 10000 2.6 80 20:18 20.04.2020
4573 Clouds 29 1010 42 10000 2.6 80 19:57 20.04.2020
4574 Clouds 30 1010 42 10000 2.6 80 19:38 20.04.2020
4575 Clouds 30 1010 42 10000 2.6 80 19:19 20.04.2020
4576 Clouds 30 1010 38 10000 4.1 40 18:42 20.04.2020
4577 Rain 30 1010 38 10000 4.1 40 18:22 20.04.2020
4578 Rain 30 1010 38 10000 4.6 30 17:56 20.04.2020
4579 Rain 30 1010 38 10000 4.6 30 17:37 20.04.2020
4580 Rain 30 1010 38 10000 4.6 30 17:19 20.04.2020
4581 Rain 30 1009 42 10000 5.7 30 16:58 20.04.2020
4582 Rain 30 1009 42 10000 5.7 30 16:39 20.04.2020
4583 Rain 30 1009 40 10000 6.2 20 16:18 20.04.2020
4584 Rain 30 1009 40 10000 6.2 20 15:43 20.04.2020
4585 Rain 30 1009 40 10000 6.2 20 15:23 20.04.2020
4586 Rain 31 1009 40 10000 6.7 360 14:56 20.04.2020
4587 Rain 31 1009 40 10000 6.7 360 14:38 20.04.2020
4588 Rain 31 1009 40 10000 6.7 360 14:18 20.04.2020
4589 Rain 32 1009 38 10000 5.7 360 13:41 20.04.2020
4590 Rain 32 1009 38 10000 5.7 360 13:23 20.04.2020
4591 Rain 32 1010 40 10000 5.7 350 12:58 20.04.2020
4592 Rain 32 1010 40 10000 5.7 350 12:39 20.04.2020
4593 Clouds 32 1010 46 10000 9.8 340 12:18 20.04.2020
4594 Clouds 32 1010 46 10000 9.8 340 11:40 20.04.2020
4595 Clouds 34 1010 46 10000 9.8 340 11:21 20.04.2020
4596 Rain 35 1011 32 10000 3.1 240 10:57 20.04.2020
4597 Rain 35 1011 32 10000 3.1 240 10:38 20.04.2020
4598 Rain 35 1011 32 10000 3.1 240 10:19 20.04.2020
4599 Rain 34 1011 34 10000 4.6 220 09:55 20.04.2020
4600 Rain 34 1011 34 10000 4.6 220 09:36 20.04.2020
4601 Clouds 34 1011 34 10000 4.6 220 09:18 20.04.2020
4602 Clouds 34 1011 32 10000 4.6 190 08:41 20.04.2020
4603 Clouds 34 1011 32 10000 4.6 190 08:21 20.04.2020
4604 Clouds 33 1011 32 10000 1 0 07:52 20.04.2020
4605 Clouds 32 1011 32 10000 1 0 07:29 20.04.2020
4606 Clouds 30 1010 33 10000 3.1 170 06:55 20.04.2020
4607 Clouds 30 1010 33 10000 3.1 170 06:36 20.04.2020
4608 Clouds 29 1010 37 10000 2.1 230 05:41 20.04.2020
4609 Clouds 29 1008 39 10000 4.1 120 03:49 20.04.2020
4610 Clouds 29 1008 39 10000 2.1 90 02:44 20.04.2020
4611 Clouds 29 1008 42 10000 3.1 60 01:37 20.04.2020
4612 Clouds 29 1008 42 10000 3.1 60 01:19 20.04.2020
4613 Clouds 29 1009 42 10000 3.6 20 00:35 20.04.2020
4614 Clouds 30 1010 37 10000 3.1 50 23:57 19.04.2020
4615 Clouds 30 1010 37 10000 3.1 50 23:38 19.04.2020
4616 Clouds 30 1010 37 10000 3.1 50 23:19 19.04.2020
4617 Clouds 30 1010 33 10000 3.1 10 22:40 19.04.2020
4618 Clouds 30 1010 33 10000 3.1 10 22:22 19.04.2020
4619 Clouds 30 1011 31 10000 2.6 140 21:58 19.04.2020
4620 Clouds 30 1011 31 10000 2.6 140 21:39 19.04.2020
4621 Clouds 30 1011 31 10000 2.6 140 21:39 19.04.2020
4622 Clouds 30 1011 31 10000 2.6 140 21:20 19.04.2020
4623 Clouds 30 1010 29 10000 2.1 90 20:55 19.04.2020
4624 Clouds 31 1010 29 10000 2.1 90 20:36 19.04.2020
4625 Clouds 31 1010 31 10000 4.1 50 20:18 19.04.2020
4626 Clouds 31 1010 31 10000 4.1 50 19:41 19.04.2020
4627 Clouds 31 1010 31 10000 4.1 50 19:22 19.04.2020
4628 Clouds 31 1009 33 10000 3.6 70 18:58 19.04.2020
4629 Clouds 31 1009 33 10000 3.6 70 18:40 19.04.2020
4630 Clouds 31 1009 33 10000 3.6 70 18:40 19.04.2020
4631 Clouds 31 1009 33 10000 3.6 70 18:40 19.04.2020
4632 Clouds 31 1009 33 10000 3.6 70 18:20 19.04.2020
4633 Clouds 32 1009 22 10000 4.6 30 17:58 19.04.2020
4634 Clouds 32 1009 22 10000 4.6 30 17:40 19.04.2020
4635 Clouds 32 1009 22 10000 4.6 30 17:21 19.04.2020
4636 Clouds 32 1008 27 10000 3.6 30 16:58 19.04.2020
4637 Clouds 31 1008 27 10000 3.6 30 16:38 19.04.2020
4638 Clouds 31 1008 38 10000 5.7 30 16:20 19.04.2020
4639 Clouds 31 1008 38 10000 5.7 30 15:43 19.04.2020
4640 Clouds 33 1008 38 10000 5.7 30 15:23 19.04.2020
4641 Clouds 35 1008 23 10000 5.7 340 14:56 19.04.2020
4642 Clouds 35 1008 23 10000 5.7 340 14:37 19.04.2020
4643 Clouds 35 1008 24 10000 3.1 330 14:19 19.04.2020
4644 Clouds 35 1008 24 10000 3.1 330 13:40 19.04.2020
4645 Clouds 35 1008 24 10000 3.1 330 13:21 19.04.2020
4646 Clouds 35 1009 24 10000 5.1 330 12:58 19.04.2020
4647 Clouds 35 1009 24 10000 5.1 330 12:40 19.04.2020
4648 Clouds 36 1009 23 10000 5.1 330 12:20 19.04.2020
4649 Clouds 36 1009 23 10000 5.1 330 11:37 19.04.2020
4650 Clouds 36 1009 23 10000 5.1 330 11:37 19.04.2020
4651 Clouds 36 1009 23 10000 5.1 330 11:19 19.04.2020
4652 Clouds 36 1010 14 10000 2.6 170 10:58 19.04.2020
4653 Clouds 36 1010 14 10000 2.6 170 10:39 19.04.2020
4654 Clouds 34 1011 24 10000 3.1 100 10:19 19.04.2020
4655 Clouds 33 1011 24 10000 3.1 100 09:46 19.04.2020
4656 Clouds 32 1011 24 10000 3.1 100 09:28 19.04.2020
4657 Clouds 30 1011 40 10000 2.6 110 08:59 19.04.2020
4658 Clouds 30 1011 40 10000 2.6 110 08:37 19.04.2020
4659 Clouds 29 1011 40 10000 2.6 110 08:18 19.04.2020
4660 Clouds 27 1010 51 8000 3.1 90 07:41 19.04.2020
4661 Clouds 27 1010 51 8000 3.1 90 07:23 19.04.2020
4662 Clouds 24 1010 73 7000 2.6 90 06:31 19.04.2020
4663 Clouds 24 1010 73 7000 2.1 80 05:56 19.04.2020
4664 Haze 24 1009 73 5000 2.6 90 04:48 19.04.2020
4665 Clouds 25 1008 57 10000 2.1 50 02:59 19.04.2020
4666 Clouds 25 1009 54 10000 1.5 10 02:21 19.04.2020
4667 Clouds 25 1009 54 10000 1.5 10 01:39 19.04.2020
4668 Clouds 24 1009 61 10000 1.5 100 00:50 19.04.2020
4669 Clouds 25 1009 61 10000 1.5 100 00:26 19.04.2020
4670 Clouds 25 1009 69 10000 0.5 0 23:56 18.04.2020
4671 Clouds 25 1009 69 10000 0.5 0 23:36 18.04.2020
4672 Clouds 25 1010 73 10000 2.1 90 23:18 18.04.2020
4673 Clouds 25 1010 73 10000 2.1 90 22:42 18.04.2020
4674 Clouds 25 1010 73 10000 2.1 90 22:21 18.04.2020
4675 Clouds 25 1011 78 10000 3.1 160 21:57 18.04.2020
4676 Clouds 25 1011 78 10000 3.1 160 21:38 18.04.2020
4677 Clouds 25 1011 78 10000 3.1 160 21:20 18.04.2020
4678 Clouds 25 1011 73 10000 2.6 120 20:42 18.04.2020
4679 Clouds 25 1011 73 10000 2.6 120 20:22 18.04.2020
4680 Clouds 25 1011 69 10000 2.6 100 19:59 18.04.2020
4681 Clouds 26 1011 69 10000 2.6 100 19:38 18.04.2020
4682 Clouds 26 1011 69 10000 2.6 100 19:20 18.04.2020
4683 Clouds 26 1011 69 10000 3.1 340 18:38 18.04.2020
4684 Clouds 26 1011 69 10000 3.1 340 18:38 18.04.2020
4685 Clouds 26 1011 69 10000 3.1 340 18:20 18.04.2020
4686 Clouds 26 1011 74 10000 6.2 350 17:55 18.04.2020
4687 Clouds 26 1011 74 10000 6.2 350 17:36 18.04.2020
4688 Clouds 27 1010 74 10000 7.7 340 17:18 18.04.2020
4689 Clouds 27 1010 74 10000 7.7 340 16:42 18.04.2020
4690 Clouds 28 1010 74 10000 7.7 340 16:22 18.04.2020
4691 Clouds 28 1009 61 10000 6.2 340 15:40 18.04.2020
4692 Clouds 31 1009 43 10000 4.6 20 15:22 18.04.2020
4693 Clouds 31 1009 43 10000 4.6 20 14:54 18.04.2020
4694 Clouds 31 1009 43 10000 4.6 20 14:36 18.04.2020
4695 Clouds 31 1009 43 10000 4.6 20 14:18 18.04.2020
4696 Clouds 31 1009 45 10000 4.1 330 13:42 18.04.2020
4697 Clouds 30 1010 45 10000 6.7 330 13:20 18.04.2020
4698 Clouds 30 1010 45 10000 6.7 330 12:43 18.04.2020
4699 Clouds 30 1010 45 10000 6.7 330 12:24 18.04.2020
4700 Clouds 30 1011 40 10000 5.1 350 11:57 18.04.2020
4701 Clouds 30 1011 40 10000 5.1 350 11:39 18.04.2020
4702 Clouds 30 1011 40 10000 5.1 350 11:20 18.04.2020
4703 Clouds 30 1012 45 10000 4.1 330 10:42 18.04.2020
4704 Clouds 30 1012 45 10000 4.1 330 10:22 18.04.2020
4705 Clouds 30 1012 45 10000 4.1 330 10:22 18.04.2020
4706 Clouds 29 1012 51 10000 3.6 340 09:59 18.04.2020
4707 Clouds 28 1012 51 10000 3.6 340 09:39 18.04.2020
4708 Clouds 28 1012 51 10000 3.6 340 09:20 18.04.2020
4709 Clouds 27 1013 51 10000 1.5 0 08:42 18.04.2020
4710 Clouds 26 1013 51 10000 1.5 0 08:21 18.04.2020
4711 Clouds 25 1012 65 10000 1 0 07:47 18.04.2020
4712 Clouds 25 1012 65 10000 1 0 07:28 18.04.2020
4713 Clouds 22 1012 73 10000 2.1 140 06:39 18.04.2020
4714 Clouds 22 1011 83 6000 2.1 140 05:49 18.04.2020
4715 Haze 22 1010 88 4500 2.6 120 04:54 18.04.2020
4716 Haze 22 1010 88 4500 2.6 120 04:30 18.04.2020
4717 Clouds 23 1010 83 6000 3.1 110 03:33 18.04.2020
4718 Clouds 23 1010 83 8000 2.1 130 02:40 18.04.2020
4719 Clouds 23 1010 83 8000 2.1 130 02:21 18.04.2020
4720 Clouds 24 1010 78 10000 1 0 01:43 18.04.2020
4721 Clouds 24 1010 78 10000 1 0 01:22 18.04.2020
4722 Clouds 24 1011 78 10000 1.5 330 00:24 18.04.2020
4723 Clouds 24 1011 78 10000 2.1 330 23:58 17.04.2020
4724 Clouds 24 1011 78 10000 2.1 330 23:40 17.04.2020
4725 Clouds 24 1011 78 10000 2.1 10 23:19 17.04.2020
4726 Clouds 24 1011 78 10000 2.1 10 22:58 17.04.2020
4727 Clouds 24 1011 78 10000 2.1 10 22:40 17.04.2020
4728 Clouds 24 1011 78 10000 2.1 10 22:20 17.04.2020
4729 Clouds 24 1011 78 10000 3.6 320 21:57 17.04.2020
4730 Clouds 24 1011 78 10000 3.6 320 21:38 17.04.2020
4731 Clouds 24 1011 78 10000 3.6 320 21:18 17.04.2020
4732 Clear 24 1012 78 10000 4.6 320 20:55 17.04.2020
4733 Clear 24 1012 78 10000 4.6 320 20:36 17.04.2020
4734 Clear 25 1012 78 10000 4.6 320 20:36 17.04.2020
4735 Clear 25 1011 73 10000 4.6 310 20:18 17.04.2020
4736 Clear 25 1011 73 10000 4.6 310 19:42 17.04.2020
4737 Clear 25 1011 73 10000 4.6 330 19:23 17.04.2020
4738 Clear 25 1011 73 10000 4.6 330 18:47 17.04.2020
4739 Clear 25 1010 73 10000 5.1 320 18:24 17.04.2020
4740 Clear 25 1010 73 10000 5.1 320 17:58 17.04.2020
4741 Clear 25 1010 73 10000 5.1 320 17:37 17.04.2020
4742 Clear 26 1010 69 10000 5.7 330 17:18 17.04.2020
4743 Clear 26 1010 69 10000 5.7 330 16:44 17.04.2020
4744 Clear 26 1010 69 10000 5.7 330 16:23 17.04.2020
4745 Clear 27 1009 61 10000 6.2 320 15:55 17.04.2020
4746 Clear 27 1009 61 10000 6.2 320 15:37 17.04.2020
4747 Clear 27 1009 58 10000 6.2 340 15:18 17.04.2020
4748 Clear 28 1009 58 10000 6.2 340 14:40 17.04.2020
4749 Clear 28 1009 58 10000 6.2 340 14:22 17.04.2020
4750 Clear 28 1009 54 10000 5.1 340 13:56 17.04.2020
4751 Clear 28 1009 54 10000 5.1 340 13:37 17.04.2020
4752 Clear 28 1009 54 10000 5.1 340 13:18 17.04.2020
4753 Clouds 28 1010 51 10000 5.7 330 12:45 17.04.2020
4754 Clouds 28 1010 51 10000 5.7 330 12:24 17.04.2020
4755 Clouds 28 1010 57 10000 5.7 350 11:42 17.04.2020
4756 Clouds 28 1011 54 10000 3.6 320 11:20 17.04.2020
4757 Clouds 28 1011 54 10000 3.6 320 10:56 17.04.2020
4758 Clouds 28 1011 54 10000 3.6 320 10:38 17.04.2020
4759 Clouds 27 1012 57 10000 2.1 300 10:19 17.04.2020
4760 Clouds 27 1012 57 10000 2.1 300 09:41 17.04.2020
4761 Clouds 26 1012 57 10000 2.1 300 09:22 17.04.2020
4762 Clouds 26 1012 65 10000 2.6 10 08:58 17.04.2020
4763 Clouds 26 1012 65 10000 2.6 10 08:39 17.04.2020
4764 Clouds 25 1012 65 10000 2.6 10 08:19 17.04.2020
4765 Clouds 25 1012 69 10000 1.5 30 07:44 17.04.2020
4766 Clouds 24 1012 73 10000 2.1 330 07:23 17.04.2020
4767 Clouds 24 1012 73 10000 2.1 330 06:46 17.04.2020
4768 Clouds 23 1012 73 10000 2.1 330 06:23 17.04.2020
4769 Clouds 22 1012 78 10000 1.5 360 05:26 17.04.2020
4770 Clouds 22 1010 78 10000 2.6 320 03:19 17.04.2020
4771 Clouds 23 1010 78 10000 2.6 320 02:19 17.04.2020
4772 Clouds 22 1010 78 10000 2.1 340 01:29 17.04.2020
4773 Clouds 22 1010 78 10000 3.1 340 00:51 17.04.2020
4774 Clouds 23 1010 78 10000 3.1 340 00:19 17.04.2020
4775 Clouds 23 1011 73 10000 3.6 330 23:42 16.04.2020
4776 Clouds 23 1011 73 10000 3.6 330 23:42 16.04.2020
4777 Clouds 23 1011 73 10000 3.6 330 23:22 16.04.2020
4778 Clouds 24 1011 73 10000 3.6 340 22:56 16.04.2020
4779 Clouds 24 1011 73 10000 3.6 340 22:37 16.04.2020
4780 Clouds 24 1011 73 10000 3.6 340 22:19 16.04.2020
4781 Clouds 24 1011 73 10000 3.1 360 21:42 16.04.2020
4782 Clear 24 1011 73 10000 3.1 360 21:20 16.04.2020
4783 Clear 24 1011 73 10000 4.6 330 20:59 16.04.2020
4784 Clear 24 1011 73 10000 4.6 330 20:39 16.04.2020
4785 Clear 24 1011 73 10000 4.6 330 20:19 16.04.2020
4786 Clear 25 1011 73 10000 4.1 330 19:55 16.04.2020
4787 Clear 25 1011 73 10000 4.1 330 19:36 16.04.2020
4788 Clear 25 1010 73 10000 4.6 340 19:18 16.04.2020
4789 Clear 25 1010 73 10000 4.6 340 18:42 16.04.2020
4790 Clear 25 1010 73 10000 4.6 340 18:23 16.04.2020
4791 Clear 26 1009 69 10000 4.1 330 17:57 16.04.2020
4792 Clear 26 1009 69 10000 4.1 330 17:38 16.04.2020
4793 Clear 26 1009 69 10000 4.1 330 17:18 16.04.2020
4794 Clear 27 1009 57 10000 4.6 340 16:42 16.04.2020
4795 Clear 28 1009 57 10000 4.6 340 16:23 16.04.2020
4796 Clouds 29 1009 54 10000 3.1 300 15:45 16.04.2020
4797 Clouds 29 1009 54 10000 3.1 300 15:20 16.04.2020
4798 Clouds 29 1009 54 10000 2.6 280 14:59 16.04.2020
4799 Clouds 29 1009 54 10000 2.6 280 14:40 16.04.2020
4800 Clouds 29 1009 54 10000 2.6 280 14:21 16.04.2020
4801 Clouds 29 1009 54 10000 2.6 280 14:21 16.04.2020
4802 Clouds 29 1009 54 10000 3.1 30 13:57 16.04.2020
4803 Clouds 28 1009 54 10000 3.1 30 13:38 16.04.2020
4804 Clouds 28 1009 54 10000 3.1 30 13:20 16.04.2020
4805 Clouds 28 1010 58 10000 4.6 10 12:57 16.04.2020
4806 Clouds 28 1010 58 10000 4.6 10 12:38 16.04.2020
4807 Clouds 28 1010 58 10000 4.6 10 12:19 16.04.2020
4808 Clouds 28 1011 58 10000 5.1 350 11:55 16.04.2020
4809 Clouds 28 1011 58 10000 5.1 350 11:37 16.04.2020
4810 Clouds 28 1011 58 10000 5.1 350 11:18 16.04.2020
4811 Clouds 28 1011 54 10000 4.1 330 10:40 16.04.2020
4812 Clouds 27 1011 54 10000 4.1 330 10:19 16.04.2020
4813 Clouds 27 1012 61 10000 1 0 09:59 16.04.2020
4814 Clouds 27 1012 61 10000 1 0 09:38 16.04.2020
4815 Rain 26 1012 61 10000 1 0 09:19 16.04.2020
4816 Clouds 25 1011 78 10000 2.6 120 08:43 16.04.2020
4817 Clouds 25 1011 78 10000 2.6 120 08:23 16.04.2020
4818 Rain 24 1011 78 10000 3.1 60 07:46 16.04.2020
4819 Rain 24 1011 78 10000 3.1 60 07:28 16.04.2020
4820 Rain 24 1011 78 10000 1.5 90 06:57 16.04.2020
4821 Rain 24 1011 78 10000 1.5 90 06:39 16.04.2020
4822 Rain 23 1011 78 10000 1.5 90 06:21 16.04.2020
4823 Rain 22 1010 88 10000 3.1 60 04:44 16.04.2020
4824 Rain 22 1010 83 10000 2.6 20 03:25 16.04.2020
4825 Rain 23 1009 83 10000 2.6 0 02:55 16.04.2020
4826 Rain 23 1009 83 10000 2.6 0 02:33 16.04.2020
4827 Rain 23 1010 83 10000 1 0 01:21 16.04.2020
4828 Rain 22 1010 88 10000 1.5 0 00:39 16.04.2020
4829 Rain 22 1010 88 10000 1.5 0 00:18 16.04.2020
4830 Rain 22 1010 88 10000 2.1 90 23:43 15.04.2020
4831 Rain 22 1010 88 10000 2.1 90 23:22 15.04.2020
4832 Clouds 21 1011 83 10000 4.1 100 22:58 15.04.2020
4833 Clouds 21 1012 88 10000 4.1 70 22:37 15.04.2020
4834 Clouds 21 1012 88 10000 4.1 70 22:19 15.04.2020
4835 Clouds 21 1012 88 10000 4.1 70 21:41 15.04.2020
4836 Clouds 21 1012 88 10000 4.1 70 21:23 15.04.2020
4837 Clouds 22 1012 88 10000 5.1 60 20:59 15.04.2020
4838 Clouds 22 1012 88 10000 5.1 60 20:59 15.04.2020
4839 Clouds 22 1012 88 10000 5.1 60 20:41 15.04.2020
4840 Clouds 22 1012 88 10000 5.1 60 20:22 15.04.2020
4841 Rain 22 1012 88 10000 6.2 40 19:57 15.04.2020
4842 Rain 22 1012 88 10000 6.2 40 19:39 15.04.2020
4843 Clouds 22 1014 88 10000 5.1 50 19:18 15.04.2020
4844 Clouds 22 1014 88 10000 5.1 50 18:40 15.04.2020
4845 Rain 22 1013 88 10000 6.7 60 18:22 15.04.2020
4846 Rain 22 1013 88 10000 6.7 60 17:56 15.04.2020
4847 Rain 22 1013 88 10000 6.7 60 17:38 15.04.2020
4848 Rain 22 1013 88 10000 6.7 60 17:20 15.04.2020
4849 Rain 22 1014 83 10000 5.1 30 16:55 15.04.2020
4850 Rain 22 1014 83 10000 5.1 30 16:36 15.04.2020
4851 Rain 22 1014 83 10000 5.1 30 16:18 15.04.2020
4852 Rain 22 1013 83 10000 6.7 30 15:55 15.04.2020
4853 Rain 22 1013 83 10000 6.7 30 15:37 15.04.2020
4854 Rain 22 1013 83 10000 6.7 30 15:18 15.04.2020
4855 Rain 23 1013 83 10000 4.6 20 14:54 15.04.2020
4856 Rain 23 1013 83 10000 4.6 20 14:36 15.04.2020
4857 Rain 23 1013 83 10000 4.6 20 14:18 15.04.2020
4858 Rain 23 1013 83 10000 7.7 50 13:40 15.04.2020
4859 Rain 23 1013 83 10000 7.7 50 13:40 15.04.2020
4860 Rain 23 1013 83 10000 7.7 50 13:21 15.04.2020
4861 Rain 24 1015 78 10000 5.7 20 12:59 15.04.2020
4862 Rain 24 1015 78 10000 5.7 20 12:41 15.04.2020
4863 Rain 24 1015 78 10000 5.7 20 12:22 15.04.2020
4864 Clouds 25 1016 73 10000 6.2 10 11:58 15.04.2020
4865 Clouds 25 1016 73 10000 6.2 10 11:38 15.04.2020
4866 Clouds 25 1016 73 10000 6.2 10 11:20 15.04.2020
4867 Rain 25 1016 88 10000 10.3 330 10:38 15.04.2020
4868 Rain 25 1016 88 10000 10.3 330 10:20 15.04.2020
4869 Rain 27 1015 78 10000 7.2 350 09:57 15.04.2020
4870 Clouds 28 1013 54 10000 2.6 40 09:38 15.04.2020
4871 Clouds 29 1013 54 10000 2.6 40 09:20 15.04.2020
4872 Clouds 29 1013 48 10000 2.6 50 08:55 15.04.2020
4873 Clouds 29 1013 48 10000 2.6 50 08:36 15.04.2020
4874 Clouds 28 1013 48 10000 2.6 50 08:18 15.04.2020
4875 Clouds 28 1013 48 10000 2.1 10 07:46 15.04.2020
4876 Clouds 27 1013 48 10000 2.1 10 07:27 15.04.2020
4877 Clouds 26 1012 51 10000 1.5 70 06:29 15.04.2020
4878 Clouds 25 1011 65 10000 2.1 80 05:49 15.04.2020
4879 Clouds 25 1010 65 10000 2.1 80 04:48 15.04.2020
4880 Clouds 25 1010 65 10000 2.1 80 04:22 15.04.2020
4881 Clouds 25 1010 61 10000 3.6 70 03:22 15.04.2020
4882 Clouds 25 1010 54 10000 3.1 90 02:49 15.04.2020
4883 Clouds 26 1010 45 10000 3.1 10 01:52 15.04.2020
4884 Clouds 26 1010 45 10000 3.1 10 01:25 15.04.2020
4885 Clouds 26 1011 45 10000 1.5 90 00:49 15.04.2020
4886 Clear 26 1011 45 10000 1.5 90 00:27 15.04.2020
4887 Clear 27 1012 48 10000 1.5 90 23:56 14.04.2020
4888 Clear 27 1012 48 10000 1.5 90 23:38 14.04.2020
4889 Clear 26 1012 48 10000 1.5 90 23:20 14.04.2020
4890 Clear 27 1012 48 10000 1.5 80 22:56 14.04.2020
4891 Clear 27 1012 48 10000 1.5 80 22:38 14.04.2020
4892 Clear 26 1012 48 10000 1.5 80 22:20 14.04.2020
4893 Clear 27 1012 48 10000 2.1 80 21:56 14.04.2020
4894 Clear 27 1012 48 10000 2.1 80 21:38 14.04.2020
4895 Clear 27 1012 48 10000 2.1 80 21:19 14.04.2020
4896 Clear 27 1012 48 10000 2.1 50 20:57 14.04.2020
4897 Clear 27 1012 48 10000 2.1 50 20:38 14.04.2020
4898 Clear 27 1012 48 10000 2.1 50 20:38 14.04.2020
4899 Clear 27 1012 48 10000 2.1 50 20:19 14.04.2020
4900 Clear 27 1012 54 10000 3.1 50 19:41 14.04.2020
4901 Clear 27 1012 54 10000 3.1 50 19:41 14.04.2020
4902 Clear 27 1012 54 10000 3.1 50 19:22 14.04.2020
4903 Clear 27 1011 54 10000 3.6 40 18:58 14.04.2020
4904 Clear 27 1011 54 10000 3.6 40 18:39 14.04.2020
4905 Clear 27 1011 54 10000 3.6 40 18:21 14.04.2020
4906 Clear 28 1011 51 10000 4.1 20 17:58 14.04.2020
4907 Clear 28 1011 51 10000 4.1 20 17:38 14.04.2020
4908 Clear 28 1011 51 10000 4.1 20 17:19 14.04.2020
4909 Clear 28 1011 51 10000 4.1 20 17:19 14.04.2020
4910 Clear 29 1010 45 10000 4.6 10 16:55 14.04.2020
4911 Clear 29 1010 45 10000 4.6 10 16:37 14.04.2020
4912 Clear 29 1010 45 10000 4.6 10 16:19 14.04.2020
4913 Clear 30 1010 48 10000 6.2 340 15:42 14.04.2020
4914 Clear 30 1010 48 10000 6.2 340 15:23 14.04.2020
4915 Clear 31 1010 43 10000 6.2 340 14:59 14.04.2020
4916 Clear 31 1010 43 10000 6.2 340 14:41 14.04.2020
4917 Clear 30 1010 43 10000 6.2 340 14:22 14.04.2020
4918 Clear 30 1010 51 10000 8.2 330 13:57 14.04.2020
4919 Clear 30 1010 51 10000 8.2 330 13:39 14.04.2020
4920 Clear 30 1010 51 10000 8.2 330 13:21 14.04.2020
4921 Clear 31 1010 40 10000 6.2 20 12:42 14.04.2020
4922 Clear 31 1010 40 10000 6.2 20 12:21 14.04.2020
4923 Clear 31 1011 40 10000 5.7 360 11:56 14.04.2020
4924 Clear 31 1011 40 10000 5.7 360 11:37 14.04.2020
4925 Clear 31 1011 40 10000 5.7 360 11:19 14.04.2020
4926 Clear 31 1012 38 10000 4.1 10 10:45 14.04.2020
4927 Clear 31 1012 38 10000 4.1 10 10:26 14.04.2020
4928 Clear 31 1012 45 10000 3.6 10 09:55 14.04.2020
4929 Clear 30 1012 45 10000 3.6 10 09:37 14.04.2020
4930 Clouds 30 1012 45 10000 3.6 10 09:19 14.04.2020
4931 Clouds 30 1012 61 10000 6.7 330 08:41 14.04.2020
4932 Clouds 26 1012 62 0 4.7 27 08:22 14.04.2020
4933 Clouds 31 1012 61 10000 6.7 330 08:22 14.04.2020
4934 Clouds 26 1012 62 0 4.7 27 07:54 14.04.2020
4935 Clouds 30 1012 45 10000 4.7 27 07:30 14.04.2020
4936 Clouds 27 1012 51 10000 1.5 150 06:50 14.04.2020
4937 Clouds 26 1012 51 10000 1.5 150 06:24 14.04.2020
4938 Clouds 24 1011 71 0 5.44 33 04:43 14.04.2020
4939 Rain 25 1010 50 10000 1.5 160 02:56 14.04.2020
4940 Rain 25 1011 50 10000 3.1 30 01:49 14.04.2020
4941 Rain 25 1011 50 10000 3.1 30 01:24 14.04.2020
4942 Rain 25 1010 50 10000 7.7 70 00:39 14.04.2020
4943 Clouds 25 1010 50 10000 7.7 70 00:19 14.04.2020
4944 Clouds 26 1011 57 10000 8.2 40 23:44 13.04.2020
4945 Clouds 26 1011 57 10000 8.2 40 23:26 13.04.2020
4946 Clouds 27 1012 51 10000 7.2 30 22:58 13.04.2020
4947 Clouds 27 1012 51 10000 7.2 30 22:40 13.04.2020
4948 Clouds 27 1012 51 10000 7.2 30 22:22 13.04.2020
4949 Clouds 27 1013 54 10000 8.2 30 21:55 13.04.2020
4950 Clouds 27 1013 54 10000 8.2 30 21:37 13.04.2020
4951 Clouds 27 1013 54 10000 8.2 30 21:19 13.04.2020
4952 Clouds 27 1012 54 10000 8.2 50 20:41 13.04.2020
4953 Clouds 27 1012 54 10000 8.2 50 20:21 13.04.2020
4954 Clouds 28 1012 48 10000 7.7 30 20:00 13.04.2020
4955 Clouds 28 1012 48 10000 7.7 30 20:00 13.04.2020
4956 Clouds 28 1012 48 10000 7.7 30 19:38 13.04.2020
4957 Clouds 28 1012 48 10000 7.7 30 19:19 13.04.2020
4958 Clouds 28 1011 48 10000 7.2 50 18:59 13.04.2020
4959 Clouds 28 1011 48 10000 7.2 50 18:39 13.04.2020
4960 Clouds 28 1011 48 10000 7.2 50 18:20 13.04.2020
4961 Clouds 28 1011 54 8000 7.7 50 17:58 13.04.2020
4962 Clouds 28 1011 54 8000 7.7 50 17:38 13.04.2020
4963 Clouds 28 1011 54 8000 7.7 50 17:19 13.04.2020
4964 Dust 29 1010 48 5000 7.2 50 16:58 13.04.2020
4965 Dust 29 1010 48 5000 7.2 50 16:40 13.04.2020
4966 Dust 29 1010 48 5000 7.2 50 16:20 13.04.2020
4967 Dust 29 1010 51 5000 7.7 50 15:57 13.04.2020
4968 Clouds 29 1010 62 6000 7.7 40 15:39 13.04.2020
4969 Clouds 29 1010 62 6000 7.7 40 15:20 13.04.2020
4970 Clouds 30 1010 45 10000 6.7 10 14:54 13.04.2020
4971 Clouds 30 1010 45 10000 6.7 10 14:36 13.04.2020
4972 Clouds 31 1010 45 10000 6.7 10 14:18 13.04.2020
4973 Clouds 32 1010 46 10000 7.7 340 13:54 13.04.2020
4974 Clouds 32 1010 46 10000 7.7 340 13:36 13.04.2020
4975 Clouds 33 1010 46 10000 7.7 340 13:18 13.04.2020
4976 Clouds 34 1009 41 10000 7.7 320 12:55 13.04.2020
4977 Clouds 34 1009 30 10000 4.1 250 12:37 13.04.2020
4978 Clouds 34 1009 30 10000 4.1 250 12:18 13.04.2020
4979 Clouds 33 1010 34 10000 4.6 190 11:41 13.04.2020
4980 Clouds 33 1010 34 10000 4.6 190 11:18 13.04.2020
4981 Clouds 33 1010 34 10000 4.6 190 11:18 13.04.2020
4982 Clouds 32 1011 38 10000 5.1 210 10:55 13.04.2020
4983 Clouds 32 1011 38 10000 5.1 210 10:37 13.04.2020
4984 Clouds 32 1011 38 10000 5.1 210 10:18 13.04.2020
4985 Clouds 32 1011 38 10000 5.7 200 09:44 13.04.2020
4986 Clouds 32 1011 38 10000 5.7 200 09:26 13.04.2020
4987 Clouds 32 1011 38 8000 6.7 200 08:49 13.04.2020
4988 Clouds 32 1011 38 8000 6.7 200 08:30 13.04.2020
4989 Clouds 31 1010 40 10000 4.6 190 07:58 13.04.2020
4990 Clouds 31 1010 40 10000 4.6 190 07:38 13.04.2020
4991 Clouds 31 1010 40 10000 4.6 190 07:20 13.04.2020
4992 Clouds 30 1009 40 10000 3.1 190 06:47 13.04.2020
4993 Clouds 29 1009 30 10000 2.1 170 05:56 13.04.2020
4994 Clouds 29 1009 30 10000 2.1 170 05:28 13.04.2020
4995 Clouds 29 1008 35 10000 1.5 150 04:52 13.04.2020
4996 Clouds 29 1008 35 10000 1.5 150 04:22 13.04.2020
4997 Clouds 29 1007 54 10000 2.1 130 03:45 13.04.2020
4998 Clouds 28 1007 66 10000 3.1 130 02:50 13.04.2020
4999 Clouds 28 1008 66 10000 2.6 110 01:54 13.04.2020
5000 Clouds 28 1008 66 10000 2.6 110 01:35 13.04.2020
5001 Clouds 28 1008 66 10000 3.6 100 00:56 13.04.2020
5002 Clouds 28 1008 66 10000 3.6 100 00:38 13.04.2020
5003 Clouds 28 1008 66 10000 3.6 100 00:18 13.04.2020
5004 Clouds 29 1008 55 10000 3.1 90 23:43 12.04.2020
5005 Clouds 29 1008 55 10000 3.1 90 23:22 12.04.2020
5006 Clouds 29 1009 45 10000 3.1 90 22:57 12.04.2020
5007 Clouds 29 1009 45 10000 3.1 90 22:37 12.04.2020
5008 Clouds 29 1009 45 10000 3.1 90 22:19 12.04.2020
5009 Clouds 30 1010 42 10000 2.1 70 21:40 12.04.2020
5010 Clouds 30 1010 42 10000 2.1 70 21:20 12.04.2020
5011 Clouds 30 1010 38 10000 4.1 50 20:56 12.04.2020
5012 Clouds 30 1010 38 10000 4.1 50 20:38 12.04.2020
5013 Clouds 30 1010 38 10000 4.1 50 20:19 12.04.2020
5014 Clouds 30 1010 45 10000 5.1 30 19:42 12.04.2020
5015 Clouds 30 1010 40 10000 4.1 50 19:20 12.04.2020
5016 Clouds 30 1010 40 10000 4.1 50 18:59 12.04.2020
5017 Clouds 30 1010 40 10000 4.1 50 18:40 12.04.2020
5018 Clouds 31 1009 43 10000 5.1 30 18:20 12.04.2020
5019 Clouds 31 1009 43 10000 5.1 30 17:56 12.04.2020
5020 Clouds 31 1009 43 10000 5.1 30 17:38 12.04.2020
5021 Clouds 32 1008 46 10000 7.2 40 17:18 12.04.2020
5022 Clouds 32 1008 46 10000 7.2 40 16:56 12.04.2020
5023 Clouds 32 1008 46 10000 7.2 40 16:36 12.04.2020
5024 Clouds 34 1008 46 10000 7.2 40 16:18 12.04.2020
5025 Clouds 34 1008 25 10000 5.1 360 15:41 12.04.2020
5026 Clouds 34 1008 25 10000 2.1 220 15:21 12.04.2020
5027 Clouds 37 1008 23 10000 1.5 240 14:40 12.04.2020
5028 Clouds 37 1008 23 10000 1.5 240 14:22 12.04.2020
5029 Clouds 37 1009 20 10000 3.1 260 13:58 12.04.2020
5030 Clouds 36 1009 20 10000 3.1 260 13:40 12.04.2020
5031 Clouds 36 1009 20 10000 3.1 260 13:21 12.04.2020
5032 Clouds 36 1010 23 10000 3.6 250 12:47 12.04.2020
5033 Clouds 36 1010 23 10000 3.6 250 12:22 12.04.2020
5034 Clouds 36 1011 23 10000 4.6 240 11:59 12.04.2020
5035 Clouds 36 1011 23 10000 4.6 240 11:38 12.04.2020
5036 Clouds 36 1011 23 10000 4.6 240 11:19 12.04.2020
5037 Clouds 35 1011 26 10000 4.6 200 10:56 12.04.2020
5038 Clouds 35 1011 26 10000 4.6 200 10:56 12.04.2020
5039 Clouds 35 1011 26 10000 4.6 200 10:38 12.04.2020
5040 Clouds 35 1011 26 10000 4.6 200 10:20 12.04.2020
5041 Clouds 35 1012 26 10000 5.1 180 09:58 12.04.2020
5042 Clouds 35 1012 26 10000 5.1 180 09:37 12.04.2020
5043 Clouds 35 1012 26 10000 5.1 180 09:19 12.04.2020
5044 Clouds 35 1012 24 10000 4.6 190 08:50 12.04.2020
5045 Clouds 35 1012 24 10000 4.6 190 08:30 12.04.2020
5046 Clouds 32 1012 27 10000 5.7 190 07:47 12.04.2020
5047 Clouds 32 1012 27 10000 5.7 190 07:19 12.04.2020
5048 Clouds 31 1011 27 10000 2.1 150 06:54 12.04.2020
5049 Clouds 31 1011 27 10000 2.1 150 06:28 12.04.2020
5050 Clouds 30 1010 27 10000 2.6 190 05:48 12.04.2020
5051 Clouds 30 1009 28 10000 2.1 170 04:32 12.04.2020
5052 Clouds 28 1009 33 10000 3.1 160 03:29 12.04.2020
5053 Clouds 28 1009 42 10000 2.1 130 02:48 12.04.2020
5054 Clouds 28 1009 42 10000 2.1 130 02:29 12.04.2020
5055 Clouds 28 1008 42 10000 3.6 140 01:23 12.04.2020
5056 Clouds 29 1009 40 10000 2.1 100 00:43 12.04.2020
5057 Clouds 29 1009 40 10000 2.1 100 00:21 12.04.2020
5058 Clouds 29 1010 37 10000 2.1 80 23:47 11.04.2020
5059 Clouds 29 1010 37 10000 2.1 80 23:26 11.04.2020
5060 Clouds 29 1010 33 10000 2.6 90 22:59 11.04.2020
5061 Clouds 29 1010 33 10000 2.6 90 22:37 11.04.2020
5062 Clouds 30 1010 33 10000 2.6 90 22:18 11.04.2020
5063 Clouds 30 1010 33 10000 3.1 70 21:55 11.04.2020
5064 Clouds 30 1010 33 10000 3.1 70 21:36 11.04.2020
5065 Clouds 30 1010 33 10000 3.1 70 21:18 11.04.2020
5066 Clouds 31 1010 35 10000 3.1 70 20:55 11.04.2020
5067 Clouds 31 1010 35 10000 3.1 70 20:37 11.04.2020
5068 Clouds 31 1010 35 10000 3.1 70 20:19 11.04.2020
5069 Clouds 31 1010 35 10000 3.1 70 20:19 11.04.2020
5070 Clouds 31 1010 38 10000 4.1 30 19:56 11.04.2020
5071 Clouds 32 1010 38 10000 4.1 30 19:37 11.04.2020
5072 Clouds 32 1010 38 10000 4.1 30 19:18 11.04.2020
5073 Clouds 32 1010 38 10000 4.1 30 19:18 11.04.2020
5074 Clouds 32 1009 33 10000 4.6 30 18:55 11.04.2020
5075 Clouds 32 1009 33 10000 4.6 30 18:36 11.04.2020
5076 Clouds 33 1009 33 10000 4.6 30 18:18 11.04.2020
5077 Clouds 35 1009 24 10000 3.6 30 17:56 11.04.2020
5078 Clouds 35 1009 24 10000 3.6 30 17:37 11.04.2020
5079 Clouds 35 1009 24 10000 3.6 30 17:18 11.04.2020
5080 Clouds 36 1008 26 10000 4.6 80 16:42 11.04.2020
5081 Clouds 36 1008 26 10000 4.6 80 16:21 11.04.2020
5082 Clouds 36 1008 26 10000 5.7 30 15:41 11.04.2020
5083 Clouds 36 1008 26 10000 5.7 30 15:21 11.04.2020
5084 Clouds 36 1008 30 10000 5.1 340 14:58 11.04.2020
5085 Clouds 36 1008 30 10000 5.1 340 14:39 11.04.2020
5086 Clouds 36 1008 30 10000 5.1 340 14:20 11.04.2020
5087 Clouds 38 1008 17 10000 3.1 200 13:42 11.04.2020
5088 Clouds 39 1008 17 10000 3.1 200 13:24 11.04.2020
5089 Clouds 39 1009 15 10000 5.1 200 12:59 11.04.2020
5090 Clouds 39 1009 15 10000 5.1 200 12:37 11.04.2020
5091 Clouds 39 1009 15 10000 5.1 200 12:18 11.04.2020
5092 Clouds 39 1009 16 10000 5.7 210 11:42 11.04.2020
5093 Clouds 39 1009 16 10000 5.7 210 11:20 11.04.2020
5094 Clouds 39 1010 17 10000 6.2 190 10:56 11.04.2020
5095 Clouds 38 1010 17 10000 6.2 190 10:37 11.04.2020
5096 Clouds 38 1010 17 10000 6.2 190 10:19 11.04.2020
5097 Clouds 37 1011 19 10000 5.7 190 09:57 11.04.2020
5098 Clouds 37 1011 19 10000 5.7 190 09:37 11.04.2020
5099 Clouds 37 1011 19 10000 5.7 190 09:37 11.04.2020
5100 Clouds 37 1011 19 10000 5.7 190 09:18 11.04.2020
5101 Clouds 36 1011 22 10000 5.1 200 08:42 11.04.2020
5102 Clouds 36 1011 22 10000 5.1 200 08:23 11.04.2020
5103 Clouds 34 1011 23 10000 5.1 180 07:48 11.04.2020
5104 Clouds 34 1011 23 10000 5.1 180 07:27 11.04.2020
5105 Clouds 32 1010 26 10000 4.6 170 06:42 11.04.2020
5106 Clouds 31 1010 27 10000 2.6 180 05:59 11.04.2020
5107 Clouds 30 1009 23 10000 3.6 180 04:33 11.04.2020
5108 Clouds 31 1009 22 10000 3.1 170 03:30 11.04.2020
5109 Clouds 30 1008 31 10000 3.1 150 01:48 11.04.2020
5110 Clouds 30 1008 31 10000 3.1 150 01:19 11.04.2020
5111 Clouds 30 1008 29 10000 2.6 120 00:42 11.04.2020
5112 Clouds 30 1008 29 10000 2.6 120 00:19 11.04.2020
5113 Clouds 29 1008 25 10000 2.1 100 23:55 10.04.2020
5114 Clouds 30 1008 25 10000 2.1 100 23:36 10.04.2020
5115 Clouds 30 1008 25 10000 2.1 100 23:18 10.04.2020
5116 Clouds 31 1008 24 10000 2.6 100 22:43 10.04.2020
5117 Clouds 31 1008 24 10000 2.6 100 22:21 10.04.2020
5118 Clouds 32 1009 21 10000 4.1 110 21:58 10.04.2020
5119 Clouds 32 1009 21 10000 4.1 110 21:39 10.04.2020
5120 Clouds 32 1009 21 10000 4.1 110 21:18 10.04.2020
5121 Clouds 33 1009 18 0 3.58 90 20:41 10.04.2020
5122 Clouds 32 1009 20 10000 2.6 90 20:23 10.04.2020
5123 Clouds 32 1009 20 10000 2.6 90 19:57 10.04.2020
5124 Clouds 33 1009 20 10000 2.6 90 19:39 10.04.2020
5125 Clouds 34 1008 19 10000 2.6 70 19:20 10.04.2020
5126 Clouds 34 1008 19 10000 2.6 70 18:57 10.04.2020
5127 Clouds 34 1008 19 10000 2.6 70 18:38 10.04.2020
5128 Clouds 34 1008 19 10000 2.6 70 18:20 10.04.2020
5129 Clouds 34 1008 23 10000 4.6 80 17:58 10.04.2020
5130 Clouds 34 1008 23 10000 4.6 80 17:39 10.04.2020
5131 Clouds 34 1008 23 10000 4.6 80 17:20 10.04.2020
5132 Clouds 35 1007 21 10000 4.6 50 16:55 10.04.2020
5133 Clouds 35 1007 21 10000 4.6 50 16:36 10.04.2020
5134 Clouds 35 1007 21 10000 4.6 50 16:18 10.04.2020
5135 Clouds 36 1007 18 10000 4.1 340 15:54 10.04.2020
5136 Clouds 36 1007 18 10000 4.1 340 15:36 10.04.2020
5137 Clouds 36 1007 18 10000 4.1 340 15:18 10.04.2020
5138 Clouds 36 1007 24 10000 5.1 330 14:54 10.04.2020
5139 Clouds 36 1007 24 10000 5.1 330 14:36 10.04.2020
5140 Clouds 36 1007 24 10000 5.1 330 14:18 10.04.2020
5141 Clouds 37 1008 25 10000 6.2 330 13:42 10.04.2020
5142 Clouds 38 1008 25 10000 6.2 330 13:21 10.04.2020
5143 Clouds 38 1008 18 10000 8.2 320 12:43 10.04.2020
5144 Clear 38 1008 18 10000 8.2 320 12:23 10.04.2020
5145 Clear 40 1009 11 10000 5.1 220 11:56 10.04.2020
5146 Clear 40 1009 11 10000 5.1 220 11:38 10.04.2020
5147 Clear 39 1009 11 10000 5.1 220 11:20 10.04.2020
5148 Clear 39 1009 12 8000 6.7 230 10:44 10.04.2020
5149 Clear 39 1009 12 8000 6.7 230 10:23 10.04.2020
5150 Dust 38 1009 13 5000 7.2 230 09:57 10.04.2020
5151 Dust 38 1009 16 4000 6.7 220 09:38 10.04.2020
5152 Dust 37 1009 16 4000 6.7 220 09:18 10.04.2020
5153 Dust 37 1010 16 5000 7.2 190 08:42 10.04.2020
5154 Dust 36 1010 16 5000 7.2 190 08:23 10.04.2020
5155 Clear 35 1010 19 10000 4.1 170 07:45 10.04.2020
5156 Clear 33 1010 19 10000 4.1 170 07:24 10.04.2020
5157 Clear 31 1009 31 10000 3.1 190 06:49 10.04.2020
5158 Clear 30 1009 31 10000 3.1 190 06:28 10.04.2020
5159 Clear 28 1009 32 10000 3.6 120 05:42 10.04.2020
5160 Clear 28 1008 32 10000 1.5 110 04:58 10.04.2020
5161 Clear 27 1008 32 10000 1.5 60 03:50 10.04.2020
5162 Clear 28 1008 32 10000 1.5 60 03:31 10.04.2020
5163 Clear 28 1008 30 10000 2.1 90 02:49 10.04.2020
5164 Clear 28 1008 30 10000 2.1 90 02:30 10.04.2020
5165 Clear 28 1008 30 10000 1 80 01:30 10.04.2020
5166 Clear 29 1008 30 10000 2.1 100 00:50 10.04.2020
5167 Clear 29 1008 30 10000 2.1 100 00:24 10.04.2020
5168 Clear 29 1009 27 10000 3.1 70 23:56 09.04.2020
5169 Clear 29 1009 27 10000 3.1 70 23:37 09.04.2020
5170 Clear 29 1009 27 10000 3.1 70 23:19 09.04.2020
5171 Clear 29 1010 31 10000 2.6 50 22:41 09.04.2020
5172 Clear 30 1010 31 10000 2.6 50 22:23 09.04.2020
5173 Clear 31 1010 26 10000 1.5 70 21:54 09.04.2020
5174 Clear 31 1010 26 10000 1.5 70 21:36 09.04.2020
5175 Clear 31 1010 26 10000 1.5 70 21:18 09.04.2020
5176 Clear 32 1009 23 10000 1 40 20:41 09.04.2020
5177 Clear 32 1009 23 10000 1 40 20:20 09.04.2020
5178 Clear 32 1009 24 10000 2.6 120 19:57 09.04.2020
5179 Clear 32 1009 24 10000 2.6 120 19:36 09.04.2020
5180 Clear 32 1009 24 10000 2.6 120 19:18 09.04.2020
5181 Clear 33 1009 21 10000 2.1 80 18:41 09.04.2020
5182 Clear 32 1009 21 10000 2.1 80 18:18 09.04.2020
5183 Clear 34 1008 26 10000 4.1 40 17:41 09.04.2020
5184 Clear 34 1008 26 10000 4.1 40 17:22 09.04.2020
5185 Clear 35 1008 20 10000 3.1 20 16:56 09.04.2020
5186 Clear 35 1008 20 10000 3.1 20 16:38 09.04.2020
5187 Clear 35 1008 20 10000 3.1 20 16:18 09.04.2020
5188 Clear 35 1009 23 10000 5.7 20 15:54 09.04.2020
5189 Clear 35 1009 23 10000 5.7 20 15:36 09.04.2020
5190 Clear 35 1009 23 10000 5.7 20 15:36 09.04.2020
5191 Clear 36 1009 23 10000 5.7 20 15:18 09.04.2020
5192 Clear 36 1009 23 10000 5.7 20 15:18 09.04.2020
5193 Clear 36 1009 18 10000 6.2 10 14:39 09.04.2020
5194 Clear 36 1009 18 10000 6.2 10 14:20 09.04.2020
5195 Clear 37 1009 22 10000 5.7 360 13:43 09.04.2020
5196 Clear 37 1009 22 10000 5.7 360 13:25 09.04.2020
5197 Clear 38 1009 19 10000 5.7 320 12:59 09.04.2020
5198 Clear 38 1009 22 10000 3.6 20 12:41 09.04.2020
5199 Clear 38 1009 22 10000 3.6 20 12:21 09.04.2020
5200 Clear 38 1010 24 10000 3.1 10 11:57 09.04.2020
5201 Clear 38 1010 24 10000 3.1 10 11:38 09.04.2020
5202 Clear 38 1010 24 10000 3.1 10 11:19 09.04.2020
5203 Clear 37 1010 25 8000 3.6 330 10:55 09.04.2020
5204 Clear 37 1010 25 8000 3.6 330 10:37 09.04.2020
5205 Clear 37 1010 25 8000 3.6 330 10:37 09.04.2020
5206 Clear 37 1010 25 8000 3.6 330 10:18 09.04.2020
5207 Clear 36 1011 26 10000 2.6 300 09:40 09.04.2020
5208 Clear 36 1011 26 10000 2.6 300 09:21 09.04.2020
5209 Clear 35 1011 23 10000 1 0 08:58 09.04.2020
5210 Clear 35 1011 23 10000 1 0 08:39 09.04.2020
5211 Clear 35 1011 23 10000 1 0 08:21 09.04.2020
5212 Clear 31 1010 26 10000 2.1 120 07:46 09.04.2020
5213 Clear 31 1010 26 10000 2.1 120 07:21 09.04.2020
5214 Clear 29 1010 32 10000 1 160 06:42 09.04.2020
5215 Clear 26 1009 42 10000 1.5 100 05:49 09.04.2020
5216 Clear 25 1009 42 10000 1.5 100 05:25 09.04.2020
5217 Clear 25 1008 47 10000 2.1 90 02:36 09.04.2020
5218 Clear 26 1009 47 10000 1.5 90 01:46 09.04.2020
5219 Clear 26 1009 47 10000 1.5 90 01:27 09.04.2020
5220 Clear 26 1009 42 10000 1.5 80 00:55 09.04.2020
5221 Clear 27 1009 42 10000 1.5 80 00:37 09.04.2020
5222 Clear 27 1009 42 10000 1.5 80 00:18 09.04.2020
5223 Clear 27 1010 45 10000 2.1 70 23:42 08.04.2020
5224 Clear 27 1010 45 10000 2.1 70 23:23 08.04.2020
5225 Clear 28 1010 45 10000 1 50 22:54 08.04.2020
5226 Clear 28 1010 45 10000 1 50 22:36 08.04.2020
5227 Clear 28 1010 40 10000 1 350 22:18 08.04.2020
5228 Clear 28 1010 40 10000 1 350 21:54 08.04.2020
5229 Clear 28 1010 40 10000 1 350 21:36 08.04.2020
5230 Clear 29 1010 40 10000 1 350 21:18 08.04.2020
5231 Clear 29 1011 33 10000 1 40 20:40 08.04.2020
5232 Clear 29 1010 33 10000 1 0 20:21 08.04.2020
5233 Clear 29 1010 33 10000 1 0 19:59 08.04.2020
5234 Clear 29 1010 33 10000 1 0 19:40 08.04.2020
5235 Clear 29 1010 33 10000 1 0 19:21 08.04.2020
5236 Clear 30 1010 42 10000 1 0 18:45 08.04.2020
5237 Clear 30 1010 42 10000 1 0 18:27 08.04.2020
5238 Clear 31 1010 35 10000 3.1 340 17:57 08.04.2020
5239 Clear 31 1010 35 10000 3.1 340 17:38 08.04.2020
5240 Clear 31 1010 35 10000 3.1 340 17:19 08.04.2020
5241 Clear 33 1009 23 10000 3.1 320 16:43 08.04.2020
5242 Clear 33 1009 18 10000 4.1 320 16:24 08.04.2020
5243 Clear 33 1009 18 10000 4.1 320 15:59 08.04.2020
5244 Clear 34 1010 28 10000 6.2 330 15:38 08.04.2020
5245 Clear 34 1010 28 10000 6.2 330 15:20 08.04.2020
5246 Clear 34 1010 28 10000 6.2 330 14:45 08.04.2020
5247 Clear 35 1010 28 10000 6.2 330 14:25 08.04.2020
5248 Clear 35 1009 19 10000 3.6 350 13:57 08.04.2020
5249 Clear 35 1009 19 10000 3.6 350 13:39 08.04.2020
5250 Clear 35 1009 19 10000 3.6 350 13:20 08.04.2020
5251 Clear 35 1010 30 10000 2.6 300 12:42 08.04.2020
5252 Clear 35 1010 30 10000 2.6 300 12:19 08.04.2020
5253 Clear 35 1011 16 10000 1.5 20 11:58 08.04.2020
5254 Clear 35 1011 16 10000 1.5 20 11:40 08.04.2020
5255 Clear 35 1011 16 10000 1.5 20 11:21 08.04.2020
5256 Clear 34 1011 21 10000 1 0 10:56 08.04.2020
5257 Clear 34 1011 21 10000 1 0 10:56 08.04.2020
5258 Clear 33 1011 21 10000 1 0 10:37 08.04.2020
5259 Clear 33 1011 21 10000 1 0 10:19 08.04.2020
5260 Clear 32 1012 31 10000 1.5 180 09:55 08.04.2020
5261 Clear 31 1012 31 10000 1.5 180 09:36 08.04.2020
5262 Clear 30 1012 31 10000 1.5 180 09:18 08.04.2020
5263 Clear 28 1012 54 10000 1 0 08:42 08.04.2020
5264 Clear 28 1012 54 10000 1 0 08:23 08.04.2020
5265 Clear 25 1012 74 7000 1.5 0 07:44 08.04.2020
5266 Clear 25 1012 74 7000 1.5 0 07:25 08.04.2020
5267 Haze 24 1011 88 5000 1.5 210 06:56 08.04.2020
5268 Haze 23 1011 88 5000 1.5 160 05:56 08.04.2020
5269 Clouds 23 1010 78 8000 1.5 170 03:49 08.04.2020
5270 Clouds 24 1010 78 10000 1.5 260 02:49 08.04.2020
5271 Clouds 24 1010 78 10000 1.5 260 02:19 08.04.2020
5272 Clouds 24 1009 73 10000 3.1 300 01:43 08.04.2020
5273 Clouds 24 1009 73 10000 3.1 300 01:22 08.04.2020
5274 Clouds 24 1009 69 10000 1.5 280 00:41 08.04.2020
5275 Clouds 24 1009 69 10000 1.5 280 00:21 08.04.2020
5276 Clouds 24 1009 69 10000 1.5 120 23:39 07.04.2020
5277 Clouds 24 1009 69 10000 1.5 120 23:20 07.04.2020
5278 Clouds 24 1010 69 10000 3.6 140 22:57 07.04.2020
5279 Clouds 24 1010 69 10000 3.6 140 22:39 07.04.2020
5280 Clouds 24 1010 69 10000 3.6 140 22:19 07.04.2020
5281 Clouds 25 1010 65 10000 3.1 110 21:56 07.04.2020
5282 Clouds 25 1010 65 10000 3.1 110 21:38 07.04.2020
5283 Clouds 25 1010 65 10000 3.1 110 21:19 07.04.2020
5284 Clouds 26 1010 57 10000 1.5 90 20:55 07.04.2020
5285 Clouds 26 1010 57 10000 1.5 90 20:37 07.04.2020
5286 Clouds 25 1010 57 10000 1.5 90 20:19 07.04.2020
5287 Clouds 25 1010 69 10000 1.5 240 19:56 07.04.2020
5288 Clouds 25 1010 69 10000 1.5 240 19:36 07.04.2020
5289 Clouds 26 1010 69 10000 2.1 340 19:18 07.04.2020
5290 Clouds 26 1010 69 10000 2.1 340 18:54 07.04.2020
5291 Clouds 26 1010 69 10000 2.1 340 18:36 07.04.2020
5292 Clear 27 1010 69 10000 2.1 340 18:18 07.04.2020
5293 Clear 27 1010 54 10000 4.1 310 17:41 07.04.2020
5294 Clear 27 1010 54 10000 4.1 310 17:20 07.04.2020
5295 Clear 28 1010 61 10000 5.1 310 16:45 07.04.2020
5296 Clear 28 1010 61 10000 5.1 310 16:27 07.04.2020
5297 Clear 30 1009 51 10000 5.1 310 15:55 07.04.2020
5298 Clear 30 1009 51 10000 5.1 310 15:36 07.04.2020
5299 Clouds 31 1009 33 10000 5.1 320 15:18 07.04.2020
5300 Clouds 31 1009 33 10000 5.1 320 14:39 07.04.2020
5301 Clear 31 1009 33 10000 5.1 320 14:21 07.04.2020
5302 Clear 31 1010 33 10000 4.1 320 13:54 07.04.2020
5303 Clear 31 1010 33 10000 4.1 320 13:36 07.04.2020
5304 Clear 32 1010 33 10000 4.1 320 13:18 07.04.2020
5305 Clear 32 1011 27 10000 4.1 330 12:40 07.04.2020
5306 Clear 31 1011 27 10000 4.1 330 12:22 07.04.2020
5307 Clear 31 1012 31 10000 3.1 290 11:59 07.04.2020
5308 Clear 31 1012 31 10000 3.1 290 11:41 07.04.2020
5309 Clear 31 1012 31 10000 3.1 290 11:21 07.04.2020
5310 Clear 30 1013 48 10000 3.6 300 10:56 07.04.2020
5311 Clear 29 1013 48 10000 3.6 300 10:37 07.04.2020
5312 Clear 29 1013 48 10000 3.6 300 10:18 07.04.2020
5313 Clear 28 1013 45 10000 1.5 200 09:44 07.04.2020
5314 Clear 28 1013 45 10000 1.5 200 09:18 07.04.2020
5315 Clear 26 1013 54 10000 1.5 150 08:42 07.04.2020
5316 Clear 25 1013 54 10000 1.5 150 08:24 07.04.2020
5317 Clear 24 1014 64 10000 1.5 240 07:58 07.04.2020
5318 Clear 24 1014 64 10000 1.5 240 07:40 07.04.2020
5319 Clear 23 1014 64 10000 1.5 240 07:21 07.04.2020
5320 Clear 21 1013 68 10000 1.5 170 06:48 07.04.2020
5321 Clear 22 1013 68 10000 1.5 170 06:20 07.04.2020
5322 Clear 21 1013 68 10000 1.5 160 05:32 07.04.2020
5323 Clear 20 1012 72 10000 2.1 180 04:35 07.04.2020
5324 Clear 21 1012 73 10000 2.1 220 03:24 07.04.2020
5325 Clear 21 1011 68 10000 3.1 130 02:48 07.04.2020
5326 Clear 22 1012 68 10000 2.1 190 01:48 07.04.2020
5327 Clear 22 1012 68 10000 2.1 190 01:23 07.04.2020
5328 Clear 22 1012 64 10000 2.6 200 00:27 07.04.2020
5329 Clear 23 1012 64 10000 2.1 200 23:44 06.04.2020
5330 Clear 23 1012 64 10000 2.1 200 23:23 06.04.2020
5331 Clear 24 1012 64 10000 2.6 220 22:58 06.04.2020
5332 Clear 24 1012 64 10000 2.6 220 22:38 06.04.2020
5333 Clear 24 1012 64 10000 2.6 220 22:20 06.04.2020
5334 Clear 24 1013 61 10000 3.1 250 21:57 06.04.2020
5335 Clear 25 1013 61 10000 3.1 250 21:38 06.04.2020
5336 Clouds 25 1013 61 10000 3.1 250 21:18 06.04.2020
5337 Clouds 25 1013 61 10000 2.6 240 20:54 06.04.2020
5338 Clouds 25 1013 61 10000 2.6 240 20:36 06.04.2020
5339 Clouds 25 1013 61 10000 2.6 240 20:18 06.04.2020
5340 Clouds 25 1013 61 10000 2.6 240 20:18 06.04.2020
5341 Clouds 25 1013 61 10000 3.1 270 19:40 06.04.2020
5342 Clouds 25 1013 61 10000 3.1 270 19:22 06.04.2020
5343 Clouds 26 1013 57 10000 3.1 260 18:57 06.04.2020
5344 Clouds 26 1013 57 10000 3.1 260 18:39 06.04.2020
5345 Clouds 26 1012 54 10000 3.1 270 18:20 06.04.2020
5346 Clouds 26 1012 54 10000 3.1 270 17:42 06.04.2020
5347 Clouds 26 1012 54 10000 3.1 270 17:20 06.04.2020
5348 Clouds 26 1012 54 10000 3.1 270 17:20 06.04.2020
5349 Clouds 26 1012 54 10000 3.1 270 17:20 06.04.2020
5350 Clouds 27 1012 51 10000 3.1 270 16:50 06.04.2020
5351 Clouds 27 1012 51 10000 3.1 270 16:31 06.04.2020
5352 Clouds 28 1012 45 10000 4.1 260 15:41 06.04.2020
5353 Clouds 29 1012 42 10000 5.7 300 13:46 06.04.2020
5354 Clouds 29 1012 42 10000 5.7 300 13:24 06.04.2020
5355 Clouds 29 1013 42 10000 5.7 290 13:02 06.04.2020
5356 Clouds 29 1013 42 10000 5.7 290 13:02 06.04.2020
5357 Clouds 29 1013 42 10000 5.7 290 13:00 06.04.2020
5358 -273 0 0 0 0 0 13:00 06.04.2020
5359 -273 0 0 0 0 0 13:00 06.04.2020
5360 Clouds 29 1013 42 10000 5.7 290 12:22 06.04.2020
5361 Clouds 29 1013 42 10000 5.7 290 12:22 06.04.2020
5362 Clouds 29 1014 58 10000 5.1 280 11:54 06.04.2020
5363 Clouds 29 1014 58 10000 5.1 280 11:54 06.04.2020
5364 Clouds 29 1014 58 10000 5.1 280 11:32 06.04.2020
5365 Clouds 29 1014 58 10000 5.1 280 11:32 06.04.2020
5366 Clouds 29 1014 58 10000 5.1 280 11:32 06.04.2020
5367 Clouds 29 1014 58 10000 5.1 280 11:32 06.04.2020
5368 Clouds 29 1014 58 10000 5.1 280 11:32 06.04.2020
5369 Clouds 29 1014 54 10000 5.7 290 10:51 06.04.2020
5370 Clouds 29 1014 54 10000 5.7 290 10:51 06.04.2020
5371 Clouds 29 1014 54 10000 5.7 290 10:51 06.04.2020
5372 Clouds 29 1014 54 10000 5.7 290 10:51 06.04.2020
5373 Clouds 29 1014 54 10000 5.7 290 10:51 06.04.2020
5374 Clouds 29 1014 54 10000 5.7 290 10:21 06.04.2020
5375 Clouds 30 1015 35 10000 4.6 290 09:47 06.04.2020
5376 Clouds 30 1015 35 10000 4.6 290 09:47 06.04.2020
5377 Clouds 30 1015 35 10000 4.6 290 09:47 06.04.2020
5378 Clouds 30 1015 35 10000 4.6 290 09:47 06.04.2020
5379 Clouds 30 1015 35 10000 4.6 290 09:47 06.04.2020
5380 Clouds 29 1015 35 10000 4.6 290 09:21 06.04.2020
5381 Clouds 29 1015 35 10000 4.6 290 09:21 06.04.2020
5382 Clouds 28 1015 57 10000 3.6 200 08:54 06.04.2020
5383 Clouds 27 1015 57 10000 3.6 200 08:30 06.04.2020
5384 Clouds 26 1014 61 10000 4.6 220 07:37 06.04.2020
5385 Clouds 26 1014 61 10000 4.6 220 07:37 06.04.2020
5386 Clouds 24 1013 73 10000 3.6 220 06:42 06.04.2020
5387 Clouds 23 1013 73 10000 3.6 220 06:23 06.04.2020
5388 Clouds 23 1012 78 10000 2.6 200 04:19 06.04.2020
5389 Clear 23 1011 78 10000 2.6 200 02:58 06.04.2020
5390 Clear 23 1011 78 10000 2.6 200 02:25 06.04.2020
5391 Clear 24 1012 73 10000 2.6 210 01:26 06.04.2020
5392 Clear 25 1012 69 10000 3.1 200 00:41 06.04.2020
5393 Clear 25 1012 69 10000 3.1 200 00:22 06.04.2020
5394 Clear 25 1012 57 10000 2.6 190 23:43 05.04.2020
5395 Clear 25 1012 57 10000 2.6 190 23:25 05.04.2020
5396 Clear 25 1012 57 10000 2.6 190 23:24 05.04.2020
5397 Clear 25 1012 57 10000 2.6 190 23:24 05.04.2020
5398 Clear 26 1013 61 10000 2.1 230 22:55 05.04.2020
5399 Clear 26 1013 61 10000 2.1 230 22:37 05.04.2020
5400 Clear 26 1013 61 10000 2.1 230 22:18 05.04.2020
5401 Clear 27 1014 51 10000 2.6 230 21:45 05.04.2020
5402 Clear 27 1014 51 10000 2.6 230 21:44 05.04.2020
5403 Clear 27 1014 51 10000 2.6 230 21:23 05.04.2020
5404 Clear 28 1014 51 10000 2.6 220 20:26 05.04.2020
5405 Clear 28 1013 51 10000 3.1 230 19:45 05.04.2020
5406 Clear 28 1013 51 10000 3.1 230 19:26 05.04.2020
5407 Clear 29 1013 48 10000 2.6 240 18:50 05.04.2020
5408 Clear 29 1013 48 10000 2.6 240 18:29 05.04.2020
5409 Clear 29 1013 48 10000 2.6 240 18:29 05.04.2020
5410 Clear 29 1013 48 10000 2.6 240 18:29 05.04.2020
5411 Clear 29 1013 48 10000 2.6 240 18:29 05.04.2020
5412 Clear 29 1013 48 10000 2.6 240 18:28 05.04.2020
5413 Clear 29 1013 45 10000 3.1 270 17:51 05.04.2020
5414 Clear 29 1013 45 10000 3.1 270 17:51 05.04.2020
5415 Clear 29 1013 45 10000 3.1 270 17:51 05.04.2020
5416 Clear 29 1013 45 10000 3.1 270 17:50 05.04.2020
5417 Clear 29 1013 45 10000 3.1 270 17:50 05.04.2020
5418 Clear 30 1013 45 10000 3.1 270 17:23 05.04.2020
5419 Clear 31 1012 38 10000 3.6 280 16:47 05.04.2020
5420 Clear 32 1012 38 10000 3.6 280 16:19 05.04.2020
5421 Clear 33 1012 21 10000 3.6 280 15:46 05.04.2020
5422 Clear 33 1012 21 10000 3.6 280 15:46 05.04.2020
5423 Clear 33 1012 21 10000 3.6 280 15:28 05.04.2020
5424 Clouds 33 1013 22 10000 5.1 300 14:48 05.04.2020
5425 Clouds 33 1013 22 10000 5.1 300 14:48 05.04.2020
5426 Clouds 33 1013 22 10000 5.1 300 14:48 05.04.2020
5427 Clouds 33 1013 22 10000 5.1 300 14:48 05.04.2020
5428 Clouds 33 1013 22 10000 5.1 300 14:23 05.04.2020
5429 Clouds 33 1013 22 10000 5.1 300 14:23 05.04.2020
5430 Clouds 33 1013 22 10000 5.1 300 14:23 05.04.2020
5431 Clouds 33 1013 22 10000 5.1 300 14:23 05.04.2020
5432 Clouds 33 1013 22 10000 5.1 300 14:23 05.04.2020
5433 Clouds 33 1013 19 10000 6.7 290 13:40 05.04.2020
5434 Clouds 34 1014 20 10000 6.2 300 12:40 05.04.2020
5435 Clouds 34 1014 20 10000 6.2 300 12:36 05.04.2020
5436 Clouds 34 1014 20 10000 6.2 300 12:27 05.04.2020
5437 Clouds 34 1014 20 10000 6.2 300 12:27 05.04.2020
5438 Clouds 34 1014 20 10000 6.2 300 12:25 05.04.2020
5439 Clouds 34 1014 20 10000 3.6 270 11:40 05.04.2020
5440 Clouds 34 1014 20 10000 3.6 270 11:20 05.04.2020
5441 Clouds 34 1014 20 10000 4.1 290 10:48 05.04.2020
5442 Clouds 34 1014 20 10000 4.1 290 10:23 05.04.2020
5443 Clouds 34 1014 20 10000 4.1 290 10:23 05.04.2020
5444 Clouds 34 1014 20 10000 4.1 290 10:23 05.04.2020
5445 Clouds 34 1014 20 10000 4.1 290 10:23 05.04.2020
5446 Clouds 32 1014 27 10000 4.1 300 09:55 05.04.2020
5447 Clouds 32 1014 27 10000 4.1 300 09:27 05.04.2020
5448 Clouds 30 1015 42 10000 3.1 320 08:34 05.04.2020
5449 Clouds 28 1015 54 10000 4.1 310 07:21 05.04.2020
5450 Clouds 26 1012 61 10000 2.6 320 04:32 05.04.2020
5451 Clouds 27 1012 39 10000 1.5 300 03:29 05.04.2020
5452 Clouds 27 1012 39 10000 1.5 300 03:29 05.04.2020
5453 Clouds 27 1011 39 10000 1 0 02:46 05.04.2020
5454 Clouds 27 1011 39 10000 1.5 210 01:45 05.04.2020
5455 Clouds 28 1011 39 10000 1.5 210 01:23 05.04.2020
5456 Clouds 28 1012 37 10000 1 0 00:42 05.04.2020
5457 Clouds 28 1012 37 10000 1 0 00:21 05.04.2020
5458 Clouds 28 1012 37 10000 1.5 210 23:42 04.04.2020
5459 Clouds 28 1012 37 10000 1.5 210 23:22 04.04.2020
5460 Clouds 29 1013 33 10000 1.5 180 22:57 04.04.2020
5461 Clouds 29 1013 33 10000 1.5 180 22:39 04.04.2020
5462 Clouds 29 1013 33 10000 1.5 180 22:20 04.04.2020
5463 Clouds 29 1013 33 10000 2.6 140 21:57 04.04.2020
5464 Clouds 29 1013 33 10000 2.6 140 21:57 04.04.2020
5465 Clouds 29 1013 33 10000 2.6 140 21:39 04.04.2020
5466 Clouds 29 1013 33 10000 2.6 140 21:19 04.04.2020
5467 Clouds 29 1013 33 10000 2.6 120 20:56 04.04.2020
5468 Clouds 29 1013 33 10000 2.6 120 20:37 04.04.2020
5469 Clouds 29 1013 33 10000 2.6 120 20:19 04.04.2020
5470 Clouds 29 1013 31 10000 3.1 70 19:55 04.04.2020
5471 Clouds 29 1013 31 10000 3.1 70 19:36 04.04.2020
5472 Clouds 29 1013 31 10000 3.1 70 19:18 04.04.2020
5473 Clouds 30 1013 33 10000 2.6 70 18:54 04.04.2020
5474 Clouds 30 1013 33 10000 2.6 70 18:36 04.04.2020
5475 Clouds 30 1013 33 10000 2.6 70 18:18 04.04.2020
5476 Clouds 31 1012 29 10000 3.6 330 17:39 04.04.2020
5477 Clouds 31 1012 29 10000 3.6 330 17:20 04.04.2020
5478 Clouds 32 1011 31 10000 6.2 330 16:46 04.04.2020
5479 Clouds 32 1011 31 10000 6.2 330 16:28 04.04.2020
5480 Clouds 33 1011 33 10000 7.2 330 15:59 04.04.2020
5481 Clouds 33 1011 33 10000 7.2 330 15:39 04.04.2020
5482 Clouds 33 1011 33 10000 7.2 330 15:20 04.04.2020
5483 Clouds 33 1011 33 10000 7.2 330 15:20 04.04.2020
5484 Clear 33 1011 36 10000 6.7 330 14:56 04.04.2020
5485 Clear 33 1011 36 10000 6.7 330 14:38 04.04.2020
5486 Clear 33 1011 36 10000 6.7 330 14:20 04.04.2020
5487 Clear 34 1011 38 10000 6.7 340 13:54 04.04.2020
5488 Clear 34 1011 38 10000 6.7 340 13:36 04.04.2020
5489 Clear 35 1011 38 10000 6.7 340 13:18 04.04.2020
5490 Clear 37 1011 28 10000 5.7 330 12:42 04.04.2020
5491 Clear 37 1011 28 10000 5.7 330 12:23 04.04.2020
5492 Clouds 37 1012 25 10000 4.1 290 11:54 04.04.2020
5493 Clouds 37 1012 25 10000 4.1 290 11:36 04.04.2020
5494 Clouds 37 1012 25 10000 4.1 290 11:18 04.04.2020
5495 Clear 35 1013 28 8000 5.1 320 10:55 04.04.2020
5496 Clear 35 1013 28 8000 5.1 320 10:37 04.04.2020
5497 Clear 35 1013 28 8000 5.1 320 10:18 04.04.2020
5498 Clear 35 1013 28 8000 5.1 310 09:42 04.04.2020
5499 Clear 35 1013 26 8000 3.6 220 09:24 04.04.2020
5500 Clear 33 1014 29 10000 2.1 260 08:56 04.04.2020
5501 Clear 33 1014 29 10000 2.1 260 08:37 04.04.2020
5502 Clear 32 1014 29 10000 2.1 260 08:19 04.04.2020
5503 Clear 30 1013 29 10000 2.6 140 07:40 04.04.2020
5504 Clear 29 1013 29 10000 2.6 140 07:22 04.04.2020
5505 Clear 29 1013 29 10000 2.6 140 07:22 04.04.2020
5506 Clear 27 1013 32 10000 2.1 160 06:40 04.04.2020
5507 Clear 25 1012 41 10000 0.5 0 05:54 04.04.2020
5508 Clear 25 1012 41 10000 0.5 0 05:33 04.04.2020
5509 Clear 24 1011 41 10000 1 100 04:40 04.04.2020
5510 Clear 24 1011 41 10000 1 100 04:20 04.04.2020
5511 Clear 25 1011 39 10000 1 80 03:45 04.04.2020
5512 Clear 25 1010 36 10000 1.5 110 02:49 04.04.2020
5513 Clear 25 1010 36 10000 1.5 110 02:30 04.04.2020
5514 Clear 26 1010 36 10000 1.5 110 01:48 04.04.2020
5515 Clear 26 1010 36 10000 1.5 110 01:21 04.04.2020
5516 Clear 25 1011 36 10000 1.5 90 00:45 04.04.2020
5517 Clear 26 1011 36 10000 1.5 90 00:26 04.04.2020
5518 Clear 26 1011 32 10000 2.1 100 23:39 03.04.2020
5519 Clear 27 1011 32 10000 2.1 100 23:20 03.04.2020
5520 Clear 27 1011 32 10000 2.1 50 22:55 03.04.2020
5521 Clear 27 1011 32 10000 2.1 50 22:36 03.04.2020
5522 Clear 27 1011 32 10000 2.1 50 22:18 03.04.2020
5523 Clear 28 1012 28 10000 1.5 50 21:42 03.04.2020
5524 Clear 28 1012 28 10000 1.5 50 21:22 03.04.2020
5525 Clear 29 1012 28 10000 1 0 20:56 03.04.2020
5526 Clear 29 1012 28 10000 1 0 20:36 03.04.2020
5527 Clear 29 1012 28 10000 1 0 20:18 03.04.2020
5528 Clear 29 1012 27 10000 2.6 90 19:56 03.04.2020
5529 Clear 29 1012 27 10000 2.6 90 19:37 03.04.2020
5530 Clear 29 1012 27 10000 2.6 90 19:19 03.04.2020
5531 Clear 29 1011 25 10000 3.1 70 18:58 03.04.2020
5532 Clear 29 1011 25 10000 3.1 70 18:40 03.04.2020
5533 Clear 30 1011 25 10000 3.1 70 18:21 03.04.2020
5534 Clear 30 1011 27 10000 4.1 30 17:42 03.04.2020
5535 Clear 30 1011 27 10000 4.1 30 17:20 03.04.2020
5536 Clear 31 1010 21 10000 4.1 30 16:57 03.04.2020
5537 Clear 31 1010 21 10000 4.1 30 16:38 03.04.2020
5538 Clear 31 1010 21 10000 4.1 30 16:20 03.04.2020
5539 Clear 32 1010 22 10000 4.6 20 15:56 03.04.2020
5540 Clear 32 1010 22 10000 4.6 20 15:37 03.04.2020
5541 Clear 33 1009 24 10000 5.7 20 15:19 03.04.2020
5542 Clear 29 1010 39 0 5.36 343 14:41 03.04.2020
5543 Clear 34 1010 29 10000 4.6 360 14:22 03.04.2020
5544 Clear 34 1010 29 10000 4.6 360 13:57 03.04.2020
5545 Clear 34 1010 29 10000 4.6 360 13:37 03.04.2020
5546 Clear 33 1010 29 10000 4.6 360 13:18 03.04.2020
5547 Clear 33 1010 40 10000 5.7 360 12:43 03.04.2020
5548 Clear 34 1010 40 10000 5.7 360 12:20 03.04.2020
5549 Clear 36 1011 28 10000 5.7 320 11:56 03.04.2020
5550 Clear 35 1011 28 10000 5.7 320 11:37 03.04.2020
5551 Clear 35 1011 28 10000 5.7 320 11:18 03.04.2020
5552 Clear 35 1011 20 10000 1.5 150 10:57 03.04.2020
5553 Clear 35 1011 20 10000 1.5 150 10:38 03.04.2020
5554 Clear 35 1011 20 10000 1.5 150 10:20 03.04.2020
5555 Clear 34 1011 26 10000 3.6 120 09:57 03.04.2020
5556 Clear 34 1011 26 10000 3.6 120 09:39 03.04.2020
5557 Clear 32 1011 26 10000 3.6 120 09:21 03.04.2020
5558 Clear 30 1012 40 10000 3.6 120 08:55 03.04.2020
5559 Clear 30 1012 40 10000 3.6 120 08:36 03.04.2020
5560 Clear 29 1012 40 10000 3.6 120 08:18 03.04.2020
5561 Clear 27 1012 54 10000 3.6 110 07:41 03.04.2020
5562 Clear 26 1012 54 10000 3.6 110 07:23 03.04.2020
5563 Clear 23 1012 83 9000 2.1 80 06:38 03.04.2020
5564 Clear 24 1012 83 9000 2.1 80 06:20 03.04.2020
5565 Clear 23 1011 78 7000 2.6 70 05:34 03.04.2020
5566 Clear 23 1010 78 10000 1 0 03:40 03.04.2020
5567 Clear 23 1010 78 10000 2.1 110 02:53 03.04.2020
5568 Clear 23 1010 73 10000 1.5 40 01:36 03.04.2020
5569 Clear 24 1010 73 10000 1.5 40 01:18 03.04.2020
5570 Clear 24 1010 65 10000 2.1 50 00:34 03.04.2020
5571 Clear 24 1011 69 10000 1.5 50 23:57 02.04.2020
5572 Clear 24 1011 69 10000 1.5 50 23:39 02.04.2020
5573 Clear 24 1011 69 10000 1.5 50 23:19 02.04.2020
5574 Clear 24 1011 69 10000 1.5 80 22:43 02.04.2020
5575 Clear 24 1011 69 10000 1.5 80 22:25 02.04.2020
5576 Clear 24 1011 69 10000 1.5 80 21:59 02.04.2020
5577 Clear 25 1011 69 10000 1.5 80 21:38 02.04.2020
5578 Clear 25 1011 69 10000 1.5 80 21:19 02.04.2020
5579 Clear 25 1012 65 10000 1.5 90 20:55 02.04.2020
5580 Clear 25 1012 65 10000 1.5 90 20:37 02.04.2020
5581 Clear 25 1012 65 10000 1.5 90 20:19 02.04.2020
5582 Clear 25 1011 61 10000 3.1 30 19:42 02.04.2020
5583 Clear 25 1011 61 10000 3.1 30 19:20 02.04.2020
5584 Clear 25 1011 61 10000 3.1 30 19:20 02.04.2020
5585 Clear 25 1011 61 10000 3.1 30 19:20 02.04.2020
5586 Clear 26 1011 69 10000 2.1 360 18:57 02.04.2020
5587 Clear 26 1011 69 10000 2.1 360 18:39 02.04.2020
5588 Clear 26 1011 69 10000 2.1 360 18:20 02.04.2020
5589 Clear 26 1010 69 10000 5.1 330 17:55 02.04.2020
5590 Clear 26 1010 69 10000 5.1 330 17:37 02.04.2020
5591 Clear 26 1010 69 10000 5.1 330 17:18 02.04.2020
5592 Clear 27 1010 48 10000 4.6 350 16:55 02.04.2020
5593 Clear 28 1010 48 10000 4.6 350 16:36 02.04.2020
5594 Clear 28 1010 48 10000 4.6 350 16:36 02.04.2020
5595 Clear 28 1010 48 10000 4.6 350 16:18 02.04.2020
5596 Clear 29 1010 42 10000 4.1 350 15:42 02.04.2020
5597 Clear 29 1010 42 10000 4.1 350 15:20 02.04.2020
5598 Clear 30 1010 40 10000 6.7 340 14:58 02.04.2020
5599 Clear 30 1010 40 10000 6.7 340 14:58 02.04.2020
5600 Clear 30 1010 40 10000 6.7 340 14:39 02.04.2020
5601 Clear 30 1010 40 10000 6.7 340 14:19 02.04.2020
5602 Clear 31 1010 40 10000 6.2 330 13:56 02.04.2020
5603 Clear 31 1010 40 10000 6.2 330 13:38 02.04.2020
5604 Clear 31 1010 40 10000 6.2 330 13:19 02.04.2020
5605 Clear 32 1010 35 10000 2.1 0 12:47 02.04.2020
5606 Clear 31 1010 35 10000 2.1 0 12:21 02.04.2020
5607 Clear 30 1011 40 10000 3.6 330 11:58 02.04.2020
5608 Clear 30 1011 40 10000 3.6 330 11:39 02.04.2020
5609 Clear 30 1011 40 10000 3.6 330 11:21 02.04.2020
5610 Clear 29 1013 51 9000 3.6 330 10:57 02.04.2020
5611 Clear 29 1013 51 9000 3.6 330 10:39 02.04.2020
5612 Clear 29 1013 51 9000 3.6 330 10:21 02.04.2020
5613 Clear 28 1013 45 10000 1.5 0 09:59 02.04.2020
5614 Clear 28 1013 45 10000 1.5 0 09:41 02.04.2020
5615 Clear 28 1013 45 10000 1.5 0 09:23 02.04.2020
5616 Clear 26 1013 57 10000 1.5 70 08:57 02.04.2020
5617 Clear 26 1013 57 10000 1.5 70 08:38 02.04.2020
5618 Clear 25 1013 57 10000 1.5 70 08:19 02.04.2020
5619 Clear 23 1013 69 6000 1 0 07:42 02.04.2020
5620 Clear 22 1013 69 6000 1 0 07:19 02.04.2020
5621 Mist 21 1013 100 2500 1 0 06:46 02.04.2020
5622 Fog 21 1013 100 1500 1.5 120 06:20 02.04.2020
5623 Fog 21 1012 94 300 2.1 140 05:41 02.04.2020
5624 Clouds 22 1011 88 8000 1 330 02:59 02.04.2020
5625 Clouds 22 1011 88 7000 2.1 340 01:30 02.04.2020
5626 Clouds 22 1012 88 8000 3.6 340 00:42 02.04.2020
5627 Clouds 22 1012 88 8000 3.6 340 00:24 02.04.2020
5628 Clear 22 1012 88 8000 2.6 330 23:41 01.04.2020
5629 Clear 22 1012 88 8000 2.6 330 23:20 01.04.2020
5630 Clear 23 1012 73 10000 1.5 260 22:58 01.04.2020
5631 Clear 23 1012 73 10000 1.5 260 22:58 01.04.2020
5632 Clear 23 1012 73 10000 1.5 260 22:39 01.04.2020
5633 Clear 23 1012 73 10000 1.5 260 22:21 01.04.2020
5634 Clear 23 1012 73 10000 1.5 260 22:21 01.04.2020
5635 Clear 23 1012 69 10000 0.5 0 21:42 01.04.2020
5636 Clear 23 1012 69 10000 0.5 0 21:42 01.04.2020
5637 Clear 23 1012 69 10000 0.5 0 21:22 01.04.2020
5638 Clear 23 1012 69 10000 0.5 0 21:21 01.04.2020
5639 Clear 23 1012 73 10000 1.5 100 20:57 01.04.2020
5640 Clear 23 1012 73 10000 1.5 100 20:39 01.04.2020
5641 Clear 23 1012 73 10000 1.5 100 20:20 01.04.2020
5642 -273 0 0 0 0 0 20:20 01.04.2020
5643 Clear 23 1012 73 10000 2.6 70 19:59 01.04.2020
5644 Clear 23 1012 73 10000 2.6 70 19:41 01.04.2020
5645 -273 0 0 0 0 0 19:20 01.04.2020
5646 Clear 24 1012 83 10000 4.6 330 18:44 01.04.2020
5647 Clear 24 1012 83 10000 4.6 330 18:25 01.04.2020
5648 Clear 25 1012 73 10000 4.6 330 17:58 01.04.2020
5649 Clear 25 1012 73 10000 4.6 330 17:38 01.04.2020
5650 Clear 25 1012 73 10000 4.6 330 17:19 01.04.2020
5651 Clear 26 1012 61 10000 5.1 330 16:59 01.04.2020
5652 Clear 26 1012 61 10000 5.1 330 16:39 01.04.2020
5653 Clear 27 1012 61 10000 5.1 330 16:21 01.04.2020
5654 Clear 28 1012 51 10000 5.7 320 15:57 01.04.2020
5655 Clear 28 1012 51 10000 5.7 320 15:38 01.04.2020
5656 Clear 28 1012 51 10000 5.7 320 15:19 01.04.2020
5657 Clear 28 1012 54 10000 6.7 320 14:55 01.04.2020
5658 Clear 28 1012 54 10000 6.7 320 14:55 01.04.2020
5659 Clear 28 1012 54 10000 6.7 320 14:37 01.04.2020
5660 Clear 28 1012 54 10000 6.7 320 14:19 01.04.2020
5661 Clear 29 1012 51 10000 5.1 310 13:56 01.04.2020
5662 Clear 29 1012 51 10000 5.1 310 13:37 01.04.2020
5663 Clear 29 1012 51 10000 5.1 310 13:18 01.04.2020
5664 Clear 30 1013 48 10000 3.1 310 12:42 01.04.2020
5665 Clear 30 1013 48 10000 3.1 310 12:24 01.04.2020
5666 Clear 29 1014 45 10000 2.1 290 11:59 01.04.2020
5667 Clear 29 1014 45 10000 2.1 290 11:39 01.04.2020
5668 Clear 29 1014 45 10000 2.1 290 11:20 01.04.2020
5669 Clear 29 1015 45 10000 3.1 250 10:56 01.04.2020
5670 Clear 28 1015 45 10000 3.1 250 10:37 01.04.2020
5671 Clear 28 1015 45 10000 3.1 250 10:37 01.04.2020
5672 Clear 28 1015 45 10000 3.1 250 10:18 01.04.2020
5673 Clear 27 1015 51 10000 3.1 210 09:40 01.04.2020
5674 Clear 27 1015 51 10000 3.1 210 09:40 01.04.2020
5675 Clear 26 1015 51 10000 3.1 210 09:21 01.04.2020
5676 Clear 25 1015 61 10000 3.1 210 08:59 01.04.2020
5677 Clear 25 1015 61 10000 3.1 210 08:40 01.04.2020
5678 Clear 24 1015 61 10000 3.1 210 08:18 01.04.2020
5679 Clear 23 1016 69 10000 3.6 190 07:42 01.04.2020
5680 Clear 22 1016 69 10000 3.6 190 07:19 01.04.2020
5681 Clear 21 1015 73 10000 3.6 200 06:47 01.04.2020
5682 Clear 21 1015 73 10000 3.6 200 06:21 01.04.2020
5683 Clear 19 1014 82 10000 3.6 200 05:53 01.04.2020
5684 Clear 19 1013 82 10000 3.1 200 04:29 01.04.2020
5685 Clear 20 1013 77 10000 2.1 190 03:21 01.04.2020
5686 Clear 20 1012 77 10000 2.6 180 02:41 01.04.2020
5687 Clear 20 1013 77 10000 3.1 190 01:53 01.04.2020
5688 Clear 20 1013 77 10000 3.1 190 01:27 01.04.2020
5689 Clear 21 1013 73 10000 3.1 200 00:47 01.04.2020
5690 Clear 21 1013 73 10000 3.1 200 00:24 01.04.2020
5691 Clear 21 1013 73 10000 3.1 200 23:59 31.03.2020
5692 Clear 21 1013 73 10000 3.1 200 23:41 31.03.2020
5693 Clear 21 1013 73 10000 3.1 200 23:22 31.03.2020
5694 Clear 22 1014 68 10000 3.1 200 22:41 31.03.2020
5695 Clear 22 1014 68 10000 3.1 200 22:22 31.03.2020
5696 Clear 23 1014 64 10000 2.6 210 21:58 31.03.2020
5697 Clear 23 1014 64 10000 2.6 210 21:40 31.03.2020
5698 Clear 23 1014 64 10000 2.6 210 21:21 31.03.2020
5699 Clear 23 1014 60 10000 2.1 260 20:57 31.03.2020
5700 Clear 23 1014 60 10000 2.1 260 20:57 31.03.2020
5701 Clear 24 1014 60 10000 2.1 260 20:37 31.03.2020
5702 Clear 23 1014 60 10000 3.1 280 20:19 31.03.2020
5703 Clear 24 1014 60 10000 3.1 280 19:57 31.03.2020
5704 Clear 24 1014 60 10000 3.1 280 19:38 31.03.2020
5705 Clear 24 1014 60 10000 3.1 280 19:19 31.03.2020
5706 Clear 24 1013 57 10000 4.1 280 18:44 31.03.2020
5707 Clear 24 1013 60 10000 4.6 280 18:21 31.03.2020
5708 Clear 24 1013 60 10000 4.6 280 17:57 31.03.2020
5709 Clear 24 1013 60 10000 4.6 280 17:57 31.03.2020
5710 Clear 24 1013 60 10000 4.6 280 17:39 31.03.2020
5711 Clear 24 1013 60 10000 4.6 280 17:21 31.03.2020
5712 Clear 25 1013 57 10000 5.1 280 16:56 31.03.2020
5713 Clear 25 1013 57 10000 5.1 280 16:37 31.03.2020
5714 Clear 25 1013 57 10000 5.1 280 16:18 31.03.2020
5715 Clear 26 1013 54 10000 6.2 290 15:56 31.03.2020
5716 Clear 26 1013 54 10000 6.2 290 15:37 31.03.2020
5717 Clear 26 1013 54 10000 6.2 290 15:37 31.03.2020
5718 Clear 26 1013 54 10000 6.2 290 15:18 31.03.2020
5719 Clear 26 1013 54 10000 7.2 280 14:42 31.03.2020
5720 Clear 26 1013 54 10000 7.2 280 14:23 31.03.2020
5721 Clear 27 1013 47 10000 7.2 280 13:59 31.03.2020
5722 Clear 27 1013 47 10000 7.2 280 13:40 31.03.2020
5723 Clear 27 1013 47 10000 7.2 280 13:19 31.03.2020
5724 Clear 27 1013 47 10000 7.2 280 13:19 31.03.2020
5725 Clear 27 1013 47 10000 6.2 280 12:46 31.03.2020
5726 Clear 27 1013 47 10000 6.2 280 12:21 31.03.2020
5727 Clear 27 1013 47 10000 6.2 280 12:21 31.03.2020
5728 Clear 27 1014 44 10000 5.7 270 11:59 31.03.2020
5729 Clear 27 1014 44 10000 5.7 270 11:38 31.03.2020
5730 Clear 27 1014 44 10000 5.7 270 11:19 31.03.2020
5731 Clear 27 1014 42 10000 5.1 270 10:55 31.03.2020
5732 Clear 27 1014 42 10000 5.1 270 10:37 31.03.2020
5733 Clear 26 1014 42 10000 5.1 270 10:19 31.03.2020
5734 Clear 25 1015 44 10000 6.2 290 09:44 31.03.2020
5735 Clear 26 1015 44 10000 6.2 290 09:25 31.03.2020
5736 Clear 23 1015 64 10000 5.1 230 08:59 31.03.2020
5737 Clear 23 1015 64 10000 5.1 230 08:40 31.03.2020
5738 Clear 23 1015 64 10000 5.1 230 08:20 31.03.2020
5739 Clear 22 1015 68 10000 5.1 210 07:57 31.03.2020
5740 Clear 22 1015 68 10000 5.1 210 07:38 31.03.2020
5741 Clear 21 1015 68 10000 5.1 210 07:20 31.03.2020
5742 Clear 20 1014 72 10000 4.6 210 06:53 31.03.2020
5743 Clear 20 1014 72 10000 4.6 210 06:35 31.03.2020
5744 Clear 19 1013 82 10000 4.1 180 05:41 31.03.2020
5745 Clear 19 1013 82 10000 4.1 210 04:33 31.03.2020
5746 Clouds 20 1012 77 10000 2.6 180 02:30 31.03.2020
5747 Clouds 21 1012 73 10000 2.6 250 01:46 31.03.2020
5748 Clouds 22 1012 68 10000 3.6 270 00:53 31.03.2020
5749 Clouds 22 1012 68 10000 3.6 270 00:25 31.03.2020
5750 Clear 21 1012 68 10000 3.6 300 23:59 30.03.2020
5751 Clear 21 1012 68 10000 3.6 300 23:38 30.03.2020
5752 Clear 22 1012 68 10000 3.6 300 23:19 30.03.2020
5753 Clear 22 1012 64 10000 4.1 300 22:57 30.03.2020
5754 Clear 22 1012 64 10000 4.1 300 22:38 30.03.2020
5755 Clear 22 1012 64 10000 4.1 300 22:18 30.03.2020
5756 Clear 23 1012 64 10000 2.6 280 21:57 30.03.2020
5757 Clear 23 1012 64 10000 2.6 280 21:37 30.03.2020
5758 Clear 22 1012 64 10000 2.6 270 21:19 30.03.2020
5759 Clear 22 1012 64 10000 2.6 270 20:55 30.03.2020
5760 Clear 22 1012 64 10000 2.6 270 20:36 30.03.2020
5761 Clear 22 1012 64 10000 2.6 270 20:18 30.03.2020
5762 Clear 23 1011 60 10000 3.1 280 19:40 30.03.2020
5763 Clear 23 1011 60 10000 3.1 280 19:22 30.03.2020
5764 Clear 24 1011 60 10000 4.1 280 18:57 30.03.2020
5765 Clear 24 1011 60 10000 4.1 280 18:39 30.03.2020
5766 Clear 24 1011 60 10000 4.1 280 18:20 30.03.2020
5767 Clear 24 1010 73 10000 4.6 290 17:57 30.03.2020
5768 Clear 24 1010 73 10000 4.6 290 17:38 30.03.2020
5769 Clear 24 1010 73 10000 4.6 290 17:19 30.03.2020
5770 Clouds 24 1010 73 9000 5.7 280 16:55 30.03.2020
5771 Clouds 25 1010 73 9000 5.7 280 16:37 30.03.2020
5772 Clouds 25 1010 73 9000 5.7 280 16:19 30.03.2020
5773 Clouds 25 1010 73 7000 7.2 290 15:54 30.03.2020
5774 Clouds 25 1010 73 7000 7.2 290 15:36 30.03.2020
5775 Clouds 25 1010 73 7000 7.2 290 15:18 30.03.2020
5776 Clouds 26 1009 69 8000 7.2 290 14:39 30.03.2020
5777 Clouds 26 1009 69 8000 7.2 290 14:19 30.03.2020
5778 Clouds 26 1009 69 9000 7.2 290 13:59 30.03.2020
5779 Clouds 26 1009 69 9000 7.2 290 13:40 30.03.2020
5780 Clouds 26 1009 69 9000 7.2 290 13:21 30.03.2020
5781 Clouds 27 1009 69 10000 7.7 300 12:56 30.03.2020
5782 Clouds 27 1009 69 10000 7.7 300 12:37 30.03.2020
5783 Clouds 27 1009 69 10000 7.7 300 12:19 30.03.2020
5784 Clouds 27 1009 65 10000 5.1 280 11:55 30.03.2020
5785 Clouds 27 1009 65 10000 5.1 280 11:55 30.03.2020
5786 Clouds 27 1009 65 10000 5.1 280 11:55 30.03.2020
5787 Clouds 27 1009 65 10000 5.1 280 11:37 30.03.2020
5788 Clouds 27 1009 65 10000 5.1 280 11:18 30.03.2020
5789 Clouds 27 1010 74 8000 9.3 280 10:39 30.03.2020
5790 Clouds 27 1010 74 8000 9.3 280 10:21 30.03.2020
5791 Clouds 27 1010 74 8000 9.3 280 10:21 30.03.2020
5792 Clouds 27 1009 65 7000 7.2 260 09:55 30.03.2020
5793 Clouds 27 1009 65 7000 7.2 260 09:37 30.03.2020
5794 Clouds 27 1009 65 7000 7.2 260 09:18 30.03.2020
5795 Clouds 27 1009 69 6000 7.7 280 08:40 30.03.2020
5796 Clouds 27 1009 69 8000 8.2 220 08:22 30.03.2020
5797 Clouds 26 1009 65 8000 7.7 220 07:49 30.03.2020
5798 Clouds 26 1008 74 10000 6.7 210 07:26 30.03.2020
5799 Rain 26 1008 74 10000 7.7 210 06:52 30.03.2020
5800 Rain 25 1007 73 10000 7.2 200 06:30 30.03.2020
5801 Clouds 25 1007 73 7000 7.2 200 05:47 30.03.2020
5802 Clouds 25 1007 73 7000 7.2 200 05:18 30.03.2020
5803 Clouds 25 1005 73 8000 8.2 200 04:21 30.03.2020
5804 Rain 25 1004 69 6000 7.2 190 03:19 30.03.2020
5805 Rain 25 1005 65 8000 5.7 170 01:59 30.03.2020
5806 Rain 25 1005 65 8000 5.7 170 01:24 30.03.2020
5807 Rain 25 1006 54 5000 6.2 190 00:30 30.03.2020
5808 Rain 26 1006 61 8000 3.6 240 23:59 29.03.2020
5809 Rain 26 1006 61 8000 3.6 240 23:40 29.03.2020
5810 Thunderstorm 27 1005 57 10000 3.6 180 23:21 29.03.2020
5811 Rain 27 1005 65 8000 8.7 140 22:55 29.03.2020
5812 Rain 27 1005 65 8000 8.7 140 22:37 29.03.2020
5813 Rain 26 1005 65 8000 8.7 140 22:18 29.03.2020
5814 Rain 26 1005 65 9000 10.3 120 21:39 29.03.2020
5815 Clouds 26 1005 65 9000 10.3 120 21:20 29.03.2020
5816 Clouds 27 1006 57 8000 8.7 120 20:56 29.03.2020
5817 Clouds 27 1006 57 8000 8.7 120 20:37 29.03.2020
5818 Clouds 27 1006 57 8000 8.7 120 20:19 29.03.2020
5819 Clouds 27 1006 57 10000 7.2 110 19:58 29.03.2020
5820 Clouds 27 1006 57 10000 7.2 110 19:40 29.03.2020
5821 Clouds 27 1006 57 10000 7.2 110 19:22 29.03.2020
5822 Rain 27 1006 57 8000 6.7 110 18:57 29.03.2020
5823 Rain 27 1006 57 8000 6.7 110 18:38 29.03.2020
5824 Clouds 29 1005 54 8000 7.7 130 18:19 29.03.2020
5825 Rain 28 1006 57 8000 6.7 110 18:19 29.03.2020
5826 Clouds 29 1005 54 8000 7.7 130 17:56 29.03.2020
5827 Clouds 29 1005 54 8000 7.7 130 17:38 29.03.2020
5828 Clouds 29 1005 54 8000 7.7 130 17:18 29.03.2020
5829 Clouds 30 1005 45 8000 8.2 130 16:56 29.03.2020
5830 Clouds 30 1005 45 8000 8.2 130 16:38 29.03.2020
5831 Clouds 30 1005 45 8000 8.2 130 16:19 29.03.2020
5832 Dust 32 1005 31 5000 6.2 140 15:41 29.03.2020
5833 Dust 32 1005 31 5000 6.2 140 15:41 29.03.2020
5834 Dust 32 1005 24 4500 4.1 180 15:23 29.03.2020
5835 Dust 33 1005 26 4500 5.7 190 14:58 29.03.2020
5836 Dust 33 1005 26 4500 5.7 190 14:40 29.03.2020
5837 Dust 33 1005 26 4500 5.7 190 14:20 29.03.2020
5838 Dust 32 1006 25 4500 5.7 180 13:58 29.03.2020
5839 Dust 32 1006 25 4500 5.7 180 13:39 29.03.2020
5840 Dust 32 1006 25 4500 5.7 180 13:20 29.03.2020
5841 Dust 31 1007 25 4500 5.7 180 12:55 29.03.2020
5842 Dust 32 1007 25 4500 5.7 180 12:37 29.03.2020
5843 Dust 31 1007 25 4500 5.7 180 12:19 29.03.2020
5844 Dust 31 1008 27 4500 6.7 180 11:55 29.03.2020
5845 Dust 31 1008 27 4500 6.7 180 11:37 29.03.2020
5846 Dust 31 1008 27 4500 6.7 180 11:18 29.03.2020
5847 Dust 31 1008 27 4500 6.7 180 11:18 29.03.2020
5848 Dust 30 1009 25 5000 7.2 180 10:38 29.03.2020
5849 Dust 30 1009 25 5000 7.2 180 10:19 29.03.2020
5850 Dust 29 1010 22 3500 7.7 160 09:41 29.03.2020
5851 Dust 29 1010 22 3500 7.7 160 09:22 29.03.2020
5852 Dust 29 1011 25 4000 4.6 140 08:54 29.03.2020
5853 Dust 29 1011 25 4000 4.6 140 08:36 29.03.2020
5854 Dust 29 1011 25 4000 4.6 140 08:18 29.03.2020
5855 Dust 28 1011 30 4000 5.1 170 07:42 29.03.2020
5856 Dust 28 1011 30 4000 5.1 170 07:21 29.03.2020
5857 Clouds 27 1008 39 10000 6.2 180 05:46 29.03.2020
5858 Clouds 27 1010 44 9000 5.1 170 04:27 29.03.2020
5859 Clouds 27 1008 39 7000 5.1 160 03:31 29.03.2020
5860 Clouds 28 1009 35 7000 5.1 170 01:51 29.03.2020
5861 Clouds 28 1009 35 7000 5.1 170 01:23 29.03.2020
5862 Clouds 28 1009 42 10000 4.6 170 00:56 29.03.2020
5863 Clouds 28 1009 42 10000 4.6 170 00:33 29.03.2020
5864 Clouds 27 1006 47 10000 6.2 150 23:56 28.03.2020
5865 Clouds 27 1006 47 10000 6.2 150 23:38 28.03.2020
5866 Clouds 27 1006 47 10000 6.2 150 23:18 28.03.2020
5867 Clouds 26 1008 50 10000 4.1 110 22:39 28.03.2020
5868 Clouds 26 1008 50 10000 4.1 110 22:21 28.03.2020
5869 Clouds 26 1009 36 10000 4.1 100 21:55 28.03.2020
5870 Clouds 26 1009 36 10000 4.1 100 21:37 28.03.2020
5871 Clouds 27 1009 36 10000 4.1 100 21:18 28.03.2020
5872 Clouds 27 1010 32 10000 3.6 80 20:42 28.03.2020
5873 Clouds 27 1010 32 10000 3.6 80 20:23 28.03.2020
5874 Clouds 27 1011 34 10000 5.1 70 19:57 28.03.2020
5875 Clouds 27 1011 34 10000 5.1 70 19:39 28.03.2020
5876 Clouds 28 1011 34 10000 5.1 70 19:20 28.03.2020
5877 Clouds 28 1011 35 10000 4.1 80 18:58 28.03.2020
5878 Clouds 28 1011 35 10000 4.1 80 18:39 28.03.2020
5879 Clouds 29 1011 35 10000 4.1 80 18:19 28.03.2020
5880 Clouds 29 1011 35 10000 4.1 80 18:19 28.03.2020
5881 Clouds 29 1010 33 10000 4.6 70 17:39 28.03.2020
5882 Clouds 29 1010 33 10000 4.6 70 17:20 28.03.2020
5883 Clouds 30 1011 45 10000 3.6 30 16:43 28.03.2020
5884 Clouds 30 1011 45 10000 3.6 30 16:20 28.03.2020
5885 Clouds 30 1011 45 10000 3.6 30 16:20 28.03.2020
5886 Clouds 30 1011 45 10000 3.6 30 16:20 28.03.2020
5887 Clouds 30 1010 45 10000 4.1 40 15:59 28.03.2020
5888 Clouds 30 1010 45 10000 4.1 40 15:39 28.03.2020
5889 Clouds 29 1010 45 10000 4.1 40 15:19 28.03.2020
5890 Clouds 31 1010 42 10000 4.1 30 14:55 28.03.2020
5891 Clouds 30 1010 42 10000 4.1 30 14:37 28.03.2020
5892 Clouds 31 1010 42 10000 4.1 30 14:18 28.03.2020
5893 Clouds 32 1010 35 9000 3.6 10 13:39 28.03.2020
5894 Clouds 32 1010 35 9000 3.6 10 13:21 28.03.2020
5895 Clouds 31 1010 38 8000 6.2 340 12:40 28.03.2020
5896 Clouds 31 1010 38 8000 6.2 340 12:22 28.03.2020
5897 Clouds 33 1010 33 8000 5.1 330 11:43 28.03.2020
5898 Clouds 33 1011 20 6000 5.1 220 11:23 28.03.2020
5899 Clouds 33 1012 18 10000 4.6 150 10:56 28.03.2020
5900 Clouds 33 1012 18 10000 4.6 150 10:38 28.03.2020
5901 Clouds 32 1012 18 10000 4.6 150 10:18 28.03.2020
5902 Clouds 32 1013 29 10000 5.1 160 09:42 28.03.2020
5903 Clouds 31 1013 29 10000 5.1 160 09:23 28.03.2020
5904 Clouds 30 1014 35 10000 5.1 140 08:47 28.03.2020
5905 Clouds 30 1014 35 10000 5.1 140 08:28 28.03.2020
5906 Clouds 29 1014 39 10000 6.2 130 07:59 28.03.2020
5907 Clouds 29 1014 39 10000 6.2 130 07:41 28.03.2020
5908 Clouds 27 1014 44 10000 5.1 120 06:56 28.03.2020
5909 Clouds 27 1014 44 10000 5.1 120 06:34 28.03.2020
5910 Clouds 25 1014 53 10000 2.1 160 05:41 28.03.2020
5911 Clouds 24 1014 53 10000 2.1 160 05:21 28.03.2020
5912 Clouds 23 1013 57 10000 2.1 100 04:40 28.03.2020
5913 Clouds 23 1012 53 10000 3.6 130 03:21 28.03.2020
5914 Clouds 23 1012 47 10000 1.5 70 01:49 28.03.2020
5915 Clouds 23 1012 47 10000 1.5 70 01:24 28.03.2020
5916 Clouds 24 1012 47 10000 2.6 90 00:55 28.03.2020
5917 Clouds 24 1012 47 10000 2.6 90 00:33 28.03.2020
5918 Clouds 24 1013 47 10000 2.6 80 23:54 27.03.2020
5919 Clouds 24 1013 47 10000 2.6 80 23:36 27.03.2020
5920 Clouds 24 1013 47 10000 2.6 80 23:18 27.03.2020
5921 Clouds 25 1013 44 10000 2.6 60 22:54 27.03.2020
5922 Clouds 25 1013 44 10000 2.6 60 22:36 27.03.2020
5923 Clouds 25 1013 44 10000 2.6 60 22:18 27.03.2020
5924 Clouds 25 1014 44 10000 2.6 60 21:42 27.03.2020
5925 Clouds 25 1014 44 10000 2.6 60 21:23 27.03.2020
5926 Clouds 25 1014 41 10000 2.1 80 20:58 27.03.2020
5927 Clouds 25 1014 41 10000 2.1 80 20:58 27.03.2020
5928 Clouds 25 1014 41 10000 2.1 80 20:39 27.03.2020
5929 Clouds 25 1014 41 10000 2.1 80 20:20 27.03.2020
5930 Clouds 26 1014 36 10000 3.6 60 19:56 27.03.2020
5931 Clouds 26 1014 36 10000 3.6 60 19:38 27.03.2020
5932 Clouds 26 1014 36 10000 3.6 60 19:19 27.03.2020
5933 Clouds 26 1014 34 10000 3.1 70 18:43 27.03.2020
5934 Clouds 26 1014 34 10000 3.1 70 18:23 27.03.2020
5935 Clouds 26 1014 36 10000 4.1 40 17:57 27.03.2020
5936 Clouds 26 1014 36 10000 4.1 40 17:38 27.03.2020
5937 Clouds 27 1014 36 10000 4.1 40 17:19 27.03.2020
5938 Clouds 27 1013 42 10000 3.1 30 16:44 27.03.2020
5939 Clouds 27 1013 42 10000 3.1 30 16:25 27.03.2020
5940 Clouds 27 1013 42 10000 3.1 30 16:25 27.03.2020
5941 Clouds 28 1012 42 10000 4.1 30 15:45 27.03.2020
5942 Clouds 28 1012 42 10000 4.1 30 15:27 27.03.2020
5943 Clouds 29 1012 45 10000 4.1 10 14:57 27.03.2020
5944 Clouds 29 1012 45 10000 4.1 10 14:39 27.03.2020
5945 Clear 30 1012 45 10000 4.1 10 14:21 27.03.2020
5946 Clear 30 1012 42 10000 4.6 20 13:43 27.03.2020
5947 Clear 30 1012 42 10000 4.6 20 13:22 27.03.2020
5948 Clear 31 1012 33 10000 5.1 40 12:59 27.03.2020
5949 Clear 31 1012 33 10000 5.1 40 12:41 27.03.2020
5950 Clear 31 1012 33 10000 5.1 40 12:19 27.03.2020
5951 Clear 32 1013 15 10000 2.1 0 11:43 27.03.2020
5952 Clear 31 1013 15 10000 2.1 0 11:25 27.03.2020
5953 Clear 31 1014 15 10000 2.1 0 10:57 27.03.2020
5954 Clear 31 1014 15 10000 2.1 0 10:39 27.03.2020
5955 Clear 30 1014 15 10000 2.1 0 10:20 27.03.2020
5956 Clear 30 1015 19 10000 3.1 110 09:58 27.03.2020
5957 Clear 30 1015 19 10000 3.1 110 09:58 27.03.2020
5958 Clear 30 1015 19 10000 3.1 110 09:39 27.03.2020
5959 Clear 30 1015 19 10000 3.1 110 09:21 27.03.2020
5960 Clear 28 1016 30 10000 4.6 110 08:58 27.03.2020
5961 Clear 28 1016 30 10000 4.6 110 08:39 27.03.2020
5962 Clear 28 1016 30 10000 4.6 110 08:21 27.03.2020
5963 Clouds 26 1016 39 10000 4.1 80 07:53 27.03.2020
5964 Clouds 26 1016 39 10000 4.1 80 07:28 27.03.2020
5965 Clouds 25 1015 44 10000 3.6 80 06:57 27.03.2020
5966 Clouds 25 1015 44 10000 3.6 80 06:37 27.03.2020
5967 Clouds 23 1015 49 10000 3.6 110 05:37 27.03.2020
5968 Clouds 21 1013 77 9000 1 100 02:49 27.03.2020
5969 Clear 21 1013 77 0 1.34 100 01:36 27.03.2020
5970 Clear 21 1012 77 10000 2.1 110 00:53 27.03.2020
5971 Clear 21 1012 77 10000 2.1 110 00:32 27.03.2020
5972 Clear 22 1013 78 10000 2.6 100 23:44 26.03.2020
5973 Clouds 22 1013 78 10000 2.6 100 23:24 26.03.2020
5974 Clouds 22 1013 78 10000 2.1 70 22:59 26.03.2020
5975 Clouds 22 1013 78 10000 2.1 70 22:59 26.03.2020
5976 Clouds 22 1013 78 10000 2.1 70 22:39 26.03.2020
5977 Clouds 22 1013 78 10000 2.1 70 22:20 26.03.2020
5978 Clouds 23 1013 73 10000 2.6 60 21:58 26.03.2020
5979 Clouds 23 1013 73 10000 2.6 60 21:39 26.03.2020
5980 Clouds 23 1013 73 10000 2.6 60 21:21 26.03.2020
5981 Clouds 23 1013 73 10000 4.1 40 20:58 26.03.2020
5982 Clouds 23 1013 73 10000 4.1 40 20:38 26.03.2020
5983 Clouds 23 1013 73 10000 4.1 40 20:20 26.03.2020
5984 Clouds 23 1013 69 10000 4.6 40 19:56 26.03.2020
5985 Clouds 23 1013 69 10000 4.6 40 19:38 26.03.2020
5986 Clouds 23 1013 69 10000 4.6 40 19:38 26.03.2020
5987 Clouds 24 1013 69 10000 4.6 40 19:20 26.03.2020
5988 Clouds 24 1013 64 10000 3.6 30 18:55 26.03.2020
5989 Clouds 24 1013 64 10000 3.6 30 18:55 26.03.2020
5990 Clouds 24 1013 64 10000 3.6 30 18:37 26.03.2020
5991 Clouds 24 1013 64 10000 3.6 30 18:18 26.03.2020
5992 Clouds 24 1012 64 10000 4.1 360 17:42 26.03.2020
5993 Clouds 24 1012 64 10000 4.1 360 17:19 26.03.2020
5994 Clouds 24 1012 64 10000 5.1 330 16:45 26.03.2020
5995 Clouds 24 1012 64 10000 5.1 330 16:27 26.03.2020
5996 Clouds 24 1011 60 10000 5.1 340 15:58 26.03.2020
5997 Clouds 24 1011 60 10000 5.1 340 15:40 26.03.2020
5998 Clouds 25 1011 60 10000 5.1 340 15:21 26.03.2020
5999 Clouds 25 1011 57 10000 6.2 350 14:57 26.03.2020
6000 Clouds 25 1011 57 10000 6.2 350 14:38 26.03.2020
6001 Clouds 25 1011 57 10000 6.2 350 14:38 26.03.2020
6002 Clouds 25 1011 57 10000 6.2 350 14:19 26.03.2020
6003 Clouds 26 1011 47 10000 6.7 330 13:43 26.03.2020
6004 Clouds 26 1011 47 10000 6.7 330 13:23 26.03.2020
6005 Clouds 27 1011 42 10000 7.2 330 12:56 26.03.2020
6006 Clouds 27 1011 42 10000 7.2 330 12:37 26.03.2020
6007 Clouds 26 1011 42 10000 7.2 330 12:19 26.03.2020
6008 Clouds 26 1012 50 10000 8.2 340 11:44 26.03.2020
6009 Clear 26 1012 50 10000 8.2 340 11:20 26.03.2020
6010 Clear 27 1012 47 10000 6.2 350 10:56 26.03.2020
6011 Clear 27 1012 47 10000 6.2 350 10:36 26.03.2020
6012 Clear 27 1012 47 10000 6.2 350 10:18 26.03.2020
6013 Clear 27 1012 47 10000 6.2 350 10:18 26.03.2020
6014 Clouds 27 1013 36 10000 2.6 0 09:42 26.03.2020
6015 Clouds 26 1013 36 10000 2.6 0 09:19 26.03.2020
6016 Clear 26 1013 44 10000 2.1 90 08:46 26.03.2020
6017 Clear 26 1013 44 10000 2.1 90 08:27 26.03.2020
6018 Clouds 24 1013 57 10000 2.6 70 07:58 26.03.2020
6019 Clouds 24 1013 57 10000 2.6 70 07:40 26.03.2020
6020 Clouds 23 1013 57 10000 2.6 70 07:20 26.03.2020
6021 Clouds 22 1013 68 10000 2.6 90 06:46 26.03.2020
6022 Clouds 21 1012 73 10000 3.1 120 05:52 26.03.2020
6023 Clear 20 1011 77 10000 1 70 03:58 26.03.2020
6024 Clear 20 1011 77 10000 1 70 03:35 26.03.2020
6025 Clear 20 1011 77 10000 1 90 02:53 26.03.2020
6026 Clouds 20 1011 77 10000 1 110 01:44 26.03.2020
6027 Clouds 20 1011 77 10000 1 120 00:43 26.03.2020
6028 Clouds 21 1011 68 10000 1 100 23:45 25.03.2020
6029 Clouds 21 1011 68 10000 1 100 23:27 25.03.2020
6030 Clouds 22 1012 68 10000 2.1 350 22:57 25.03.2020
6031 Clouds 22 1012 68 10000 2.1 350 22:38 25.03.2020
6032 Clouds 22 1012 68 10000 2.1 350 22:19 25.03.2020
6033 Clouds 22 1012 64 10000 2.1 350 21:54 25.03.2020
6034 Clouds 22 1012 64 10000 2.1 350 21:36 25.03.2020
6035 Clouds 22 1012 64 10000 2.1 350 21:18 25.03.2020
6036 Clouds 22 1012 64 10000 3.1 350 20:39 25.03.2020
6037 Clear 22 1012 64 10000 3.1 350 20:20 25.03.2020
6038 Clouds 22 1012 64 10000 2.6 310 19:58 25.03.2020
6039 Clouds 22 1012 64 10000 2.6 310 19:39 25.03.2020
6040 Clouds 22 1012 64 10000 2.6 310 19:21 25.03.2020
6041 Clouds 22 1012 64 10000 3.6 330 18:54 25.03.2020
6042 Clouds 22 1012 64 10000 3.6 330 18:36 25.03.2020
6043 Clouds 22 1012 64 10000 4.1 340 18:18 25.03.2020
6044 Clouds 22 1012 64 10000 4.1 340 17:41 25.03.2020
6045 Clouds 22 1012 64 10000 4.1 340 17:22 25.03.2020
6046 Clouds 23 1011 56 10000 4.1 330 16:59 25.03.2020
6047 Clouds 23 1011 56 10000 4.1 330 16:39 25.03.2020
6048 Clouds 23 1011 56 10000 4.1 330 16:21 25.03.2020
6049 Clouds 23 1011 56 10000 4.1 330 16:21 25.03.2020
6050 Clouds 23 1011 56 10000 4.1 320 15:43 25.03.2020
6051 Clouds 24 1011 56 10000 4.1 320 15:21 25.03.2020
6052 Clouds 24 1011 53 10000 4.6 320 14:59 25.03.2020
6053 Clouds 24 1011 53 10000 4.6 320 14:40 25.03.2020
6054 Clouds 24 1011 53 10000 4.6 320 14:20 25.03.2020
6055 Clouds 24 1011 50 10000 5.7 320 13:45 25.03.2020
6056 Clouds 24 1011 50 10000 5.7 320 13:25 25.03.2020
6057 Clouds 25 1011 47 10000 5.1 330 12:40 25.03.2020
6058 Clouds 25 1011 47 10000 5.1 330 12:21 25.03.2020
6059 Clouds 24 1011 53 10000 4.6 320 11:59 25.03.2020
6060 Clouds 24 1011 53 10000 4.6 320 11:41 25.03.2020
6061 Clouds 24 1011 53 10000 4.6 320 11:21 25.03.2020
6062 Clouds 24 1012 53 10000 5.1 310 10:58 25.03.2020
6063 Clouds 24 1012 53 10000 5.1 310 10:40 25.03.2020
6064 Clouds 24 1012 53 10000 5.1 310 10:40 25.03.2020
6065 Clouds 24 1012 53 10000 5.1 310 10:19 25.03.2020
6066 Clouds 24 1013 47 10000 3.6 330 09:56 25.03.2020
6067 Clouds 24 1013 47 10000 3.6 330 09:56 25.03.2020
6068 Clouds 24 1013 47 10000 3.6 330 09:38 25.03.2020
6069 Clouds 23 1013 47 10000 3.6 330 09:20 25.03.2020
6070 Clouds 23 1013 53 10000 2.1 0 08:42 25.03.2020
6071 Clouds 23 1013 53 10000 2.1 0 08:42 25.03.2020
6072 Clouds 23 1013 53 10000 2.1 0 08:24 25.03.2020
6073 Clouds 22 1013 60 10000 2.6 210 07:57 25.03.2020
6074 Clouds 22 1013 60 10000 2.6 210 07:38 25.03.2020
6075 Clouds 21 1013 60 10000 2.6 210 07:18 25.03.2020
6076 Clouds 20 1013 68 10000 2.1 180 06:42 25.03.2020
6077 Clouds 19 1013 68 10000 2.1 180 06:23 25.03.2020
6078 Clouds 18 1013 77 10000 3.6 180 05:47 25.03.2020
6079 Clouds 18 1012 77 10000 3.1 180 04:46 25.03.2020
6080 Clouds 18 1011 77 10000 2.1 160 03:58 25.03.2020
6081 Clouds 18 1011 77 10000 2.1 160 03:33 25.03.2020
6082 Clouds 19 1010 72 10000 2.6 190 01:41 25.03.2020
6083 Clouds 19 1011 72 10000 3.6 180 00:51 25.03.2020
6084 Clouds 19 1011 72 10000 3.6 180 00:30 25.03.2020
6085 Clouds 21 1011 60 10000 3.1 270 23:59 24.03.2020
6086 Clouds 21 1011 60 10000 3.1 270 23:40 24.03.2020
6087 Clouds 21 1011 60 10000 3.1 270 23:20 24.03.2020
6088 Clouds 21 1012 60 10000 3.1 280 22:55 24.03.2020
6089 Clouds 21 1012 60 10000 3.1 280 22:36 24.03.2020
6090 Clouds 21 1012 60 10000 3.1 280 22:18 24.03.2020
6091 Clouds 21 1012 64 10000 3.6 260 21:42 24.03.2020
6092 Clouds 21 1012 64 10000 3.6 260 21:19 24.03.2020
6093 Clouds 21 1012 60 10000 4.1 270 20:59 24.03.2020
6094 Clouds 21 1012 60 10000 4.1 270 20:41 24.03.2020
6095 Clouds 21 1012 60 10000 4.1 270 20:22 24.03.2020
6096 Clouds 21 1012 60 10000 4.6 280 19:48 24.03.2020
6097 Clouds 21 1012 60 10000 4.6 280 19:23 24.03.2020
6098 Clouds 21 1012 60 10000 4.6 280 18:59 24.03.2020
6099 Clouds 21 1012 60 10000 4.6 280 18:39 24.03.2020
6100 Clouds 21 1012 60 10000 4.6 280 18:20 24.03.2020
6101 Clouds 21 1012 60 10000 5.1 280 17:58 24.03.2020
6102 Clouds 21 1012 60 10000 5.1 280 17:40 24.03.2020
6103 Clouds 21 1012 60 10000 5.1 280 17:40 24.03.2020
6104 Clouds 21 1012 60 10000 5.1 280 17:40 24.03.2020
6105 Clouds 21 1012 60 10000 5.1 280 17:22 24.03.2020
6106 Clouds 21 1011 56 10000 6.2 280 16:57 24.03.2020
6107 Clouds 21 1011 56 10000 6.2 280 16:57 24.03.2020
6108 Clouds 21 1011 56 10000 6.2 280 16:38 24.03.2020
6109 Clouds 21 1011 56 10000 6.2 280 16:20 24.03.2020
6110 Clouds 22 1011 53 10000 7.7 310 15:43 24.03.2020
6111 Clouds 22 1011 53 10000 7.7 310 15:25 24.03.2020
6112 Clouds 22 1011 53 10000 7.7 280 14:57 24.03.2020
6113 Clouds 22 1011 53 10000 7.7 280 14:37 24.03.2020
6114 Clouds 22 1011 53 10000 7.7 280 14:18 24.03.2020
6115 Clouds 23 1011 46 10000 8.7 300 13:41 24.03.2020
6116 Clouds 23 1011 46 10000 8.7 300 13:22 24.03.2020
6117 Clouds 23 1011 46 10000 7.7 290 12:45 24.03.2020
6118 Clouds 23 1011 46 10000 7.7 290 12:27 24.03.2020
6119 Clouds 23 1012 46 10000 8.7 310 11:57 24.03.2020
6120 Clouds 23 1012 46 10000 8.7 310 11:38 24.03.2020
6121 Clouds 23 1012 46 10000 8.7 310 11:18 24.03.2020
6122 Clouds 23 1012 46 10000 7.7 290 10:42 24.03.2020
6123 Clouds 23 1012 46 10000 7.7 290 10:19 24.03.2020
6124 Clouds 23 1012 46 10000 7.7 290 10:19 24.03.2020
6125 Clouds 23 1013 46 10000 6.7 270 09:48 24.03.2020
6126 Clouds 23 1013 46 10000 6.7 270 09:27 24.03.2020
6127 Clouds 22 1013 46 10000 6.2 280 08:58 24.03.2020
6128 Clouds 22 1013 46 10000 6.2 280 08:38 24.03.2020
6129 Clouds 22 1013 46 10000 6.2 280 08:20 24.03.2020
6130 Clouds 22 1014 49 10000 5.7 260 07:44 24.03.2020
6131 Clouds 22 1014 49 10000 5.7 260 07:22 24.03.2020
6132 Clouds 21 1013 52 10000 5.7 270 06:42 24.03.2020
6133 Clouds 20 1013 52 10000 5.7 270 06:21 24.03.2020
6134 Clouds 19 1013 56 10000 4.6 280 04:53 24.03.2020
6135 Clouds 19 1012 56 10000 4.1 270 03:43 24.03.2020
6136 Clouds 19 1012 60 10000 4.1 280 02:45 24.03.2020
6137 Clouds 19 1012 56 10000 4.6 280 01:22 24.03.2020
6138 Clouds 20 1012 56 10000 5.1 280 00:41 24.03.2020
6139 Clouds 20 1012 56 10000 5.1 280 00:22 24.03.2020
6140 Clear 20 1012 52 10000 4.6 270 23:38 23.03.2020
6141 Clear 20 1012 52 10000 4.6 270 23:20 23.03.2020
6142 Clouds 20 1012 56 10000 5.1 270 22:45 23.03.2020
6143 Clouds 19 1012 56 10000 5.1 270 22:24 23.03.2020
6144 Clouds 20 1013 52 10000 6.2 270 21:57 23.03.2020
6145 Clouds 20 1013 52 10000 6.2 270 21:38 23.03.2020
6146 Clouds 20 1013 52 10000 6.2 270 21:20 23.03.2020
6147 Clouds 20 1013 49 10000 5.7 280 20:56 23.03.2020
6148 Clouds 20 1013 49 10000 5.7 280 20:38 23.03.2020
6149 Clouds 20 1013 49 10000 5.7 280 20:19 23.03.2020
6150 Clear 21 1013 49 10000 6.2 280 19:42 23.03.2020
6151 Clear 21 1013 49 10000 6.2 280 19:23 23.03.2020
6152 Clear 21 1013 43 10000 5.7 280 18:56 23.03.2020
6153 Clear 21 1013 43 10000 5.7 280 18:38 23.03.2020
6154 Clear 21 1013 43 10000 5.7 280 18:19 23.03.2020
6155 Clouds 21 1013 43 9000 6.2 280 17:41 23.03.2020
6156 Clear 22 1013 40 8000 6.2 270 17:20 23.03.2020
6157 Clear 22 1013 40 8000 6.2 270 16:56 23.03.2020
6158 Clear 22 1013 40 8000 6.2 270 16:37 23.03.2020
6159 Clear 22 1013 40 8000 6.2 270 16:18 23.03.2020
6160 Clouds 23 1012 38 7000 7.2 280 15:41 23.03.2020
6161 Clouds 23 1012 38 7000 7.2 280 15:19 23.03.2020
6162 Clouds 23 1012 38 8000 8.2 270 14:38 23.03.2020
6163 Clouds 23 1012 38 8000 8.2 270 14:20 23.03.2020
6164 Clouds 23 1012 38 9000 7.2 280 13:57 23.03.2020
6165 Clouds 23 1012 38 9000 7.2 280 13:39 23.03.2020
6166 Clouds 23 1012 38 9000 7.2 280 13:20 23.03.2020
6167 Clear 24 1012 36 10000 7.7 280 12:44 23.03.2020
6168 Clear 24 1012 36 10000 7.7 280 12:25 23.03.2020
6169 Clear 24 1013 36 10000 7.7 280 11:58 23.03.2020
6170 Clear 24 1013 36 10000 7.7 280 11:38 23.03.2020
6171 Clear 24 1013 36 10000 7.7 280 11:19 23.03.2020
6172 Clear 24 1013 38 10000 8.2 280 10:56 23.03.2020
6173 Clear 24 1013 38 10000 8.2 280 10:37 23.03.2020
6174 Clear 24 1013 38 10000 8.2 280 10:19 23.03.2020
6175 Clear 23 1014 40 10000 7.7 280 09:43 23.03.2020
6176 Clear 23 1014 40 10000 7.7 280 09:21 23.03.2020
6177 Clouds 23 1014 40 10000 8.7 300 08:40 23.03.2020
6178 Clouds 23 1014 40 10000 8.7 300 08:21 23.03.2020
6179 Clouds 23 1014 43 10000 7.7 290 07:59 23.03.2020
6180 Clouds 23 1014 43 10000 7.7 290 07:59 23.03.2020
6181 Clouds 23 1014 43 10000 7.7 290 07:40 23.03.2020
6182 Clouds 23 1014 43 10000 7.7 290 07:19 23.03.2020
6183 Clouds 22 1014 43 8000 8.2 290 06:48 23.03.2020
6184 Dust 21 1013 40 4000 7.2 300 05:51 23.03.2020
6185 Dust 21 1012 40 3300 7.2 300 04:57 23.03.2020
6186 Dust 21 1012 40 4500 6.7 310 03:26 23.03.2020
6187 Clouds 21 1010 35 10000 10.8 310 01:50 23.03.2020
6188 Clouds 21 1009 40 10000 10.3 310 00:58 23.03.2020
6189 Clouds 22 1009 40 10000 10.3 310 00:36 23.03.2020
6190 Clouds 22 1009 40 10000 9.8 310 23:47 22.03.2020
6191 Clouds 22 1009 40 10000 9.8 310 23:25 22.03.2020
6192 Rain 22 1009 60 10000 8.2 300 22:45 22.03.2020
6193 Rain 22 1009 60 10000 8.2 300 22:24 22.03.2020
6194 Rain 22 1010 73 10000 8.7 290 21:56 22.03.2020
6195 Rain 22 1010 73 10000 8.7 290 21:37 22.03.2020
6196 Rain 22 1010 73 10000 8.7 290 21:19 22.03.2020
6197 Rain 23 1009 78 9000 8.7 290 20:46 22.03.2020
6198 Rain 23 1009 78 9000 8.7 290 20:25 22.03.2020
6199 Rain 24 1009 78 10000 7.7 280 19:58 22.03.2020
6200 Rain 24 1009 78 10000 7.7 280 19:40 22.03.2020
6201 Rain 24 1009 78 10000 7.7 280 19:20 22.03.2020
6202 Rain 24 1008 78 10000 3.6 250 18:59 22.03.2020
6203 Rain 24 1008 78 10000 3.6 250 18:41 22.03.2020
6204 Rain 24 1008 78 10000 3.6 250 18:22 22.03.2020
6205 Rain 23 1008 73 10000 3.1 260 17:58 22.03.2020
6206 Rain 23 1008 73 10000 3.1 260 17:38 22.03.2020
6207 Rain 23 1008 73 10000 3.1 260 17:20 22.03.2020
6208 Thunderstorm 23 1007 78 10000 6.2 250 16:57 22.03.2020
6209 Thunderstorm 24 1007 78 10000 6.2 250 16:39 22.03.2020
6210 Thunderstorm 24 1007 83 10000 6.2 270 16:21 22.03.2020
6211 Thunderstorm 25 1007 88 9000 9.8 250 15:44 22.03.2020
6212 Thunderstorm 28 1006 74 9000 5.1 260 15:26 22.03.2020
6213 Thunderstorm 29 1005 58 8000 5.7 190 14:46 22.03.2020
6214 Clouds 30 1005 52 10000 6.7 190 14:19 22.03.2020
6215 Clouds 30 1005 52 10000 6.7 200 13:45 22.03.2020
6216 Clouds 30 1005 52 10000 6.7 200 13:21 22.03.2020
6217 Clouds 30 1006 48 10000 5.1 210 12:59 22.03.2020
6218 Clouds 30 1006 48 10000 5.1 210 12:41 22.03.2020
6219 Clouds 30 1006 48 10000 5.1 210 12:19 22.03.2020
6220 Rain 30 1006 48 10000 7.2 180 11:44 22.03.2020
6221 Rain 30 1006 48 10000 7.2 180 11:25 22.03.2020
6222 Rain 29 1007 51 10000 7.2 180 10:58 22.03.2020
6223 Rain 29 1007 51 10000 7.2 180 10:40 22.03.2020
6224 Rain 29 1007 51 10000 7.2 180 10:22 22.03.2020
6225 Rain 27 1008 65 10000 6.7 150 09:47 22.03.2020
6226 Rain 26 1008 65 10000 6.7 150 09:28 22.03.2020
6227 Rain 26 1009 61 10000 6.2 150 08:51 22.03.2020
6228 Rain 26 1009 61 10000 6.2 150 08:33 22.03.2020
6229 Rain 26 1009 61 10000 6.2 150 08:33 22.03.2020
6230 Thunderstorm 25 1011 74 5000 7.7 150 07:59 22.03.2020
6231 Thunderstorm 25 1011 74 5000 7.7 150 07:41 22.03.2020
6232 Rain 23 1010 78 10000 6.2 140 06:48 22.03.2020
6233 Rain 23 1011 73 10000 6.2 150 05:52 22.03.2020
6234 Rain 22 1007 78 10000 4.6 90 04:39 22.03.2020
6235 Rain 21 1006 78 10000 4.1 100 01:49 22.03.2020
6236 Rain 22 1007 88 10000 4.6 80 00:51 22.03.2020
6237 Rain 22 1007 88 10000 4.6 80 00:32 22.03.2020
6238 Clouds 21 1007 88 10000 5.1 80 23:46 21.03.2020
6239 Thunderstorm 21 1008 83 10000 5.1 90 23:23 21.03.2020
6240 Thunderstorm 22 1008 88 8000 7.2 90 22:59 21.03.2020
6241 Thunderstorm 22 1008 88 8000 7.2 90 22:38 21.03.2020
6242 Thunderstorm 22 1007 78 4000 8.2 80 22:20 21.03.2020
6243 Thunderstorm 22 1008 69 10000 4.1 20 21:58 21.03.2020
6244 Thunderstorm 22 1008 69 10000 4.1 20 21:38 21.03.2020
6245 Thunderstorm 22 1007 69 10000 7.2 100 21:19 21.03.2020
6246 Rain 22 1007 78 10000 10.8 120 20:42 21.03.2020
6247 Rain 23 1007 78 10000 10.8 120 20:22 21.03.2020
6248 Clouds 22 1008 78 10000 7.2 140 19:55 21.03.2020
6249 Clouds 22 1008 78 10000 7.2 140 19:36 21.03.2020
6250 Clouds 22 1008 78 10000 7.2 140 19:18 21.03.2020
6251 Thunderstorm 22 1008 83 10000 10.3 90 18:41 21.03.2020
6252 Thunderstorm 22 1008 83 10000 10.3 90 18:21 21.03.2020
6253 Thunderstorm 24 1008 83 8000 10.8 90 17:59 21.03.2020
6254 Thunderstorm 24 1008 65 10000 6.2 60 17:41 21.03.2020
6255 Thunderstorm 25 1008 65 10000 6.2 60 17:22 21.03.2020
6256 Clouds 24 1007 69 10000 5.7 50 16:42 21.03.2020
6257 Rain 25 1007 65 10000 6.2 60 16:23 21.03.2020
6258 Rain 24 1008 57 10000 6.2 60 15:59 21.03.2020
6259 Rain 25 1008 57 10000 6.2 60 15:40 21.03.2020
6260 Rain 25 1008 57 10000 6.2 60 15:21 21.03.2020
6261 Rain 26 1007 61 10000 6.7 60 14:56 21.03.2020
6262 Rain 26 1007 61 10000 6.7 60 14:38 21.03.2020
6263 Rain 26 1007 61 10000 6.7 60 14:19 21.03.2020
6264 Rain 26 1008 57 10000 8.2 60 13:57 21.03.2020
6265 Rain 26 1008 57 10000 8.2 60 13:39 21.03.2020
6266 Rain 26 1008 57 10000 8.2 60 13:20 21.03.2020
6267 Rain 27 1008 51 10000 5.7 70 12:54 21.03.2020
6268 Rain 26 1008 51 10000 5.7 70 12:36 21.03.2020
6269 Rain 26 1008 51 10000 5.7 70 12:18 21.03.2020
6270 Rain 25 1009 69 10000 3.1 40 11:54 21.03.2020
6271 Rain 25 1009 69 10000 3.1 40 11:36 21.03.2020
6272 Rain 24 1009 78 10000 2.6 0 11:18 21.03.2020
6273 Rain 24 1009 78 10000 2.6 0 10:55 21.03.2020
6274 Thunderstorm 24 1009 88 10000 3.1 90 10:37 21.03.2020
6275 Thunderstorm 24 1009 88 10000 3.1 90 10:18 21.03.2020
6276 Thunderstorm 24 1010 78 6000 3.1 140 09:39 21.03.2020
6277 Rain 25 1009 73 10000 6.7 130 09:21 21.03.2020
6278 Rain 23 1010 73 10000 5.7 150 08:56 21.03.2020
6279 Rain 24 1010 73 10000 5.7 150 08:38 21.03.2020
6280 Rain 24 1010 73 10000 5.7 150 08:19 21.03.2020
6281 Rain 23 1012 83 10000 4.6 170 07:39 21.03.2020
6282 Rain 23 1012 83 10000 4.6 170 07:20 21.03.2020
6283 Rain 25 1013 69 10000 4.6 240 06:44 21.03.2020
6284 Rain 25 1013 69 10000 4.6 240 06:25 21.03.2020
6285 Rain 24 1010 69 10000 5.1 270 05:40 21.03.2020
6286 Rain 24 1008 65 10000 2.1 200 04:26 21.03.2020
6287 Rain 25 1008 57 10000 4.1 170 02:37 21.03.2020
6288 Rain 26 1007 51 10000 6.2 150 01:45 21.03.2020
6289 Rain 25 1007 51 10000 6.2 150 01:25 21.03.2020
6290 Rain 26 1009 57 10000 0.5 0 00:39 21.03.2020
6291 Rain 26 1009 57 10000 0.5 0 00:21 21.03.2020
6292 Clouds 26 1009 61 10000 1.5 200 23:43 20.03.2020
6293 Clouds 26 1009 61 10000 1.5 200 23:22 20.03.2020
6294 Rain 26 1010 57 10000 3.1 210 22:44 20.03.2020
6295 Rain 26 1010 57 10000 3.1 210 22:25 20.03.2020
6296 Rain 28 1010 45 10000 3.6 360 21:58 20.03.2020
6297 Rain 28 1010 45 10000 3.6 360 21:40 20.03.2020
6298 Rain 27 1010 45 10000 3.6 360 21:20 20.03.2020
6299 Clouds 27 1009 48 10000 3.6 10 20:59 20.03.2020
6300 Clouds 27 1009 48 10000 3.6 10 20:41 20.03.2020
6301 Clouds 27 1009 48 10000 3.6 10 20:20 20.03.2020
6302 Clouds 27 1009 48 10000 2.6 100 19:48 20.03.2020
6303 Clouds 27 1009 48 10000 2.6 100 19:21 20.03.2020
6304 Clouds 27 1009 51 10000 3.1 80 18:58 20.03.2020
6305 Clouds 27 1009 51 10000 3.1 80 18:38 20.03.2020
6306 Clouds 27 1009 51 10000 3.1 80 18:20 20.03.2020
6307 Clouds 27 1009 51 10000 3.1 80 18:20 20.03.2020
6308 Clouds 28 1008 48 10000 2.6 30 17:56 20.03.2020
6309 Clouds 28 1008 48 10000 2.6 30 17:37 20.03.2020
6310 Clouds 28 1008 48 10000 2.6 30 17:19 20.03.2020
6311 Clouds 28 1008 48 10000 3.1 50 16:42 20.03.2020
6312 Clouds 29 1008 48 10000 3.1 50 16:21 20.03.2020
6313 Clouds 29 1008 40 10000 3.6 10 15:55 20.03.2020
6314 Clouds 29 1008 40 10000 3.6 10 15:37 20.03.2020
6315 Clouds 29 1008 40 10000 3.6 10 15:37 20.03.2020
6316 Clouds 29 1008 40 10000 3.6 10 15:18 20.03.2020
6317 Clouds 30 1008 42 10000 6.7 340 14:42 20.03.2020
6318 Clouds 30 1008 42 10000 6.7 340 14:21 20.03.2020
6319 Clouds 30 1008 42 10000 6.7 340 13:49 20.03.2020
6320 Clouds 30 1008 42 10000 6.7 340 13:49 20.03.2020
6321 Clouds 30 1008 42 10000 6.7 340 13:25 20.03.2020
6322 Clouds 30 1009 40 10000 7.2 330 12:58 20.03.2020
6323 Clouds 30 1009 40 10000 7.2 330 12:38 20.03.2020
6324 Clouds 30 1009 40 10000 7.2 330 12:20 20.03.2020
6325 Clouds 31 1009 40 10000 6.2 310 11:39 20.03.2020
6326 Clouds 31 1009 40 10000 6.2 310 11:21 20.03.2020
6327 Clouds 31 1010 51 10000 6.2 340 10:56 20.03.2020
6328 Clouds 31 1010 51 10000 6.2 340 10:38 20.03.2020
6329 Clouds 31 1010 51 10000 6.2 340 10:18 20.03.2020
6330 Clouds 31 1010 51 10000 6.2 340 10:18 20.03.2020
6331 Clouds 31 1010 48 10000 5.1 350 09:46 20.03.2020
6332 Clouds 32 1011 35 10000 3.6 260 09:21 20.03.2020
6333 Clouds 31 1012 38 10000 4.1 210 08:58 20.03.2020
6334 Clouds 31 1012 38 10000 4.1 210 08:39 20.03.2020
6335 Clear 31 1012 38 10000 4.1 210 08:19 20.03.2020
6336 Clear 30 1012 37 10000 4.1 210 07:41 20.03.2020
6337 Clear 29 1012 37 10000 4.1 210 07:23 20.03.2020
6338 Clear 28 1012 45 10000 2.1 0 06:42 20.03.2020
6339 Clear 28 1012 45 10000 2.1 0 06:42 20.03.2020
6340 Clear 28 1012 45 10000 2.1 0 06:22 20.03.2020
6341 Clear 23 1010 61 10000 1.5 10 04:39 20.03.2020
6342 Clear 24 1009 50 10000 1 190 02:51 20.03.2020
6343 Clear 24 1009 47 10000 1.5 180 01:50 20.03.2020
6344 Clear 24 1009 50 10000 1.37 293 00:45 20.03.2020
6345 Clear 24 1009 50 10000 1.37 293 00:24 20.03.2020
6346 Clear 25 1010 47 10000 2.1 180 23:42 19.03.2020
6347 Clear 25 1010 47 10000 2.1 180 23:23 19.03.2020
6348 Rain 25 1010 47 10000 2.1 190 22:54 19.03.2020
6349 Rain 25 1010 47 10000 2.1 190 22:36 19.03.2020
6350 Rain 25 1010 47 10000 2.1 190 22:18 19.03.2020
6351 Rain 25 1010 51 10000 2.6 150 21:39 19.03.2020
6352 Rain 25 1010 51 10000 2.6 150 21:20 19.03.2020
6353 Rain 26 1010 54 10000 3.6 130 20:54 19.03.2020
6354 Rain 26 1010 54 10000 3.6 130 20:36 19.03.2020
6355 Clouds 26 1010 54 10000 3.6 130 20:18 19.03.2020
6356 Clouds 26 1010 54 10000 3.1 100 19:39 19.03.2020
6357 Clouds 26 1010 54 10000 3.1 100 19:21 19.03.2020
6358 Clouds 27 1010 57 10000 3.1 60 18:59 19.03.2020
6359 Clouds 27 1010 57 10000 3.1 60 18:41 19.03.2020
6360 Clouds 27 1010 57 10000 3.1 60 18:22 19.03.2020
6361 Clouds 27 1010 57 10000 3.1 40 17:55 19.03.2020
6362 Clouds 27 1010 57 10000 3.6 30 17:37 19.03.2020
6363 Clouds 29 1009 45 10000 5.1 330 17:18 19.03.2020
6364 Clouds 29 1009 45 10000 5.1 330 16:42 19.03.2020
6365 Clouds 29 1009 45 10000 5.1 330 16:21 19.03.2020
6366 Clouds 30 1008 40 10000 5.7 340 15:44 19.03.2020
6367 Clouds 30 1008 40 10000 5.7 340 15:24 19.03.2020
6368 Clouds 31 1008 35 10000 6.2 350 14:54 19.03.2020
6369 Clouds 31 1008 35 10000 6.2 350 14:36 19.03.2020
6370 Clouds 32 1008 35 10000 6.2 350 14:18 19.03.2020
6371 Clouds 32 1008 31 10000 7.2 330 13:38 19.03.2020
6372 Clouds 32 1008 31 10000 7.2 330 13:18 19.03.2020
6373 Clouds 33 1009 30 10000 5.1 290 12:42 19.03.2020
6374 Clouds 33 1009 30 10000 5.1 290 12:24 19.03.2020
6375 Clouds 33 1009 30 10000 5.1 290 11:58 19.03.2020
6376 Clouds 33 1010 31 10000 3.6 240 11:40 19.03.2020
6377 Clouds 33 1010 31 10000 3.6 240 11:22 19.03.2020
6378 Clouds 32 1010 33 10000 4.1 240 10:43 19.03.2020
6379 Clouds 31 1010 33 10000 4.1 240 10:22 19.03.2020
6380 Clouds 31 1011 35 10000 4.1 170 09:58 19.03.2020
6381 Clouds 31 1011 35 10000 4.1 170 09:39 19.03.2020
6382 Clouds 30 1011 35 10000 4.1 170 09:19 19.03.2020
6383 Clouds 29 1012 37 10000 5.1 190 08:46 19.03.2020
6384 Clouds 29 1012 37 10000 5.1 190 08:22 19.03.2020
6385 Clouds 28 1013 48 10000 4.1 200 07:47 19.03.2020
6386 Clouds 28 1013 48 10000 4.1 200 07:29 19.03.2020
6387 Clouds 27 1013 47 10000 4.6 180 06:51 19.03.2020
6388 Clouds 26 1013 42 10000 4.6 190 05:53 19.03.2020
6389 Clouds 26 1013 42 10000 4.6 190 05:22 19.03.2020
6390 Clear 25 1013 44 10000 2.1 210 04:41 19.03.2020
6391 Clear 25 1012 54 10000 2.1 190 03:36 19.03.2020
6392 Clouds 25 1010 54 10000 4.1 70 01:27 19.03.2020
6393 Clouds 25 1010 57 10000 2.1 80 00:37 19.03.2020
6394 Clouds 24 1010 53 10000 4.6 130 23:58 18.03.2020
6395 Clouds 24 1010 53 10000 4.6 130 23:36 18.03.2020
6396 Clouds 25 1010 53 10000 4.6 130 23:18 18.03.2020
6397 Clouds 25 1011 47 10000 4.1 90 22:42 18.03.2020
6398 Clouds 25 1011 47 10000 4.1 90 22:22 18.03.2020
6399 Clouds 26 1011 44 10000 5.7 70 21:54 18.03.2020
6400 Clouds 26 1011 44 10000 5.7 70 21:36 18.03.2020
6401 Clouds 26 1011 44 10000 5.7 70 21:18 18.03.2020
6402 Clouds 26 1012 42 10000 3.6 60 20:41 18.03.2020
6403 Clouds 26 1012 42 10000 3.6 60 20:21 18.03.2020
6404 Clear 26 1012 34 10000 3.6 60 19:59 18.03.2020
6405 Clear 26 1012 34 10000 3.6 60 19:40 18.03.2020
6406 Clear 26 1012 34 10000 3.6 60 19:21 18.03.2020
6407 Clear 26 1012 34 10000 3.6 60 19:21 18.03.2020
6408 Clear 26 1012 34 10000 4.6 60 18:55 18.03.2020
6409 Clear 27 1012 34 10000 4.6 60 18:36 18.03.2020
6410 Clear 27 1012 34 10000 4.6 60 18:18 18.03.2020
6411 Clear 27 1012 37 10000 5.7 50 17:41 18.03.2020
6412 Clear 27 1012 37 10000 5.7 50 17:22 18.03.2020
6413 Clear 28 1012 45 10000 5.7 40 16:59 18.03.2020
6414 Clear 28 1012 45 10000 5.7 40 16:40 18.03.2020
6415 Clear 28 1012 48 10000 5.1 30 16:20 18.03.2020
6416 Clear 28 1012 48 10000 5.1 30 15:56 18.03.2020
6417 Clear 28 1012 48 10000 5.1 30 15:37 18.03.2020
6418 Clear 28 1012 48 10000 5.1 30 15:18 18.03.2020
6419 Clear 29 1012 42 10000 5.1 10 14:42 18.03.2020
6420 Clear 29 1012 42 10000 5.1 10 14:21 18.03.2020
6421 Clear 30 1011 37 10000 6.2 20 13:40 18.03.2020
6422 Clear 30 1011 37 10000 6.2 20 13:19 18.03.2020
6423 Clear 30 1011 37 10000 6.2 20 13:19 18.03.2020
6424 Clear 31 1012 40 10000 6.7 350 12:43 18.03.2020
6425 Clear 31 1012 40 10000 6.7 350 12:21 18.03.2020
6426 Clouds 31 1012 38 10000 6.2 350 11:58 18.03.2020
6427 Clouds 31 1012 38 10000 6.2 350 11:37 18.03.2020
6428 Clouds 31 1012 38 10000 6.2 350 11:18 18.03.2020
6429 Clear 31 1013 35 10000 5.7 320 10:55 18.03.2020
6430 Clear 31 1013 35 10000 5.7 320 10:36 18.03.2020
6431 Clear 32 1013 35 10000 5.7 320 10:18 18.03.2020
6432 Clear 31 1014 22 10000 2.1 0 09:41 18.03.2020
6433 Clear 31 1014 22 10000 2.1 0 09:22 18.03.2020
6434 Clear 30 1015 25 10000 2.6 0 08:40 18.03.2020
6435 Clear 30 1015 25 10000 2.6 0 08:22 18.03.2020
6436 Clear 28 1015 37 10000 2.6 90 07:59 18.03.2020
6437 Clear 28 1015 37 10000 2.6 90 07:37 18.03.2020
6438 Clear 27 1015 37 10000 2.6 90 07:19 18.03.2020
6439 Clear 26 1015 31 10000 4.6 120 06:39 18.03.2020
6440 Clear 24 1015 44 10000 2.1 170 05:37 18.03.2020
6441 Clear 22 1014 60 10000 1 0 04:58 18.03.2020
6442 Clear 22 1013 53 10000 5.1 170 03:21 18.03.2020
6443 Clear 22 1013 53 10000 5.1 170 02:37 18.03.2020
6444 Clear 22 1012 60 10000 2.6 80 01:43 18.03.2020
6445 Clear 22 1013 57 10000 1.5 70 00:45 18.03.2020
6446 Clear 22 1013 57 10000 1.5 70 00:21 18.03.2020
6447 Clear 23 1013 53 10000 1.5 90 23:42 17.03.2020
6448 Clear 23 1013 57 10000 1.5 100 23:21 17.03.2020
6449 Clear 23 1013 57 10000 1.5 100 22:46 17.03.2020
6450 Clear 23 1013 57 10000 1.5 100 22:28 17.03.2020
6451 Clear 24 1014 57 10000 2.1 90 21:46 17.03.2020
6452 Clear 24 1014 57 10000 2.1 90 21:25 17.03.2020
6453 Clear 24 1014 57 10000 1.5 90 20:58 17.03.2020
6454 Clear 24 1014 57 10000 1.5 90 20:38 17.03.2020
6455 Clear 24 1014 57 10000 1.5 90 20:19 17.03.2020
6456 Clear 24 1014 61 10000 2.6 50 19:42 17.03.2020
6457 Clear 24 1014 61 10000 2.6 50 19:20 17.03.2020
6458 Clear 25 1014 57 10000 3.6 70 18:57 17.03.2020
6459 Clear 25 1014 57 10000 3.6 70 18:39 17.03.2020
6460 Clear 25 1014 57 10000 3.6 40 18:21 17.03.2020
6461 Clear 25 1014 57 10000 3.6 40 17:56 17.03.2020
6462 Clear 25 1014 57 10000 3.6 40 17:38 17.03.2020
6463 Clear 26 1014 57 10000 3.6 40 17:18 17.03.2020
6464 Clear 26 1014 54 10000 3.6 20 16:42 17.03.2020
6465 Clear 26 1014 54 10000 3.6 20 16:19 17.03.2020
6466 Clear 26 1014 54 10000 3.6 20 16:19 17.03.2020
6467 Clear 27 1013 54 10000 4.1 360 15:45 17.03.2020
6468 Clear 27 1013 54 10000 4.1 360 15:22 17.03.2020
6469 Clear 28 1013 51 10000 4.6 10 14:47 17.03.2020
6470 Clear 28 1013 51 10000 4.6 10 14:26 17.03.2020
6471 Clouds 28 1013 51 10000 6.2 350 13:58 17.03.2020
6472 Clouds 28 1013 51 10000 6.2 350 13:40 17.03.2020
6473 Clouds 28 1013 51 10000 6.2 350 13:21 17.03.2020
6474 Clouds 29 1013 51 10000 6.2 350 12:44 17.03.2020
6475 Clouds 29 1013 51 10000 6.2 350 12:24 17.03.2020
6476 Clouds 29 1014 51 10000 6.2 340 11:56 17.03.2020
6477 Clouds 29 1014 51 10000 6.2 340 11:37 17.03.2020
6478 Clouds 30 1014 51 10000 6.2 340 11:19 17.03.2020
6479 Clouds 30 1015 40 10000 3.6 260 10:54 17.03.2020
6480 Clouds 30 1015 40 10000 3.6 260 10:36 17.03.2020
6481 Clouds 30 1015 40 10000 3.6 260 10:18 17.03.2020
6482 Clear 29 1016 45 10000 2.6 250 09:44 17.03.2020
6483 Clear 29 1016 45 10000 2.6 250 09:20 17.03.2020
6484 Clear 28 1016 48 10000 3.1 200 08:51 17.03.2020
6485 Clear 28 1016 48 10000 3.1 200 08:24 17.03.2020
6486 Clear 26 1017 54 10000 4.6 180 07:58 17.03.2020
6487 Clear 26 1017 54 10000 4.6 180 07:39 17.03.2020
6488 Clear 26 1017 54 10000 4.6 180 07:19 17.03.2020
6489 Clear 24 1017 60 10000 3.6 160 06:40 17.03.2020
6490 Clear 24 1017 60 10000 3.6 160 06:19 17.03.2020
6491 Clear 20 1015 68 10000 1.5 80 04:40 17.03.2020
6492 Clear 20 1015 68 10000 2.1 100 03:19 17.03.2020
6493 Clear 20 1013 68 10000 2.6 90 01:49 17.03.2020
6494 Clear 20 1013 68 10000 2.6 90 01:28 17.03.2020
6495 Clear 20 1013 68 10000 3.1 90 00:48 17.03.2020
6496 Clear 21 1013 64 10000 3.6 80 23:51 16.03.2020
6497 Clear 21 1013 64 10000 3.6 80 23:32 16.03.2020
6498 Clear 21 1014 64 10000 3.6 90 22:45 16.03.2020
6499 Clear 21 1014 64 10000 3.6 90 22:26 16.03.2020
6500 Clear 22 1014 60 10000 3.6 90 21:59 16.03.2020
6501 Clear 22 1014 60 10000 3.6 90 21:41 16.03.2020
6502 Clear 22 1014 60 10000 3.6 90 21:22 16.03.2020
6503 Clear 22 1015 64 10000 3.6 70 20:57 16.03.2020
6504 Clear 22 1015 64 10000 3.6 70 20:38 16.03.2020
6505 Clear 22 1015 64 10000 3.6 70 20:19 16.03.2020
6506 Clear 22 1015 64 10000 3.6 70 20:19 16.03.2020
6507 Clear 24 1015 57 10000 4.1 70 19:42 16.03.2020
6508 Clear 24 1015 57 10000 4.1 70 19:22 16.03.2020
6509 Clear 24 1015 57 10000 4.6 40 18:56 16.03.2020
6510 Clear 24 1015 57 10000 4.6 40 18:37 16.03.2020
6511 Clear 24 1015 57 10000 4.6 40 18:18 16.03.2020
6512 Clear 24 1014 61 10000 3.6 30 17:42 16.03.2020
6513 Clear 24 1014 61 10000 3.6 30 17:22 16.03.2020
6514 Clear 25 1014 61 10000 5.1 20 16:46 16.03.2020
6515 Clear 25 1014 61 10000 5.1 20 16:28 16.03.2020
6516 Clear 26 1013 54 10000 5.7 30 15:56 16.03.2020
6517 Clear 26 1013 54 10000 5.7 30 15:37 16.03.2020
6518 Clear 26 1013 54 10000 5.7 30 15:18 16.03.2020
6519 Clear 26 1013 50 10000 6.2 10 14:42 16.03.2020
6520 Clear 27 1013 50 10000 6.2 10 14:19 16.03.2020
6521 Clear 28 1013 48 10000 6.2 30 13:42 16.03.2020
6522 Clear 28 1013 48 10000 6.2 30 13:23 16.03.2020
6523 Clear 28 1013 45 10000 5.7 340 12:46 16.03.2020
6524 Clear 28 1013 45 10000 5.7 340 12:26 16.03.2020
6525 Clear 28 1014 42 10000 7.7 340 11:58 16.03.2020
6526 Clear 28 1014 42 10000 7.7 340 11:39 16.03.2020
6527 Clouds 28 1014 42 10000 7.7 340 11:18 16.03.2020
6528 Clouds 29 1014 35 10000 2.1 50 10:41 16.03.2020
6529 Clouds 29 1014 35 10000 2.1 50 10:19 16.03.2020
6530 Clouds 28 1015 37 10000 1.5 0 09:44 16.03.2020
6531 Clouds 28 1015 37 10000 1.5 0 09:24 16.03.2020
6532 Clouds 27 1016 39 10000 4.6 170 08:54 16.03.2020
6533 Clouds 27 1016 39 10000 4.6 170 08:25 16.03.2020
6534 Clear 26 1016 39 10000 3.6 180 07:50 16.03.2020
6535 Clear 26 1016 39 10000 3.6 180 07:27 16.03.2020
6536 Clear 24 1016 41 10000 5.1 180 06:54 16.03.2020
6537 Clear 24 1016 41 10000 5.1 180 06:25 16.03.2020
6538 Clear 22 1015 47 10000 3.6 160 05:42 16.03.2020
6539 Clear 21 1013 53 10000 1.5 0 02:44 16.03.2020
6540 Clear 22 1012 64 10000 3.1 150 01:20 16.03.2020
6541 Clear 21 1012 49 10000 3.1 90 00:39 16.03.2020
6542 Clear 21 1012 49 10000 3.1 90 00:39 16.03.2020
6543 Clear 21 1012 46 10000 2.1 80 23:47 15.03.2020
6544 Clear 21 1012 46 10000 2.1 80 23:20 15.03.2020
6545 Clear 22 1012 41 10000 2.6 110 22:43 15.03.2020
6546 Clear 22 1012 41 10000 2.6 110 22:23 15.03.2020
6547 Clear 23 1013 33 10000 2.6 100 21:58 15.03.2020
6548 Clear 23 1013 33 10000 2.6 100 21:38 15.03.2020
6549 Clear 23 1013 33 10000 2.6 100 21:18 15.03.2020
6550 Clear 24 1013 29 10000 2.1 90 20:42 15.03.2020
6551 Clear 24 1013 29 10000 2.1 90 20:21 15.03.2020
6552 Clear 24 1013 27 10000 3.1 60 19:58 15.03.2020
6553 Clear 24 1013 27 10000 3.1 60 19:39 15.03.2020
6554 Clear 24 1013 27 10000 3.1 60 19:20 15.03.2020
6555 Clear 24 1013 34 10000 4.6 70 18:56 15.03.2020
6556 Clear 24 1013 34 10000 4.6 70 18:37 15.03.2020
6557 Clear 24 1013 34 10000 4.6 70 18:19 15.03.2020
6558 Clear 25 1013 30 10000 3.6 50 17:41 15.03.2020
6559 Clear 26 1013 30 10000 3.6 50 17:21 15.03.2020
6560 Clear 27 1012 30 10000 3.6 40 16:58 15.03.2020
6561 Clear 27 1012 30 10000 3.6 40 16:40 15.03.2020
6562 Clear 27 1012 30 10000 3.6 40 16:21 15.03.2020
6563 Clear 28 1011 26 10000 3.6 340 15:48 15.03.2020
6564 Clear 28 1011 26 10000 3.6 340 15:30 15.03.2020
6565 Clear 29 1011 28 10000 5.7 350 14:58 15.03.2020
6566 Clear 29 1011 28 10000 5.7 350 14:38 15.03.2020
6567 Clouds 29 1011 28 10000 5.7 350 14:19 15.03.2020
6568 Clouds 31 1010 12 10000 6.7 330 13:55 15.03.2020
6569 Clouds 31 1010 12 10000 6.7 330 13:55 15.03.2020
6570 Clouds 31 1010 12 10000 6.7 330 13:36 15.03.2020
6571 Clouds 31 1010 12 10000 6.7 330 13:18 15.03.2020
6572 Clouds 31 1010 12 10000 6.7 330 13:18 15.03.2020
6573 Clouds 32 1010 11 10000 5.1 290 12:40 15.03.2020
6574 Clouds 32 1010 11 10000 5.1 290 12:21 15.03.2020
6575 Clouds 31 1011 10 10000 2.1 0 11:43 15.03.2020
6576 Clouds 32 1011 10 10000 2.1 0 11:24 15.03.2020
6577 Clouds 31 1012 10 10000 3.1 260 10:58 15.03.2020
6578 Clouds 31 1012 10 10000 3.1 260 10:39 15.03.2020
6579 Clouds 31 1012 10 10000 3.1 260 10:39 15.03.2020
6580 Clouds 31 1012 10 10000 3.1 260 10:21 15.03.2020
6581 Clouds 30 1013 9 10000 3.6 250 09:44 15.03.2020
6582 Clouds 30 1013 9 10000 3.6 250 09:25 15.03.2020
6583 Clouds 29 1014 21 10000 4.1 220 08:59 15.03.2020
6584 Clouds 29 1014 21 10000 4.1 220 08:40 15.03.2020
6585 Clouds 29 1014 21 10000 4.1 220 08:18 15.03.2020
6586 Clouds 27 1014 24 10000 3.6 200 07:44 15.03.2020
6587 Clouds 27 1014 24 10000 3.6 200 07:18 15.03.2020
6588 Clouds 26 1014 21 10000 4.6 190 06:36 15.03.2020
6589 Clouds 24 1013 20 10000 3.6 180 05:46 15.03.2020
6590 Clouds 23 1013 33 10000 3.1 150 04:50 15.03.2020
6591 Clouds 23 1013 33 10000 3.1 150 04:32 15.03.2020
6592 Clouds 22 1013 44 10000 3.1 170 03:59 15.03.2020
6593 Clouds 23 1012 36 10000 2.6 130 02:49 15.03.2020
6594 Clouds 23 1012 36 10000 2.6 130 02:18 15.03.2020
6595 Clouds 23 1012 44 10000 2.1 70 00:57 15.03.2020
6596 Clouds 23 1012 44 10000 2.1 70 00:38 15.03.2020
6597 Clouds 23 1012 44 10000 2.1 70 00:18 15.03.2020
6598 Clouds 24 1012 41 10000 2.6 80 23:38 14.03.2020
6599 Clouds 23 1012 41 10000 2.6 80 23:19 14.03.2020
6600 Clouds 23 1013 41 10000 4.1 60 22:46 14.03.2020
6601 Clouds 23 1013 41 10000 4.1 60 22:27 14.03.2020
6602 Clouds 24 1013 44 10000 3.6 50 21:57 14.03.2020
6603 Clouds 24 1013 44 10000 3.6 50 21:37 14.03.2020
6604 Clouds 24 1013 44 10000 3.6 50 21:37 14.03.2020
6605 Clouds 24 1013 44 10000 3.6 50 21:19 14.03.2020
6606 Clouds 25 1013 47 10000 4.1 50 20:59 14.03.2020
6607 Clouds 25 1013 47 10000 4.1 50 20:41 14.03.2020
6608 Clouds 25 1013 47 10000 4.1 50 20:20 14.03.2020
6609 Clouds 25 1013 47 10000 4.1 50 19:59 14.03.2020
6610 Clouds 25 1013 47 10000 4.1 50 19:40 14.03.2020
6611 Clouds 25 1013 47 10000 4.1 50 19:20 14.03.2020
6612 Clouds 26 1013 36 10000 2.6 90 18:39 14.03.2020
6613 Clouds 26 1013 36 10000 2.6 90 18:19 14.03.2020
6614 Clouds 27 1013 39 8000 2.1 90 17:41 14.03.2020
6615 Clouds 27 1013 39 8000 2.1 90 17:21 14.03.2020
6616 Clouds 27 1013 34 8000 2.1 40 16:57 14.03.2020
6617 Clouds 27 1013 34 8000 2.1 40 16:38 14.03.2020
6618 Clouds 27 1013 34 8000 2.1 40 16:18 14.03.2020
6619 Clouds 28 1012 34 6000 3.6 30 15:28 14.03.2020
6620 Clouds 29 1012 30 10000 3.1 340 14:59 14.03.2020
6621 Clouds 29 1012 30 10000 3.1 340 14:38 14.03.2020
6622 Clouds 29 1012 30 10000 3.1 340 14:20 14.03.2020
6623 Clouds 30 1012 16 10000 1.5 220 13:56 14.03.2020
6624 Clouds 30 1012 16 10000 1.5 220 13:38 14.03.2020
6625 Clouds 30 1012 16 10000 1.5 220 13:18 14.03.2020
6626 Clouds 31 1013 15 10000 1.5 230 12:43 14.03.2020
6627 Clouds 31 1013 15 10000 1.5 230 12:43 14.03.2020
6628 Clouds 31 1013 15 10000 1.5 230 12:24 14.03.2020
6629 Clouds 31 1014 18 10000 2.1 200 11:44 14.03.2020
6630 Clouds 31 1014 18 10000 2.1 200 11:25 14.03.2020
6631 Clouds 31 1015 15 10000 4.6 200 10:48 14.03.2020
6632 Clouds 30 1015 15 10000 4.6 200 10:28 14.03.2020
6633 Clouds 30 1016 19 10000 4.6 190 09:59 14.03.2020
6634 Clouds 30 1016 19 10000 4.6 190 09:40 14.03.2020
6635 Clouds 29 1016 19 10000 4.6 190 09:21 14.03.2020
6636 Clouds 29 1017 21 7000 4.6 180 08:46 14.03.2020
6637 Clouds 29 1017 21 7000 4.6 180 08:27 14.03.2020
6638 Clouds 27 1017 28 10000 4.6 190 07:45 14.03.2020
6639 Clouds 26 1017 28 10000 4.6 190 07:22 14.03.2020
6640 Clouds 25 1017 29 10000 2.6 170 06:55 14.03.2020
6641 Clouds 24 1017 29 10000 2.6 170 06:36 14.03.2020
6642 Clouds 20 1016 49 10000 4.1 160 04:56 14.03.2020
6643 Clouds 19 1015 40 10000 2.1 110 03:37 14.03.2020
6644 Clouds 19 1015 43 10000 2.1 0 02:53 14.03.2020
6645 Clouds 20 1015 31 10000 1.5 0 01:47 14.03.2020
6646 Clouds 21 1015 31 10000 1.5 0 00:34 14.03.2020
6647 Clouds 20 1016 33 10000 1.5 360 23:42 13.03.2020
6648 Clouds 20 1016 33 10000 1.5 360 23:23 13.03.2020
6649 Clouds 21 1016 33 10000 1.5 20 22:45 13.03.2020
6650 Clouds 21 1016 33 10000 1.5 20 22:22 13.03.2020
6651 Clouds 21 1016 31 10000 2.6 70 21:41 13.03.2020
6652 Clouds 21 1016 31 10000 2.6 70 21:19 13.03.2020
6653 Clouds 22 1016 33 10000 2.6 70 20:43 13.03.2020
6654 Clouds 22 1016 33 10000 2.6 70 20:23 13.03.2020
6655 Clouds 22 1016 31 10000 3.1 70 19:59 13.03.2020
6656 Clouds 22 1016 31 10000 3.1 70 19:40 13.03.2020
6657 Clouds 22 1016 31 10000 3.1 70 19:22 13.03.2020
6658 Clouds 23 1016 47 10000 2.1 60 18:44 13.03.2020
6659 Clouds 23 1016 47 10000 2.1 60 18:23 13.03.2020
6660 Clouds 24 1016 47 10000 3.1 50 17:43 13.03.2020
6661 Clouds 24 1016 47 10000 3.1 50 17:21 13.03.2020
6662 Clouds 25 1015 39 10000 4.6 50 16:59 13.03.2020
6663 Clouds 25 1015 39 10000 4.6 50 16:39 13.03.2020
6664 Clouds 25 1015 39 10000 4.6 50 16:20 13.03.2020
6665 Clouds 27 1015 26 10000 4.6 30 15:46 13.03.2020
6666 Clouds 27 1015 26 10000 4.6 30 15:23 13.03.2020
6667 Clouds 28 1015 23 10000 4.1 350 14:59 13.03.2020
6668 Clouds 28 1015 23 10000 4.1 350 14:40 13.03.2020
6669 Clouds 28 1015 23 10000 4.1 350 14:21 13.03.2020
6670 Clouds 29 1015 26 10000 5.7 330 13:55 13.03.2020
6671 Clouds 29 1015 26 10000 5.7 330 13:36 13.03.2020
6672 Clouds 29 1015 26 10000 5.7 330 13:18 13.03.2020
6673 Clouds 30 1015 28 10000 5.7 340 12:39 13.03.2020
6674 Clouds 30 1015 28 10000 5.7 340 12:39 13.03.2020
6675 Clouds 30 1015 28 10000 5.7 340 12:20 13.03.2020
6676 Clouds 30 1016 33 10000 6.2 330 11:57 13.03.2020
6677 Clouds 30 1016 33 10000 6.2 330 11:37 13.03.2020
6678 Clear 30 1017 15 10000 3.6 320 11:19 13.03.2020
6679 Clear 30 1017 15 10000 3.6 320 10:47 13.03.2020
6680 Clear 30 1017 15 10000 3.6 320 10:26 13.03.2020
6681 Clear 30 1018 9 10000 3.1 50 09:56 13.03.2020
6682 Clear 30 1018 9 10000 3.1 50 09:38 13.03.2020
6683 Clear 30 1018 9 10000 3.1 50 09:18 13.03.2020
6684 Clear 27 1018 18 10000 2.6 40 08:41 13.03.2020
6685 Clear 27 1018 18 10000 2.6 40 08:22 13.03.2020
6686 Clouds 25 1018 24 10000 2.6 90 07:45 13.03.2020
6687 Clouds 24 1018 24 10000 2.6 90 07:27 13.03.2020
6688 Clouds 20 1018 56 10000 2.1 100 06:46 13.03.2020
6689 Clouds 19 1018 56 10000 2.1 100 06:23 13.03.2020
6690 Haze 16 1017 77 5000 2.1 110 05:46 13.03.2020
6691 Haze 14 1017 88 4500 1.5 60 04:57 13.03.2020
6692 Haze 14 1017 88 4500 1.5 60 04:26 13.03.2020
6693 Clouds 16 1016 82 6000 2.6 110 02:58 13.03.2020
6694 Clouds 17 1015 77 6000 2.1 110 01:39 13.03.2020
6695 Clouds 17 1015 77 6000 2.1 110 01:18 13.03.2020
6696 Clouds 17 1015 77 8000 2.1 100 00:42 13.03.2020
6697 Clouds 17 1015 77 8000</